<?xml version="1.0" encoding="UTF-8" standalone="no" ?>
<gpx xmlns="http://www.topografix.com/GPX/1/1" xmlns:xsi="http://www.w3.org/2001/XMLSchema-instance" xsi:schemaLocation="http://www.topografix.com/GPX/1/1 http://www.topografix.com/GPX/1/1/gpx.xsd" version="1.1" creator="VisuGPX - https://www.visugpx.com">
  <metadata>
    <name>Partir côté des Bréviaires</name>
    <desc><![CDATA[Nous sommes lundi... jour des chasseurs... nous avons trouvé vers quel côté aller. Après un test de 3h00, ce coup-ci nous sommes parties 4h35.
Des plaines, de la forêt, de la route à longer , un peu de bitume (qu\'on peut éviter mais ce n\'est pas conseillé en hivers^^)]]></desc>
  </metadata>
  <trk>
    <name><![CDATA[Untitled]]></name>
    <trkseg>
      <trkpt lat="48.70693" lon="1.755">
        <ele>172.39999389648</ele>
        <time>2012-01-23T09:33:24.000Z</time>
      </trkpt>
      <trkpt lat="48.70692" lon="1.75504">
        <ele>172.39999389648</ele>
        <time>2012-01-23T09:33:26.000Z</time>
      </trkpt>
      <trkpt lat="48.70694" lon="1.75512">
        <ele>172.60000610352</ele>
        <time>2012-01-23T09:33:31.000Z</time>
      </trkpt>
      <trkpt lat="48.70689" lon="1.75523">
        <ele>173</ele>
        <time>2012-01-23T09:33:38.000Z</time>
      </trkpt>
      <trkpt lat="48.70684" lon="1.75537">
        <ele>173.39999389648</ele>
        <time>2012-01-23T09:33:46.000Z</time>
      </trkpt>
      <trkpt lat="48.7068" lon="1.75547">
        <ele>173.80000305176</ele>
        <time>2012-01-23T09:33:52.000Z</time>
      </trkpt>
      <trkpt lat="48.70676" lon="1.75555">
        <ele>174</ele>
        <time>2012-01-23T09:33:57.000Z</time>
      </trkpt>
      <trkpt lat="48.70674" lon="1.7556">
        <ele>174.19999694824</ele>
        <time>2012-01-23T09:34:01.000Z</time>
      </trkpt>
      <trkpt lat="48.70667" lon="1.75574">
        <ele>174.80000305176</ele>
        <time>2012-01-23T09:34:11.000Z</time>
      </trkpt>
      <trkpt lat="48.70663" lon="1.75581">
        <ele>175.39999389648</ele>
        <time>2012-01-23T09:34:16.000Z</time>
      </trkpt>
      <trkpt lat="48.70657" lon="1.75594">
        <ele>176</ele>
        <time>2012-01-23T09:34:24.000Z</time>
      </trkpt>
      <trkpt lat="48.70657" lon="1.75595">
        <ele>176</ele>
        <time>2012-01-23T09:34:25.000Z</time>
      </trkpt>
      <trkpt lat="48.70654" lon="1.75595">
        <ele>176.19999694824</ele>
        <time>2012-01-23T09:34:31.000Z</time>
      </trkpt>
      <trkpt lat="48.7065" lon="1.75609">
        <ele>176.80000305176</ele>
        <time>2012-01-23T09:34:42.000Z</time>
      </trkpt>
      <trkpt lat="48.70648" lon="1.75618">
        <ele>177</ele>
        <time>2012-01-23T09:34:46.000Z</time>
      </trkpt>
      <trkpt lat="48.70646" lon="1.75622">
        <ele>177.19999694824</ele>
        <time>2012-01-23T09:34:49.000Z</time>
      </trkpt>
      <trkpt lat="48.70643" lon="1.75635">
        <ele>177.60000610352</ele>
        <time>2012-01-23T09:34:57.000Z</time>
      </trkpt>
      <trkpt lat="48.70642" lon="1.75639">
        <ele>177.80000305176</ele>
        <time>2012-01-23T09:35:00.000Z</time>
      </trkpt>
      <trkpt lat="48.70642" lon="1.75651">
        <ele>177.80000305176</ele>
        <time>2012-01-23T09:35:06.000Z</time>
      </trkpt>
      <trkpt lat="48.70644" lon="1.7566">
        <ele>177.60000610352</ele>
        <time>2012-01-23T09:35:11.000Z</time>
      </trkpt>
      <trkpt lat="48.70646" lon="1.75669">
        <ele>177.39999389648</ele>
        <time>2012-01-23T09:35:16.000Z</time>
      </trkpt>
      <trkpt lat="48.70646" lon="1.75678">
        <ele>177.19999694824</ele>
        <time>2012-01-23T09:35:20.000Z</time>
      </trkpt>
      <trkpt lat="48.70646" lon="1.75685">
        <ele>177</ele>
        <time>2012-01-23T09:35:23.000Z</time>
      </trkpt>
      <trkpt lat="48.70645" lon="1.75693">
        <ele>176.80000305176</ele>
        <time>2012-01-23T09:35:28.000Z</time>
      </trkpt>
      <trkpt lat="48.70642" lon="1.75702">
        <ele>177</ele>
        <time>2012-01-23T09:35:33.000Z</time>
      </trkpt>
      <trkpt lat="48.70638" lon="1.7571">
        <ele>177</ele>
        <time>2012-01-23T09:35:39.000Z</time>
      </trkpt>
      <trkpt lat="48.7063" lon="1.75721">
        <ele>177.19999694824</ele>
        <time>2012-01-23T09:35:48.000Z</time>
      </trkpt>
      <trkpt lat="48.70623" lon="1.75734">
        <ele>177.39999389648</ele>
        <time>2012-01-23T09:35:57.000Z</time>
      </trkpt>
      <trkpt lat="48.70622" lon="1.75736">
        <ele>177.39999389648</ele>
        <time>2012-01-23T09:35:58.000Z</time>
      </trkpt>
      <trkpt lat="48.70618" lon="1.75745">
        <ele>177.19999694824</ele>
        <time>2012-01-23T09:36:04.000Z</time>
      </trkpt>
      <trkpt lat="48.70617" lon="1.75746">
        <ele>177.19999694824</ele>
        <time>2012-01-23T09:36:05.000Z</time>
      </trkpt>
      <trkpt lat="48.7061" lon="1.75757">
        <ele>177.19999694824</ele>
        <time>2012-01-23T09:36:13.000Z</time>
      </trkpt>
      <trkpt lat="48.70605" lon="1.75766">
        <ele>177.19999694824</ele>
        <time>2012-01-23T09:36:20.000Z</time>
      </trkpt>
      <trkpt lat="48.70599" lon="1.75773">
        <ele>177.19999694824</ele>
        <time>2012-01-23T09:36:27.000Z</time>
      </trkpt>
      <trkpt lat="48.70597" lon="1.75777">
        <ele>177.19999694824</ele>
        <time>2012-01-23T09:36:30.000Z</time>
      </trkpt>
      <trkpt lat="48.7059" lon="1.75791">
        <ele>177.19999694824</ele>
        <time>2012-01-23T09:36:39.000Z</time>
      </trkpt>
      <trkpt lat="48.70586" lon="1.75801">
        <ele>177</ele>
        <time>2012-01-23T09:36:45.000Z</time>
      </trkpt>
      <trkpt lat="48.70581" lon="1.7581">
        <ele>177</ele>
        <time>2012-01-23T09:36:52.000Z</time>
      </trkpt>
      <trkpt lat="48.7058" lon="1.75812">
        <ele>177</ele>
        <time>2012-01-23T09:36:53.000Z</time>
      </trkpt>
      <trkpt lat="48.70577" lon="1.75818">
        <ele>177.19999694824</ele>
        <time>2012-01-23T09:36:57.000Z</time>
      </trkpt>
      <trkpt lat="48.70572" lon="1.75828">
        <ele>177.19999694824</ele>
        <time>2012-01-23T09:37:05.000Z</time>
      </trkpt>
      <trkpt lat="48.70571" lon="1.7583">
        <ele>177.19999694824</ele>
        <time>2012-01-23T09:37:06.000Z</time>
      </trkpt>
      <trkpt lat="48.70568" lon="1.7584">
        <ele>177.39999389648</ele>
        <time>2012-01-23T09:37:13.000Z</time>
      </trkpt>
      <trkpt lat="48.70564" lon="1.75848">
        <ele>177.80000305176</ele>
        <time>2012-01-23T09:37:18.000Z</time>
      </trkpt>
      <trkpt lat="48.70561" lon="1.75852">
        <ele>178</ele>
        <time>2012-01-23T09:37:22.000Z</time>
      </trkpt>
      <trkpt lat="48.70559" lon="1.75861">
        <ele>178.19999694824</ele>
        <time>2012-01-23T09:37:27.000Z</time>
      </trkpt>
      <trkpt lat="48.70556" lon="1.75871">
        <ele>178.39999389648</ele>
        <time>2012-01-23T09:37:34.000Z</time>
      </trkpt>
      <trkpt lat="48.70555" lon="1.75874">
        <ele>178.39999389648</ele>
        <time>2012-01-23T09:37:36.000Z</time>
      </trkpt>
      <trkpt lat="48.70553" lon="1.75877">
        <ele>178.39999389648</ele>
        <time>2012-01-23T09:37:39.000Z</time>
      </trkpt>
      <trkpt lat="48.70549" lon="1.75886">
        <ele>178.80000305176</ele>
        <time>2012-01-23T09:37:44.000Z</time>
      </trkpt>
      <trkpt lat="48.70547" lon="1.75889">
        <ele>178.80000305176</ele>
        <time>2012-01-23T09:37:47.000Z</time>
      </trkpt>
      <trkpt lat="48.70545" lon="1.75897">
        <ele>179</ele>
        <time>2012-01-23T09:37:52.000Z</time>
      </trkpt>
      <trkpt lat="48.70541" lon="1.75906">
        <ele>179.19999694824</ele>
        <time>2012-01-23T09:37:57.000Z</time>
      </trkpt>
      <trkpt lat="48.7054" lon="1.75908">
        <ele>179.19999694824</ele>
        <time>2012-01-23T09:37:58.000Z</time>
      </trkpt>
      <trkpt lat="48.70538" lon="1.75911">
        <ele>179.39999389648</ele>
        <time>2012-01-23T09:38:00.000Z</time>
      </trkpt>
      <trkpt lat="48.70534" lon="1.75918">
        <ele>179.60000610352</ele>
        <time>2012-01-23T09:38:06.000Z</time>
      </trkpt>
      <trkpt lat="48.7053" lon="1.75922">
        <ele>179.60000610352</ele>
        <time>2012-01-23T09:38:10.000Z</time>
      </trkpt>
      <trkpt lat="48.70525" lon="1.7593">
        <ele>179.60000610352</ele>
        <time>2012-01-23T09:38:17.000Z</time>
      </trkpt>
      <trkpt lat="48.70522" lon="1.75934">
        <ele>179.60000610352</ele>
        <time>2012-01-23T09:38:20.000Z</time>
      </trkpt>
      <trkpt lat="48.70515" lon="1.75943">
        <ele>179.60000610352</ele>
        <time>2012-01-23T09:38:28.000Z</time>
      </trkpt>
      <trkpt lat="48.70513" lon="1.75946">
        <ele>179.80000305176</ele>
        <time>2012-01-23T09:38:30.000Z</time>
      </trkpt>
      <trkpt lat="48.70508" lon="1.75952">
        <ele>179.80000305176</ele>
        <time>2012-01-23T09:38:36.000Z</time>
      </trkpt>
      <trkpt lat="48.70504" lon="1.7596">
        <ele>179.60000610352</ele>
        <time>2012-01-23T09:38:41.000Z</time>
      </trkpt>
      <trkpt lat="48.70503" lon="1.75961">
        <ele>179.60000610352</ele>
        <time>2012-01-23T09:38:42.000Z</time>
      </trkpt>
      <trkpt lat="48.70501" lon="1.75968">
        <ele>179.39999389648</ele>
        <time>2012-01-23T09:38:46.000Z</time>
      </trkpt>
      <trkpt lat="48.70497" lon="1.75976">
        <ele>179.19999694824</ele>
        <time>2012-01-23T09:38:50.000Z</time>
      </trkpt>
      <trkpt lat="48.70493" lon="1.75985">
        <ele>179</ele>
        <time>2012-01-23T09:38:56.000Z</time>
      </trkpt>
      <trkpt lat="48.70491" lon="1.75989">
        <ele>178.80000305176</ele>
        <time>2012-01-23T09:38:59.000Z</time>
      </trkpt>
      <trkpt lat="48.70487" lon="1.76003">
        <ele>178.19999694824</ele>
        <time>2012-01-23T09:39:07.000Z</time>
      </trkpt>
      <trkpt lat="48.70486" lon="1.76006">
        <ele>178.19999694824</ele>
        <time>2012-01-23T09:39:09.000Z</time>
      </trkpt>
      <trkpt lat="48.70484" lon="1.76015">
        <ele>177.80000305176</ele>
        <time>2012-01-23T09:39:15.000Z</time>
      </trkpt>
      <trkpt lat="48.70483" lon="1.76025">
        <ele>177.19999694824</ele>
        <time>2012-01-23T09:39:20.000Z</time>
      </trkpt>
      <trkpt lat="48.70482" lon="1.76035">
        <ele>176.60000610352</ele>
        <time>2012-01-23T09:39:25.000Z</time>
      </trkpt>
      <trkpt lat="48.7048" lon="1.7604">
        <ele>176.39999389648</ele>
        <time>2012-01-23T09:39:28.000Z</time>
      </trkpt>
      <trkpt lat="48.70479" lon="1.76043">
        <ele>176.39999389648</ele>
        <time>2012-01-23T09:39:31.000Z</time>
      </trkpt>
      <trkpt lat="48.70475" lon="1.76053">
        <ele>175.80000305176</ele>
        <time>2012-01-23T09:39:39.000Z</time>
      </trkpt>
      <trkpt lat="48.70472" lon="1.76062">
        <ele>175.60000610352</ele>
        <time>2012-01-23T09:39:45.000Z</time>
      </trkpt>
      <trkpt lat="48.70468" lon="1.76076">
        <ele>175</ele>
        <time>2012-01-23T09:39:54.000Z</time>
      </trkpt>
      <trkpt lat="48.70465" lon="1.76087">
        <ele>174.60000610352</ele>
        <time>2012-01-23T09:40:01.000Z</time>
      </trkpt>
      <trkpt lat="48.70465" lon="1.76089">
        <ele>174.60000610352</ele>
        <time>2012-01-23T09:40:02.000Z</time>
      </trkpt>
      <trkpt lat="48.70466" lon="1.7609">
        <ele>174.60000610352</ele>
        <time>2012-01-23T09:40:07.000Z</time>
      </trkpt>
      <trkpt lat="48.70457" lon="1.76121">
        <ele>174.60000610352</ele>
        <time>2012-01-23T09:41:03.000Z</time>
      </trkpt>
      <trkpt lat="48.70456" lon="1.76126">
        <ele>174.60000610352</ele>
        <time>2012-01-23T09:41:05.000Z</time>
      </trkpt>
      <trkpt lat="48.70455" lon="1.76135">
        <ele>174.60000610352</ele>
        <time>2012-01-23T09:41:11.000Z</time>
      </trkpt>
      <trkpt lat="48.70455" lon="1.76145">
        <ele>174.39999389648</ele>
        <time>2012-01-23T09:41:16.000Z</time>
      </trkpt>
      <trkpt lat="48.70456" lon="1.76157">
        <ele>174.19999694824</ele>
        <time>2012-01-23T09:41:22.000Z</time>
      </trkpt>
      <trkpt lat="48.70457" lon="1.76167">
        <ele>174</ele>
        <time>2012-01-23T09:41:28.000Z</time>
      </trkpt>
      <trkpt lat="48.70458" lon="1.7618">
        <ele>173.60000610352</ele>
        <time>2012-01-23T09:41:35.000Z</time>
      </trkpt>
      <trkpt lat="48.7046" lon="1.76194">
        <ele>173.19999694824</ele>
        <time>2012-01-23T09:41:42.000Z</time>
      </trkpt>
      <trkpt lat="48.7046" lon="1.76197">
        <ele>173.19999694824</ele>
        <time>2012-01-23T09:41:44.000Z</time>
      </trkpt>
      <trkpt lat="48.7046" lon="1.762">
        <ele>173.19999694824</ele>
        <time>2012-01-23T09:41:46.000Z</time>
      </trkpt>
      <trkpt lat="48.70461" lon="1.76209">
        <ele>172.80000305176</ele>
        <time>2012-01-23T09:41:52.000Z</time>
      </trkpt>
      <trkpt lat="48.70461" lon="1.76215">
        <ele>172.80000305176</ele>
        <time>2012-01-23T09:41:57.000Z</time>
      </trkpt>
      <trkpt lat="48.7046" lon="1.76231">
        <ele>172.39999389648</ele>
        <time>2012-01-23T09:42:07.000Z</time>
      </trkpt>
      <trkpt lat="48.70459" lon="1.76232">
        <ele>172.39999389648</ele>
        <time>2012-01-23T09:42:09.000Z</time>
      </trkpt>
      <trkpt lat="48.70455" lon="1.76258">
        <ele>172.19999694824</ele>
        <time>2012-01-23T09:42:28.000Z</time>
      </trkpt>
      <trkpt lat="48.70451" lon="1.7627">
        <ele>172.39999389648</ele>
        <time>2012-01-23T09:42:34.000Z</time>
      </trkpt>
      <trkpt lat="48.70448" lon="1.76286">
        <ele>172.60000610352</ele>
        <time>2012-01-23T09:42:42.000Z</time>
      </trkpt>
      <trkpt lat="48.70447" lon="1.76304">
        <ele>172.80000305176</ele>
        <time>2012-01-23T09:42:50.000Z</time>
      </trkpt>
      <trkpt lat="48.70446" lon="1.76315">
        <ele>172.80000305176</ele>
        <time>2012-01-23T09:42:56.000Z</time>
      </trkpt>
      <trkpt lat="48.70445" lon="1.76317">
        <ele>173</ele>
        <time>2012-01-23T09:42:57.000Z</time>
      </trkpt>
      <trkpt lat="48.70447" lon="1.76328">
        <ele>173</ele>
        <time>2012-01-23T09:43:04.000Z</time>
      </trkpt>
      <trkpt lat="48.70448" lon="1.76342">
        <ele>173.19999694824</ele>
        <time>2012-01-23T09:43:12.000Z</time>
      </trkpt>
      <trkpt lat="48.70449" lon="1.76348">
        <ele>173.60000610352</ele>
        <time>2012-01-23T09:43:16.000Z</time>
      </trkpt>
      <trkpt lat="48.70449" lon="1.76351">
        <ele>173.60000610352</ele>
        <time>2012-01-23T09:43:18.000Z</time>
      </trkpt>
      <trkpt lat="48.70449" lon="1.76361">
        <ele>174.19999694824</ele>
        <time>2012-01-23T09:43:24.000Z</time>
      </trkpt>
      <trkpt lat="48.70451" lon="1.76368">
        <ele>174.39999389648</ele>
        <time>2012-01-23T09:43:28.000Z</time>
      </trkpt>
      <trkpt lat="48.70456" lon="1.76378">
        <ele>174.80000305176</ele>
        <time>2012-01-23T09:43:34.000Z</time>
      </trkpt>
      <trkpt lat="48.70459" lon="1.76387">
        <ele>175</ele>
        <time>2012-01-23T09:43:39.000Z</time>
      </trkpt>
      <trkpt lat="48.70462" lon="1.76395">
        <ele>175.19999694824</ele>
        <time>2012-01-23T09:43:43.000Z</time>
      </trkpt>
      <trkpt lat="48.70466" lon="1.7641">
        <ele>176</ele>
        <time>2012-01-23T09:43:51.000Z</time>
      </trkpt>
      <trkpt lat="48.70465" lon="1.76415">
        <ele>176.19999694824</ele>
        <time>2012-01-23T09:43:53.000Z</time>
      </trkpt>
      <trkpt lat="48.70468" lon="1.76431">
        <ele>176.39999389648</ele>
        <time>2012-01-23T09:44:01.000Z</time>
      </trkpt>
      <trkpt lat="48.70467" lon="1.7644">
        <ele>176.60000610352</ele>
        <time>2012-01-23T09:44:07.000Z</time>
      </trkpt>
      <trkpt lat="48.70467" lon="1.7644">
        <ele>176.60000610352</ele>
        <time>2012-01-23T09:44:08.000Z</time>
      </trkpt>
      <trkpt lat="48.70465" lon="1.76449">
        <ele>177</ele>
        <time>2012-01-23T09:44:14.000Z</time>
      </trkpt>
      <trkpt lat="48.70463" lon="1.7646">
        <ele>177.39999389648</ele>
        <time>2012-01-23T09:44:20.000Z</time>
      </trkpt>
      <trkpt lat="48.7046" lon="1.76465">
        <ele>177.60000610352</ele>
        <time>2012-01-23T09:44:23.000Z</time>
      </trkpt>
      <trkpt lat="48.70459" lon="1.76469">
        <ele>177.80000305176</ele>
        <time>2012-01-23T09:44:29.000Z</time>
      </trkpt>
      <trkpt lat="48.70456" lon="1.76485">
        <ele>178.19999694824</ele>
        <time>2012-01-23T09:44:47.000Z</time>
      </trkpt>
      <trkpt lat="48.70454" lon="1.76492">
        <ele>178.60000610352</ele>
        <time>2012-01-23T09:44:51.000Z</time>
      </trkpt>
      <trkpt lat="48.70454" lon="1.76499">
        <ele>178.80000305176</ele>
        <time>2012-01-23T09:44:56.000Z</time>
      </trkpt>
      <trkpt lat="48.70451" lon="1.76511">
        <ele>179</ele>
        <time>2012-01-23T09:45:02.000Z</time>
      </trkpt>
      <trkpt lat="48.7045" lon="1.76513">
        <ele>179</ele>
        <time>2012-01-23T09:45:03.000Z</time>
      </trkpt>
      <trkpt lat="48.70449" lon="1.76516">
        <ele>179.19999694824</ele>
        <time>2012-01-23T09:45:05.000Z</time>
      </trkpt>
      <trkpt lat="48.70447" lon="1.76526">
        <ele>179.39999389648</ele>
        <time>2012-01-23T09:45:11.000Z</time>
      </trkpt>
      <trkpt lat="48.70444" lon="1.76539">
        <ele>179.39999389648</ele>
        <time>2012-01-23T09:45:19.000Z</time>
      </trkpt>
      <trkpt lat="48.70443" lon="1.76542">
        <ele>179.60000610352</ele>
        <time>2012-01-23T09:45:21.000Z</time>
      </trkpt>
      <trkpt lat="48.70442" lon="1.76552">
        <ele>179.60000610352</ele>
        <time>2012-01-23T09:45:27.000Z</time>
      </trkpt>
      <trkpt lat="48.70441" lon="1.76562">
        <ele>179.80000305176</ele>
        <time>2012-01-23T09:45:33.000Z</time>
      </trkpt>
      <trkpt lat="48.70439" lon="1.76567">
        <ele>179.80000305176</ele>
        <time>2012-01-23T09:45:37.000Z</time>
      </trkpt>
      <trkpt lat="48.70434" lon="1.76574">
        <ele>180.19999694824</ele>
        <time>2012-01-23T09:45:41.000Z</time>
      </trkpt>
      <trkpt lat="48.70427" lon="1.7658">
        <ele>180.39999389648</ele>
        <time>2012-01-23T09:45:47.000Z</time>
      </trkpt>
      <trkpt lat="48.70426" lon="1.76582">
        <ele>180.60000610352</ele>
        <time>2012-01-23T09:45:48.000Z</time>
      </trkpt>
      <trkpt lat="48.70418" lon="1.76587">
        <ele>180.80000305176</ele>
        <time>2012-01-23T09:45:54.000Z</time>
      </trkpt>
      <trkpt lat="48.70412" lon="1.76591">
        <ele>180.80000305176</ele>
        <time>2012-01-23T09:46:00.000Z</time>
      </trkpt>
      <trkpt lat="48.70411" lon="1.7659">
        <ele>180.80000305176</ele>
        <time>2012-01-23T09:46:04.000Z</time>
      </trkpt>
      <trkpt lat="48.70395" lon="1.76598">
        <ele>180.19999694824</ele>
        <time>2012-01-23T09:46:36.000Z</time>
      </trkpt>
      <trkpt lat="48.70386" lon="1.76603">
        <ele>180</ele>
        <time>2012-01-23T09:46:42.000Z</time>
      </trkpt>
      <trkpt lat="48.70385" lon="1.76604">
        <ele>180</ele>
        <time>2012-01-23T09:46:43.000Z</time>
      </trkpt>
      <trkpt lat="48.70376" lon="1.76609">
        <ele>179.80000305176</ele>
        <time>2012-01-23T09:46:50.000Z</time>
      </trkpt>
      <trkpt lat="48.7037" lon="1.76613">
        <ele>179.60000610352</ele>
        <time>2012-01-23T09:46:56.000Z</time>
      </trkpt>
      <trkpt lat="48.70367" lon="1.76613">
        <ele>179.39999389648</ele>
        <time>2012-01-23T09:46:58.000Z</time>
      </trkpt>
      <trkpt lat="48.70361" lon="1.76616">
        <ele>179.19999694824</ele>
        <time>2012-01-23T09:47:03.000Z</time>
      </trkpt>
      <trkpt lat="48.70355" lon="1.7662">
        <ele>179</ele>
        <time>2012-01-23T09:47:08.000Z</time>
      </trkpt>
      <trkpt lat="48.7035" lon="1.76624">
        <ele>179</ele>
        <time>2012-01-23T09:47:14.000Z</time>
      </trkpt>
      <trkpt lat="48.70344" lon="1.76629">
        <ele>178.80000305176</ele>
        <time>2012-01-23T09:47:19.000Z</time>
      </trkpt>
      <trkpt lat="48.70341" lon="1.7663">
        <ele>178.60000610352</ele>
        <time>2012-01-23T09:47:24.000Z</time>
      </trkpt>
      <trkpt lat="48.70341" lon="1.76628">
        <ele>178.60000610352</ele>
        <time>2012-01-23T09:47:27.000Z</time>
      </trkpt>
      <trkpt lat="48.70341" lon="1.76628">
        <ele>178.60000610352</ele>
        <time>2012-01-23T09:47:28.000Z</time>
      </trkpt>
      <trkpt lat="48.70333" lon="1.76647">
        <ele>178.19999694824</ele>
        <time>2012-01-23T09:48:37.000Z</time>
      </trkpt>
      <trkpt lat="48.70326" lon="1.76653">
        <ele>178.39999389648</ele>
        <time>2012-01-23T09:48:43.000Z</time>
      </trkpt>
      <trkpt lat="48.70325" lon="1.76655">
        <ele>178.39999389648</ele>
        <time>2012-01-23T09:48:45.000Z</time>
      </trkpt>
      <trkpt lat="48.70325" lon="1.76666">
        <ele>178.19999694824</ele>
        <time>2012-01-23T09:48:53.000Z</time>
      </trkpt>
      <trkpt lat="48.70325" lon="1.76669">
        <ele>178.19999694824</ele>
        <time>2012-01-23T09:48:55.000Z</time>
      </trkpt>
      <trkpt lat="48.70326" lon="1.7668">
        <ele>178.19999694824</ele>
        <time>2012-01-23T09:49:01.000Z</time>
      </trkpt>
      <trkpt lat="48.70327" lon="1.76688">
        <ele>178.19999694824</ele>
        <time>2012-01-23T09:49:05.000Z</time>
      </trkpt>
      <trkpt lat="48.70331" lon="1.76707">
        <ele>178</ele>
        <time>2012-01-23T09:49:15.000Z</time>
      </trkpt>
      <trkpt lat="48.70332" lon="1.7672">
        <ele>178</ele>
        <time>2012-01-23T09:49:21.000Z</time>
      </trkpt>
      <trkpt lat="48.70332" lon="1.76728">
        <ele>178</ele>
        <time>2012-01-23T09:49:25.000Z</time>
      </trkpt>
      <trkpt lat="48.70329" lon="1.76741">
        <ele>178</ele>
        <time>2012-01-23T09:49:33.000Z</time>
      </trkpt>
      <trkpt lat="48.7033" lon="1.76756">
        <ele>178.19999694824</ele>
        <time>2012-01-23T09:49:42.000Z</time>
      </trkpt>
      <trkpt lat="48.70331" lon="1.76767">
        <ele>178.19999694824</ele>
        <time>2012-01-23T09:49:48.000Z</time>
      </trkpt>
      <trkpt lat="48.70331" lon="1.76771">
        <ele>178.19999694824</ele>
        <time>2012-01-23T09:49:50.000Z</time>
      </trkpt>
      <trkpt lat="48.70334" lon="1.76781">
        <ele>178.39999389648</ele>
        <time>2012-01-23T09:49:56.000Z</time>
      </trkpt>
      <trkpt lat="48.70335" lon="1.76791">
        <ele>178.60000610352</ele>
        <time>2012-01-23T09:50:03.000Z</time>
      </trkpt>
      <trkpt lat="48.70335" lon="1.76801">
        <ele>178.60000610352</ele>
        <time>2012-01-23T09:50:09.000Z</time>
      </trkpt>
      <trkpt lat="48.70335" lon="1.76804">
        <ele>178.80000305176</ele>
        <time>2012-01-23T09:50:10.000Z</time>
      </trkpt>
      <trkpt lat="48.70335" lon="1.76813">
        <ele>178.80000305176</ele>
        <time>2012-01-23T09:50:15.000Z</time>
      </trkpt>
      <trkpt lat="48.70335" lon="1.76826">
        <ele>179</ele>
        <time>2012-01-23T09:50:21.000Z</time>
      </trkpt>
      <trkpt lat="48.70335" lon="1.76833">
        <ele>179</ele>
        <time>2012-01-23T09:50:24.000Z</time>
      </trkpt>
      <trkpt lat="48.70335" lon="1.76841">
        <ele>179.19999694824</ele>
        <time>2012-01-23T09:50:28.000Z</time>
      </trkpt>
      <trkpt lat="48.70336" lon="1.76857">
        <ele>179.39999389648</ele>
        <time>2012-01-23T09:50:37.000Z</time>
      </trkpt>
      <trkpt lat="48.70336" lon="1.76858">
        <ele>179.39999389648</ele>
        <time>2012-01-23T09:50:40.000Z</time>
      </trkpt>
      <trkpt lat="48.70335" lon="1.76868">
        <ele>179.39999389648</ele>
        <time>2012-01-23T09:50:46.000Z</time>
      </trkpt>
      <trkpt lat="48.70335" lon="1.76869">
        <ele>179.39999389648</ele>
        <time>2012-01-23T09:50:47.000Z</time>
      </trkpt>
      <trkpt lat="48.70334" lon="1.76883">
        <ele>179.60000610352</ele>
        <time>2012-01-23T09:50:53.000Z</time>
      </trkpt>
      <trkpt lat="48.70335" lon="1.76894">
        <ele>179.80000305176</ele>
        <time>2012-01-23T09:50:59.000Z</time>
      </trkpt>
      <trkpt lat="48.70335" lon="1.76905">
        <ele>180</ele>
        <time>2012-01-23T09:51:04.000Z</time>
      </trkpt>
      <trkpt lat="48.70336" lon="1.76923">
        <ele>180.19999694824</ele>
        <time>2012-01-23T09:51:12.000Z</time>
      </trkpt>
      <trkpt lat="48.70337" lon="1.76936">
        <ele>180.60000610352</ele>
        <time>2012-01-23T09:51:18.000Z</time>
      </trkpt>
      <trkpt lat="48.70337" lon="1.76957">
        <ele>181</ele>
        <time>2012-01-23T09:51:27.000Z</time>
      </trkpt>
      <trkpt lat="48.7034" lon="1.76972">
        <ele>181.19999694824</ele>
        <time>2012-01-23T09:51:34.000Z</time>
      </trkpt>
      <trkpt lat="48.70342" lon="1.76986">
        <ele>181.39999389648</ele>
        <time>2012-01-23T09:51:41.000Z</time>
      </trkpt>
      <trkpt lat="48.70342" lon="1.76994">
        <ele>181.60000610352</ele>
        <time>2012-01-23T09:51:45.000Z</time>
      </trkpt>
      <trkpt lat="48.70343" lon="1.77004">
        <ele>181.60000610352</ele>
        <time>2012-01-23T09:51:51.000Z</time>
      </trkpt>
      <trkpt lat="48.70342" lon="1.77007">
        <ele>181.60000610352</ele>
        <time>2012-01-23T09:51:53.000Z</time>
      </trkpt>
      <trkpt lat="48.70343" lon="1.7701">
        <ele>181.60000610352</ele>
        <time>2012-01-23T09:51:55.000Z</time>
      </trkpt>
      <trkpt lat="48.70344" lon="1.77014">
        <ele>181.39999389648</ele>
        <time>2012-01-23T09:52:00.000Z</time>
      </trkpt>
      <trkpt lat="48.70346" lon="1.77025">
        <ele>181.39999389648</ele>
        <time>2012-01-23T09:52:09.000Z</time>
      </trkpt>
      <trkpt lat="48.70346" lon="1.77027">
        <ele>181.39999389648</ele>
        <time>2012-01-23T09:52:10.000Z</time>
      </trkpt>
      <trkpt lat="48.70346" lon="1.77036">
        <ele>181.39999389648</ele>
        <time>2012-01-23T09:52:16.000Z</time>
      </trkpt>
      <trkpt lat="48.70346" lon="1.77047">
        <ele>181.39999389648</ele>
        <time>2012-01-23T09:52:23.000Z</time>
      </trkpt>
      <trkpt lat="48.70346" lon="1.77053">
        <ele>181.39999389648</ele>
        <time>2012-01-23T09:52:27.000Z</time>
      </trkpt>
      <trkpt lat="48.70348" lon="1.77066">
        <ele>181.19999694824</ele>
        <time>2012-01-23T09:52:33.000Z</time>
      </trkpt>
      <trkpt lat="48.70351" lon="1.77078">
        <ele>181.19999694824</ele>
        <time>2012-01-23T09:52:38.000Z</time>
      </trkpt>
      <trkpt lat="48.70353" lon="1.7709">
        <ele>181</ele>
        <time>2012-01-23T09:52:44.000Z</time>
      </trkpt>
      <trkpt lat="48.70355" lon="1.77109">
        <ele>181</ele>
        <time>2012-01-23T09:52:53.000Z</time>
      </trkpt>
      <trkpt lat="48.70355" lon="1.77111">
        <ele>181</ele>
        <time>2012-01-23T09:52:54.000Z</time>
      </trkpt>
      <trkpt lat="48.70357" lon="1.77124">
        <ele>181</ele>
        <time>2012-01-23T09:53:01.000Z</time>
      </trkpt>
      <trkpt lat="48.70359" lon="1.77129">
        <ele>181</ele>
        <time>2012-01-23T09:53:06.000Z</time>
      </trkpt>
      <trkpt lat="48.7036" lon="1.77139">
        <ele>181</ele>
        <time>2012-01-23T09:53:13.000Z</time>
      </trkpt>
      <trkpt lat="48.7036" lon="1.77149">
        <ele>181</ele>
        <time>2012-01-23T09:53:19.000Z</time>
      </trkpt>
      <trkpt lat="48.7036" lon="1.77157">
        <ele>181</ele>
        <time>2012-01-23T09:53:26.000Z</time>
      </trkpt>
      <trkpt lat="48.7036" lon="1.77166">
        <ele>181</ele>
        <time>2012-01-23T09:53:31.000Z</time>
      </trkpt>
      <trkpt lat="48.7036" lon="1.77174">
        <ele>181</ele>
        <time>2012-01-23T09:53:35.000Z</time>
      </trkpt>
      <trkpt lat="48.70361" lon="1.77186">
        <ele>180.80000305176</ele>
        <time>2012-01-23T09:53:42.000Z</time>
      </trkpt>
      <trkpt lat="48.7036" lon="1.77195">
        <ele>180.80000305176</ele>
        <time>2012-01-23T09:53:49.000Z</time>
      </trkpt>
      <trkpt lat="48.70363" lon="1.77206">
        <ele>180.60000610352</ele>
        <time>2012-01-23T09:53:56.000Z</time>
      </trkpt>
      <trkpt lat="48.70364" lon="1.77219">
        <ele>180.60000610352</ele>
        <time>2012-01-23T09:54:04.000Z</time>
      </trkpt>
      <trkpt lat="48.70365" lon="1.77232">
        <ele>180.39999389648</ele>
        <time>2012-01-23T09:54:12.000Z</time>
      </trkpt>
      <trkpt lat="48.70367" lon="1.77248">
        <ele>180.39999389648</ele>
        <time>2012-01-23T09:54:20.000Z</time>
      </trkpt>
      <trkpt lat="48.70368" lon="1.77262">
        <ele>180.60000610352</ele>
        <time>2012-01-23T09:54:26.000Z</time>
      </trkpt>
      <trkpt lat="48.7037" lon="1.77281">
        <ele>181</ele>
        <time>2012-01-23T09:54:35.000Z</time>
      </trkpt>
      <trkpt lat="48.70373" lon="1.77298">
        <ele>181.39999389648</ele>
        <time>2012-01-23T09:54:44.000Z</time>
      </trkpt>
      <trkpt lat="48.70376" lon="1.77311">
        <ele>181.60000610352</ele>
        <time>2012-01-23T09:54:51.000Z</time>
      </trkpt>
      <trkpt lat="48.70379" lon="1.77324">
        <ele>182</ele>
        <time>2012-01-23T09:54:58.000Z</time>
      </trkpt>
      <trkpt lat="48.70385" lon="1.77337">
        <ele>182.39999389648</ele>
        <time>2012-01-23T09:55:07.000Z</time>
      </trkpt>
      <trkpt lat="48.70386" lon="1.77348">
        <ele>182.60000610352</ele>
        <time>2012-01-23T09:55:13.000Z</time>
      </trkpt>
      <trkpt lat="48.70389" lon="1.77363">
        <ele>183.19999694824</ele>
        <time>2012-01-23T09:55:22.000Z</time>
      </trkpt>
      <trkpt lat="48.70392" lon="1.77374">
        <ele>183.39999389648</ele>
        <time>2012-01-23T09:55:29.000Z</time>
      </trkpt>
      <trkpt lat="48.70395" lon="1.7738">
        <ele>183.60000610352</ele>
        <time>2012-01-23T09:55:34.000Z</time>
      </trkpt>
      <trkpt lat="48.70403" lon="1.77395">
        <ele>183.80000305176</ele>
        <time>2012-01-23T09:55:44.000Z</time>
      </trkpt>
      <trkpt lat="48.70407" lon="1.77403">
        <ele>184</ele>
        <time>2012-01-23T09:55:49.000Z</time>
      </trkpt>
      <trkpt lat="48.70411" lon="1.77414">
        <ele>184</ele>
        <time>2012-01-23T09:55:57.000Z</time>
      </trkpt>
      <trkpt lat="48.70414" lon="1.77426">
        <ele>184.19999694824</ele>
        <time>2012-01-23T09:56:04.000Z</time>
      </trkpt>
      <trkpt lat="48.70418" lon="1.77441">
        <ele>184.60000610352</ele>
        <time>2012-01-23T09:56:12.000Z</time>
      </trkpt>
      <trkpt lat="48.70421" lon="1.77455">
        <ele>184.80000305176</ele>
        <time>2012-01-23T09:56:20.000Z</time>
      </trkpt>
      <trkpt lat="48.70426" lon="1.7747">
        <ele>185</ele>
        <time>2012-01-23T09:56:29.000Z</time>
      </trkpt>
      <trkpt lat="48.70431" lon="1.77485">
        <ele>185.19999694824</ele>
        <time>2012-01-23T09:56:38.000Z</time>
      </trkpt>
      <trkpt lat="48.70435" lon="1.77503">
        <ele>185.39999389648</ele>
        <time>2012-01-23T09:56:48.000Z</time>
      </trkpt>
      <trkpt lat="48.7044" lon="1.77521">
        <ele>185.60000610352</ele>
        <time>2012-01-23T09:56:58.000Z</time>
      </trkpt>
      <trkpt lat="48.70447" lon="1.77539">
        <ele>185.80000305176</ele>
        <time>2012-01-23T09:57:08.000Z</time>
      </trkpt>
      <trkpt lat="48.70454" lon="1.77557">
        <ele>186</ele>
        <time>2012-01-23T09:57:18.000Z</time>
      </trkpt>
      <trkpt lat="48.70456" lon="1.77562">
        <ele>186</ele>
        <time>2012-01-23T09:57:22.000Z</time>
      </trkpt>
      <trkpt lat="48.70459" lon="1.7757">
        <ele>186.19999694824</ele>
        <time>2012-01-23T09:57:28.000Z</time>
      </trkpt>
      <trkpt lat="48.70466" lon="1.77578">
        <ele>186.19999694824</ele>
        <time>2012-01-23T09:57:35.000Z</time>
      </trkpt>
      <trkpt lat="48.70469" lon="1.77586">
        <ele>186.39999389648</ele>
        <time>2012-01-23T09:57:41.000Z</time>
      </trkpt>
      <trkpt lat="48.70471" lon="1.77592">
        <ele>186.19999694824</ele>
        <time>2012-01-23T09:57:48.000Z</time>
      </trkpt>
      <trkpt lat="48.70471" lon="1.77592">
        <ele>186.19999694824</ele>
        <time>2012-01-23T09:57:50.000Z</time>
      </trkpt>
      <trkpt lat="48.70473" lon="1.77598">
        <ele>186.19999694824</ele>
        <time>2012-01-23T09:57:56.000Z</time>
      </trkpt>
      <trkpt lat="48.70476" lon="1.77607">
        <ele>186</ele>
        <time>2012-01-23T09:58:00.000Z</time>
      </trkpt>
      <trkpt lat="48.70481" lon="1.77625">
        <ele>185.80000305176</ele>
        <time>2012-01-23T09:58:09.000Z</time>
      </trkpt>
      <trkpt lat="48.70486" lon="1.77643">
        <ele>185.60000610352</ele>
        <time>2012-01-23T09:58:19.000Z</time>
      </trkpt>
      <trkpt lat="48.70489" lon="1.77658">
        <ele>185.39999389648</ele>
        <time>2012-01-23T09:58:27.000Z</time>
      </trkpt>
      <trkpt lat="48.70495" lon="1.77674">
        <ele>185.19999694824</ele>
        <time>2012-01-23T09:58:36.000Z</time>
      </trkpt>
      <trkpt lat="48.70497" lon="1.77682">
        <ele>185.39999389648</ele>
        <time>2012-01-23T09:58:41.000Z</time>
      </trkpt>
      <trkpt lat="48.70501" lon="1.77692">
        <ele>185.60000610352</ele>
        <time>2012-01-23T09:58:47.000Z</time>
      </trkpt>
      <trkpt lat="48.70502" lon="1.77696">
        <ele>185.60000610352</ele>
        <time>2012-01-23T09:58:49.000Z</time>
      </trkpt>
      <trkpt lat="48.70508" lon="1.77713">
        <ele>185.80000305176</ele>
        <time>2012-01-23T09:58:58.000Z</time>
      </trkpt>
      <trkpt lat="48.70509" lon="1.77715">
        <ele>185.80000305176</ele>
        <time>2012-01-23T09:58:59.000Z</time>
      </trkpt>
      <trkpt lat="48.70512" lon="1.77726">
        <ele>186</ele>
        <time>2012-01-23T09:59:05.000Z</time>
      </trkpt>
      <trkpt lat="48.70516" lon="1.7774">
        <ele>186.39999389648</ele>
        <time>2012-01-23T09:59:13.000Z</time>
      </trkpt>
      <trkpt lat="48.70521" lon="1.77749">
        <ele>186.39999389648</ele>
        <time>2012-01-23T09:59:19.000Z</time>
      </trkpt>
      <trkpt lat="48.70527" lon="1.77765">
        <ele>186.60000610352</ele>
        <time>2012-01-23T09:59:28.000Z</time>
      </trkpt>
      <trkpt lat="48.70528" lon="1.77772">
        <ele>186.60000610352</ele>
        <time>2012-01-23T09:59:32.000Z</time>
      </trkpt>
      <trkpt lat="48.70532" lon="1.77786">
        <ele>186.60000610352</ele>
        <time>2012-01-23T09:59:40.000Z</time>
      </trkpt>
      <trkpt lat="48.70536" lon="1.77801">
        <ele>186.80000305176</ele>
        <time>2012-01-23T09:59:48.000Z</time>
      </trkpt>
      <trkpt lat="48.70542" lon="1.77818">
        <ele>186.80000305176</ele>
        <time>2012-01-23T09:59:57.000Z</time>
      </trkpt>
      <trkpt lat="48.70548" lon="1.77829">
        <ele>186.80000305176</ele>
        <time>2012-01-23T10:00:04.000Z</time>
      </trkpt>
      <trkpt lat="48.70553" lon="1.77838">
        <ele>186.60000610352</ele>
        <time>2012-01-23T10:00:11.000Z</time>
      </trkpt>
      <trkpt lat="48.70558" lon="1.77853">
        <ele>186.39999389648</ele>
        <time>2012-01-23T10:00:20.000Z</time>
      </trkpt>
      <trkpt lat="48.70562" lon="1.77863">
        <ele>186.19999694824</ele>
        <time>2012-01-23T10:00:27.000Z</time>
      </trkpt>
      <trkpt lat="48.70565" lon="1.77875">
        <ele>186</ele>
        <time>2012-01-23T10:00:34.000Z</time>
      </trkpt>
      <trkpt lat="48.70567" lon="1.77888">
        <ele>185.80000305176</ele>
        <time>2012-01-23T10:00:41.000Z</time>
      </trkpt>
      <trkpt lat="48.70574" lon="1.77905">
        <ele>185.39999389648</ele>
        <time>2012-01-23T10:00:50.000Z</time>
      </trkpt>
      <trkpt lat="48.7058" lon="1.7792">
        <ele>185.19999694824</ele>
        <time>2012-01-23T10:00:58.000Z</time>
      </trkpt>
      <trkpt lat="48.70583" lon="1.77932">
        <ele>185.39999389648</ele>
        <time>2012-01-23T10:01:04.000Z</time>
      </trkpt>
      <trkpt lat="48.70589" lon="1.77946">
        <ele>185.60000610352</ele>
        <time>2012-01-23T10:01:13.000Z</time>
      </trkpt>
      <trkpt lat="48.7059" lon="1.77953">
        <ele>185.80000305176</ele>
        <time>2012-01-23T10:01:17.000Z</time>
      </trkpt>
      <trkpt lat="48.70593" lon="1.77962">
        <ele>186</ele>
        <time>2012-01-23T10:01:22.000Z</time>
      </trkpt>
      <trkpt lat="48.706" lon="1.77979">
        <ele>186.19999694824</ele>
        <time>2012-01-23T10:01:31.000Z</time>
      </trkpt>
      <trkpt lat="48.70604" lon="1.77991">
        <ele>186.39999389648</ele>
        <time>2012-01-23T10:01:38.000Z</time>
      </trkpt>
      <trkpt lat="48.70608" lon="1.78">
        <ele>186.39999389648</ele>
        <time>2012-01-23T10:01:43.000Z</time>
      </trkpt>
      <trkpt lat="48.70614" lon="1.78019">
        <ele>186.19999694824</ele>
        <time>2012-01-23T10:01:53.000Z</time>
      </trkpt>
      <trkpt lat="48.70617" lon="1.78031">
        <ele>186</ele>
        <time>2012-01-23T10:02:00.000Z</time>
      </trkpt>
      <trkpt lat="48.70622" lon="1.78041">
        <ele>185.80000305176</ele>
        <time>2012-01-23T10:02:06.000Z</time>
      </trkpt>
      <trkpt lat="48.70625" lon="1.78049">
        <ele>185.60000610352</ele>
        <time>2012-01-23T10:02:12.000Z</time>
      </trkpt>
      <trkpt lat="48.70627" lon="1.78056">
        <ele>185.60000610352</ele>
        <time>2012-01-23T10:02:16.000Z</time>
      </trkpt>
      <trkpt lat="48.70631" lon="1.78067">
        <ele>185.39999389648</ele>
        <time>2012-01-23T10:02:24.000Z</time>
      </trkpt>
      <trkpt lat="48.70635" lon="1.78079">
        <ele>185.19999694824</ele>
        <time>2012-01-23T10:02:32.000Z</time>
      </trkpt>
      <trkpt lat="48.70639" lon="1.78093">
        <ele>185</ele>
        <time>2012-01-23T10:02:40.000Z</time>
      </trkpt>
      <trkpt lat="48.70645" lon="1.78108">
        <ele>184.80000305176</ele>
        <time>2012-01-23T10:02:46.000Z</time>
      </trkpt>
      <trkpt lat="48.7065" lon="1.78124">
        <ele>184.60000610352</ele>
        <time>2012-01-23T10:02:52.000Z</time>
      </trkpt>
      <trkpt lat="48.70654" lon="1.78136">
        <ele>184.39999389648</ele>
        <time>2012-01-23T10:02:59.000Z</time>
      </trkpt>
      <trkpt lat="48.70656" lon="1.78151">
        <ele>184.39999389648</ele>
        <time>2012-01-23T10:03:06.000Z</time>
      </trkpt>
      <trkpt lat="48.70659" lon="1.78164">
        <ele>184.19999694824</ele>
        <time>2012-01-23T10:03:13.000Z</time>
      </trkpt>
      <trkpt lat="48.70666" lon="1.78183">
        <ele>184.39999389648</ele>
        <time>2012-01-23T10:03:23.000Z</time>
      </trkpt>
      <trkpt lat="48.7067" lon="1.78196">
        <ele>184.60000610352</ele>
        <time>2012-01-23T10:03:31.000Z</time>
      </trkpt>
      <trkpt lat="48.70674" lon="1.78206">
        <ele>184.60000610352</ele>
        <time>2012-01-23T10:03:38.000Z</time>
      </trkpt>
      <trkpt lat="48.70678" lon="1.78217">
        <ele>184.80000305176</ele>
        <time>2012-01-23T10:03:45.000Z</time>
      </trkpt>
      <trkpt lat="48.70684" lon="1.78233">
        <ele>184.80000305176</ele>
        <time>2012-01-23T10:03:55.000Z</time>
      </trkpt>
      <trkpt lat="48.70689" lon="1.78247">
        <ele>184.80000305176</ele>
        <time>2012-01-23T10:04:03.000Z</time>
      </trkpt>
      <trkpt lat="48.7069" lon="1.78251">
        <ele>184.80000305176</ele>
        <time>2012-01-23T10:04:06.000Z</time>
      </trkpt>
      <trkpt lat="48.70694" lon="1.78261">
        <ele>184.60000610352</ele>
        <time>2012-01-23T10:04:13.000Z</time>
      </trkpt>
      <trkpt lat="48.70701" lon="1.78277">
        <ele>184.19999694824</ele>
        <time>2012-01-23T10:04:23.000Z</time>
      </trkpt>
      <trkpt lat="48.70705" lon="1.78292">
        <ele>183.80000305176</ele>
        <time>2012-01-23T10:04:31.000Z</time>
      </trkpt>
      <trkpt lat="48.70706" lon="1.78294">
        <ele>183.80000305176</ele>
        <time>2012-01-23T10:04:32.000Z</time>
      </trkpt>
      <trkpt lat="48.70713" lon="1.78314">
        <ele>183.39999389648</ele>
        <time>2012-01-23T10:04:43.000Z</time>
      </trkpt>
      <trkpt lat="48.70717" lon="1.78325">
        <ele>183.19999694824</ele>
        <time>2012-01-23T10:04:50.000Z</time>
      </trkpt>
      <trkpt lat="48.70719" lon="1.78334">
        <ele>183.19999694824</ele>
        <time>2012-01-23T10:04:55.000Z</time>
      </trkpt>
      <trkpt lat="48.70721" lon="1.78344">
        <ele>183.39999389648</ele>
        <time>2012-01-23T10:05:01.000Z</time>
      </trkpt>
      <trkpt lat="48.70724" lon="1.78358">
        <ele>183.80000305176</ele>
        <time>2012-01-23T10:05:09.000Z</time>
      </trkpt>
      <trkpt lat="48.70729" lon="1.78376">
        <ele>184.39999389648</ele>
        <time>2012-01-23T10:05:18.000Z</time>
      </trkpt>
      <trkpt lat="48.70734" lon="1.78393">
        <ele>184.80000305176</ele>
        <time>2012-01-23T10:05:27.000Z</time>
      </trkpt>
      <trkpt lat="48.70739" lon="1.7841">
        <ele>185.19999694824</ele>
        <time>2012-01-23T10:05:35.000Z</time>
      </trkpt>
      <trkpt lat="48.70743" lon="1.78424">
        <ele>185.19999694824</ele>
        <time>2012-01-23T10:05:42.000Z</time>
      </trkpt>
      <trkpt lat="48.7075" lon="1.78442">
        <ele>185</ele>
        <time>2012-01-23T10:05:51.000Z</time>
      </trkpt>
      <trkpt lat="48.70757" lon="1.78461">
        <ele>184.60000610352</ele>
        <time>2012-01-23T10:06:01.000Z</time>
      </trkpt>
      <trkpt lat="48.70761" lon="1.78475">
        <ele>184.39999389648</ele>
        <time>2012-01-23T10:06:09.000Z</time>
      </trkpt>
      <trkpt lat="48.70765" lon="1.78488">
        <ele>184</ele>
        <time>2012-01-23T10:06:17.000Z</time>
      </trkpt>
      <trkpt lat="48.70769" lon="1.78498">
        <ele>183.80000305176</ele>
        <time>2012-01-23T10:06:23.000Z</time>
      </trkpt>
      <trkpt lat="48.70773" lon="1.78506">
        <ele>183.39999389648</ele>
        <time>2012-01-23T10:06:29.000Z</time>
      </trkpt>
      <trkpt lat="48.70779" lon="1.78524">
        <ele>182.80000305176</ele>
        <time>2012-01-23T10:06:39.000Z</time>
      </trkpt>
      <trkpt lat="48.70782" lon="1.78538">
        <ele>182.19999694824</ele>
        <time>2012-01-23T10:06:46.000Z</time>
      </trkpt>
      <trkpt lat="48.70785" lon="1.7855">
        <ele>181.80000305176</ele>
        <time>2012-01-23T10:06:53.000Z</time>
      </trkpt>
      <trkpt lat="48.70792" lon="1.78569">
        <ele>180.80000305176</ele>
        <time>2012-01-23T10:07:04.000Z</time>
      </trkpt>
      <trkpt lat="48.70798" lon="1.78584">
        <ele>180</ele>
        <time>2012-01-23T10:07:13.000Z</time>
      </trkpt>
      <trkpt lat="48.70799" lon="1.78601">
        <ele>180.80000305176</ele>
        <time>2012-01-23T10:07:21.000Z</time>
      </trkpt>
      <trkpt lat="48.70797" lon="1.78622">
        <ele>182</ele>
        <time>2012-01-23T10:07:32.000Z</time>
      </trkpt>
      <trkpt lat="48.70796" lon="1.78643">
        <ele>183.19999694824</ele>
        <time>2012-01-23T10:07:42.000Z</time>
      </trkpt>
      <trkpt lat="48.7079" lon="1.78659">
        <ele>184.80000305176</ele>
        <time>2012-01-23T10:07:52.000Z</time>
      </trkpt>
      <trkpt lat="48.70786" lon="1.78671">
        <ele>185.60000610352</ele>
        <time>2012-01-23T10:07:59.000Z</time>
      </trkpt>
      <trkpt lat="48.7078" lon="1.78682">
        <ele>186.39999389648</ele>
        <time>2012-01-23T10:08:06.000Z</time>
      </trkpt>
      <trkpt lat="48.70774" lon="1.78696">
        <ele>187</ele>
        <time>2012-01-23T10:08:16.000Z</time>
      </trkpt>
      <trkpt lat="48.70766" lon="1.78711">
        <ele>187.80000305176</ele>
        <time>2012-01-23T10:08:22.000Z</time>
      </trkpt>
      <trkpt lat="48.70754" lon="1.78733">
        <ele>188.80000305176</ele>
        <time>2012-01-23T10:08:28.000Z</time>
      </trkpt>
      <trkpt lat="48.70748" lon="1.78746">
        <ele>189</ele>
        <time>2012-01-23T10:08:33.000Z</time>
      </trkpt>
      <trkpt lat="48.70743" lon="1.78755">
        <ele>189</ele>
        <time>2012-01-23T10:08:38.000Z</time>
      </trkpt>
      <trkpt lat="48.70738" lon="1.78767">
        <ele>188.80000305176</ele>
        <time>2012-01-23T10:08:45.000Z</time>
      </trkpt>
      <trkpt lat="48.70731" lon="1.78779">
        <ele>188.60000610352</ele>
        <time>2012-01-23T10:08:53.000Z</time>
      </trkpt>
      <trkpt lat="48.70729" lon="1.78785">
        <ele>188.39999389648</ele>
        <time>2012-01-23T10:08:56.000Z</time>
      </trkpt>
      <trkpt lat="48.70729" lon="1.7879">
        <ele>188.39999389648</ele>
        <time>2012-01-23T10:08:59.000Z</time>
      </trkpt>
      <trkpt lat="48.70723" lon="1.78805">
        <ele>188.19999694824</ele>
        <time>2012-01-23T10:09:08.000Z</time>
      </trkpt>
      <trkpt lat="48.70714" lon="1.78821">
        <ele>187.80000305176</ele>
        <time>2012-01-23T10:09:17.000Z</time>
      </trkpt>
      <trkpt lat="48.70708" lon="1.78833">
        <ele>187.60000610352</ele>
        <time>2012-01-23T10:09:25.000Z</time>
      </trkpt>
      <trkpt lat="48.70703" lon="1.78845">
        <ele>187.60000610352</ele>
        <time>2012-01-23T10:09:33.000Z</time>
      </trkpt>
      <trkpt lat="48.70699" lon="1.78855">
        <ele>187.60000610352</ele>
        <time>2012-01-23T10:09:40.000Z</time>
      </trkpt>
      <trkpt lat="48.70692" lon="1.78866">
        <ele>187.60000610352</ele>
        <time>2012-01-23T10:09:48.000Z</time>
      </trkpt>
      <trkpt lat="48.70684" lon="1.78877">
        <ele>187.60000610352</ele>
        <time>2012-01-23T10:09:56.000Z</time>
      </trkpt>
      <trkpt lat="48.70674" lon="1.78886">
        <ele>187.60000610352</ele>
        <time>2012-01-23T10:10:05.000Z</time>
      </trkpt>
      <trkpt lat="48.70666" lon="1.78893">
        <ele>187.80000305176</ele>
        <time>2012-01-23T10:10:12.000Z</time>
      </trkpt>
      <trkpt lat="48.70659" lon="1.789">
        <ele>187.80000305176</ele>
        <time>2012-01-23T10:10:19.000Z</time>
      </trkpt>
      <trkpt lat="48.70651" lon="1.78908">
        <ele>187.80000305176</ele>
        <time>2012-01-23T10:10:25.000Z</time>
      </trkpt>
      <trkpt lat="48.70643" lon="1.78914">
        <ele>188</ele>
        <time>2012-01-23T10:10:31.000Z</time>
      </trkpt>
      <trkpt lat="48.70631" lon="1.78927">
        <ele>188</ele>
        <time>2012-01-23T10:10:41.000Z</time>
      </trkpt>
      <trkpt lat="48.70628" lon="1.7893">
        <ele>188</ele>
        <time>2012-01-23T10:10:43.000Z</time>
      </trkpt>
      <trkpt lat="48.70622" lon="1.78937">
        <ele>188</ele>
        <time>2012-01-23T10:10:49.000Z</time>
      </trkpt>
      <trkpt lat="48.70614" lon="1.78943">
        <ele>188</ele>
        <time>2012-01-23T10:10:55.000Z</time>
      </trkpt>
      <trkpt lat="48.70603" lon="1.78953">
        <ele>188</ele>
        <time>2012-01-23T10:11:03.000Z</time>
      </trkpt>
      <trkpt lat="48.70594" lon="1.78962">
        <ele>188</ele>
        <time>2012-01-23T10:11:11.000Z</time>
      </trkpt>
      <trkpt lat="48.70589" lon="1.78965">
        <ele>188</ele>
        <time>2012-01-23T10:11:15.000Z</time>
      </trkpt>
      <trkpt lat="48.70587" lon="1.78965">
        <ele>188</ele>
        <time>2012-01-23T10:11:19.000Z</time>
      </trkpt>
      <trkpt lat="48.70576" lon="1.78972">
        <ele>188.19999694824</ele>
        <time>2012-01-23T10:11:39.000Z</time>
      </trkpt>
      <trkpt lat="48.70563" lon="1.78981">
        <ele>188.39999389648</ele>
        <time>2012-01-23T10:11:48.000Z</time>
      </trkpt>
      <trkpt lat="48.7055" lon="1.78993">
        <ele>188.80000305176</ele>
        <time>2012-01-23T10:11:59.000Z</time>
      </trkpt>
      <trkpt lat="48.70543" lon="1.79">
        <ele>189</ele>
        <time>2012-01-23T10:12:06.000Z</time>
      </trkpt>
      <trkpt lat="48.70532" lon="1.79011">
        <ele>189</ele>
        <time>2012-01-23T10:12:16.000Z</time>
      </trkpt>
      <trkpt lat="48.70521" lon="1.79021">
        <ele>189</ele>
        <time>2012-01-23T10:12:25.000Z</time>
      </trkpt>
      <trkpt lat="48.7051" lon="1.79032">
        <ele>188.80000305176</ele>
        <time>2012-01-23T10:12:34.000Z</time>
      </trkpt>
      <trkpt lat="48.70504" lon="1.7904">
        <ele>188.60000610352</ele>
        <time>2012-01-23T10:12:40.000Z</time>
      </trkpt>
      <trkpt lat="48.70491" lon="1.79054">
        <ele>188.19999694824</ele>
        <time>2012-01-23T10:12:51.000Z</time>
      </trkpt>
      <trkpt lat="48.70479" lon="1.79064">
        <ele>188.19999694824</ele>
        <time>2012-01-23T10:13:01.000Z</time>
      </trkpt>
      <trkpt lat="48.70465" lon="1.79077">
        <ele>188.39999389648</ele>
        <time>2012-01-23T10:13:13.000Z</time>
      </trkpt>
      <trkpt lat="48.70453" lon="1.79086">
        <ele>188.80000305176</ele>
        <time>2012-01-23T10:13:22.000Z</time>
      </trkpt>
      <trkpt lat="48.70445" lon="1.79095">
        <ele>189</ele>
        <time>2012-01-23T10:13:29.000Z</time>
      </trkpt>
      <trkpt lat="48.70436" lon="1.79102">
        <ele>189.39999389648</ele>
        <time>2012-01-23T10:13:36.000Z</time>
      </trkpt>
      <trkpt lat="48.70426" lon="1.79112">
        <ele>189.80000305176</ele>
        <time>2012-01-23T10:13:45.000Z</time>
      </trkpt>
      <trkpt lat="48.70417" lon="1.7912">
        <ele>190</ele>
        <time>2012-01-23T10:13:53.000Z</time>
      </trkpt>
      <trkpt lat="48.70409" lon="1.79128">
        <ele>190</ele>
        <time>2012-01-23T10:14:01.000Z</time>
      </trkpt>
      <trkpt lat="48.70402" lon="1.79134">
        <ele>189.80000305176</ele>
        <time>2012-01-23T10:14:07.000Z</time>
      </trkpt>
      <trkpt lat="48.70393" lon="1.79145">
        <ele>189.80000305176</ele>
        <time>2012-01-23T10:14:15.000Z</time>
      </trkpt>
      <trkpt lat="48.70387" lon="1.79153">
        <ele>189.60000610352</ele>
        <time>2012-01-23T10:14:20.000Z</time>
      </trkpt>
      <trkpt lat="48.70383" lon="1.79158">
        <ele>189.60000610352</ele>
        <time>2012-01-23T10:14:24.000Z</time>
      </trkpt>
      <trkpt lat="48.70376" lon="1.79165">
        <ele>189.60000610352</ele>
        <time>2012-01-23T10:14:31.000Z</time>
      </trkpt>
      <trkpt lat="48.70369" lon="1.79172">
        <ele>189.39999389648</ele>
        <time>2012-01-23T10:14:38.000Z</time>
      </trkpt>
      <trkpt lat="48.70358" lon="1.7918">
        <ele>189.39999389648</ele>
        <time>2012-01-23T10:14:46.000Z</time>
      </trkpt>
      <trkpt lat="48.7035" lon="1.79188">
        <ele>189.39999389648</ele>
        <time>2012-01-23T10:14:54.000Z</time>
      </trkpt>
      <trkpt lat="48.70341" lon="1.79196">
        <ele>189.39999389648</ele>
        <time>2012-01-23T10:15:01.000Z</time>
      </trkpt>
      <trkpt lat="48.70331" lon="1.79203">
        <ele>189.39999389648</ele>
        <time>2012-01-23T10:15:10.000Z</time>
      </trkpt>
      <trkpt lat="48.70322" lon="1.7921">
        <ele>189.80000305176</ele>
        <time>2012-01-23T10:15:18.000Z</time>
      </trkpt>
      <trkpt lat="48.7031" lon="1.7922">
        <ele>190</ele>
        <time>2012-01-23T10:15:28.000Z</time>
      </trkpt>
      <trkpt lat="48.703" lon="1.79224">
        <ele>190</ele>
        <time>2012-01-23T10:15:36.000Z</time>
      </trkpt>
      <trkpt lat="48.70289" lon="1.79235">
        <ele>190.19999694824</ele>
        <time>2012-01-23T10:15:45.000Z</time>
      </trkpt>
      <trkpt lat="48.7028" lon="1.79245">
        <ele>190</ele>
        <time>2012-01-23T10:15:53.000Z</time>
      </trkpt>
      <trkpt lat="48.70274" lon="1.79253">
        <ele>190</ele>
        <time>2012-01-23T10:15:59.000Z</time>
      </trkpt>
      <trkpt lat="48.70264" lon="1.79262">
        <ele>190</ele>
        <time>2012-01-23T10:16:07.000Z</time>
      </trkpt>
      <trkpt lat="48.70257" lon="1.79269">
        <ele>190</ele>
        <time>2012-01-23T10:16:13.000Z</time>
      </trkpt>
      <trkpt lat="48.70248" lon="1.79277">
        <ele>190</ele>
        <time>2012-01-23T10:16:20.000Z</time>
      </trkpt>
      <trkpt lat="48.70236" lon="1.79289">
        <ele>190</ele>
        <time>2012-01-23T10:16:29.000Z</time>
      </trkpt>
      <trkpt lat="48.7023" lon="1.79293">
        <ele>190.19999694824</ele>
        <time>2012-01-23T10:16:34.000Z</time>
      </trkpt>
      <trkpt lat="48.7022" lon="1.79303">
        <ele>190.19999694824</ele>
        <time>2012-01-23T10:16:43.000Z</time>
      </trkpt>
      <trkpt lat="48.7021" lon="1.79311">
        <ele>190.19999694824</ele>
        <time>2012-01-23T10:16:50.000Z</time>
      </trkpt>
      <trkpt lat="48.70201" lon="1.7932">
        <ele>190</ele>
        <time>2012-01-23T10:16:58.000Z</time>
      </trkpt>
      <trkpt lat="48.70198" lon="1.79323">
        <ele>190</ele>
        <time>2012-01-23T10:17:01.000Z</time>
      </trkpt>
      <trkpt lat="48.70188" lon="1.79331">
        <ele>190</ele>
        <time>2012-01-23T10:17:09.000Z</time>
      </trkpt>
      <trkpt lat="48.70177" lon="1.7934">
        <ele>190</ele>
        <time>2012-01-23T10:17:18.000Z</time>
      </trkpt>
      <trkpt lat="48.70169" lon="1.79347">
        <ele>189.80000305176</ele>
        <time>2012-01-23T10:17:25.000Z</time>
      </trkpt>
      <trkpt lat="48.70163" lon="1.79355">
        <ele>189.80000305176</ele>
        <time>2012-01-23T10:17:31.000Z</time>
      </trkpt>
      <trkpt lat="48.70153" lon="1.79363">
        <ele>189.60000610352</ele>
        <time>2012-01-23T10:17:39.000Z</time>
      </trkpt>
      <trkpt lat="48.70145" lon="1.7937">
        <ele>189.39999389648</ele>
        <time>2012-01-23T10:17:46.000Z</time>
      </trkpt>
      <trkpt lat="48.70139" lon="1.79376">
        <ele>189.39999389648</ele>
        <time>2012-01-23T10:17:52.000Z</time>
      </trkpt>
      <trkpt lat="48.70128" lon="1.79384">
        <ele>189.19999694824</ele>
        <time>2012-01-23T10:18:01.000Z</time>
      </trkpt>
      <trkpt lat="48.70118" lon="1.79392">
        <ele>189.19999694824</ele>
        <time>2012-01-23T10:18:09.000Z</time>
      </trkpt>
      <trkpt lat="48.70108" lon="1.79402">
        <ele>189</ele>
        <time>2012-01-23T10:18:18.000Z</time>
      </trkpt>
      <trkpt lat="48.701" lon="1.79411">
        <ele>189</ele>
        <time>2012-01-23T10:18:26.000Z</time>
      </trkpt>
      <trkpt lat="48.7009" lon="1.79419">
        <ele>189</ele>
        <time>2012-01-23T10:18:35.000Z</time>
      </trkpt>
      <trkpt lat="48.70083" lon="1.79428">
        <ele>188.80000305176</ele>
        <time>2012-01-23T10:18:42.000Z</time>
      </trkpt>
      <trkpt lat="48.70072" lon="1.79438">
        <ele>188.60000610352</ele>
        <time>2012-01-23T10:18:51.000Z</time>
      </trkpt>
      <trkpt lat="48.7006" lon="1.79443">
        <ele>188.39999389648</ele>
        <time>2012-01-23T10:19:00.000Z</time>
      </trkpt>
      <trkpt lat="48.70054" lon="1.79448">
        <ele>188.39999389648</ele>
        <time>2012-01-23T10:19:06.000Z</time>
      </trkpt>
      <trkpt lat="48.70043" lon="1.79458">
        <ele>188.19999694824</ele>
        <time>2012-01-23T10:19:15.000Z</time>
      </trkpt>
      <trkpt lat="48.70034" lon="1.79466">
        <ele>188.19999694824</ele>
        <time>2012-01-23T10:19:23.000Z</time>
      </trkpt>
      <trkpt lat="48.70027" lon="1.79472">
        <ele>188.19999694824</ele>
        <time>2012-01-23T10:19:29.000Z</time>
      </trkpt>
      <trkpt lat="48.70023" lon="1.79476">
        <ele>188</ele>
        <time>2012-01-23T10:19:33.000Z</time>
      </trkpt>
      <trkpt lat="48.70014" lon="1.79485">
        <ele>188</ele>
        <time>2012-01-23T10:19:41.000Z</time>
      </trkpt>
      <trkpt lat="48.70007" lon="1.79493">
        <ele>188</ele>
        <time>2012-01-23T10:19:48.000Z</time>
      </trkpt>
      <trkpt lat="48.69999" lon="1.79501">
        <ele>188</ele>
        <time>2012-01-23T10:19:56.000Z</time>
      </trkpt>
      <trkpt lat="48.69985" lon="1.79513">
        <ele>187.39999389648</ele>
        <time>2012-01-23T10:20:07.000Z</time>
      </trkpt>
      <trkpt lat="48.69978" lon="1.79523">
        <ele>187</ele>
        <time>2012-01-23T10:20:14.000Z</time>
      </trkpt>
      <trkpt lat="48.69969" lon="1.79524">
        <ele>186.60000610352</ele>
        <time>2012-01-23T10:20:21.000Z</time>
      </trkpt>
      <trkpt lat="48.69965" lon="1.79525">
        <ele>186.39999389648</ele>
        <time>2012-01-23T10:20:24.000Z</time>
      </trkpt>
      <trkpt lat="48.69957" lon="1.79537">
        <ele>186.19999694824</ele>
        <time>2012-01-23T10:20:31.000Z</time>
      </trkpt>
      <trkpt lat="48.6995" lon="1.79546">
        <ele>185.80000305176</ele>
        <time>2012-01-23T10:20:34.000Z</time>
      </trkpt>
      <trkpt lat="48.69932" lon="1.7957">
        <ele>185.39999389648</ele>
        <time>2012-01-23T10:20:42.000Z</time>
      </trkpt>
      <trkpt lat="48.69916" lon="1.79582">
        <ele>185</ele>
        <time>2012-01-23T10:20:48.000Z</time>
      </trkpt>
      <trkpt lat="48.69894" lon="1.79602">
        <ele>185</ele>
        <time>2012-01-23T10:20:56.000Z</time>
      </trkpt>
      <trkpt lat="48.69872" lon="1.79621">
        <ele>185</ele>
        <time>2012-01-23T10:21:04.000Z</time>
      </trkpt>
      <trkpt lat="48.6985" lon="1.79641">
        <ele>185</ele>
        <time>2012-01-23T10:21:12.000Z</time>
      </trkpt>
      <trkpt lat="48.69828" lon="1.79661">
        <ele>184.80000305176</ele>
        <time>2012-01-23T10:21:20.000Z</time>
      </trkpt>
      <trkpt lat="48.69806" lon="1.79678">
        <ele>184.39999389648</ele>
        <time>2012-01-23T10:21:28.000Z</time>
      </trkpt>
      <trkpt lat="48.69785" lon="1.79697">
        <ele>184.19999694824</ele>
        <time>2012-01-23T10:21:36.000Z</time>
      </trkpt>
      <trkpt lat="48.6977" lon="1.79713">
        <ele>184</ele>
        <time>2012-01-23T10:21:42.000Z</time>
      </trkpt>
      <trkpt lat="48.69755" lon="1.79726">
        <ele>183.80000305176</ele>
        <time>2012-01-23T10:21:48.000Z</time>
      </trkpt>
      <trkpt lat="48.69734" lon="1.79744">
        <ele>183.60000610352</ele>
        <time>2012-01-23T10:21:56.000Z</time>
      </trkpt>
      <trkpt lat="48.69711" lon="1.79757">
        <ele>183.19999694824</ele>
        <time>2012-01-23T10:22:04.000Z</time>
      </trkpt>
      <trkpt lat="48.69696" lon="1.79763">
        <ele>183.19999694824</ele>
        <time>2012-01-23T10:22:09.000Z</time>
      </trkpt>
      <trkpt lat="48.69675" lon="1.79773">
        <ele>183.19999694824</ele>
        <time>2012-01-23T10:22:16.000Z</time>
      </trkpt>
      <trkpt lat="48.69648" lon="1.79786">
        <ele>184</ele>
        <time>2012-01-23T10:22:25.000Z</time>
      </trkpt>
      <trkpt lat="48.6963" lon="1.79794">
        <ele>184.60000610352</ele>
        <time>2012-01-23T10:22:31.000Z</time>
      </trkpt>
      <trkpt lat="48.69607" lon="1.79805">
        <ele>185.19999694824</ele>
        <time>2012-01-23T10:22:39.000Z</time>
      </trkpt>
      <trkpt lat="48.69604" lon="1.79806">
        <ele>185.19999694824</ele>
        <time>2012-01-23T10:22:41.000Z</time>
      </trkpt>
      <trkpt lat="48.69603" lon="1.79805">
        <ele>185.19999694824</ele>
        <time>2012-01-23T10:22:44.000Z</time>
      </trkpt>
      <trkpt lat="48.69596" lon="1.79806">
        <ele>185.19999694824</ele>
        <time>2012-01-23T10:23:04.000Z</time>
      </trkpt>
      <trkpt lat="48.69586" lon="1.79812">
        <ele>185.39999389648</ele>
        <time>2012-01-23T10:23:12.000Z</time>
      </trkpt>
      <trkpt lat="48.69577" lon="1.79819">
        <ele>186</ele>
        <time>2012-01-23T10:23:20.000Z</time>
      </trkpt>
      <trkpt lat="48.69568" lon="1.7982">
        <ele>186.39999389648</ele>
        <time>2012-01-23T10:23:28.000Z</time>
      </trkpt>
      <trkpt lat="48.69564" lon="1.79822">
        <ele>186.80000305176</ele>
        <time>2012-01-23T10:23:32.000Z</time>
      </trkpt>
      <trkpt lat="48.69559" lon="1.79825">
        <ele>187</ele>
        <time>2012-01-23T10:23:37.000Z</time>
      </trkpt>
      <trkpt lat="48.69546" lon="1.79833">
        <ele>187.80000305176</ele>
        <time>2012-01-23T10:23:47.000Z</time>
      </trkpt>
      <trkpt lat="48.69539" lon="1.79838">
        <ele>188</ele>
        <time>2012-01-23T10:23:53.000Z</time>
      </trkpt>
      <trkpt lat="48.6953" lon="1.79842">
        <ele>188.39999389648</ele>
        <time>2012-01-23T10:24:00.000Z</time>
      </trkpt>
      <trkpt lat="48.69523" lon="1.79843">
        <ele>188.60000610352</ele>
        <time>2012-01-23T10:24:06.000Z</time>
      </trkpt>
      <trkpt lat="48.69515" lon="1.79847">
        <ele>188.80000305176</ele>
        <time>2012-01-23T10:24:13.000Z</time>
      </trkpt>
      <trkpt lat="48.69508" lon="1.7985">
        <ele>188.80000305176</ele>
        <time>2012-01-23T10:24:19.000Z</time>
      </trkpt>
      <trkpt lat="48.695" lon="1.79858">
        <ele>188.80000305176</ele>
        <time>2012-01-23T10:24:26.000Z</time>
      </trkpt>
      <trkpt lat="48.69491" lon="1.79864">
        <ele>188.39999389648</ele>
        <time>2012-01-23T10:24:34.000Z</time>
      </trkpt>
      <trkpt lat="48.69481" lon="1.79868">
        <ele>188</ele>
        <time>2012-01-23T10:24:43.000Z</time>
      </trkpt>
      <trkpt lat="48.69474" lon="1.79871">
        <ele>187.60000610352</ele>
        <time>2012-01-23T10:24:51.000Z</time>
      </trkpt>
      <trkpt lat="48.6947" lon="1.79875">
        <ele>187.39999389648</ele>
        <time>2012-01-23T10:24:56.000Z</time>
      </trkpt>
      <trkpt lat="48.69463" lon="1.79877">
        <ele>187.19999694824</ele>
        <time>2012-01-23T10:25:03.000Z</time>
      </trkpt>
      <trkpt lat="48.69461" lon="1.79876">
        <ele>187.19999694824</ele>
        <time>2012-01-23T10:25:05.000Z</time>
      </trkpt>
      <trkpt lat="48.69454" lon="1.79878">
        <ele>187</ele>
        <time>2012-01-23T10:25:12.000Z</time>
      </trkpt>
      <trkpt lat="48.6945" lon="1.79879">
        <ele>187</ele>
        <time>2012-01-23T10:25:17.000Z</time>
      </trkpt>
      <trkpt lat="48.69443" lon="1.79883">
        <ele>186.60000610352</ele>
        <time>2012-01-23T10:25:24.000Z</time>
      </trkpt>
      <trkpt lat="48.69434" lon="1.79889">
        <ele>186.19999694824</ele>
        <time>2012-01-23T10:25:31.000Z</time>
      </trkpt>
      <trkpt lat="48.69429" lon="1.79893">
        <ele>186</ele>
        <time>2012-01-23T10:25:36.000Z</time>
      </trkpt>
      <trkpt lat="48.69421" lon="1.79896">
        <ele>185.80000305176</ele>
        <time>2012-01-23T10:25:42.000Z</time>
      </trkpt>
      <trkpt lat="48.69409" lon="1.799">
        <ele>185.19999694824</ele>
        <time>2012-01-23T10:25:52.000Z</time>
      </trkpt>
      <trkpt lat="48.69398" lon="1.79904">
        <ele>184.60000610352</ele>
        <time>2012-01-23T10:26:01.000Z</time>
      </trkpt>
      <trkpt lat="48.69389" lon="1.79907">
        <ele>184</ele>
        <time>2012-01-23T10:26:09.000Z</time>
      </trkpt>
      <trkpt lat="48.69383" lon="1.7991">
        <ele>183.60000610352</ele>
        <time>2012-01-23T10:26:14.000Z</time>
      </trkpt>
      <trkpt lat="48.69377" lon="1.79914">
        <ele>183.19999694824</ele>
        <time>2012-01-23T10:26:19.000Z</time>
      </trkpt>
      <trkpt lat="48.69366" lon="1.79914">
        <ele>182.60000610352</ele>
        <time>2012-01-23T10:26:27.000Z</time>
      </trkpt>
      <trkpt lat="48.6935" lon="1.7992">
        <ele>181.60000610352</ele>
        <time>2012-01-23T10:26:33.000Z</time>
      </trkpt>
      <trkpt lat="48.69324" lon="1.79933">
        <ele>180.80000305176</ele>
        <time>2012-01-23T10:26:42.000Z</time>
      </trkpt>
      <trkpt lat="48.69309" lon="1.79941">
        <ele>181</ele>
        <time>2012-01-23T10:26:47.000Z</time>
      </trkpt>
      <trkpt lat="48.69291" lon="1.79949">
        <ele>181.39999389648</ele>
        <time>2012-01-23T10:26:53.000Z</time>
      </trkpt>
      <trkpt lat="48.69264" lon="1.7996">
        <ele>182</ele>
        <time>2012-01-23T10:27:01.000Z</time>
      </trkpt>
      <trkpt lat="48.69248" lon="1.79968">
        <ele>182.39999389648</ele>
        <time>2012-01-23T10:27:06.000Z</time>
      </trkpt>
      <trkpt lat="48.69233" lon="1.79976">
        <ele>183.39999389648</ele>
        <time>2012-01-23T10:27:11.000Z</time>
      </trkpt>
      <trkpt lat="48.69212" lon="1.79986">
        <ele>184.60000610352</ele>
        <time>2012-01-23T10:27:17.000Z</time>
      </trkpt>
      <trkpt lat="48.69193" lon="1.79998">
        <ele>185.80000305176</ele>
        <time>2012-01-23T10:27:23.000Z</time>
      </trkpt>
      <trkpt lat="48.69174" lon="1.80006">
        <ele>187.19999694824</ele>
        <time>2012-01-23T10:27:29.000Z</time>
      </trkpt>
      <trkpt lat="48.69157" lon="1.80014">
        <ele>187.60000610352</ele>
        <time>2012-01-23T10:27:34.000Z</time>
      </trkpt>
      <trkpt lat="48.69136" lon="1.80023">
        <ele>187.60000610352</ele>
        <time>2012-01-23T10:27:40.000Z</time>
      </trkpt>
      <trkpt lat="48.69107" lon="1.80036">
        <ele>187.39999389648</ele>
        <time>2012-01-23T10:27:49.000Z</time>
      </trkpt>
      <trkpt lat="48.6909" lon="1.80044">
        <ele>187.39999389648</ele>
        <time>2012-01-23T10:27:55.000Z</time>
      </trkpt>
      <trkpt lat="48.69065" lon="1.80055">
        <ele>187</ele>
        <time>2012-01-23T10:28:03.000Z</time>
      </trkpt>
      <trkpt lat="48.69044" lon="1.80065">
        <ele>186.80000305176</ele>
        <time>2012-01-23T10:28:10.000Z</time>
      </trkpt>
      <trkpt lat="48.69023" lon="1.80072">
        <ele>186.60000610352</ele>
        <time>2012-01-23T10:28:16.000Z</time>
      </trkpt>
      <trkpt lat="48.69001" lon="1.80082">
        <ele>186</ele>
        <time>2012-01-23T10:28:23.000Z</time>
      </trkpt>
      <trkpt lat="48.68979" lon="1.80093">
        <ele>187</ele>
        <time>2012-01-23T10:28:31.000Z</time>
      </trkpt>
      <trkpt lat="48.68958" lon="1.80101">
        <ele>187.80000305176</ele>
        <time>2012-01-23T10:28:38.000Z</time>
      </trkpt>
      <trkpt lat="48.6894" lon="1.80109">
        <ele>188.39999389648</ele>
        <time>2012-01-23T10:28:44.000Z</time>
      </trkpt>
      <trkpt lat="48.68917" lon="1.80122">
        <ele>189</ele>
        <time>2012-01-23T10:28:52.000Z</time>
      </trkpt>
      <trkpt lat="48.68898" lon="1.80131">
        <ele>188.80000305176</ele>
        <time>2012-01-23T10:28:58.000Z</time>
      </trkpt>
      <trkpt lat="48.68896" lon="1.80131">
        <ele>188.80000305176</ele>
        <time>2012-01-23T10:28:59.000Z</time>
      </trkpt>
      <trkpt lat="48.68883" lon="1.80138">
        <ele>188.60000610352</ele>
        <time>2012-01-23T10:29:04.000Z</time>
      </trkpt>
      <trkpt lat="48.68863" lon="1.80147">
        <ele>188.39999389648</ele>
        <time>2012-01-23T10:29:11.000Z</time>
      </trkpt>
      <trkpt lat="48.68847" lon="1.80155">
        <ele>188.19999694824</ele>
        <time>2012-01-23T10:29:16.000Z</time>
      </trkpt>
      <trkpt lat="48.68827" lon="1.80163">
        <ele>188</ele>
        <time>2012-01-23T10:29:23.000Z</time>
      </trkpt>
      <trkpt lat="48.68804" lon="1.80174">
        <ele>187.39999389648</ele>
        <time>2012-01-23T10:29:31.000Z</time>
      </trkpt>
      <trkpt lat="48.68791" lon="1.80182">
        <ele>187.19999694824</ele>
        <time>2012-01-23T10:29:36.000Z</time>
      </trkpt>
      <trkpt lat="48.68771" lon="1.80191">
        <ele>187</ele>
        <time>2012-01-23T10:29:43.000Z</time>
      </trkpt>
      <trkpt lat="48.68749" lon="1.80202">
        <ele>186.80000305176</ele>
        <time>2012-01-23T10:29:50.000Z</time>
      </trkpt>
      <trkpt lat="48.68735" lon="1.80208">
        <ele>187</ele>
        <time>2012-01-23T10:29:55.000Z</time>
      </trkpt>
      <trkpt lat="48.68714" lon="1.80217">
        <ele>187.19999694824</ele>
        <time>2012-01-23T10:30:02.000Z</time>
      </trkpt>
      <trkpt lat="48.68694" lon="1.80225">
        <ele>187.39999389648</ele>
        <time>2012-01-23T10:30:09.000Z</time>
      </trkpt>
      <trkpt lat="48.68667" lon="1.80238">
        <ele>187.19999694824</ele>
        <time>2012-01-23T10:30:18.000Z</time>
      </trkpt>
      <trkpt lat="48.68648" lon="1.80247">
        <ele>186.60000610352</ele>
        <time>2012-01-23T10:30:24.000Z</time>
      </trkpt>
      <trkpt lat="48.68633" lon="1.80253">
        <ele>186.19999694824</ele>
        <time>2012-01-23T10:30:29.000Z</time>
      </trkpt>
      <trkpt lat="48.68613" lon="1.80264">
        <ele>186</ele>
        <time>2012-01-23T10:30:36.000Z</time>
      </trkpt>
      <trkpt lat="48.68595" lon="1.80271">
        <ele>185.60000610352</ele>
        <time>2012-01-23T10:30:43.000Z</time>
      </trkpt>
      <trkpt lat="48.68581" lon="1.80277">
        <ele>185.39999389648</ele>
        <time>2012-01-23T10:30:48.000Z</time>
      </trkpt>
      <trkpt lat="48.68567" lon="1.8028">
        <ele>185.60000610352</ele>
        <time>2012-01-23T10:30:53.000Z</time>
      </trkpt>
      <trkpt lat="48.6855" lon="1.80286">
        <ele>185.80000305176</ele>
        <time>2012-01-23T10:30:59.000Z</time>
      </trkpt>
      <trkpt lat="48.68533" lon="1.80298">
        <ele>186</ele>
        <time>2012-01-23T10:31:05.000Z</time>
      </trkpt>
      <trkpt lat="48.68509" lon="1.80308">
        <ele>186.19999694824</ele>
        <time>2012-01-23T10:31:13.000Z</time>
      </trkpt>
      <trkpt lat="48.68492" lon="1.80318">
        <ele>186.39999389648</ele>
        <time>2012-01-23T10:31:19.000Z</time>
      </trkpt>
      <trkpt lat="48.68485" lon="1.80323">
        <ele>186.39999389648</ele>
        <time>2012-01-23T10:31:24.000Z</time>
      </trkpt>
      <trkpt lat="48.68478" lon="1.80326">
        <ele>186.60000610352</ele>
        <time>2012-01-23T10:31:28.000Z</time>
      </trkpt>
      <trkpt lat="48.68469" lon="1.80333">
        <ele>186.80000305176</ele>
        <time>2012-01-23T10:31:35.000Z</time>
      </trkpt>
      <trkpt lat="48.68462" lon="1.80335">
        <ele>186.80000305176</ele>
        <time>2012-01-23T10:31:40.000Z</time>
      </trkpt>
      <trkpt lat="48.68456" lon="1.80332">
        <ele>187</ele>
        <time>2012-01-23T10:31:45.000Z</time>
      </trkpt>
      <trkpt lat="48.68448" lon="1.80335">
        <ele>187.19999694824</ele>
        <time>2012-01-23T10:31:54.000Z</time>
      </trkpt>
      <trkpt lat="48.68441" lon="1.80339">
        <ele>187.39999389648</ele>
        <time>2012-01-23T10:32:00.000Z</time>
      </trkpt>
      <trkpt lat="48.68434" lon="1.80347">
        <ele>187.39999389648</ele>
        <time>2012-01-23T10:32:07.000Z</time>
      </trkpt>
      <trkpt lat="48.68424" lon="1.80352">
        <ele>187.39999389648</ele>
        <time>2012-01-23T10:32:15.000Z</time>
      </trkpt>
      <trkpt lat="48.68422" lon="1.80352">
        <ele>187.39999389648</ele>
        <time>2012-01-23T10:32:17.000Z</time>
      </trkpt>
      <trkpt lat="48.6841" lon="1.80356">
        <ele>187.39999389648</ele>
        <time>2012-01-23T10:32:28.000Z</time>
      </trkpt>
      <trkpt lat="48.684" lon="1.8036">
        <ele>187.19999694824</ele>
        <time>2012-01-23T10:32:36.000Z</time>
      </trkpt>
      <trkpt lat="48.68388" lon="1.80364">
        <ele>187</ele>
        <time>2012-01-23T10:32:46.000Z</time>
      </trkpt>
      <trkpt lat="48.68378" lon="1.8037">
        <ele>186.80000305176</ele>
        <time>2012-01-23T10:32:55.000Z</time>
      </trkpt>
      <trkpt lat="48.68369" lon="1.80374">
        <ele>186.80000305176</ele>
        <time>2012-01-23T10:33:02.000Z</time>
      </trkpt>
      <trkpt lat="48.68362" lon="1.80377">
        <ele>186.60000610352</ele>
        <time>2012-01-23T10:33:08.000Z</time>
      </trkpt>
      <trkpt lat="48.6835" lon="1.80383">
        <ele>186.39999389648</ele>
        <time>2012-01-23T10:33:17.000Z</time>
      </trkpt>
      <trkpt lat="48.68344" lon="1.80384">
        <ele>186.39999389648</ele>
        <time>2012-01-23T10:33:24.000Z</time>
      </trkpt>
      <trkpt lat="48.68333" lon="1.8039">
        <ele>186.39999389648</ele>
        <time>2012-01-23T10:33:33.000Z</time>
      </trkpt>
      <trkpt lat="48.6832" lon="1.80397">
        <ele>185.80000305176</ele>
        <time>2012-01-23T10:33:43.000Z</time>
      </trkpt>
      <trkpt lat="48.68309" lon="1.80402">
        <ele>185.60000610352</ele>
        <time>2012-01-23T10:33:52.000Z</time>
      </trkpt>
      <trkpt lat="48.68297" lon="1.80407">
        <ele>185.19999694824</ele>
        <time>2012-01-23T10:34:01.000Z</time>
      </trkpt>
      <trkpt lat="48.68285" lon="1.80413">
        <ele>184.80000305176</ele>
        <time>2012-01-23T10:34:11.000Z</time>
      </trkpt>
      <trkpt lat="48.68274" lon="1.80418">
        <ele>184.39999389648</ele>
        <time>2012-01-23T10:34:20.000Z</time>
      </trkpt>
      <trkpt lat="48.68264" lon="1.80423">
        <ele>184</ele>
        <time>2012-01-23T10:34:28.000Z</time>
      </trkpt>
      <trkpt lat="48.68253" lon="1.80429">
        <ele>183.60000610352</ele>
        <time>2012-01-23T10:34:36.000Z</time>
      </trkpt>
      <trkpt lat="48.68241" lon="1.80434">
        <ele>182.80000305176</ele>
        <time>2012-01-23T10:34:46.000Z</time>
      </trkpt>
      <trkpt lat="48.68237" lon="1.80435">
        <ele>182.60000610352</ele>
        <time>2012-01-23T10:34:51.000Z</time>
      </trkpt>
      <trkpt lat="48.68236" lon="1.80435">
        <ele>182.39999389648</ele>
        <time>2012-01-23T10:34:52.000Z</time>
      </trkpt>
      <trkpt lat="48.68226" lon="1.8044">
        <ele>181.80000305176</ele>
        <time>2012-01-23T10:35:00.000Z</time>
      </trkpt>
      <trkpt lat="48.68215" lon="1.80444">
        <ele>181.19999694824</ele>
        <time>2012-01-23T10:35:09.000Z</time>
      </trkpt>
      <trkpt lat="48.68206" lon="1.80448">
        <ele>180.80000305176</ele>
        <time>2012-01-23T10:35:16.000Z</time>
      </trkpt>
      <trkpt lat="48.68205" lon="1.80448">
        <ele>180.80000305176</ele>
        <time>2012-01-23T10:35:17.000Z</time>
      </trkpt>
      <trkpt lat="48.68198" lon="1.80451">
        <ele>180.60000610352</ele>
        <time>2012-01-23T10:35:24.000Z</time>
      </trkpt>
      <trkpt lat="48.68197" lon="1.80452">
        <ele>180.39999389648</ele>
        <time>2012-01-23T10:35:25.000Z</time>
      </trkpt>
      <trkpt lat="48.68185" lon="1.80457">
        <ele>180</ele>
        <time>2012-01-23T10:35:35.000Z</time>
      </trkpt>
      <trkpt lat="48.68178" lon="1.80458">
        <ele>179.80000305176</ele>
        <time>2012-01-23T10:35:41.000Z</time>
      </trkpt>
      <trkpt lat="48.68168" lon="1.80463">
        <ele>179.60000610352</ele>
        <time>2012-01-23T10:35:50.000Z</time>
      </trkpt>
      <trkpt lat="48.68157" lon="1.80469">
        <ele>179.80000305176</ele>
        <time>2012-01-23T10:35:59.000Z</time>
      </trkpt>
      <trkpt lat="48.68147" lon="1.80474">
        <ele>180</ele>
        <time>2012-01-23T10:36:07.000Z</time>
      </trkpt>
      <trkpt lat="48.68139" lon="1.80479">
        <ele>180</ele>
        <time>2012-01-23T10:36:15.000Z</time>
      </trkpt>
      <trkpt lat="48.68128" lon="1.80482">
        <ele>180.19999694824</ele>
        <time>2012-01-23T10:36:24.000Z</time>
      </trkpt>
      <trkpt lat="48.68121" lon="1.80485">
        <ele>180.39999389648</ele>
        <time>2012-01-23T10:36:30.000Z</time>
      </trkpt>
      <trkpt lat="48.6811" lon="1.80491">
        <ele>180.60000610352</ele>
        <time>2012-01-23T10:36:39.000Z</time>
      </trkpt>
      <trkpt lat="48.68101" lon="1.80496">
        <ele>180.80000305176</ele>
        <time>2012-01-23T10:36:46.000Z</time>
      </trkpt>
      <trkpt lat="48.68094" lon="1.80499">
        <ele>180.80000305176</ele>
        <time>2012-01-23T10:36:52.000Z</time>
      </trkpt>
      <trkpt lat="48.68089" lon="1.80507">
        <ele>180.80000305176</ele>
        <time>2012-01-23T10:36:59.000Z</time>
      </trkpt>
      <trkpt lat="48.68084" lon="1.80514">
        <ele>180.60000610352</ele>
        <time>2012-01-23T10:37:04.000Z</time>
      </trkpt>
      <trkpt lat="48.68076" lon="1.80524">
        <ele>180.39999389648</ele>
        <time>2012-01-23T10:37:12.000Z</time>
      </trkpt>
      <trkpt lat="48.68071" lon="1.8053">
        <ele>180.39999389648</ele>
        <time>2012-01-23T10:37:17.000Z</time>
      </trkpt>
      <trkpt lat="48.68064" lon="1.80535">
        <ele>180.39999389648</ele>
        <time>2012-01-23T10:37:23.000Z</time>
      </trkpt>
      <trkpt lat="48.68058" lon="1.8054">
        <ele>180.39999389648</ele>
        <time>2012-01-23T10:37:28.000Z</time>
      </trkpt>
      <trkpt lat="48.6805" lon="1.80548">
        <ele>180.19999694824</ele>
        <time>2012-01-23T10:37:35.000Z</time>
      </trkpt>
      <trkpt lat="48.68043" lon="1.80557">
        <ele>180.19999694824</ele>
        <time>2012-01-23T10:37:42.000Z</time>
      </trkpt>
      <trkpt lat="48.68034" lon="1.80567">
        <ele>180</ele>
        <time>2012-01-23T10:37:50.000Z</time>
      </trkpt>
      <trkpt lat="48.68029" lon="1.80579">
        <ele>179.80000305176</ele>
        <time>2012-01-23T10:37:57.000Z</time>
      </trkpt>
      <trkpt lat="48.68024" lon="1.80589">
        <ele>179.39999389648</ele>
        <time>2012-01-23T10:38:03.000Z</time>
      </trkpt>
      <trkpt lat="48.68018" lon="1.80592">
        <ele>179.39999389648</ele>
        <time>2012-01-23T10:38:09.000Z</time>
      </trkpt>
      <trkpt lat="48.68008" lon="1.8059">
        <ele>179.60000610352</ele>
        <time>2012-01-23T10:38:17.000Z</time>
      </trkpt>
      <trkpt lat="48.67999" lon="1.80598">
        <ele>179.39999389648</ele>
        <time>2012-01-23T10:38:25.000Z</time>
      </trkpt>
      <trkpt lat="48.67991" lon="1.80613">
        <ele>179</ele>
        <time>2012-01-23T10:38:34.000Z</time>
      </trkpt>
      <trkpt lat="48.67985" lon="1.80624">
        <ele>178.60000610352</ele>
        <time>2012-01-23T10:38:41.000Z</time>
      </trkpt>
      <trkpt lat="48.67977" lon="1.80638">
        <ele>178.39999389648</ele>
        <time>2012-01-23T10:38:50.000Z</time>
      </trkpt>
      <trkpt lat="48.67975" lon="1.80639">
        <ele>178.60000610352</ele>
        <time>2012-01-23T10:38:51.000Z</time>
      </trkpt>
      <trkpt lat="48.67967" lon="1.8065">
        <ele>178.60000610352</ele>
        <time>2012-01-23T10:38:59.000Z</time>
      </trkpt>
      <trkpt lat="48.6796" lon="1.80662">
        <ele>178.60000610352</ele>
        <time>2012-01-23T10:39:06.000Z</time>
      </trkpt>
      <trkpt lat="48.67952" lon="1.80668">
        <ele>178.80000305176</ele>
        <time>2012-01-23T10:39:12.000Z</time>
      </trkpt>
      <trkpt lat="48.67949" lon="1.80674">
        <ele>178.80000305176</ele>
        <time>2012-01-23T10:39:16.000Z</time>
      </trkpt>
      <trkpt lat="48.67944" lon="1.80689">
        <ele>178.39999389648</ele>
        <time>2012-01-23T10:39:24.000Z</time>
      </trkpt>
      <trkpt lat="48.67937" lon="1.807">
        <ele>178.39999389648</ele>
        <time>2012-01-23T10:39:31.000Z</time>
      </trkpt>
      <trkpt lat="48.6793" lon="1.80711">
        <ele>178.19999694824</ele>
        <time>2012-01-23T10:39:38.000Z</time>
      </trkpt>
      <trkpt lat="48.67924" lon="1.80716">
        <ele>178.39999389648</ele>
        <time>2012-01-23T10:39:43.000Z</time>
      </trkpt>
      <trkpt lat="48.67918" lon="1.80721">
        <ele>178.19999694824</ele>
        <time>2012-01-23T10:39:50.000Z</time>
      </trkpt>
      <trkpt lat="48.67914" lon="1.80732">
        <ele>178</ele>
        <time>2012-01-23T10:39:57.000Z</time>
      </trkpt>
      <trkpt lat="48.67911" lon="1.80739">
        <ele>177.60000610352</ele>
        <time>2012-01-23T10:40:02.000Z</time>
      </trkpt>
      <trkpt lat="48.67911" lon="1.80748">
        <ele>177.19999694824</ele>
        <time>2012-01-23T10:40:09.000Z</time>
      </trkpt>
      <trkpt lat="48.67911" lon="1.80749">
        <ele>177.19999694824</ele>
        <time>2012-01-23T10:40:10.000Z</time>
      </trkpt>
      <trkpt lat="48.67906" lon="1.8076">
        <ele>177</ele>
        <time>2012-01-23T10:40:18.000Z</time>
      </trkpt>
      <trkpt lat="48.67902" lon="1.80773">
        <ele>177</ele>
        <time>2012-01-23T10:40:25.000Z</time>
      </trkpt>
      <trkpt lat="48.67899" lon="1.8078">
        <ele>176.80000305176</ele>
        <time>2012-01-23T10:40:29.000Z</time>
      </trkpt>
      <trkpt lat="48.67896" lon="1.80787">
        <ele>176.80000305176</ele>
        <time>2012-01-23T10:40:33.000Z</time>
      </trkpt>
      <trkpt lat="48.67893" lon="1.80801">
        <ele>176.60000610352</ele>
        <time>2012-01-23T10:40:41.000Z</time>
      </trkpt>
      <trkpt lat="48.67889" lon="1.80814">
        <ele>176.60000610352</ele>
        <time>2012-01-23T10:40:48.000Z</time>
      </trkpt>
      <trkpt lat="48.67889" lon="1.80814">
        <ele>176.60000610352</ele>
        <time>2012-01-23T10:40:49.000Z</time>
      </trkpt>
      <trkpt lat="48.67886" lon="1.80824">
        <ele>176.60000610352</ele>
        <time>2012-01-23T10:40:55.000Z</time>
      </trkpt>
      <trkpt lat="48.67885" lon="1.80826">
        <ele>176.60000610352</ele>
        <time>2012-01-23T10:40:57.000Z</time>
      </trkpt>
      <trkpt lat="48.67883" lon="1.80835">
        <ele>176.60000610352</ele>
        <time>2012-01-23T10:41:03.000Z</time>
      </trkpt>
      <trkpt lat="48.67882" lon="1.80837">
        <ele>176.60000610352</ele>
        <time>2012-01-23T10:41:04.000Z</time>
      </trkpt>
      <trkpt lat="48.67876" lon="1.80844">
        <ele>177</ele>
        <time>2012-01-23T10:41:12.000Z</time>
      </trkpt>
      <trkpt lat="48.67872" lon="1.80858">
        <ele>177.39999389648</ele>
        <time>2012-01-23T10:41:19.000Z</time>
      </trkpt>
      <trkpt lat="48.67871" lon="1.80861">
        <ele>177.60000610352</ele>
        <time>2012-01-23T10:41:21.000Z</time>
      </trkpt>
      <trkpt lat="48.67871" lon="1.80875">
        <ele>177.80000305176</ele>
        <time>2012-01-23T10:41:28.000Z</time>
      </trkpt>
      <trkpt lat="48.6787" lon="1.80884">
        <ele>178</ele>
        <time>2012-01-23T10:41:33.000Z</time>
      </trkpt>
      <trkpt lat="48.67867" lon="1.80896">
        <ele>178.39999389648</ele>
        <time>2012-01-23T10:41:40.000Z</time>
      </trkpt>
      <trkpt lat="48.67867" lon="1.80904">
        <ele>178.60000610352</ele>
        <time>2012-01-23T10:41:44.000Z</time>
      </trkpt>
      <trkpt lat="48.67867" lon="1.80921">
        <ele>178.80000305176</ele>
        <time>2012-01-23T10:41:52.000Z</time>
      </trkpt>
      <trkpt lat="48.67866" lon="1.80923">
        <ele>178.80000305176</ele>
        <time>2012-01-23T10:41:53.000Z</time>
      </trkpt>
      <trkpt lat="48.67866" lon="1.80932">
        <ele>178.80000305176</ele>
        <time>2012-01-23T10:41:57.000Z</time>
      </trkpt>
      <trkpt lat="48.67866" lon="1.80945">
        <ele>178.80000305176</ele>
        <time>2012-01-23T10:42:03.000Z</time>
      </trkpt>
      <trkpt lat="48.67866" lon="1.80948">
        <ele>178.60000610352</ele>
        <time>2012-01-23T10:42:05.000Z</time>
      </trkpt>
      <trkpt lat="48.67867" lon="1.80952">
        <ele>178.60000610352</ele>
        <time>2012-01-23T10:42:07.000Z</time>
      </trkpt>
      <trkpt lat="48.67868" lon="1.80957">
        <ele>178.39999389648</ele>
        <time>2012-01-23T10:42:10.000Z</time>
      </trkpt>
      <trkpt lat="48.67875" lon="1.80965">
        <ele>177.80000305176</ele>
        <time>2012-01-23T10:42:16.000Z</time>
      </trkpt>
      <trkpt lat="48.67877" lon="1.80971">
        <ele>177.60000610352</ele>
        <time>2012-01-23T10:42:19.000Z</time>
      </trkpt>
      <trkpt lat="48.67879" lon="1.80986">
        <ele>177.19999694824</ele>
        <time>2012-01-23T10:42:26.000Z</time>
      </trkpt>
      <trkpt lat="48.67881" lon="1.81001">
        <ele>176.80000305176</ele>
        <time>2012-01-23T10:42:32.000Z</time>
      </trkpt>
      <trkpt lat="48.67879" lon="1.81008">
        <ele>177.19999694824</ele>
        <time>2012-01-23T10:42:36.000Z</time>
      </trkpt>
      <trkpt lat="48.67877" lon="1.81021">
        <ele>177.60000610352</ele>
        <time>2012-01-23T10:42:42.000Z</time>
      </trkpt>
      <trkpt lat="48.67876" lon="1.81033">
        <ele>178</ele>
        <time>2012-01-23T10:42:48.000Z</time>
      </trkpt>
      <trkpt lat="48.67874" lon="1.81044">
        <ele>178.39999389648</ele>
        <time>2012-01-23T10:42:54.000Z</time>
      </trkpt>
      <trkpt lat="48.67874" lon="1.81046">
        <ele>178.39999389648</ele>
        <time>2012-01-23T10:42:55.000Z</time>
      </trkpt>
      <trkpt lat="48.67875" lon="1.81053">
        <ele>178.39999389648</ele>
        <time>2012-01-23T10:42:59.000Z</time>
      </trkpt>
      <trkpt lat="48.67867" lon="1.81067">
        <ele>179.39999389648</ele>
        <time>2012-01-23T10:43:06.000Z</time>
      </trkpt>
      <trkpt lat="48.67869" lon="1.81075">
        <ele>179.39999389648</ele>
        <time>2012-01-23T10:43:10.000Z</time>
      </trkpt>
      <trkpt lat="48.6787" lon="1.81092">
        <ele>179.19999694824</ele>
        <time>2012-01-23T10:43:18.000Z</time>
      </trkpt>
      <trkpt lat="48.6787" lon="1.81104">
        <ele>179</ele>
        <time>2012-01-23T10:43:24.000Z</time>
      </trkpt>
      <trkpt lat="48.67869" lon="1.81117">
        <ele>178.60000610352</ele>
        <time>2012-01-23T10:43:32.000Z</time>
      </trkpt>
      <trkpt lat="48.67871" lon="1.81124">
        <ele>178.39999389648</ele>
        <time>2012-01-23T10:43:36.000Z</time>
      </trkpt>
      <trkpt lat="48.67869" lon="1.81131">
        <ele>178.19999694824</ele>
        <time>2012-01-23T10:43:40.000Z</time>
      </trkpt>
      <trkpt lat="48.67862" lon="1.81136">
        <ele>178.60000610352</ele>
        <time>2012-01-23T10:43:46.000Z</time>
      </trkpt>
      <trkpt lat="48.67854" lon="1.81131">
        <ele>179.19999694824</ele>
        <time>2012-01-23T10:43:54.000Z</time>
      </trkpt>
      <trkpt lat="48.6785" lon="1.81129">
        <ele>179.60000610352</ele>
        <time>2012-01-23T10:43:58.000Z</time>
      </trkpt>
      <trkpt lat="48.67839" lon="1.81132">
        <ele>180.19999694824</ele>
        <time>2012-01-23T10:44:07.000Z</time>
      </trkpt>
      <trkpt lat="48.6783" lon="1.81139">
        <ele>180.39999389648</ele>
        <time>2012-01-23T10:44:14.000Z</time>
      </trkpt>
      <trkpt lat="48.67822" lon="1.81147">
        <ele>180.39999389648</ele>
        <time>2012-01-23T10:44:22.000Z</time>
      </trkpt>
      <trkpt lat="48.67815" lon="1.81155">
        <ele>180.39999389648</ele>
        <time>2012-01-23T10:44:29.000Z</time>
      </trkpt>
      <trkpt lat="48.67806" lon="1.81164">
        <ele>180.39999389648</ele>
        <time>2012-01-23T10:44:38.000Z</time>
      </trkpt>
      <trkpt lat="48.67802" lon="1.81167">
        <ele>180.60000610352</ele>
        <time>2012-01-23T10:44:43.000Z</time>
      </trkpt>
      <trkpt lat="48.67796" lon="1.81179">
        <ele>180.39999389648</ele>
        <time>2012-01-23T10:44:50.000Z</time>
      </trkpt>
      <trkpt lat="48.6779" lon="1.81185">
        <ele>180.60000610352</ele>
        <time>2012-01-23T10:44:55.000Z</time>
      </trkpt>
      <trkpt lat="48.67788" lon="1.81187">
        <ele>180.60000610352</ele>
        <time>2012-01-23T10:44:57.000Z</time>
      </trkpt>
      <trkpt lat="48.67784" lon="1.8119">
        <ele>180.60000610352</ele>
        <time>2012-01-23T10:45:02.000Z</time>
      </trkpt>
      <trkpt lat="48.67777" lon="1.81201">
        <ele>180.39999389648</ele>
        <time>2012-01-23T10:45:11.000Z</time>
      </trkpt>
      <trkpt lat="48.67773" lon="1.81207">
        <ele>180.39999389648</ele>
        <time>2012-01-23T10:45:16.000Z</time>
      </trkpt>
      <trkpt lat="48.67766" lon="1.81215">
        <ele>180.19999694824</ele>
        <time>2012-01-23T10:45:22.000Z</time>
      </trkpt>
      <trkpt lat="48.67759" lon="1.81224">
        <ele>180</ele>
        <time>2012-01-23T10:45:30.000Z</time>
      </trkpt>
      <trkpt lat="48.67756" lon="1.81229">
        <ele>179.80000305176</ele>
        <time>2012-01-23T10:45:33.000Z</time>
      </trkpt>
      <trkpt lat="48.67749" lon="1.81239">
        <ele>179.60000610352</ele>
        <time>2012-01-23T10:45:40.000Z</time>
      </trkpt>
      <trkpt lat="48.67745" lon="1.81245">
        <ele>179.60000610352</ele>
        <time>2012-01-23T10:45:45.000Z</time>
      </trkpt>
      <trkpt lat="48.67738" lon="1.81255">
        <ele>179.60000610352</ele>
        <time>2012-01-23T10:45:54.000Z</time>
      </trkpt>
      <trkpt lat="48.67731" lon="1.81267">
        <ele>179.80000305176</ele>
        <time>2012-01-23T10:46:02.000Z</time>
      </trkpt>
      <trkpt lat="48.67723" lon="1.81283">
        <ele>180</ele>
        <time>2012-01-23T10:46:11.000Z</time>
      </trkpt>
      <trkpt lat="48.67718" lon="1.81296">
        <ele>180</ele>
        <time>2012-01-23T10:46:18.000Z</time>
      </trkpt>
      <trkpt lat="48.67717" lon="1.81301">
        <ele>179.80000305176</ele>
        <time>2012-01-23T10:46:21.000Z</time>
      </trkpt>
      <trkpt lat="48.67712" lon="1.81312">
        <ele>179.80000305176</ele>
        <time>2012-01-23T10:46:28.000Z</time>
      </trkpt>
      <trkpt lat="48.67711" lon="1.81324">
        <ele>179.60000610352</ele>
        <time>2012-01-23T10:46:34.000Z</time>
      </trkpt>
      <trkpt lat="48.67709" lon="1.81338">
        <ele>179.39999389648</ele>
        <time>2012-01-23T10:46:42.000Z</time>
      </trkpt>
      <trkpt lat="48.67706" lon="1.81351">
        <ele>179</ele>
        <time>2012-01-23T10:46:49.000Z</time>
      </trkpt>
      <trkpt lat="48.67703" lon="1.8136">
        <ele>178.80000305176</ele>
        <time>2012-01-23T10:46:55.000Z</time>
      </trkpt>
      <trkpt lat="48.677" lon="1.81367">
        <ele>178.60000610352</ele>
        <time>2012-01-23T10:46:59.000Z</time>
      </trkpt>
      <trkpt lat="48.67699" lon="1.81378">
        <ele>178.19999694824</ele>
        <time>2012-01-23T10:47:07.000Z</time>
      </trkpt>
      <trkpt lat="48.67698" lon="1.8138">
        <ele>178.19999694824</ele>
        <time>2012-01-23T10:47:08.000Z</time>
      </trkpt>
      <trkpt lat="48.67695" lon="1.81397">
        <ele>177.60000610352</ele>
        <time>2012-01-23T10:47:15.000Z</time>
      </trkpt>
      <trkpt lat="48.67691" lon="1.81409">
        <ele>177.39999389648</ele>
        <time>2012-01-23T10:47:22.000Z</time>
      </trkpt>
      <trkpt lat="48.67695" lon="1.81422">
        <ele>177</ele>
        <time>2012-01-23T10:47:31.000Z</time>
      </trkpt>
      <trkpt lat="48.67701" lon="1.81426">
        <ele>176.80000305176</ele>
        <time>2012-01-23T10:47:37.000Z</time>
      </trkpt>
      <trkpt lat="48.67711" lon="1.81434">
        <ele>176.60000610352</ele>
        <time>2012-01-23T10:47:46.000Z</time>
      </trkpt>
      <trkpt lat="48.67712" lon="1.81436">
        <ele>176.60000610352</ele>
        <time>2012-01-23T10:47:47.000Z</time>
      </trkpt>
      <trkpt lat="48.67719" lon="1.81446">
        <ele>176.39999389648</ele>
        <time>2012-01-23T10:47:55.000Z</time>
      </trkpt>
      <trkpt lat="48.6772" lon="1.81447">
        <ele>176.39999389648</ele>
        <time>2012-01-23T10:47:56.000Z</time>
      </trkpt>
      <trkpt lat="48.67727" lon="1.81451">
        <ele>176.39999389648</ele>
        <time>2012-01-23T10:48:01.000Z</time>
      </trkpt>
      <trkpt lat="48.67736" lon="1.81459">
        <ele>176.19999694824</ele>
        <time>2012-01-23T10:48:08.000Z</time>
      </trkpt>
      <trkpt lat="48.67747" lon="1.81469">
        <ele>176.19999694824</ele>
        <time>2012-01-23T10:48:17.000Z</time>
      </trkpt>
      <trkpt lat="48.67755" lon="1.81473">
        <ele>176.60000610352</ele>
        <time>2012-01-23T10:48:22.000Z</time>
      </trkpt>
      <trkpt lat="48.67758" lon="1.81475">
        <ele>176.80000305176</ele>
        <time>2012-01-23T10:48:28.000Z</time>
      </trkpt>
      <trkpt lat="48.67758" lon="1.81476">
        <ele>176.80000305176</ele>
        <time>2012-01-23T10:48:29.000Z</time>
      </trkpt>
      <trkpt lat="48.6776" lon="1.81478">
        <ele>177</ele>
        <time>2012-01-23T10:48:31.000Z</time>
      </trkpt>
      <trkpt lat="48.6776" lon="1.81487">
        <ele>177.19999694824</ele>
        <time>2012-01-23T10:48:35.000Z</time>
      </trkpt>
      <trkpt lat="48.67751" lon="1.81507">
        <ele>177.19999694824</ele>
        <time>2012-01-23T10:48:42.000Z</time>
      </trkpt>
      <trkpt lat="48.67749" lon="1.81519">
        <ele>177.19999694824</ele>
        <time>2012-01-23T10:48:47.000Z</time>
      </trkpt>
      <trkpt lat="48.6775" lon="1.81523">
        <ele>177.19999694824</ele>
        <time>2012-01-23T10:48:54.000Z</time>
      </trkpt>
      <trkpt lat="48.67748" lon="1.8153">
        <ele>177.39999389648</ele>
        <time>2012-01-23T10:48:59.000Z</time>
      </trkpt>
      <trkpt lat="48.67748" lon="1.8153">
        <ele>177.39999389648</ele>
        <time>2012-01-23T10:49:01.000Z</time>
      </trkpt>
      <trkpt lat="48.67745" lon="1.81535">
        <ele>177.39999389648</ele>
        <time>2012-01-23T10:49:58.000Z</time>
      </trkpt>
      <trkpt lat="48.67744" lon="1.81537">
        <ele>177.39999389648</ele>
        <time>2012-01-23T10:49:59.000Z</time>
      </trkpt>
      <trkpt lat="48.6774" lon="1.81554">
        <ele>177.60000610352</ele>
        <time>2012-01-23T10:50:05.000Z</time>
      </trkpt>
      <trkpt lat="48.6774" lon="1.81564">
        <ele>177.80000305176</ele>
        <time>2012-01-23T10:50:12.000Z</time>
      </trkpt>
      <trkpt lat="48.67737" lon="1.81577">
        <ele>178</ele>
        <time>2012-01-23T10:50:20.000Z</time>
      </trkpt>
      <trkpt lat="48.67735" lon="1.8159">
        <ele>178</ele>
        <time>2012-01-23T10:50:27.000Z</time>
      </trkpt>
      <trkpt lat="48.67736" lon="1.81594">
        <ele>177.80000305176</ele>
        <time>2012-01-23T10:50:29.000Z</time>
      </trkpt>
      <trkpt lat="48.67736" lon="1.81598">
        <ele>177.80000305176</ele>
        <time>2012-01-23T10:50:31.000Z</time>
      </trkpt>
      <trkpt lat="48.67735" lon="1.8161">
        <ele>177.60000610352</ele>
        <time>2012-01-23T10:50:36.000Z</time>
      </trkpt>
      <trkpt lat="48.67727" lon="1.81622">
        <ele>177.60000610352</ele>
        <time>2012-01-23T10:50:42.000Z</time>
      </trkpt>
      <trkpt lat="48.67725" lon="1.81634">
        <ele>177.39999389648</ele>
        <time>2012-01-23T10:50:48.000Z</time>
      </trkpt>
      <trkpt lat="48.67725" lon="1.81636">
        <ele>177.39999389648</ele>
        <time>2012-01-23T10:50:49.000Z</time>
      </trkpt>
      <trkpt lat="48.67726" lon="1.81651">
        <ele>177.19999694824</ele>
        <time>2012-01-23T10:50:55.000Z</time>
      </trkpt>
      <trkpt lat="48.67727" lon="1.81656">
        <ele>177.19999694824</ele>
        <time>2012-01-23T10:50:57.000Z</time>
      </trkpt>
      <trkpt lat="48.67733" lon="1.81673">
        <ele>177</ele>
        <time>2012-01-23T10:51:05.000Z</time>
      </trkpt>
      <trkpt lat="48.67737" lon="1.81677">
        <ele>176.80000305176</ele>
        <time>2012-01-23T10:51:08.000Z</time>
      </trkpt>
      <trkpt lat="48.6774" lon="1.81689">
        <ele>176.80000305176</ele>
        <time>2012-01-23T10:51:14.000Z</time>
      </trkpt>
      <trkpt lat="48.67744" lon="1.81698">
        <ele>176.60000610352</ele>
        <time>2012-01-23T10:51:20.000Z</time>
      </trkpt>
      <trkpt lat="48.67752" lon="1.81705">
        <ele>176.60000610352</ele>
        <time>2012-01-23T10:51:27.000Z</time>
      </trkpt>
      <trkpt lat="48.67757" lon="1.81715">
        <ele>176.60000610352</ele>
        <time>2012-01-23T10:51:33.000Z</time>
      </trkpt>
      <trkpt lat="48.67765" lon="1.8172">
        <ele>176.60000610352</ele>
        <time>2012-01-23T10:51:40.000Z</time>
      </trkpt>
      <trkpt lat="48.67769" lon="1.81721">
        <ele>176.80000305176</ele>
        <time>2012-01-23T10:51:44.000Z</time>
      </trkpt>
      <trkpt lat="48.67773" lon="1.81722">
        <ele>176.80000305176</ele>
        <time>2012-01-23T10:51:48.000Z</time>
      </trkpt>
      <trkpt lat="48.67781" lon="1.81733">
        <ele>176.80000305176</ele>
        <time>2012-01-23T10:51:56.000Z</time>
      </trkpt>
      <trkpt lat="48.67782" lon="1.81734">
        <ele>176.80000305176</ele>
        <time>2012-01-23T10:51:57.000Z</time>
      </trkpt>
      <trkpt lat="48.67788" lon="1.81736">
        <ele>177</ele>
        <time>2012-01-23T10:52:02.000Z</time>
      </trkpt>
      <trkpt lat="48.67795" lon="1.81745">
        <ele>177.19999694824</ele>
        <time>2012-01-23T10:52:09.000Z</time>
      </trkpt>
      <trkpt lat="48.67796" lon="1.81746">
        <ele>177.19999694824</ele>
        <time>2012-01-23T10:52:10.000Z</time>
      </trkpt>
      <trkpt lat="48.67802" lon="1.81759">
        <ele>177.19999694824</ele>
        <time>2012-01-23T10:52:18.000Z</time>
      </trkpt>
      <trkpt lat="48.67805" lon="1.81761">
        <ele>177.19999694824</ele>
        <time>2012-01-23T10:52:20.000Z</time>
      </trkpt>
      <trkpt lat="48.67809" lon="1.8177">
        <ele>177.19999694824</ele>
        <time>2012-01-23T10:52:25.000Z</time>
      </trkpt>
      <trkpt lat="48.67816" lon="1.81782">
        <ele>177.19999694824</ele>
        <time>2012-01-23T10:52:33.000Z</time>
      </trkpt>
      <trkpt lat="48.67822" lon="1.81788">
        <ele>177.19999694824</ele>
        <time>2012-01-23T10:52:39.000Z</time>
      </trkpt>
      <trkpt lat="48.67827" lon="1.8179">
        <ele>177.39999389648</ele>
        <time>2012-01-23T10:52:43.000Z</time>
      </trkpt>
      <trkpt lat="48.67829" lon="1.81799">
        <ele>177.39999389648</ele>
        <time>2012-01-23T10:52:51.000Z</time>
      </trkpt>
      <trkpt lat="48.67827" lon="1.81812">
        <ele>177</ele>
        <time>2012-01-23T10:52:57.000Z</time>
      </trkpt>
      <trkpt lat="48.67822" lon="1.81828">
        <ele>176.80000305176</ele>
        <time>2012-01-23T10:53:05.000Z</time>
      </trkpt>
      <trkpt lat="48.67818" lon="1.81842">
        <ele>176.39999389648</ele>
        <time>2012-01-23T10:53:12.000Z</time>
      </trkpt>
      <trkpt lat="48.67814" lon="1.81857">
        <ele>176</ele>
        <time>2012-01-23T10:53:20.000Z</time>
      </trkpt>
      <trkpt lat="48.67808" lon="1.81879">
        <ele>175.39999389648</ele>
        <time>2012-01-23T10:53:31.000Z</time>
      </trkpt>
      <trkpt lat="48.67804" lon="1.81895">
        <ele>175</ele>
        <time>2012-01-23T10:53:39.000Z</time>
      </trkpt>
      <trkpt lat="48.678" lon="1.81914">
        <ele>174.60000610352</ele>
        <time>2012-01-23T10:53:48.000Z</time>
      </trkpt>
      <trkpt lat="48.67794" lon="1.81931">
        <ele>174.19999694824</ele>
        <time>2012-01-23T10:53:57.000Z</time>
      </trkpt>
      <trkpt lat="48.67791" lon="1.81947">
        <ele>174</ele>
        <time>2012-01-23T10:54:05.000Z</time>
      </trkpt>
      <trkpt lat="48.67788" lon="1.81963">
        <ele>173.60000610352</ele>
        <time>2012-01-23T10:54:13.000Z</time>
      </trkpt>
      <trkpt lat="48.67791" lon="1.81974">
        <ele>173.39999389648</ele>
        <time>2012-01-23T10:54:20.000Z</time>
      </trkpt>
      <trkpt lat="48.67792" lon="1.81984">
        <ele>173.19999694824</ele>
        <time>2012-01-23T10:54:25.000Z</time>
      </trkpt>
      <trkpt lat="48.67796" lon="1.81998">
        <ele>173</ele>
        <time>2012-01-23T10:54:33.000Z</time>
      </trkpt>
      <trkpt lat="48.67799" lon="1.82011">
        <ele>173</ele>
        <time>2012-01-23T10:54:40.000Z</time>
      </trkpt>
      <trkpt lat="48.67807" lon="1.82019">
        <ele>173</ele>
        <time>2012-01-23T10:54:48.000Z</time>
      </trkpt>
      <trkpt lat="48.67816" lon="1.82027">
        <ele>173</ele>
        <time>2012-01-23T10:54:56.000Z</time>
      </trkpt>
      <trkpt lat="48.67823" lon="1.82035">
        <ele>173</ele>
        <time>2012-01-23T10:55:02.000Z</time>
      </trkpt>
      <trkpt lat="48.67833" lon="1.82042">
        <ele>173</ele>
        <time>2012-01-23T10:55:11.000Z</time>
      </trkpt>
      <trkpt lat="48.67842" lon="1.8205">
        <ele>173</ele>
        <time>2012-01-23T10:55:19.000Z</time>
      </trkpt>
      <trkpt lat="48.67852" lon="1.82061">
        <ele>173.19999694824</ele>
        <time>2012-01-23T10:55:28.000Z</time>
      </trkpt>
      <trkpt lat="48.67863" lon="1.8206">
        <ele>173.19999694824</ele>
        <time>2012-01-23T10:55:35.000Z</time>
      </trkpt>
      <trkpt lat="48.67868" lon="1.82058">
        <ele>173.19999694824</ele>
        <time>2012-01-23T10:55:41.000Z</time>
      </trkpt>
      <trkpt lat="48.67874" lon="1.82055">
        <ele>173.39999389648</ele>
        <time>2012-01-23T10:55:49.000Z</time>
      </trkpt>
      <trkpt lat="48.67888" lon="1.82049">
        <ele>173.60000610352</ele>
        <time>2012-01-23T10:55:58.000Z</time>
      </trkpt>
      <trkpt lat="48.67899" lon="1.82044">
        <ele>173.80000305176</ele>
        <time>2012-01-23T10:56:06.000Z</time>
      </trkpt>
      <trkpt lat="48.67913" lon="1.82039">
        <ele>174</ele>
        <time>2012-01-23T10:56:16.000Z</time>
      </trkpt>
      <trkpt lat="48.67926" lon="1.82035">
        <ele>174</ele>
        <time>2012-01-23T10:56:25.000Z</time>
      </trkpt>
      <trkpt lat="48.67936" lon="1.82033">
        <ele>173.80000305176</ele>
        <time>2012-01-23T10:56:32.000Z</time>
      </trkpt>
      <trkpt lat="48.67941" lon="1.82044">
        <ele>173.60000610352</ele>
        <time>2012-01-23T10:56:38.000Z</time>
      </trkpt>
      <trkpt lat="48.67946" lon="1.82055">
        <ele>173.19999694824</ele>
        <time>2012-01-23T10:56:44.000Z</time>
      </trkpt>
      <trkpt lat="48.67953" lon="1.82067">
        <ele>172.80000305176</ele>
        <time>2012-01-23T10:56:51.000Z</time>
      </trkpt>
      <trkpt lat="48.67954" lon="1.82068">
        <ele>172.80000305176</ele>
        <time>2012-01-23T10:56:52.000Z</time>
      </trkpt>
      <trkpt lat="48.67955" lon="1.82074">
        <ele>172.80000305176</ele>
        <time>2012-01-23T10:56:57.000Z</time>
      </trkpt>
      <trkpt lat="48.67954" lon="1.82088">
        <ele>172.60000610352</ele>
        <time>2012-01-23T10:57:05.000Z</time>
      </trkpt>
      <trkpt lat="48.67952" lon="1.82101">
        <ele>173</ele>
        <time>2012-01-23T10:57:12.000Z</time>
      </trkpt>
      <trkpt lat="48.6795" lon="1.82116">
        <ele>173.39999389648</ele>
        <time>2012-01-23T10:57:19.000Z</time>
      </trkpt>
      <trkpt lat="48.67946" lon="1.82131">
        <ele>173.80000305176</ele>
        <time>2012-01-23T10:57:27.000Z</time>
      </trkpt>
      <trkpt lat="48.67944" lon="1.82143">
        <ele>174</ele>
        <time>2012-01-23T10:57:33.000Z</time>
      </trkpt>
      <trkpt lat="48.67939" lon="1.82156">
        <ele>174.60000610352</ele>
        <time>2012-01-23T10:57:40.000Z</time>
      </trkpt>
      <trkpt lat="48.67934" lon="1.82171">
        <ele>175.39999389648</ele>
        <time>2012-01-23T10:57:48.000Z</time>
      </trkpt>
      <trkpt lat="48.6793" lon="1.82186">
        <ele>176.19999694824</ele>
        <time>2012-01-23T10:57:56.000Z</time>
      </trkpt>
      <trkpt lat="48.67929" lon="1.82197">
        <ele>176.80000305176</ele>
        <time>2012-01-23T10:58:02.000Z</time>
      </trkpt>
      <trkpt lat="48.67926" lon="1.82213">
        <ele>177.60000610352</ele>
        <time>2012-01-23T10:58:11.000Z</time>
      </trkpt>
      <trkpt lat="48.67925" lon="1.82217">
        <ele>177.80000305176</ele>
        <time>2012-01-23T10:58:13.000Z</time>
      </trkpt>
      <trkpt lat="48.67922" lon="1.82235">
        <ele>178.80000305176</ele>
        <time>2012-01-23T10:58:22.000Z</time>
      </trkpt>
      <trkpt lat="48.67915" lon="1.82249">
        <ele>180</ele>
        <time>2012-01-23T10:58:30.000Z</time>
      </trkpt>
      <trkpt lat="48.67917" lon="1.8225">
        <ele>180</ele>
        <time>2012-01-23T10:58:33.000Z</time>
      </trkpt>
      <trkpt lat="48.67923" lon="1.82252">
        <ele>179.60000610352</ele>
        <time>2012-01-23T10:58:40.000Z</time>
      </trkpt>
      <trkpt lat="48.67928" lon="1.82257">
        <ele>179.39999389648</ele>
        <time>2012-01-23T10:58:46.000Z</time>
      </trkpt>
      <trkpt lat="48.67939" lon="1.82258">
        <ele>178.80000305176</ele>
        <time>2012-01-23T10:58:54.000Z</time>
      </trkpt>
      <trkpt lat="48.67947" lon="1.8226">
        <ele>178.19999694824</ele>
        <time>2012-01-23T10:59:00.000Z</time>
      </trkpt>
      <trkpt lat="48.67952" lon="1.82265">
        <ele>178.19999694824</ele>
        <time>2012-01-23T10:59:04.000Z</time>
      </trkpt>
      <trkpt lat="48.67963" lon="1.82269">
        <ele>177.80000305176</ele>
        <time>2012-01-23T10:59:12.000Z</time>
      </trkpt>
      <trkpt lat="48.6797" lon="1.82267">
        <ele>177.19999694824</ele>
        <time>2012-01-23T10:59:17.000Z</time>
      </trkpt>
      <trkpt lat="48.67978" lon="1.82273">
        <ele>177</ele>
        <time>2012-01-23T10:59:25.000Z</time>
      </trkpt>
      <trkpt lat="48.67979" lon="1.82273">
        <ele>177</ele>
        <time>2012-01-23T10:59:28.000Z</time>
      </trkpt>
      <trkpt lat="48.67994" lon="1.82263">
        <ele>175.39999389648</ele>
        <time>2012-01-23T11:02:54.000Z</time>
      </trkpt>
      <trkpt lat="48.67994" lon="1.82264">
        <ele>175.39999389648</ele>
        <time>2012-01-23T11:02:55.000Z</time>
      </trkpt>
      <trkpt lat="48.67981" lon="1.82272">
        <ele>176.80000305176</ele>
        <time>2012-01-23T11:03:34.000Z</time>
      </trkpt>
      <trkpt lat="48.67971" lon="1.82269">
        <ele>177.19999694824</ele>
        <time>2012-01-23T11:03:41.000Z</time>
      </trkpt>
      <trkpt lat="48.67966" lon="1.82271">
        <ele>177.60000610352</ele>
        <time>2012-01-23T11:03:44.000Z</time>
      </trkpt>
      <trkpt lat="48.6796" lon="1.82267">
        <ele>177.80000305176</ele>
        <time>2012-01-23T11:03:49.000Z</time>
      </trkpt>
      <trkpt lat="48.67957" lon="1.82265">
        <ele>178</ele>
        <time>2012-01-23T11:03:53.000Z</time>
      </trkpt>
      <trkpt lat="48.67948" lon="1.82262">
        <ele>178.39999389648</ele>
        <time>2012-01-23T11:04:00.000Z</time>
      </trkpt>
      <trkpt lat="48.67943" lon="1.82263">
        <ele>178.80000305176</ele>
        <time>2012-01-23T11:04:03.000Z</time>
      </trkpt>
      <trkpt lat="48.67943" lon="1.82266">
        <ele>179</ele>
        <time>2012-01-23T11:04:08.000Z</time>
      </trkpt>
      <trkpt lat="48.67948" lon="1.82264">
        <ele>178.39999389648</ele>
        <time>2012-01-23T11:04:14.000Z</time>
      </trkpt>
      <trkpt lat="48.67952" lon="1.82266">
        <ele>178.19999694824</ele>
        <time>2012-01-23T11:04:17.000Z</time>
      </trkpt>
      <trkpt lat="48.67957" lon="1.82266">
        <ele>178</ele>
        <time>2012-01-23T11:04:21.000Z</time>
      </trkpt>
      <trkpt lat="48.67966" lon="1.82266">
        <ele>177.39999389648</ele>
        <time>2012-01-23T11:04:27.000Z</time>
      </trkpt>
      <trkpt lat="48.67972" lon="1.82271">
        <ele>177.39999389648</ele>
        <time>2012-01-23T11:04:32.000Z</time>
      </trkpt>
      <trkpt lat="48.67977" lon="1.82276">
        <ele>177.19999694824</ele>
        <time>2012-01-23T11:04:39.000Z</time>
      </trkpt>
      <trkpt lat="48.67978" lon="1.82283">
        <ele>177.60000610352</ele>
        <time>2012-01-23T11:04:43.000Z</time>
      </trkpt>
      <trkpt lat="48.6798" lon="1.82295">
        <ele>178.19999694824</ele>
        <time>2012-01-23T11:04:49.000Z</time>
      </trkpt>
      <trkpt lat="48.6798" lon="1.82298">
        <ele>178.39999389648</ele>
        <time>2012-01-23T11:04:52.000Z</time>
      </trkpt>
      <trkpt lat="48.67976" lon="1.82305">
        <ele>179.19999694824</ele>
        <time>2012-01-23T11:04:58.000Z</time>
      </trkpt>
      <trkpt lat="48.67975" lon="1.82307">
        <ele>179.19999694824</ele>
        <time>2012-01-23T11:04:59.000Z</time>
      </trkpt>
      <trkpt lat="48.67975" lon="1.82309">
        <ele>179.39999389648</ele>
        <time>2012-01-23T11:05:02.000Z</time>
      </trkpt>
      <trkpt lat="48.67989" lon="1.823">
        <ele>178.19999694824</ele>
        <time>2012-01-23T11:05:23.000Z</time>
      </trkpt>
      <trkpt lat="48.67994" lon="1.82291">
        <ele>177.19999694824</ele>
        <time>2012-01-23T11:05:27.000Z</time>
      </trkpt>
      <trkpt lat="48.67993" lon="1.82288">
        <ele>177.19999694824</ele>
        <time>2012-01-23T11:05:31.000Z</time>
      </trkpt>
      <trkpt lat="48.67994" lon="1.82278">
        <ele>176.39999389648</ele>
        <time>2012-01-23T11:05:37.000Z</time>
      </trkpt>
      <trkpt lat="48.67995" lon="1.82277">
        <ele>176.19999694824</ele>
        <time>2012-01-23T11:05:38.000Z</time>
      </trkpt>
      <trkpt lat="48.68005" lon="1.82275">
        <ele>176</ele>
        <time>2012-01-23T11:05:45.000Z</time>
      </trkpt>
      <trkpt lat="48.68018" lon="1.82277">
        <ele>176.19999694824</ele>
        <time>2012-01-23T11:05:53.000Z</time>
      </trkpt>
      <trkpt lat="48.6803" lon="1.82279">
        <ele>176.60000610352</ele>
        <time>2012-01-23T11:06:01.000Z</time>
      </trkpt>
      <trkpt lat="48.68037" lon="1.82286">
        <ele>177.19999694824</ele>
        <time>2012-01-23T11:06:07.000Z</time>
      </trkpt>
      <trkpt lat="48.68039" lon="1.82288">
        <ele>177.39999389648</ele>
        <time>2012-01-23T11:06:09.000Z</time>
      </trkpt>
      <trkpt lat="48.68042" lon="1.82291">
        <ele>177.80000305176</ele>
        <time>2012-01-23T11:06:12.000Z</time>
      </trkpt>
      <trkpt lat="48.68045" lon="1.82304">
        <ele>178.60000610352</ele>
        <time>2012-01-23T11:06:19.000Z</time>
      </trkpt>
      <trkpt lat="48.6805" lon="1.82312">
        <ele>179.19999694824</ele>
        <time>2012-01-23T11:06:25.000Z</time>
      </trkpt>
      <trkpt lat="48.68054" lon="1.82318">
        <ele>179.60000610352</ele>
        <time>2012-01-23T11:06:30.000Z</time>
      </trkpt>
      <trkpt lat="48.68056" lon="1.82332">
        <ele>180.60000610352</ele>
        <time>2012-01-23T11:06:37.000Z</time>
      </trkpt>
      <trkpt lat="48.68059" lon="1.82343">
        <ele>180.39999389648</ele>
        <time>2012-01-23T11:06:43.000Z</time>
      </trkpt>
      <trkpt lat="48.68064" lon="1.82353">
        <ele>180.19999694824</ele>
        <time>2012-01-23T11:06:50.000Z</time>
      </trkpt>
      <trkpt lat="48.68069" lon="1.82364">
        <ele>180</ele>
        <time>2012-01-23T11:06:57.000Z</time>
      </trkpt>
      <trkpt lat="48.68072" lon="1.82376">
        <ele>179.60000610352</ele>
        <time>2012-01-23T11:07:03.000Z</time>
      </trkpt>
      <trkpt lat="48.68078" lon="1.82389">
        <ele>179.19999694824</ele>
        <time>2012-01-23T11:07:10.000Z</time>
      </trkpt>
      <trkpt lat="48.68078" lon="1.8239">
        <ele>179</ele>
        <time>2012-01-23T11:07:11.000Z</time>
      </trkpt>
      <trkpt lat="48.68084" lon="1.824">
        <ele>178.60000610352</ele>
        <time>2012-01-23T11:07:17.000Z</time>
      </trkpt>
      <trkpt lat="48.6809" lon="1.82415">
        <ele>178.19999694824</ele>
        <time>2012-01-23T11:07:25.000Z</time>
      </trkpt>
      <trkpt lat="48.68091" lon="1.82416">
        <ele>178.19999694824</ele>
        <time>2012-01-23T11:07:26.000Z</time>
      </trkpt>
      <trkpt lat="48.68094" lon="1.82432">
        <ele>178.19999694824</ele>
        <time>2012-01-23T11:07:34.000Z</time>
      </trkpt>
      <trkpt lat="48.68095" lon="1.82439">
        <ele>178.39999389648</ele>
        <time>2012-01-23T11:07:39.000Z</time>
      </trkpt>
      <trkpt lat="48.68098" lon="1.82448">
        <ele>178.39999389648</ele>
        <time>2012-01-23T11:07:44.000Z</time>
      </trkpt>
      <trkpt lat="48.681" lon="1.82449">
        <ele>178.39999389648</ele>
        <time>2012-01-23T11:07:49.000Z</time>
      </trkpt>
      <trkpt lat="48.68104" lon="1.82457">
        <ele>178.60000610352</ele>
        <time>2012-01-23T11:07:56.000Z</time>
      </trkpt>
      <trkpt lat="48.6811" lon="1.82472">
        <ele>178.80000305176</ele>
        <time>2012-01-23T11:08:03.000Z</time>
      </trkpt>
      <trkpt lat="48.68111" lon="1.82475">
        <ele>178.80000305176</ele>
        <time>2012-01-23T11:08:07.000Z</time>
      </trkpt>
      <trkpt lat="48.68112" lon="1.82483">
        <ele>179</ele>
        <time>2012-01-23T11:08:13.000Z</time>
      </trkpt>
      <trkpt lat="48.68115" lon="1.82493">
        <ele>179.19999694824</ele>
        <time>2012-01-23T11:08:17.000Z</time>
      </trkpt>
      <trkpt lat="48.68116" lon="1.82501">
        <ele>179.19999694824</ele>
        <time>2012-01-23T11:08:21.000Z</time>
      </trkpt>
      <trkpt lat="48.68118" lon="1.82513">
        <ele>179.39999389648</ele>
        <time>2012-01-23T11:08:27.000Z</time>
      </trkpt>
      <trkpt lat="48.6812" lon="1.82524">
        <ele>179.60000610352</ele>
        <time>2012-01-23T11:08:33.000Z</time>
      </trkpt>
      <trkpt lat="48.68124" lon="1.82532">
        <ele>179.80000305176</ele>
        <time>2012-01-23T11:08:38.000Z</time>
      </trkpt>
      <trkpt lat="48.68129" lon="1.82544">
        <ele>180.19999694824</ele>
        <time>2012-01-23T11:08:45.000Z</time>
      </trkpt>
      <trkpt lat="48.68129" lon="1.82558">
        <ele>180.19999694824</ele>
        <time>2012-01-23T11:08:52.000Z</time>
      </trkpt>
      <trkpt lat="48.68129" lon="1.82562">
        <ele>180.39999389648</ele>
        <time>2012-01-23T11:08:54.000Z</time>
      </trkpt>
      <trkpt lat="48.68133" lon="1.82572">
        <ele>180.39999389648</ele>
        <time>2012-01-23T11:08:59.000Z</time>
      </trkpt>
      <trkpt lat="48.68137" lon="1.82583">
        <ele>180.60000610352</ele>
        <time>2012-01-23T11:09:05.000Z</time>
      </trkpt>
      <trkpt lat="48.68137" lon="1.82592">
        <ele>180.80000305176</ele>
        <time>2012-01-23T11:09:09.000Z</time>
      </trkpt>
      <trkpt lat="48.68142" lon="1.82608">
        <ele>181</ele>
        <time>2012-01-23T11:09:18.000Z</time>
      </trkpt>
      <trkpt lat="48.68144" lon="1.82612">
        <ele>181</ele>
        <time>2012-01-23T11:09:21.000Z</time>
      </trkpt>
      <trkpt lat="48.68148" lon="1.82629">
        <ele>181.39999389648</ele>
        <time>2012-01-23T11:09:30.000Z</time>
      </trkpt>
      <trkpt lat="48.68152" lon="1.82636">
        <ele>181.39999389648</ele>
        <time>2012-01-23T11:09:35.000Z</time>
      </trkpt>
      <trkpt lat="48.68155" lon="1.82641">
        <ele>181.60000610352</ele>
        <time>2012-01-23T11:09:40.000Z</time>
      </trkpt>
      <trkpt lat="48.68159" lon="1.82647">
        <ele>181.60000610352</ele>
        <time>2012-01-23T11:09:45.000Z</time>
      </trkpt>
      <trkpt lat="48.68161" lon="1.82649">
        <ele>181.80000305176</ele>
        <time>2012-01-23T11:09:49.000Z</time>
      </trkpt>
      <trkpt lat="48.68153" lon="1.82657">
        <ele>181.80000305176</ele>
        <time>2012-01-23T11:10:25.000Z</time>
      </trkpt>
      <trkpt lat="48.68154" lon="1.82662">
        <ele>181.80000305176</ele>
        <time>2012-01-23T11:10:27.000Z</time>
      </trkpt>
      <trkpt lat="48.68156" lon="1.82664">
        <ele>181.80000305176</ele>
        <time>2012-01-23T11:10:31.000Z</time>
      </trkpt>
      <trkpt lat="48.68157" lon="1.82662">
        <ele>181.80000305176</ele>
        <time>2012-01-23T11:10:33.000Z</time>
      </trkpt>
      <trkpt lat="48.68156" lon="1.82655">
        <ele>181.80000305176</ele>
        <time>2012-01-23T11:10:39.000Z</time>
      </trkpt>
      <trkpt lat="48.68158" lon="1.82648">
        <ele>181.60000610352</ele>
        <time>2012-01-23T11:10:44.000Z</time>
      </trkpt>
      <trkpt lat="48.6816" lon="1.82655">
        <ele>181.80000305176</ele>
        <time>2012-01-23T11:10:50.000Z</time>
      </trkpt>
      <trkpt lat="48.68162" lon="1.82661">
        <ele>181.80000305176</ele>
        <time>2012-01-23T11:10:56.000Z</time>
      </trkpt>
      <trkpt lat="48.68163" lon="1.82662">
        <ele>181.80000305176</ele>
        <time>2012-01-23T11:10:59.000Z</time>
      </trkpt>
      <trkpt lat="48.68172" lon="1.82678">
        <ele>181.80000305176</ele>
        <time>2012-01-23T11:11:21.000Z</time>
      </trkpt>
      <trkpt lat="48.68175" lon="1.82689">
        <ele>181.60000610352</ele>
        <time>2012-01-23T11:11:26.000Z</time>
      </trkpt>
      <trkpt lat="48.68178" lon="1.82695">
        <ele>181.60000610352</ele>
        <time>2012-01-23T11:11:29.000Z</time>
      </trkpt>
      <trkpt lat="48.68181" lon="1.827">
        <ele>181.39999389648</ele>
        <time>2012-01-23T11:11:33.000Z</time>
      </trkpt>
      <trkpt lat="48.68185" lon="1.82711">
        <ele>181.39999389648</ele>
        <time>2012-01-23T11:11:39.000Z</time>
      </trkpt>
      <trkpt lat="48.68186" lon="1.82712">
        <ele>181.39999389648</ele>
        <time>2012-01-23T11:11:40.000Z</time>
      </trkpt>
      <trkpt lat="48.68193" lon="1.82724">
        <ele>181.19999694824</ele>
        <time>2012-01-23T11:11:48.000Z</time>
      </trkpt>
      <trkpt lat="48.68194" lon="1.82725">
        <ele>181.19999694824</ele>
        <time>2012-01-23T11:11:49.000Z</time>
      </trkpt>
      <trkpt lat="48.68197" lon="1.82731">
        <ele>181.19999694824</ele>
        <time>2012-01-23T11:11:53.000Z</time>
      </trkpt>
      <trkpt lat="48.68202" lon="1.8274">
        <ele>181</ele>
        <time>2012-01-23T11:11:59.000Z</time>
      </trkpt>
      <trkpt lat="48.68206" lon="1.82745">
        <ele>181</ele>
        <time>2012-01-23T11:12:03.000Z</time>
      </trkpt>
      <trkpt lat="48.68213" lon="1.82758">
        <ele>180.80000305176</ele>
        <time>2012-01-23T11:12:11.000Z</time>
      </trkpt>
      <trkpt lat="48.68219" lon="1.82771">
        <ele>180.39999389648</ele>
        <time>2012-01-23T11:12:18.000Z</time>
      </trkpt>
      <trkpt lat="48.6822" lon="1.82774">
        <ele>180.39999389648</ele>
        <time>2012-01-23T11:12:20.000Z</time>
      </trkpt>
      <trkpt lat="48.68227" lon="1.82785">
        <ele>180.19999694824</ele>
        <time>2012-01-23T11:12:27.000Z</time>
      </trkpt>
      <trkpt lat="48.68232" lon="1.82796">
        <ele>180</ele>
        <time>2012-01-23T11:12:34.000Z</time>
      </trkpt>
      <trkpt lat="48.68233" lon="1.82802">
        <ele>180</ele>
        <time>2012-01-23T11:12:37.000Z</time>
      </trkpt>
      <trkpt lat="48.68235" lon="1.82813">
        <ele>180</ele>
        <time>2012-01-23T11:12:44.000Z</time>
      </trkpt>
      <trkpt lat="48.68236" lon="1.82814">
        <ele>180</ele>
        <time>2012-01-23T11:12:47.000Z</time>
      </trkpt>
      <trkpt lat="48.68239" lon="1.8282">
        <ele>180</ele>
        <time>2012-01-23T11:12:52.000Z</time>
      </trkpt>
      <trkpt lat="48.68244" lon="1.8283">
        <ele>180</ele>
        <time>2012-01-23T11:12:57.000Z</time>
      </trkpt>
      <trkpt lat="48.6825" lon="1.82837">
        <ele>180</ele>
        <time>2012-01-23T11:13:03.000Z</time>
      </trkpt>
      <trkpt lat="48.68252" lon="1.82838">
        <ele>180</ele>
        <time>2012-01-23T11:13:06.000Z</time>
      </trkpt>
      <trkpt lat="48.68256" lon="1.82844">
        <ele>180.19999694824</ele>
        <time>2012-01-23T11:13:12.000Z</time>
      </trkpt>
      <trkpt lat="48.68262" lon="1.82859">
        <ele>180.19999694824</ele>
        <time>2012-01-23T11:13:20.000Z</time>
      </trkpt>
      <trkpt lat="48.68267" lon="1.82868">
        <ele>180.39999389648</ele>
        <time>2012-01-23T11:13:26.000Z</time>
      </trkpt>
      <trkpt lat="48.68273" lon="1.82878">
        <ele>180.60000610352</ele>
        <time>2012-01-23T11:13:33.000Z</time>
      </trkpt>
      <trkpt lat="48.68277" lon="1.82886">
        <ele>180.60000610352</ele>
        <time>2012-01-23T11:13:41.000Z</time>
      </trkpt>
      <trkpt lat="48.68278" lon="1.82886">
        <ele>180.60000610352</ele>
        <time>2012-01-23T11:13:42.000Z</time>
      </trkpt>
      <trkpt lat="48.6828" lon="1.82886">
        <ele>180.80000305176</ele>
        <time>2012-01-23T11:13:54.000Z</time>
      </trkpt>
      <trkpt lat="48.6828" lon="1.82886">
        <ele>180.80000305176</ele>
        <time>2012-01-23T11:13:55.000Z</time>
      </trkpt>
      <trkpt lat="48.68283" lon="1.82901">
        <ele>180.80000305176</ele>
        <time>2012-01-23T11:14:20.000Z</time>
      </trkpt>
      <trkpt lat="48.68284" lon="1.82902">
        <ele>180.80000305176</ele>
        <time>2012-01-23T11:14:21.000Z</time>
      </trkpt>
      <trkpt lat="48.68289" lon="1.82911">
        <ele>181</ele>
        <time>2012-01-23T11:14:25.000Z</time>
      </trkpt>
      <trkpt lat="48.68292" lon="1.82917">
        <ele>181</ele>
        <time>2012-01-23T11:14:29.000Z</time>
      </trkpt>
      <trkpt lat="48.68293" lon="1.82919">
        <ele>181</ele>
        <time>2012-01-23T11:14:31.000Z</time>
      </trkpt>
      <trkpt lat="48.68302" lon="1.82932">
        <ele>181.39999389648</ele>
        <time>2012-01-23T11:14:42.000Z</time>
      </trkpt>
      <trkpt lat="48.68306" lon="1.82942">
        <ele>181.60000610352</ele>
        <time>2012-01-23T11:14:48.000Z</time>
      </trkpt>
      <trkpt lat="48.68313" lon="1.82956">
        <ele>181.80000305176</ele>
        <time>2012-01-23T11:14:56.000Z</time>
      </trkpt>
      <trkpt lat="48.68313" lon="1.82958">
        <ele>181.80000305176</ele>
        <time>2012-01-23T11:14:57.000Z</time>
      </trkpt>
      <trkpt lat="48.68318" lon="1.82969">
        <ele>182.19999694824</ele>
        <time>2012-01-23T11:15:03.000Z</time>
      </trkpt>
      <trkpt lat="48.68325" lon="1.82985">
        <ele>182.60000610352</ele>
        <time>2012-01-23T11:15:11.000Z</time>
      </trkpt>
      <trkpt lat="48.68332" lon="1.82999">
        <ele>183</ele>
        <time>2012-01-23T11:15:20.000Z</time>
      </trkpt>
      <trkpt lat="48.6834" lon="1.83007">
        <ele>183.60000610352</ele>
        <time>2012-01-23T11:15:28.000Z</time>
      </trkpt>
      <trkpt lat="48.68346" lon="1.83023">
        <ele>184.19999694824</ele>
        <time>2012-01-23T11:15:37.000Z</time>
      </trkpt>
      <trkpt lat="48.68354" lon="1.83036">
        <ele>184.80000305176</ele>
        <time>2012-01-23T11:15:46.000Z</time>
      </trkpt>
      <trkpt lat="48.68359" lon="1.83046">
        <ele>185.19999694824</ele>
        <time>2012-01-23T11:15:53.000Z</time>
      </trkpt>
      <trkpt lat="48.68364" lon="1.83056">
        <ele>185.39999389648</ele>
        <time>2012-01-23T11:15:59.000Z</time>
      </trkpt>
      <trkpt lat="48.68372" lon="1.83072">
        <ele>185.80000305176</ele>
        <time>2012-01-23T11:16:09.000Z</time>
      </trkpt>
      <trkpt lat="48.68378" lon="1.83087">
        <ele>186</ele>
        <time>2012-01-23T11:16:18.000Z</time>
      </trkpt>
      <trkpt lat="48.68383" lon="1.83098">
        <ele>185.80000305176</ele>
        <time>2012-01-23T11:16:25.000Z</time>
      </trkpt>
      <trkpt lat="48.68391" lon="1.83112">
        <ele>185.60000610352</ele>
        <time>2012-01-23T11:16:34.000Z</time>
      </trkpt>
      <trkpt lat="48.68395" lon="1.83123">
        <ele>185.19999694824</ele>
        <time>2012-01-23T11:16:40.000Z</time>
      </trkpt>
      <trkpt lat="48.68403" lon="1.83137">
        <ele>184.60000610352</ele>
        <time>2012-01-23T11:16:49.000Z</time>
      </trkpt>
      <trkpt lat="48.68406" lon="1.83143">
        <ele>184.39999389648</ele>
        <time>2012-01-23T11:16:53.000Z</time>
      </trkpt>
      <trkpt lat="48.68414" lon="1.83156">
        <ele>183.60000610352</ele>
        <time>2012-01-23T11:17:01.000Z</time>
      </trkpt>
      <trkpt lat="48.68421" lon="1.83165">
        <ele>182.80000305176</ele>
        <time>2012-01-23T11:17:07.000Z</time>
      </trkpt>
      <trkpt lat="48.6843" lon="1.8318">
        <ele>181.80000305176</ele>
        <time>2012-01-23T11:17:16.000Z</time>
      </trkpt>
      <trkpt lat="48.68434" lon="1.83186">
        <ele>181.39999389648</ele>
        <time>2012-01-23T11:17:20.000Z</time>
      </trkpt>
      <trkpt lat="48.68436" lon="1.83198">
        <ele>181</ele>
        <time>2012-01-23T11:17:27.000Z</time>
      </trkpt>
      <trkpt lat="48.68436" lon="1.83198">
        <ele>181</ele>
        <time>2012-01-23T11:17:29.000Z</time>
      </trkpt>
      <trkpt lat="48.68437" lon="1.83201">
        <ele>180.80000305176</ele>
        <time>2012-01-23T11:17:39.000Z</time>
      </trkpt>
      <trkpt lat="48.68445" lon="1.83218">
        <ele>180</ele>
        <time>2012-01-23T11:17:47.000Z</time>
      </trkpt>
      <trkpt lat="48.68453" lon="1.83233">
        <ele>179.39999389648</ele>
        <time>2012-01-23T11:17:56.000Z</time>
      </trkpt>
      <trkpt lat="48.68458" lon="1.83243">
        <ele>179.19999694824</ele>
        <time>2012-01-23T11:18:03.000Z</time>
      </trkpt>
      <trkpt lat="48.68461" lon="1.83249">
        <ele>179</ele>
        <time>2012-01-23T11:18:07.000Z</time>
      </trkpt>
      <trkpt lat="48.68464" lon="1.83251">
        <ele>178.80000305176</ele>
        <time>2012-01-23T11:18:10.000Z</time>
      </trkpt>
      <trkpt lat="48.6847" lon="1.83265">
        <ele>178.80000305176</ele>
        <time>2012-01-23T11:18:18.000Z</time>
      </trkpt>
      <trkpt lat="48.6847" lon="1.83267">
        <ele>178.80000305176</ele>
        <time>2012-01-23T11:18:19.000Z</time>
      </trkpt>
      <trkpt lat="48.6847" lon="1.83269">
        <ele>178.80000305176</ele>
        <time>2012-01-23T11:18:22.000Z</time>
      </trkpt>
      <trkpt lat="48.68472" lon="1.83274">
        <ele>178.80000305176</ele>
        <time>2012-01-23T11:18:26.000Z</time>
      </trkpt>
      <trkpt lat="48.68481" lon="1.83293">
        <ele>178.80000305176</ele>
        <time>2012-01-23T11:18:35.000Z</time>
      </trkpt>
      <trkpt lat="48.6849" lon="1.83311">
        <ele>178.80000305176</ele>
        <time>2012-01-23T11:18:45.000Z</time>
      </trkpt>
      <trkpt lat="48.68498" lon="1.83323">
        <ele>178.80000305176</ele>
        <time>2012-01-23T11:18:53.000Z</time>
      </trkpt>
      <trkpt lat="48.68503" lon="1.83333">
        <ele>179</ele>
        <time>2012-01-23T11:18:59.000Z</time>
      </trkpt>
      <trkpt lat="48.68505" lon="1.83336">
        <ele>179.19999694824</ele>
        <time>2012-01-23T11:19:01.000Z</time>
      </trkpt>
      <trkpt lat="48.68511" lon="1.83351">
        <ele>179.39999389648</ele>
        <time>2012-01-23T11:19:09.000Z</time>
      </trkpt>
      <trkpt lat="48.68518" lon="1.83366">
        <ele>179.80000305176</ele>
        <time>2012-01-23T11:19:17.000Z</time>
      </trkpt>
      <trkpt lat="48.68526" lon="1.83384">
        <ele>180.19999694824</ele>
        <time>2012-01-23T11:19:26.000Z</time>
      </trkpt>
      <trkpt lat="48.68531" lon="1.83392">
        <ele>180.39999389648</ele>
        <time>2012-01-23T11:19:32.000Z</time>
      </trkpt>
      <trkpt lat="48.68532" lon="1.83397">
        <ele>180.60000610352</ele>
        <time>2012-01-23T11:19:35.000Z</time>
      </trkpt>
      <trkpt lat="48.68537" lon="1.83407">
        <ele>180.80000305176</ele>
        <time>2012-01-23T11:19:41.000Z</time>
      </trkpt>
      <trkpt lat="48.68541" lon="1.83414">
        <ele>181</ele>
        <time>2012-01-23T11:19:45.000Z</time>
      </trkpt>
      <trkpt lat="48.68551" lon="1.83434">
        <ele>180.60000610352</ele>
        <time>2012-01-23T11:19:56.000Z</time>
      </trkpt>
      <trkpt lat="48.68559" lon="1.83451">
        <ele>180.19999694824</ele>
        <time>2012-01-23T11:20:05.000Z</time>
      </trkpt>
      <trkpt lat="48.68564" lon="1.83463">
        <ele>180</ele>
        <time>2012-01-23T11:20:11.000Z</time>
      </trkpt>
      <trkpt lat="48.68569" lon="1.83474">
        <ele>179.80000305176</ele>
        <time>2012-01-23T11:20:17.000Z</time>
      </trkpt>
      <trkpt lat="48.68574" lon="1.83485">
        <ele>179.39999389648</ele>
        <time>2012-01-23T11:20:23.000Z</time>
      </trkpt>
      <trkpt lat="48.68583" lon="1.83502">
        <ele>179</ele>
        <time>2012-01-23T11:20:33.000Z</time>
      </trkpt>
      <trkpt lat="48.68589" lon="1.83509">
        <ele>179.19999694824</ele>
        <time>2012-01-23T11:20:38.000Z</time>
      </trkpt>
      <trkpt lat="48.68596" lon="1.83515">
        <ele>179.39999389648</ele>
        <time>2012-01-23T11:20:44.000Z</time>
      </trkpt>
      <trkpt lat="48.68606" lon="1.83512">
        <ele>179.80000305176</ele>
        <time>2012-01-23T11:20:51.000Z</time>
      </trkpt>
      <trkpt lat="48.68616" lon="1.83502">
        <ele>180.19999694824</ele>
        <time>2012-01-23T11:20:56.000Z</time>
      </trkpt>
      <trkpt lat="48.68627" lon="1.83492">
        <ele>180.60000610352</ele>
        <time>2012-01-23T11:21:01.000Z</time>
      </trkpt>
      <trkpt lat="48.68638" lon="1.83484">
        <ele>181</ele>
        <time>2012-01-23T11:21:09.000Z</time>
      </trkpt>
      <trkpt lat="48.68652" lon="1.83475">
        <ele>181.39999389648</ele>
        <time>2012-01-23T11:21:20.000Z</time>
      </trkpt>
      <trkpt lat="48.6866" lon="1.8347">
        <ele>181.60000610352</ele>
        <time>2012-01-23T11:21:26.000Z</time>
      </trkpt>
      <trkpt lat="48.68671" lon="1.83463">
        <ele>181.39999389648</ele>
        <time>2012-01-23T11:21:34.000Z</time>
      </trkpt>
      <trkpt lat="48.68684" lon="1.83454">
        <ele>181</ele>
        <time>2012-01-23T11:21:43.000Z</time>
      </trkpt>
      <trkpt lat="48.68686" lon="1.8345">
        <ele>180.80000305176</ele>
        <time>2012-01-23T11:21:48.000Z</time>
      </trkpt>
      <trkpt lat="48.68691" lon="1.83447">
        <ele>180.60000610352</ele>
        <time>2012-01-23T11:21:55.000Z</time>
      </trkpt>
      <trkpt lat="48.68701" lon="1.83439">
        <ele>180.19999694824</ele>
        <time>2012-01-23T11:22:02.000Z</time>
      </trkpt>
      <trkpt lat="48.68709" lon="1.83432">
        <ele>179.80000305176</ele>
        <time>2012-01-23T11:22:08.000Z</time>
      </trkpt>
      <trkpt lat="48.68716" lon="1.83426">
        <ele>179.39999389648</ele>
        <time>2012-01-23T11:22:14.000Z</time>
      </trkpt>
      <trkpt lat="48.68722" lon="1.83421">
        <ele>179.19999694824</ele>
        <time>2012-01-23T11:22:20.000Z</time>
      </trkpt>
      <trkpt lat="48.68731" lon="1.83412">
        <ele>178.60000610352</ele>
        <time>2012-01-23T11:22:28.000Z</time>
      </trkpt>
      <trkpt lat="48.6874" lon="1.83403">
        <ele>178.39999389648</ele>
        <time>2012-01-23T11:22:35.000Z</time>
      </trkpt>
      <trkpt lat="48.68749" lon="1.83392">
        <ele>178</ele>
        <time>2012-01-23T11:22:42.000Z</time>
      </trkpt>
      <trkpt lat="48.68759" lon="1.8338">
        <ele>178</ele>
        <time>2012-01-23T11:22:50.000Z</time>
      </trkpt>
      <trkpt lat="48.68763" lon="1.83375">
        <ele>178</ele>
        <time>2012-01-23T11:22:56.000Z</time>
      </trkpt>
      <trkpt lat="48.68772" lon="1.83365">
        <ele>177.80000305176</ele>
        <time>2012-01-23T11:23:03.000Z</time>
      </trkpt>
      <trkpt lat="48.68781" lon="1.83355">
        <ele>177.80000305176</ele>
        <time>2012-01-23T11:23:11.000Z</time>
      </trkpt>
      <trkpt lat="48.68789" lon="1.83347">
        <ele>177.60000610352</ele>
        <time>2012-01-23T11:23:17.000Z</time>
      </trkpt>
      <trkpt lat="48.6879" lon="1.83345">
        <ele>177.60000610352</ele>
        <time>2012-01-23T11:23:19.000Z</time>
      </trkpt>
      <trkpt lat="48.68797" lon="1.83338">
        <ele>177.39999389648</ele>
        <time>2012-01-23T11:23:25.000Z</time>
      </trkpt>
      <trkpt lat="48.68807" lon="1.83328">
        <ele>177.39999389648</ele>
        <time>2012-01-23T11:23:33.000Z</time>
      </trkpt>
      <trkpt lat="48.68811" lon="1.83322">
        <ele>177.39999389648</ele>
        <time>2012-01-23T11:23:39.000Z</time>
      </trkpt>
      <trkpt lat="48.68818" lon="1.83317">
        <ele>177.19999694824</ele>
        <time>2012-01-23T11:23:44.000Z</time>
      </trkpt>
      <trkpt lat="48.68828" lon="1.83308">
        <ele>177.19999694824</ele>
        <time>2012-01-23T11:23:51.000Z</time>
      </trkpt>
      <trkpt lat="48.68841" lon="1.83295">
        <ele>177</ele>
        <time>2012-01-23T11:24:01.000Z</time>
      </trkpt>
      <trkpt lat="48.68853" lon="1.83283">
        <ele>177</ele>
        <time>2012-01-23T11:24:10.000Z</time>
      </trkpt>
      <trkpt lat="48.68863" lon="1.83276">
        <ele>177.19999694824</ele>
        <time>2012-01-23T11:24:18.000Z</time>
      </trkpt>
      <trkpt lat="48.6887" lon="1.83271">
        <ele>177.19999694824</ele>
        <time>2012-01-23T11:24:24.000Z</time>
      </trkpt>
      <trkpt lat="48.68875" lon="1.83266">
        <ele>177</ele>
        <time>2012-01-23T11:24:29.000Z</time>
      </trkpt>
      <trkpt lat="48.6889" lon="1.83251">
        <ele>177</ele>
        <time>2012-01-23T11:24:40.000Z</time>
      </trkpt>
      <trkpt lat="48.68905" lon="1.83236">
        <ele>177</ele>
        <time>2012-01-23T11:24:51.000Z</time>
      </trkpt>
      <trkpt lat="48.68913" lon="1.83228">
        <ele>177</ele>
        <time>2012-01-23T11:24:57.000Z</time>
      </trkpt>
      <trkpt lat="48.68926" lon="1.83215">
        <ele>177.19999694824</ele>
        <time>2012-01-23T11:25:06.000Z</time>
      </trkpt>
      <trkpt lat="48.68935" lon="1.83207">
        <ele>177.19999694824</ele>
        <time>2012-01-23T11:25:12.000Z</time>
      </trkpt>
      <trkpt lat="48.68948" lon="1.83192">
        <ele>177.39999389648</ele>
        <time>2012-01-23T11:25:22.000Z</time>
      </trkpt>
      <trkpt lat="48.68959" lon="1.83179">
        <ele>177.60000610352</ele>
        <time>2012-01-23T11:25:31.000Z</time>
      </trkpt>
      <trkpt lat="48.68969" lon="1.83166">
        <ele>177.60000610352</ele>
        <time>2012-01-23T11:25:39.000Z</time>
      </trkpt>
      <trkpt lat="48.68977" lon="1.83153">
        <ele>177.80000305176</ele>
        <time>2012-01-23T11:25:46.000Z</time>
      </trkpt>
      <trkpt lat="48.68992" lon="1.83133">
        <ele>178</ele>
        <time>2012-01-23T11:25:58.000Z</time>
      </trkpt>
      <trkpt lat="48.68995" lon="1.83131">
        <ele>178</ele>
        <time>2012-01-23T11:26:03.000Z</time>
      </trkpt>
      <trkpt lat="48.68997" lon="1.83127">
        <ele>178</ele>
        <time>2012-01-23T11:26:07.000Z</time>
      </trkpt>
      <trkpt lat="48.69007" lon="1.83116">
        <ele>178</ele>
        <time>2012-01-23T11:26:14.000Z</time>
      </trkpt>
      <trkpt lat="48.69018" lon="1.83107">
        <ele>177.80000305176</ele>
        <time>2012-01-23T11:26:22.000Z</time>
      </trkpt>
      <trkpt lat="48.6903" lon="1.83101">
        <ele>177.60000610352</ele>
        <time>2012-01-23T11:26:30.000Z</time>
      </trkpt>
      <trkpt lat="48.69045" lon="1.83094">
        <ele>177.39999389648</ele>
        <time>2012-01-23T11:26:40.000Z</time>
      </trkpt>
      <trkpt lat="48.69052" lon="1.83091">
        <ele>177.39999389648</ele>
        <time>2012-01-23T11:26:45.000Z</time>
      </trkpt>
      <trkpt lat="48.69056" lon="1.83084">
        <ele>177.39999389648</ele>
        <time>2012-01-23T11:26:51.000Z</time>
      </trkpt>
      <trkpt lat="48.69059" lon="1.83082">
        <ele>177.39999389648</ele>
        <time>2012-01-23T11:26:54.000Z</time>
      </trkpt>
      <trkpt lat="48.6907" lon="1.83074">
        <ele>177.19999694824</ele>
        <time>2012-01-23T11:27:02.000Z</time>
      </trkpt>
      <trkpt lat="48.69079" lon="1.83065">
        <ele>177.19999694824</ele>
        <time>2012-01-23T11:27:10.000Z</time>
      </trkpt>
      <trkpt lat="48.69086" lon="1.83058">
        <ele>177.39999389648</ele>
        <time>2012-01-23T11:27:16.000Z</time>
      </trkpt>
      <trkpt lat="48.69093" lon="1.83052">
        <ele>177.39999389648</ele>
        <time>2012-01-23T11:27:21.000Z</time>
      </trkpt>
      <trkpt lat="48.69104" lon="1.83042">
        <ele>177.60000610352</ele>
        <time>2012-01-23T11:27:29.000Z</time>
      </trkpt>
      <trkpt lat="48.69112" lon="1.83032">
        <ele>177.60000610352</ele>
        <time>2012-01-23T11:27:37.000Z</time>
      </trkpt>
      <trkpt lat="48.6912" lon="1.83025">
        <ele>177.80000305176</ele>
        <time>2012-01-23T11:27:43.000Z</time>
      </trkpt>
      <trkpt lat="48.69129" lon="1.83022">
        <ele>177.80000305176</ele>
        <time>2012-01-23T11:27:49.000Z</time>
      </trkpt>
      <trkpt lat="48.6914" lon="1.8301">
        <ele>177.80000305176</ele>
        <time>2012-01-23T11:27:58.000Z</time>
      </trkpt>
      <trkpt lat="48.69149" lon="1.83001">
        <ele>178</ele>
        <time>2012-01-23T11:28:05.000Z</time>
      </trkpt>
      <trkpt lat="48.69167" lon="1.82985">
        <ele>177.80000305176</ele>
        <time>2012-01-23T11:28:18.000Z</time>
      </trkpt>
      <trkpt lat="48.69173" lon="1.82976">
        <ele>177.60000610352</ele>
        <time>2012-01-23T11:28:24.000Z</time>
      </trkpt>
      <trkpt lat="48.69179" lon="1.82969">
        <ele>177.60000610352</ele>
        <time>2012-01-23T11:28:29.000Z</time>
      </trkpt>
      <trkpt lat="48.69182" lon="1.82966">
        <ele>177.60000610352</ele>
        <time>2012-01-23T11:28:31.000Z</time>
      </trkpt>
      <trkpt lat="48.69192" lon="1.82956">
        <ele>177.39999389648</ele>
        <time>2012-01-23T11:28:39.000Z</time>
      </trkpt>
      <trkpt lat="48.692" lon="1.82949">
        <ele>177.39999389648</ele>
        <time>2012-01-23T11:28:45.000Z</time>
      </trkpt>
      <trkpt lat="48.69212" lon="1.82937">
        <ele>177.60000610352</ele>
        <time>2012-01-23T11:28:54.000Z</time>
      </trkpt>
      <trkpt lat="48.69215" lon="1.82933">
        <ele>177.60000610352</ele>
        <time>2012-01-23T11:28:59.000Z</time>
      </trkpt>
      <trkpt lat="48.69217" lon="1.82931">
        <ele>177.60000610352</ele>
        <time>2012-01-23T11:29:05.000Z</time>
      </trkpt>
      <trkpt lat="48.69228" lon="1.82919">
        <ele>177.80000305176</ele>
        <time>2012-01-23T11:29:12.000Z</time>
      </trkpt>
      <trkpt lat="48.69237" lon="1.82908">
        <ele>178</ele>
        <time>2012-01-23T11:29:20.000Z</time>
      </trkpt>
      <trkpt lat="48.69237" lon="1.82907">
        <ele>178</ele>
        <time>2012-01-23T11:29:22.000Z</time>
      </trkpt>
      <trkpt lat="48.69243" lon="1.82899">
        <ele>178.39999389648</ele>
        <time>2012-01-23T11:29:32.000Z</time>
      </trkpt>
      <trkpt lat="48.69249" lon="1.82892">
        <ele>178.60000610352</ele>
        <time>2012-01-23T11:29:36.000Z</time>
      </trkpt>
      <trkpt lat="48.69257" lon="1.82883">
        <ele>179</ele>
        <time>2012-01-23T11:29:43.000Z</time>
      </trkpt>
      <trkpt lat="48.69266" lon="1.82873">
        <ele>179.19999694824</ele>
        <time>2012-01-23T11:29:50.000Z</time>
      </trkpt>
      <trkpt lat="48.69271" lon="1.82869">
        <ele>179.39999389648</ele>
        <time>2012-01-23T11:29:53.000Z</time>
      </trkpt>
      <trkpt lat="48.6928" lon="1.82858">
        <ele>179.60000610352</ele>
        <time>2012-01-23T11:30:01.000Z</time>
      </trkpt>
      <trkpt lat="48.69287" lon="1.82851">
        <ele>179.80000305176</ele>
        <time>2012-01-23T11:30:07.000Z</time>
      </trkpt>
      <trkpt lat="48.69288" lon="1.8285">
        <ele>179.80000305176</ele>
        <time>2012-01-23T11:30:08.000Z</time>
      </trkpt>
      <trkpt lat="48.69293" lon="1.82843">
        <ele>179.80000305176</ele>
        <time>2012-01-23T11:30:14.000Z</time>
      </trkpt>
      <trkpt lat="48.69302" lon="1.82838">
        <ele>180</ele>
        <time>2012-01-23T11:30:21.000Z</time>
      </trkpt>
      <trkpt lat="48.69311" lon="1.82844">
        <ele>180</ele>
        <time>2012-01-23T11:30:28.000Z</time>
      </trkpt>
      <trkpt lat="48.69318" lon="1.82856">
        <ele>179.80000305176</ele>
        <time>2012-01-23T11:30:35.000Z</time>
      </trkpt>
      <trkpt lat="48.69324" lon="1.82866">
        <ele>180</ele>
        <time>2012-01-23T11:30:41.000Z</time>
      </trkpt>
      <trkpt lat="48.69328" lon="1.82874">
        <ele>180</ele>
        <time>2012-01-23T11:30:46.000Z</time>
      </trkpt>
      <trkpt lat="48.69335" lon="1.82887">
        <ele>180</ele>
        <time>2012-01-23T11:30:54.000Z</time>
      </trkpt>
      <trkpt lat="48.69341" lon="1.82899">
        <ele>180</ele>
        <time>2012-01-23T11:31:01.000Z</time>
      </trkpt>
      <trkpt lat="48.69349" lon="1.82913">
        <ele>180.19999694824</ele>
        <time>2012-01-23T11:31:10.000Z</time>
      </trkpt>
      <trkpt lat="48.69359" lon="1.82929">
        <ele>180.19999694824</ele>
        <time>2012-01-23T11:31:20.000Z</time>
      </trkpt>
      <trkpt lat="48.69364" lon="1.82939">
        <ele>180.19999694824</ele>
        <time>2012-01-23T11:31:26.000Z</time>
      </trkpt>
      <trkpt lat="48.69372" lon="1.82953">
        <ele>180.19999694824</ele>
        <time>2012-01-23T11:31:35.000Z</time>
      </trkpt>
      <trkpt lat="48.69379" lon="1.82969">
        <ele>180.19999694824</ele>
        <time>2012-01-23T11:31:44.000Z</time>
      </trkpt>
      <trkpt lat="48.69388" lon="1.82986">
        <ele>180.39999389648</ele>
        <time>2012-01-23T11:31:53.000Z</time>
      </trkpt>
      <trkpt lat="48.69395" lon="1.83003">
        <ele>180.39999389648</ele>
        <time>2012-01-23T11:32:02.000Z</time>
      </trkpt>
      <trkpt lat="48.694" lon="1.8302">
        <ele>180.60000610352</ele>
        <time>2012-01-23T11:32:11.000Z</time>
      </trkpt>
      <trkpt lat="48.69407" lon="1.83039">
        <ele>180.80000305176</ele>
        <time>2012-01-23T11:32:21.000Z</time>
      </trkpt>
      <trkpt lat="48.69414" lon="1.83054">
        <ele>181</ele>
        <time>2012-01-23T11:32:29.000Z</time>
      </trkpt>
      <trkpt lat="48.69417" lon="1.83068">
        <ele>181</ele>
        <time>2012-01-23T11:32:36.000Z</time>
      </trkpt>
      <trkpt lat="48.69423" lon="1.83082">
        <ele>181</ele>
        <time>2012-01-23T11:32:43.000Z</time>
      </trkpt>
      <trkpt lat="48.69431" lon="1.83101">
        <ele>180.80000305176</ele>
        <time>2012-01-23T11:32:53.000Z</time>
      </trkpt>
      <trkpt lat="48.6944" lon="1.83117">
        <ele>180.80000305176</ele>
        <time>2012-01-23T11:33:02.000Z</time>
      </trkpt>
      <trkpt lat="48.69446" lon="1.8313">
        <ele>180.60000610352</ele>
        <time>2012-01-23T11:33:09.000Z</time>
      </trkpt>
      <trkpt lat="48.69447" lon="1.83132">
        <ele>180.60000610352</ele>
        <time>2012-01-23T11:33:10.000Z</time>
      </trkpt>
      <trkpt lat="48.69451" lon="1.83142">
        <ele>180.60000610352</ele>
        <time>2012-01-23T11:33:15.000Z</time>
      </trkpt>
      <trkpt lat="48.6946" lon="1.83158">
        <ele>180.39999389648</ele>
        <time>2012-01-23T11:33:25.000Z</time>
      </trkpt>
      <trkpt lat="48.69462" lon="1.83174">
        <ele>180.39999389648</ele>
        <time>2012-01-23T11:33:33.000Z</time>
      </trkpt>
      <trkpt lat="48.69464" lon="1.83192">
        <ele>180.19999694824</ele>
        <time>2012-01-23T11:33:41.000Z</time>
      </trkpt>
      <trkpt lat="48.69465" lon="1.83208">
        <ele>180</ele>
        <time>2012-01-23T11:33:49.000Z</time>
      </trkpt>
      <trkpt lat="48.6947" lon="1.83224">
        <ele>179.80000305176</ele>
        <time>2012-01-23T11:33:57.000Z</time>
      </trkpt>
      <trkpt lat="48.69476" lon="1.83247">
        <ele>179.80000305176</ele>
        <time>2012-01-23T11:34:08.000Z</time>
      </trkpt>
      <trkpt lat="48.69479" lon="1.83255">
        <ele>179.60000610352</ele>
        <time>2012-01-23T11:34:12.000Z</time>
      </trkpt>
      <trkpt lat="48.6948" lon="1.83265">
        <ele>179.39999389648</ele>
        <time>2012-01-23T11:34:17.000Z</time>
      </trkpt>
      <trkpt lat="48.69485" lon="1.83284">
        <ele>179</ele>
        <time>2012-01-23T11:34:26.000Z</time>
      </trkpt>
      <trkpt lat="48.6949" lon="1.83301">
        <ele>178.80000305176</ele>
        <time>2012-01-23T11:34:34.000Z</time>
      </trkpt>
      <trkpt lat="48.69494" lon="1.83319">
        <ele>178.39999389648</ele>
        <time>2012-01-23T11:34:43.000Z</time>
      </trkpt>
      <trkpt lat="48.69497" lon="1.83332">
        <ele>178</ele>
        <time>2012-01-23T11:34:50.000Z</time>
      </trkpt>
      <trkpt lat="48.69501" lon="1.83351">
        <ele>178</ele>
        <time>2012-01-23T11:34:59.000Z</time>
      </trkpt>
      <trkpt lat="48.69505" lon="1.83361">
        <ele>178</ele>
        <time>2012-01-23T11:35:05.000Z</time>
      </trkpt>
      <trkpt lat="48.69506" lon="1.83363">
        <ele>178</ele>
        <time>2012-01-23T11:35:09.000Z</time>
      </trkpt>
      <trkpt lat="48.69508" lon="1.83372">
        <ele>178</ele>
        <time>2012-01-23T11:35:15.000Z</time>
      </trkpt>
      <trkpt lat="48.69511" lon="1.83384">
        <ele>178</ele>
        <time>2012-01-23T11:35:20.000Z</time>
      </trkpt>
      <trkpt lat="48.69516" lon="1.83404">
        <ele>178.19999694824</ele>
        <time>2012-01-23T11:35:29.000Z</time>
      </trkpt>
      <trkpt lat="48.69521" lon="1.83422">
        <ele>178.19999694824</ele>
        <time>2012-01-23T11:35:38.000Z</time>
      </trkpt>
      <trkpt lat="48.69524" lon="1.83433">
        <ele>178.19999694824</ele>
        <time>2012-01-23T11:35:44.000Z</time>
      </trkpt>
      <trkpt lat="48.69527" lon="1.83447">
        <ele>178.19999694824</ele>
        <time>2012-01-23T11:35:51.000Z</time>
      </trkpt>
      <trkpt lat="48.69531" lon="1.83465">
        <ele>178.19999694824</ele>
        <time>2012-01-23T11:36:00.000Z</time>
      </trkpt>
      <trkpt lat="48.69533" lon="1.83475">
        <ele>178.19999694824</ele>
        <time>2012-01-23T11:36:05.000Z</time>
      </trkpt>
      <trkpt lat="48.69537" lon="1.83487">
        <ele>178</ele>
        <time>2012-01-23T11:36:11.000Z</time>
      </trkpt>
      <trkpt lat="48.69542" lon="1.83506">
        <ele>178</ele>
        <time>2012-01-23T11:36:21.000Z</time>
      </trkpt>
      <trkpt lat="48.69546" lon="1.8352">
        <ele>177.80000305176</ele>
        <time>2012-01-23T11:36:28.000Z</time>
      </trkpt>
      <trkpt lat="48.69548" lon="1.83528">
        <ele>177.80000305176</ele>
        <time>2012-01-23T11:36:32.000Z</time>
      </trkpt>
      <trkpt lat="48.69555" lon="1.83555">
        <ele>177.80000305176</ele>
        <time>2012-01-23T11:36:45.000Z</time>
      </trkpt>
      <trkpt lat="48.69563" lon="1.83579">
        <ele>177.80000305176</ele>
        <time>2012-01-23T11:36:57.000Z</time>
      </trkpt>
      <trkpt lat="48.69566" lon="1.83596">
        <ele>177.60000610352</ele>
        <time>2012-01-23T11:37:05.000Z</time>
      </trkpt>
      <trkpt lat="48.69572" lon="1.83622">
        <ele>177.39999389648</ele>
        <time>2012-01-23T11:37:18.000Z</time>
      </trkpt>
      <trkpt lat="48.69577" lon="1.83641">
        <ele>177.19999694824</ele>
        <time>2012-01-23T11:37:28.000Z</time>
      </trkpt>
      <trkpt lat="48.69581" lon="1.83658">
        <ele>177</ele>
        <time>2012-01-23T11:37:38.000Z</time>
      </trkpt>
      <trkpt lat="48.69581" lon="1.83662">
        <ele>177</ele>
        <time>2012-01-23T11:37:40.000Z</time>
      </trkpt>
      <trkpt lat="48.69583" lon="1.83668">
        <ele>177</ele>
        <time>2012-01-23T11:37:44.000Z</time>
      </trkpt>
      <trkpt lat="48.6959" lon="1.83691">
        <ele>177</ele>
        <time>2012-01-23T11:37:57.000Z</time>
      </trkpt>
      <trkpt lat="48.69595" lon="1.8371">
        <ele>177</ele>
        <time>2012-01-23T11:38:07.000Z</time>
      </trkpt>
      <trkpt lat="48.69602" lon="1.8373">
        <ele>177</ele>
        <time>2012-01-23T11:38:17.000Z</time>
      </trkpt>
      <trkpt lat="48.69607" lon="1.83742">
        <ele>177</ele>
        <time>2012-01-23T11:38:23.000Z</time>
      </trkpt>
      <trkpt lat="48.69614" lon="1.83759">
        <ele>177</ele>
        <time>2012-01-23T11:38:32.000Z</time>
      </trkpt>
      <trkpt lat="48.69618" lon="1.83771">
        <ele>176.80000305176</ele>
        <time>2012-01-23T11:38:39.000Z</time>
      </trkpt>
      <trkpt lat="48.69624" lon="1.83788">
        <ele>176.80000305176</ele>
        <time>2012-01-23T11:38:47.000Z</time>
      </trkpt>
      <trkpt lat="48.69628" lon="1.83796">
        <ele>176.80000305176</ele>
        <time>2012-01-23T11:38:54.000Z</time>
      </trkpt>
      <trkpt lat="48.69628" lon="1.83796">
        <ele>176.80000305176</ele>
        <time>2012-01-23T11:38:55.000Z</time>
      </trkpt>
      <trkpt lat="48.6963" lon="1.83799">
        <ele>176.80000305176</ele>
        <time>2012-01-23T11:38:58.000Z</time>
      </trkpt>
      <trkpt lat="48.69632" lon="1.83803">
        <ele>176.80000305176</ele>
        <time>2012-01-23T11:38:59.000Z</time>
      </trkpt>
      <trkpt lat="48.69636" lon="1.8381">
        <ele>176.80000305176</ele>
        <time>2012-01-23T11:39:03.000Z</time>
      </trkpt>
      <trkpt lat="48.69641" lon="1.8382">
        <ele>176.80000305176</ele>
        <time>2012-01-23T11:39:08.000Z</time>
      </trkpt>
      <trkpt lat="48.69643" lon="1.83825">
        <ele>176.80000305176</ele>
        <time>2012-01-23T11:39:13.000Z</time>
      </trkpt>
      <trkpt lat="48.69651" lon="1.83839">
        <ele>176.80000305176</ele>
        <time>2012-01-23T11:39:17.000Z</time>
      </trkpt>
      <trkpt lat="48.69658" lon="1.83851">
        <ele>176.60000610352</ele>
        <time>2012-01-23T11:39:22.000Z</time>
      </trkpt>
      <trkpt lat="48.69666" lon="1.83864">
        <ele>176.60000610352</ele>
        <time>2012-01-23T11:39:30.000Z</time>
      </trkpt>
      <trkpt lat="48.69674" lon="1.83882">
        <ele>176.39999389648</ele>
        <time>2012-01-23T11:39:40.000Z</time>
      </trkpt>
      <trkpt lat="48.6968" lon="1.83896">
        <ele>176.19999694824</ele>
        <time>2012-01-23T11:39:48.000Z</time>
      </trkpt>
      <trkpt lat="48.69687" lon="1.83913">
        <ele>176</ele>
        <time>2012-01-23T11:39:56.000Z</time>
      </trkpt>
      <trkpt lat="48.69692" lon="1.83925">
        <ele>176</ele>
        <time>2012-01-23T11:40:02.000Z</time>
      </trkpt>
      <trkpt lat="48.69698" lon="1.83938">
        <ele>175.80000305176</ele>
        <time>2012-01-23T11:40:09.000Z</time>
      </trkpt>
      <trkpt lat="48.69702" lon="1.83951">
        <ele>175.60000610352</ele>
        <time>2012-01-23T11:40:16.000Z</time>
      </trkpt>
      <trkpt lat="48.69709" lon="1.8397">
        <ele>175.39999389648</ele>
        <time>2012-01-23T11:40:26.000Z</time>
      </trkpt>
      <trkpt lat="48.69717" lon="1.83989">
        <ele>175.19999694824</ele>
        <time>2012-01-23T11:40:36.000Z</time>
      </trkpt>
      <trkpt lat="48.69724" lon="1.84005">
        <ele>175</ele>
        <time>2012-01-23T11:40:44.000Z</time>
      </trkpt>
      <trkpt lat="48.69731" lon="1.84023">
        <ele>175</ele>
        <time>2012-01-23T11:40:53.000Z</time>
      </trkpt>
      <trkpt lat="48.69735" lon="1.84034">
        <ele>175</ele>
        <time>2012-01-23T11:40:59.000Z</time>
      </trkpt>
      <trkpt lat="48.69738" lon="1.84047">
        <ele>175</ele>
        <time>2012-01-23T11:41:06.000Z</time>
      </trkpt>
      <trkpt lat="48.69738" lon="1.84057">
        <ele>175</ele>
        <time>2012-01-23T11:41:12.000Z</time>
      </trkpt>
      <trkpt lat="48.69738" lon="1.84061">
        <ele>175</ele>
        <time>2012-01-23T11:41:14.000Z</time>
      </trkpt>
      <trkpt lat="48.69737" lon="1.84078">
        <ele>175</ele>
        <time>2012-01-23T11:41:23.000Z</time>
      </trkpt>
      <trkpt lat="48.69736" lon="1.84091">
        <ele>175</ele>
        <time>2012-01-23T11:41:29.000Z</time>
      </trkpt>
      <trkpt lat="48.69736" lon="1.84097">
        <ele>175</ele>
        <time>2012-01-23T11:41:32.000Z</time>
      </trkpt>
      <trkpt lat="48.6974" lon="1.84113">
        <ele>175</ele>
        <time>2012-01-23T11:41:38.000Z</time>
      </trkpt>
      <trkpt lat="48.69744" lon="1.84127">
        <ele>175</ele>
        <time>2012-01-23T11:41:43.000Z</time>
      </trkpt>
      <trkpt lat="48.69747" lon="1.84139">
        <ele>175</ele>
        <time>2012-01-23T11:41:50.000Z</time>
      </trkpt>
      <trkpt lat="48.69751" lon="1.84153">
        <ele>175</ele>
        <time>2012-01-23T11:41:57.000Z</time>
      </trkpt>
      <trkpt lat="48.69754" lon="1.8417">
        <ele>175</ele>
        <time>2012-01-23T11:42:05.000Z</time>
      </trkpt>
      <trkpt lat="48.69757" lon="1.84182">
        <ele>174.80000305176</ele>
        <time>2012-01-23T11:42:11.000Z</time>
      </trkpt>
      <trkpt lat="48.69758" lon="1.84187">
        <ele>174.60000610352</ele>
        <time>2012-01-23T11:42:15.000Z</time>
      </trkpt>
      <trkpt lat="48.6976" lon="1.84203">
        <ele>174.60000610352</ele>
        <time>2012-01-23T11:42:22.000Z</time>
      </trkpt>
      <trkpt lat="48.69761" lon="1.8421">
        <ele>174.39999389648</ele>
        <time>2012-01-23T11:42:28.000Z</time>
      </trkpt>
      <trkpt lat="48.69762" lon="1.84218">
        <ele>174.39999389648</ele>
        <time>2012-01-23T11:42:32.000Z</time>
      </trkpt>
      <trkpt lat="48.69762" lon="1.8422">
        <ele>174.39999389648</ele>
        <time>2012-01-23T11:42:35.000Z</time>
      </trkpt>
      <trkpt lat="48.69764" lon="1.8423">
        <ele>174.19999694824</ele>
        <time>2012-01-23T11:42:42.000Z</time>
      </trkpt>
      <trkpt lat="48.69766" lon="1.84241">
        <ele>174</ele>
        <time>2012-01-23T11:42:46.000Z</time>
      </trkpt>
      <trkpt lat="48.69768" lon="1.8425">
        <ele>174</ele>
        <time>2012-01-23T11:42:50.000Z</time>
      </trkpt>
      <trkpt lat="48.6977" lon="1.84262">
        <ele>174</ele>
        <time>2012-01-23T11:42:57.000Z</time>
      </trkpt>
      <trkpt lat="48.69773" lon="1.84281">
        <ele>174</ele>
        <time>2012-01-23T11:43:07.000Z</time>
      </trkpt>
      <trkpt lat="48.69774" lon="1.84291">
        <ele>174</ele>
        <time>2012-01-23T11:43:13.000Z</time>
      </trkpt>
      <trkpt lat="48.69776" lon="1.84304">
        <ele>174</ele>
        <time>2012-01-23T11:43:20.000Z</time>
      </trkpt>
      <trkpt lat="48.69779" lon="1.84319">
        <ele>174</ele>
        <time>2012-01-23T11:43:28.000Z</time>
      </trkpt>
      <trkpt lat="48.69781" lon="1.84335">
        <ele>174</ele>
        <time>2012-01-23T11:43:37.000Z</time>
      </trkpt>
      <trkpt lat="48.69784" lon="1.84354">
        <ele>174</ele>
        <time>2012-01-23T11:43:46.000Z</time>
      </trkpt>
      <trkpt lat="48.69787" lon="1.84373">
        <ele>174</ele>
        <time>2012-01-23T11:43:55.000Z</time>
      </trkpt>
      <trkpt lat="48.6979" lon="1.84391">
        <ele>174</ele>
        <time>2012-01-23T11:44:04.000Z</time>
      </trkpt>
      <trkpt lat="48.69791" lon="1.84396">
        <ele>174</ele>
        <time>2012-01-23T11:44:07.000Z</time>
      </trkpt>
      <trkpt lat="48.69791" lon="1.84398">
        <ele>174</ele>
        <time>2012-01-23T11:44:11.000Z</time>
      </trkpt>
      <trkpt lat="48.69794" lon="1.84424">
        <ele>173.80000305176</ele>
        <time>2012-01-23T11:45:59.000Z</time>
      </trkpt>
      <trkpt lat="48.69797" lon="1.84443">
        <ele>173.39999389648</ele>
        <time>2012-01-23T11:46:08.000Z</time>
      </trkpt>
      <trkpt lat="48.69799" lon="1.84462">
        <ele>173</ele>
        <time>2012-01-23T11:46:17.000Z</time>
      </trkpt>
      <trkpt lat="48.69801" lon="1.84484">
        <ele>172.60000610352</ele>
        <time>2012-01-23T11:46:27.000Z</time>
      </trkpt>
      <trkpt lat="48.69803" lon="1.84502">
        <ele>172.39999389648</ele>
        <time>2012-01-23T11:46:35.000Z</time>
      </trkpt>
      <trkpt lat="48.69806" lon="1.84522">
        <ele>172.60000610352</ele>
        <time>2012-01-23T11:46:44.000Z</time>
      </trkpt>
      <trkpt lat="48.69809" lon="1.84549">
        <ele>172.80000305176</ele>
        <time>2012-01-23T11:46:56.000Z</time>
      </trkpt>
      <trkpt lat="48.69812" lon="1.8457">
        <ele>172.80000305176</ele>
        <time>2012-01-23T11:47:05.000Z</time>
      </trkpt>
      <trkpt lat="48.69818" lon="1.84586">
        <ele>173</ele>
        <time>2012-01-23T11:47:13.000Z</time>
      </trkpt>
      <trkpt lat="48.69826" lon="1.84594">
        <ele>173.19999694824</ele>
        <time>2012-01-23T11:47:19.000Z</time>
      </trkpt>
      <trkpt lat="48.6984" lon="1.84601">
        <ele>173.39999389648</ele>
        <time>2012-01-23T11:47:28.000Z</time>
      </trkpt>
      <trkpt lat="48.69852" lon="1.84608">
        <ele>173.60000610352</ele>
        <time>2012-01-23T11:47:36.000Z</time>
      </trkpt>
      <trkpt lat="48.69859" lon="1.84613">
        <ele>173.60000610352</ele>
        <time>2012-01-23T11:47:42.000Z</time>
      </trkpt>
      <trkpt lat="48.69867" lon="1.84622">
        <ele>173.80000305176</ele>
        <time>2012-01-23T11:47:49.000Z</time>
      </trkpt>
      <trkpt lat="48.69879" lon="1.8463">
        <ele>173.80000305176</ele>
        <time>2012-01-23T11:47:58.000Z</time>
      </trkpt>
      <trkpt lat="48.69889" lon="1.84636">
        <ele>173.80000305176</ele>
        <time>2012-01-23T11:48:05.000Z</time>
      </trkpt>
      <trkpt lat="48.69891" lon="1.84637">
        <ele>173.80000305176</ele>
        <time>2012-01-23T11:48:06.000Z</time>
      </trkpt>
      <trkpt lat="48.69894" lon="1.84644">
        <ele>174</ele>
        <time>2012-01-23T11:48:10.000Z</time>
      </trkpt>
      <trkpt lat="48.69904" lon="1.8465">
        <ele>174</ele>
        <time>2012-01-23T11:48:17.000Z</time>
      </trkpt>
      <trkpt lat="48.69912" lon="1.84657">
        <ele>174</ele>
        <time>2012-01-23T11:48:23.000Z</time>
      </trkpt>
      <trkpt lat="48.69927" lon="1.84667">
        <ele>173.80000305176</ele>
        <time>2012-01-23T11:48:33.000Z</time>
      </trkpt>
      <trkpt lat="48.69941" lon="1.84677">
        <ele>173.60000610352</ele>
        <time>2012-01-23T11:48:43.000Z</time>
      </trkpt>
      <trkpt lat="48.69957" lon="1.84687">
        <ele>173.60000610352</ele>
        <time>2012-01-23T11:48:54.000Z</time>
      </trkpt>
      <trkpt lat="48.69958" lon="1.84688">
        <ele>173.60000610352</ele>
        <time>2012-01-23T11:48:57.000Z</time>
      </trkpt>
      <trkpt lat="48.6996" lon="1.84691">
        <ele>173.60000610352</ele>
        <time>2012-01-23T11:49:00.000Z</time>
      </trkpt>
      <trkpt lat="48.69969" lon="1.84697">
        <ele>173.39999389648</ele>
        <time>2012-01-23T11:49:04.000Z</time>
      </trkpt>
      <trkpt lat="48.69977" lon="1.84702">
        <ele>173.39999389648</ele>
        <time>2012-01-23T11:49:09.000Z</time>
      </trkpt>
      <trkpt lat="48.69986" lon="1.84709">
        <ele>173.39999389648</ele>
        <time>2012-01-23T11:49:16.000Z</time>
      </trkpt>
      <trkpt lat="48.69998" lon="1.84719">
        <ele>173.19999694824</ele>
        <time>2012-01-23T11:49:25.000Z</time>
      </trkpt>
      <trkpt lat="48.70009" lon="1.84727">
        <ele>173.60000610352</ele>
        <time>2012-01-23T11:49:33.000Z</time>
      </trkpt>
      <trkpt lat="48.70022" lon="1.84738">
        <ele>174</ele>
        <time>2012-01-23T11:49:43.000Z</time>
      </trkpt>
      <trkpt lat="48.70038" lon="1.84751">
        <ele>174.39999389648</ele>
        <time>2012-01-23T11:49:54.000Z</time>
      </trkpt>
      <trkpt lat="48.7005" lon="1.8476">
        <ele>174.60000610352</ele>
        <time>2012-01-23T11:50:01.000Z</time>
      </trkpt>
      <trkpt lat="48.70065" lon="1.84773">
        <ele>174.80000305176</ele>
        <time>2012-01-23T11:50:11.000Z</time>
      </trkpt>
      <trkpt lat="48.70079" lon="1.84777">
        <ele>175</ele>
        <time>2012-01-23T11:50:19.000Z</time>
      </trkpt>
      <trkpt lat="48.70091" lon="1.84772">
        <ele>175</ele>
        <time>2012-01-23T11:50:25.000Z</time>
      </trkpt>
      <trkpt lat="48.70104" lon="1.84763">
        <ele>175.19999694824</ele>
        <time>2012-01-23T11:50:32.000Z</time>
      </trkpt>
      <trkpt lat="48.7012" lon="1.84753">
        <ele>175.39999389648</ele>
        <time>2012-01-23T11:50:41.000Z</time>
      </trkpt>
      <trkpt lat="48.70133" lon="1.84744">
        <ele>175.60000610352</ele>
        <time>2012-01-23T11:50:49.000Z</time>
      </trkpt>
      <trkpt lat="48.70146" lon="1.84735">
        <ele>175.60000610352</ele>
        <time>2012-01-23T11:50:57.000Z</time>
      </trkpt>
      <trkpt lat="48.70161" lon="1.84725">
        <ele>175.60000610352</ele>
        <time>2012-01-23T11:51:06.000Z</time>
      </trkpt>
      <trkpt lat="48.70172" lon="1.84718">
        <ele>175.60000610352</ele>
        <time>2012-01-23T11:51:13.000Z</time>
      </trkpt>
      <trkpt lat="48.70178" lon="1.84712">
        <ele>175.39999389648</ele>
        <time>2012-01-23T11:51:18.000Z</time>
      </trkpt>
      <trkpt lat="48.70181" lon="1.8471">
        <ele>175.39999389648</ele>
        <time>2012-01-23T11:51:22.000Z</time>
      </trkpt>
      <trkpt lat="48.7019" lon="1.84701">
        <ele>175.19999694824</ele>
        <time>2012-01-23T11:51:28.000Z</time>
      </trkpt>
      <trkpt lat="48.70202" lon="1.84687">
        <ele>174.80000305176</ele>
        <time>2012-01-23T11:51:37.000Z</time>
      </trkpt>
      <trkpt lat="48.70212" lon="1.84675">
        <ele>174.60000610352</ele>
        <time>2012-01-23T11:51:42.000Z</time>
      </trkpt>
      <trkpt lat="48.70228" lon="1.84651">
        <ele>174.60000610352</ele>
        <time>2012-01-23T11:51:49.000Z</time>
      </trkpt>
      <trkpt lat="48.70237" lon="1.84632">
        <ele>174.80000305176</ele>
        <time>2012-01-23T11:51:56.000Z</time>
      </trkpt>
      <trkpt lat="48.70244" lon="1.84618">
        <ele>175.19999694824</ele>
        <time>2012-01-23T11:52:02.000Z</time>
      </trkpt>
      <trkpt lat="48.70246" lon="1.84613">
        <ele>175.19999694824</ele>
        <time>2012-01-23T11:52:06.000Z</time>
      </trkpt>
      <trkpt lat="48.70246" lon="1.84613">
        <ele>175.19999694824</ele>
        <time>2012-01-23T11:52:07.000Z</time>
      </trkpt>
      <trkpt lat="48.7025" lon="1.84605">
        <ele>175.39999389648</ele>
        <time>2012-01-23T11:52:13.000Z</time>
      </trkpt>
      <trkpt lat="48.70257" lon="1.8459">
        <ele>175.80000305176</ele>
        <time>2012-01-23T11:52:18.000Z</time>
      </trkpt>
      <trkpt lat="48.70266" lon="1.84572">
        <ele>175.80000305176</ele>
        <time>2012-01-23T11:52:26.000Z</time>
      </trkpt>
      <trkpt lat="48.7027" lon="1.84563">
        <ele>175.80000305176</ele>
        <time>2012-01-23T11:52:31.000Z</time>
      </trkpt>
      <trkpt lat="48.70278" lon="1.84545">
        <ele>175.60000610352</ele>
        <time>2012-01-23T11:52:39.000Z</time>
      </trkpt>
      <trkpt lat="48.70288" lon="1.84526">
        <ele>175.60000610352</ele>
        <time>2012-01-23T11:52:48.000Z</time>
      </trkpt>
      <trkpt lat="48.70295" lon="1.84511">
        <ele>175.60000610352</ele>
        <time>2012-01-23T11:52:55.000Z</time>
      </trkpt>
      <trkpt lat="48.70305" lon="1.8449">
        <ele>175.60000610352</ele>
        <time>2012-01-23T11:53:05.000Z</time>
      </trkpt>
      <trkpt lat="48.70307" lon="1.84486">
        <ele>175.80000305176</ele>
        <time>2012-01-23T11:53:07.000Z</time>
      </trkpt>
      <trkpt lat="48.70313" lon="1.84472">
        <ele>175.80000305176</ele>
        <time>2012-01-23T11:53:13.000Z</time>
      </trkpt>
      <trkpt lat="48.7032" lon="1.8446">
        <ele>176</ele>
        <time>2012-01-23T11:53:19.000Z</time>
      </trkpt>
      <trkpt lat="48.70324" lon="1.8445">
        <ele>176</ele>
        <time>2012-01-23T11:53:26.000Z</time>
      </trkpt>
      <trkpt lat="48.70327" lon="1.84445">
        <ele>176</ele>
        <time>2012-01-23T11:53:33.000Z</time>
      </trkpt>
      <trkpt lat="48.70331" lon="1.84434">
        <ele>176</ele>
        <time>2012-01-23T11:53:36.000Z</time>
      </trkpt>
      <trkpt lat="48.70336" lon="1.84423">
        <ele>176</ele>
        <time>2012-01-23T11:53:41.000Z</time>
      </trkpt>
      <trkpt lat="48.70341" lon="1.84404">
        <ele>176</ele>
        <time>2012-01-23T11:53:48.000Z</time>
      </trkpt>
      <trkpt lat="48.70351" lon="1.84384">
        <ele>176.19999694824</ele>
        <time>2012-01-23T11:53:55.000Z</time>
      </trkpt>
      <trkpt lat="48.70357" lon="1.84369">
        <ele>176.19999694824</ele>
        <time>2012-01-23T11:54:02.000Z</time>
      </trkpt>
      <trkpt lat="48.70364" lon="1.84357">
        <ele>176.19999694824</ele>
        <time>2012-01-23T11:54:08.000Z</time>
      </trkpt>
      <trkpt lat="48.70374" lon="1.84336">
        <ele>176</ele>
        <time>2012-01-23T11:54:18.000Z</time>
      </trkpt>
      <trkpt lat="48.70381" lon="1.84321">
        <ele>175.80000305176</ele>
        <time>2012-01-23T11:54:25.000Z</time>
      </trkpt>
      <trkpt lat="48.70391" lon="1.843">
        <ele>175.60000610352</ele>
        <time>2012-01-23T11:54:35.000Z</time>
      </trkpt>
      <trkpt lat="48.70398" lon="1.84288">
        <ele>175.39999389648</ele>
        <time>2012-01-23T11:54:41.000Z</time>
      </trkpt>
      <trkpt lat="48.7041" lon="1.84264">
        <ele>175.19999694824</ele>
        <time>2012-01-23T11:54:53.000Z</time>
      </trkpt>
      <trkpt lat="48.70417" lon="1.84248">
        <ele>175</ele>
        <time>2012-01-23T11:55:01.000Z</time>
      </trkpt>
      <trkpt lat="48.70428" lon="1.84228">
        <ele>175.19999694824</ele>
        <time>2012-01-23T11:55:11.000Z</time>
      </trkpt>
      <trkpt lat="48.70438" lon="1.84211">
        <ele>175.19999694824</ele>
        <time>2012-01-23T11:55:20.000Z</time>
      </trkpt>
      <trkpt lat="48.70444" lon="1.84202">
        <ele>175.39999389648</ele>
        <time>2012-01-23T11:55:25.000Z</time>
      </trkpt>
      <trkpt lat="48.70454" lon="1.84181">
        <ele>175.39999389648</ele>
        <time>2012-01-23T11:55:35.000Z</time>
      </trkpt>
      <trkpt lat="48.70458" lon="1.84173">
        <ele>175.39999389648</ele>
        <time>2012-01-23T11:55:40.000Z</time>
      </trkpt>
      <trkpt lat="48.70458" lon="1.84172">
        <ele>175.39999389648</ele>
        <time>2012-01-23T11:55:42.000Z</time>
      </trkpt>
      <trkpt lat="48.70461" lon="1.84168">
        <ele>175.60000610352</ele>
        <time>2012-01-23T11:55:46.000Z</time>
      </trkpt>
      <trkpt lat="48.70468" lon="1.84157">
        <ele>175.80000305176</ele>
        <time>2012-01-23T11:55:51.000Z</time>
      </trkpt>
      <trkpt lat="48.70476" lon="1.84144">
        <ele>176</ele>
        <time>2012-01-23T11:55:58.000Z</time>
      </trkpt>
      <trkpt lat="48.70484" lon="1.84133">
        <ele>176.19999694824</ele>
        <time>2012-01-23T11:56:04.000Z</time>
      </trkpt>
      <trkpt lat="48.70493" lon="1.84121">
        <ele>176.39999389648</ele>
        <time>2012-01-23T11:56:11.000Z</time>
      </trkpt>
      <trkpt lat="48.70505" lon="1.84104">
        <ele>176.80000305176</ele>
        <time>2012-01-23T11:56:21.000Z</time>
      </trkpt>
      <trkpt lat="48.70517" lon="1.84093">
        <ele>177</ele>
        <time>2012-01-23T11:56:29.000Z</time>
      </trkpt>
      <trkpt lat="48.70526" lon="1.84084">
        <ele>177</ele>
        <time>2012-01-23T11:56:36.000Z</time>
      </trkpt>
      <trkpt lat="48.70538" lon="1.84073">
        <ele>176.80000305176</ele>
        <time>2012-01-23T11:56:44.000Z</time>
      </trkpt>
      <trkpt lat="48.70547" lon="1.84064">
        <ele>176.80000305176</ele>
        <time>2012-01-23T11:56:51.000Z</time>
      </trkpt>
      <trkpt lat="48.7056" lon="1.84055">
        <ele>176.60000610352</ele>
        <time>2012-01-23T11:56:59.000Z</time>
      </trkpt>
      <trkpt lat="48.70568" lon="1.84046">
        <ele>176.60000610352</ele>
        <time>2012-01-23T11:57:05.000Z</time>
      </trkpt>
      <trkpt lat="48.70582" lon="1.84034">
        <ele>176.39999389648</ele>
        <time>2012-01-23T11:57:15.000Z</time>
      </trkpt>
      <trkpt lat="48.70598" lon="1.84022">
        <ele>176.19999694824</ele>
        <time>2012-01-23T11:57:25.000Z</time>
      </trkpt>
      <trkpt lat="48.70601" lon="1.8402">
        <ele>176.19999694824</ele>
        <time>2012-01-23T11:57:27.000Z</time>
      </trkpt>
      <trkpt lat="48.70607" lon="1.8401">
        <ele>176.19999694824</ele>
        <time>2012-01-23T11:57:33.000Z</time>
      </trkpt>
      <trkpt lat="48.70608" lon="1.84008">
        <ele>176</ele>
        <time>2012-01-23T11:57:34.000Z</time>
      </trkpt>
      <trkpt lat="48.70622" lon="1.83997">
        <ele>176</ele>
        <time>2012-01-23T11:57:43.000Z</time>
      </trkpt>
      <trkpt lat="48.70634" lon="1.83985">
        <ele>176.19999694824</ele>
        <time>2012-01-23T11:57:51.000Z</time>
      </trkpt>
      <trkpt lat="48.70642" lon="1.83976">
        <ele>176.39999389648</ele>
        <time>2012-01-23T11:57:58.000Z</time>
      </trkpt>
      <trkpt lat="48.70642" lon="1.83976">
        <ele>176.39999389648</ele>
        <time>2012-01-23T11:58:00.000Z</time>
      </trkpt>
      <trkpt lat="48.70644" lon="1.83973">
        <ele>176.39999389648</ele>
        <time>2012-01-23T11:58:07.000Z</time>
      </trkpt>
      <trkpt lat="48.70654" lon="1.83958">
        <ele>176.60000610352</ele>
        <time>2012-01-23T11:58:14.000Z</time>
      </trkpt>
      <trkpt lat="48.70666" lon="1.83941">
        <ele>176.80000305176</ele>
        <time>2012-01-23T11:58:23.000Z</time>
      </trkpt>
      <trkpt lat="48.70673" lon="1.83934">
        <ele>177</ele>
        <time>2012-01-23T11:58:28.000Z</time>
      </trkpt>
      <trkpt lat="48.70682" lon="1.83918">
        <ele>177.39999389648</ele>
        <time>2012-01-23T11:58:36.000Z</time>
      </trkpt>
      <trkpt lat="48.70685" lon="1.83914">
        <ele>177.39999389648</ele>
        <time>2012-01-23T11:58:38.000Z</time>
      </trkpt>
      <trkpt lat="48.7069" lon="1.83905">
        <ele>177.60000610352</ele>
        <time>2012-01-23T11:58:43.000Z</time>
      </trkpt>
      <trkpt lat="48.70701" lon="1.83885">
        <ele>177.80000305176</ele>
        <time>2012-01-23T11:58:53.000Z</time>
      </trkpt>
      <trkpt lat="48.70715" lon="1.83863">
        <ele>178</ele>
        <time>2012-01-23T11:59:05.000Z</time>
      </trkpt>
      <trkpt lat="48.70732" lon="1.83841">
        <ele>178</ele>
        <time>2012-01-23T11:59:18.000Z</time>
      </trkpt>
      <trkpt lat="48.70745" lon="1.83824">
        <ele>178.19999694824</ele>
        <time>2012-01-23T11:59:28.000Z</time>
      </trkpt>
      <trkpt lat="48.70755" lon="1.83811">
        <ele>178.60000610352</ele>
        <time>2012-01-23T11:59:36.000Z</time>
      </trkpt>
      <trkpt lat="48.70766" lon="1.83798">
        <ele>178.80000305176</ele>
        <time>2012-01-23T11:59:45.000Z</time>
      </trkpt>
      <trkpt lat="48.70775" lon="1.83786">
        <ele>179</ele>
        <time>2012-01-23T11:59:52.000Z</time>
      </trkpt>
      <trkpt lat="48.70785" lon="1.83775">
        <ele>179.19999694824</ele>
        <time>2012-01-23T12:00:00.000Z</time>
      </trkpt>
      <trkpt lat="48.70794" lon="1.83759">
        <ele>179.39999389648</ele>
        <time>2012-01-23T12:00:09.000Z</time>
      </trkpt>
      <trkpt lat="48.708" lon="1.83751">
        <ele>179.39999389648</ele>
        <time>2012-01-23T12:00:14.000Z</time>
      </trkpt>
      <trkpt lat="48.70809" lon="1.8374">
        <ele>179.19999694824</ele>
        <time>2012-01-23T12:00:22.000Z</time>
      </trkpt>
      <trkpt lat="48.7082" lon="1.83728">
        <ele>179.19999694824</ele>
        <time>2012-01-23T12:00:30.000Z</time>
      </trkpt>
      <trkpt lat="48.70833" lon="1.83713">
        <ele>179</ele>
        <time>2012-01-23T12:00:40.000Z</time>
      </trkpt>
      <trkpt lat="48.70841" lon="1.83706">
        <ele>179</ele>
        <time>2012-01-23T12:00:46.000Z</time>
      </trkpt>
      <trkpt lat="48.70852" lon="1.83697">
        <ele>179</ele>
        <time>2012-01-23T12:00:54.000Z</time>
      </trkpt>
      <trkpt lat="48.70858" lon="1.83685">
        <ele>179</ele>
        <time>2012-01-23T12:01:01.000Z</time>
      </trkpt>
      <trkpt lat="48.70866" lon="1.83678">
        <ele>179</ele>
        <time>2012-01-23T12:01:08.000Z</time>
      </trkpt>
      <trkpt lat="48.70876" lon="1.83669">
        <ele>179</ele>
        <time>2012-01-23T12:01:16.000Z</time>
      </trkpt>
      <trkpt lat="48.70882" lon="1.83662">
        <ele>179</ele>
        <time>2012-01-23T12:01:21.000Z</time>
      </trkpt>
      <trkpt lat="48.7089" lon="1.83654">
        <ele>179</ele>
        <time>2012-01-23T12:01:28.000Z</time>
      </trkpt>
      <trkpt lat="48.709" lon="1.83646">
        <ele>179</ele>
        <time>2012-01-23T12:01:35.000Z</time>
      </trkpt>
      <trkpt lat="48.7091" lon="1.83639">
        <ele>179</ele>
        <time>2012-01-23T12:01:43.000Z</time>
      </trkpt>
      <trkpt lat="48.70922" lon="1.8363">
        <ele>179</ele>
        <time>2012-01-23T12:01:52.000Z</time>
      </trkpt>
      <trkpt lat="48.70932" lon="1.83623">
        <ele>178.80000305176</ele>
        <time>2012-01-23T12:01:59.000Z</time>
      </trkpt>
      <trkpt lat="48.7095" lon="1.83613">
        <ele>178.60000610352</ele>
        <time>2012-01-23T12:02:11.000Z</time>
      </trkpt>
      <trkpt lat="48.70958" lon="1.83609">
        <ele>178.60000610352</ele>
        <time>2012-01-23T12:02:16.000Z</time>
      </trkpt>
      <trkpt lat="48.70978" lon="1.83598">
        <ele>178.19999694824</ele>
        <time>2012-01-23T12:02:29.000Z</time>
      </trkpt>
      <trkpt lat="48.70991" lon="1.83591">
        <ele>178.19999694824</ele>
        <time>2012-01-23T12:02:39.000Z</time>
      </trkpt>
      <trkpt lat="48.70999" lon="1.83592">
        <ele>178</ele>
        <time>2012-01-23T12:02:45.000Z</time>
      </trkpt>
      <trkpt lat="48.71006" lon="1.83595">
        <ele>178.19999694824</ele>
        <time>2012-01-23T12:02:51.000Z</time>
      </trkpt>
      <trkpt lat="48.71015" lon="1.836">
        <ele>178.60000610352</ele>
        <time>2012-01-23T12:02:59.000Z</time>
      </trkpt>
      <trkpt lat="48.71026" lon="1.83606">
        <ele>179</ele>
        <time>2012-01-23T12:03:07.000Z</time>
      </trkpt>
      <trkpt lat="48.71029" lon="1.83611">
        <ele>179.19999694824</ele>
        <time>2012-01-23T12:03:10.000Z</time>
      </trkpt>
      <trkpt lat="48.71036" lon="1.83615">
        <ele>179.39999389648</ele>
        <time>2012-01-23T12:03:15.000Z</time>
      </trkpt>
      <trkpt lat="48.71046" lon="1.83626">
        <ele>180</ele>
        <time>2012-01-23T12:03:24.000Z</time>
      </trkpt>
      <trkpt lat="48.71047" lon="1.83628">
        <ele>180</ele>
        <time>2012-01-23T12:03:25.000Z</time>
      </trkpt>
      <trkpt lat="48.71056" lon="1.83634">
        <ele>180.39999389648</ele>
        <time>2012-01-23T12:03:32.000Z</time>
      </trkpt>
      <trkpt lat="48.71056" lon="1.83634">
        <ele>180.39999389648</ele>
        <time>2012-01-23T12:03:34.000Z</time>
      </trkpt>
      <trkpt lat="48.71059" lon="1.83638">
        <ele>180.60000610352</ele>
        <time>2012-01-23T12:03:39.000Z</time>
      </trkpt>
      <trkpt lat="48.71065" lon="1.83646">
        <ele>181</ele>
        <time>2012-01-23T12:03:44.000Z</time>
      </trkpt>
      <trkpt lat="48.71074" lon="1.83656">
        <ele>181.39999389648</ele>
        <time>2012-01-23T12:03:52.000Z</time>
      </trkpt>
      <trkpt lat="48.71081" lon="1.83661">
        <ele>181.80000305176</ele>
        <time>2012-01-23T12:03:58.000Z</time>
      </trkpt>
      <trkpt lat="48.71086" lon="1.83668">
        <ele>182.19999694824</ele>
        <time>2012-01-23T12:04:03.000Z</time>
      </trkpt>
      <trkpt lat="48.71088" lon="1.8367">
        <ele>182.39999389648</ele>
        <time>2012-01-23T12:04:05.000Z</time>
      </trkpt>
      <trkpt lat="48.71088" lon="1.83677">
        <ele>182.80000305176</ele>
        <time>2012-01-23T12:04:11.000Z</time>
      </trkpt>
      <trkpt lat="48.71086" lon="1.83691">
        <ele>183</ele>
        <time>2012-01-23T12:04:27.000Z</time>
      </trkpt>
      <trkpt lat="48.71084" lon="1.83699">
        <ele>183.19999694824</ele>
        <time>2012-01-23T12:04:30.000Z</time>
      </trkpt>
      <trkpt lat="48.71081" lon="1.83711">
        <ele>183.39999389648</ele>
        <time>2012-01-23T12:04:36.000Z</time>
      </trkpt>
      <trkpt lat="48.71078" lon="1.8372">
        <ele>183.60000610352</ele>
        <time>2012-01-23T12:04:41.000Z</time>
      </trkpt>
      <trkpt lat="48.71074" lon="1.83731">
        <ele>183.80000305176</ele>
        <time>2012-01-23T12:04:46.000Z</time>
      </trkpt>
      <trkpt lat="48.7107" lon="1.83749">
        <ele>184</ele>
        <time>2012-01-23T12:04:54.000Z</time>
      </trkpt>
      <trkpt lat="48.71068" lon="1.83754">
        <ele>184</ele>
        <time>2012-01-23T12:04:57.000Z</time>
      </trkpt>
      <trkpt lat="48.71065" lon="1.8376">
        <ele>183.80000305176</ele>
        <time>2012-01-23T12:05:01.000Z</time>
      </trkpt>
      <trkpt lat="48.71061" lon="1.83775">
        <ele>183.60000610352</ele>
        <time>2012-01-23T12:05:09.000Z</time>
      </trkpt>
      <trkpt lat="48.71056" lon="1.83793">
        <ele>183.60000610352</ele>
        <time>2012-01-23T12:05:17.000Z</time>
      </trkpt>
      <trkpt lat="48.71053" lon="1.83806">
        <ele>183.39999389648</ele>
        <time>2012-01-23T12:05:23.000Z</time>
      </trkpt>
      <trkpt lat="48.71047" lon="1.83822">
        <ele>183.19999694824</ele>
        <time>2012-01-23T12:05:31.000Z</time>
      </trkpt>
      <trkpt lat="48.71041" lon="1.83836">
        <ele>183</ele>
        <time>2012-01-23T12:05:39.000Z</time>
      </trkpt>
      <trkpt lat="48.71036" lon="1.83852">
        <ele>182.80000305176</ele>
        <time>2012-01-23T12:05:47.000Z</time>
      </trkpt>
      <trkpt lat="48.7103" lon="1.83872">
        <ele>182.60000610352</ele>
        <time>2012-01-23T12:05:56.000Z</time>
      </trkpt>
      <trkpt lat="48.7103" lon="1.83879">
        <ele>182.60000610352</ele>
        <time>2012-01-23T12:06:00.000Z</time>
      </trkpt>
      <trkpt lat="48.71027" lon="1.83886">
        <ele>182.60000610352</ele>
        <time>2012-01-23T12:06:07.000Z</time>
      </trkpt>
      <trkpt lat="48.71027" lon="1.83888">
        <ele>182.60000610352</ele>
        <time>2012-01-23T12:06:08.000Z</time>
      </trkpt>
      <trkpt lat="48.7102" lon="1.83905">
        <ele>182.39999389648</ele>
        <time>2012-01-23T12:06:17.000Z</time>
      </trkpt>
      <trkpt lat="48.71017" lon="1.83916">
        <ele>182.19999694824</ele>
        <time>2012-01-23T12:06:23.000Z</time>
      </trkpt>
      <trkpt lat="48.71012" lon="1.83932">
        <ele>182</ele>
        <time>2012-01-23T12:06:31.000Z</time>
      </trkpt>
      <trkpt lat="48.71007" lon="1.83951">
        <ele>181.80000305176</ele>
        <time>2012-01-23T12:06:40.000Z</time>
      </trkpt>
      <trkpt lat="48.71005" lon="1.83962">
        <ele>181.80000305176</ele>
        <time>2012-01-23T12:06:45.000Z</time>
      </trkpt>
      <trkpt lat="48.71002" lon="1.83973">
        <ele>181.80000305176</ele>
        <time>2012-01-23T12:06:51.000Z</time>
      </trkpt>
      <trkpt lat="48.70996" lon="1.83988">
        <ele>181.80000305176</ele>
        <time>2012-01-23T12:06:59.000Z</time>
      </trkpt>
      <trkpt lat="48.70993" lon="1.84">
        <ele>181.80000305176</ele>
        <time>2012-01-23T12:07:05.000Z</time>
      </trkpt>
      <trkpt lat="48.70987" lon="1.84015">
        <ele>181.80000305176</ele>
        <time>2012-01-23T12:07:13.000Z</time>
      </trkpt>
      <trkpt lat="48.70984" lon="1.84027">
        <ele>182</ele>
        <time>2012-01-23T12:07:19.000Z</time>
      </trkpt>
      <trkpt lat="48.70981" lon="1.84036">
        <ele>182</ele>
        <time>2012-01-23T12:07:25.000Z</time>
      </trkpt>
      <trkpt lat="48.70977" lon="1.84044">
        <ele>182</ele>
        <time>2012-01-23T12:07:30.000Z</time>
      </trkpt>
      <trkpt lat="48.70973" lon="1.84057">
        <ele>182.19999694824</ele>
        <time>2012-01-23T12:07:36.000Z</time>
      </trkpt>
      <trkpt lat="48.70976" lon="1.84064">
        <ele>182.39999389648</ele>
        <time>2012-01-23T12:07:40.000Z</time>
      </trkpt>
      <trkpt lat="48.70984" lon="1.84069">
        <ele>183</ele>
        <time>2012-01-23T12:07:46.000Z</time>
      </trkpt>
      <trkpt lat="48.70996" lon="1.84077">
        <ele>183.60000610352</ele>
        <time>2012-01-23T12:07:55.000Z</time>
      </trkpt>
      <trkpt lat="48.71009" lon="1.84084">
        <ele>184</ele>
        <time>2012-01-23T12:08:03.000Z</time>
      </trkpt>
      <trkpt lat="48.71022" lon="1.84095">
        <ele>184</ele>
        <time>2012-01-23T12:08:12.000Z</time>
      </trkpt>
      <trkpt lat="48.71029" lon="1.84102">
        <ele>184</ele>
        <time>2012-01-23T12:08:18.000Z</time>
      </trkpt>
      <trkpt lat="48.71039" lon="1.84113">
        <ele>184</ele>
        <time>2012-01-23T12:08:27.000Z</time>
      </trkpt>
      <trkpt lat="48.71047" lon="1.84121">
        <ele>183.80000305176</ele>
        <time>2012-01-23T12:08:34.000Z</time>
      </trkpt>
      <trkpt lat="48.71052" lon="1.84127">
        <ele>183.80000305176</ele>
        <time>2012-01-23T12:08:39.000Z</time>
      </trkpt>
      <trkpt lat="48.71054" lon="1.8413">
        <ele>183.80000305176</ele>
        <time>2012-01-23T12:08:41.000Z</time>
      </trkpt>
      <trkpt lat="48.71064" lon="1.84135">
        <ele>183.60000610352</ele>
        <time>2012-01-23T12:08:49.000Z</time>
      </trkpt>
      <trkpt lat="48.71075" lon="1.8414">
        <ele>183.19999694824</ele>
        <time>2012-01-23T12:08:56.000Z</time>
      </trkpt>
      <trkpt lat="48.71087" lon="1.8415">
        <ele>183</ele>
        <time>2012-01-23T12:09:04.000Z</time>
      </trkpt>
      <trkpt lat="48.7109" lon="1.84153">
        <ele>182.80000305176</ele>
        <time>2012-01-23T12:09:09.000Z</time>
      </trkpt>
      <trkpt lat="48.71096" lon="1.84158">
        <ele>182.80000305176</ele>
        <time>2012-01-23T12:09:22.000Z</time>
      </trkpt>
      <trkpt lat="48.71103" lon="1.84168">
        <ele>182.60000610352</ele>
        <time>2012-01-23T12:09:28.000Z</time>
      </trkpt>
      <trkpt lat="48.71109" lon="1.84173">
        <ele>182.39999389648</ele>
        <time>2012-01-23T12:09:34.000Z</time>
      </trkpt>
      <trkpt lat="48.7111" lon="1.84174">
        <ele>182.19999694824</ele>
        <time>2012-01-23T12:09:35.000Z</time>
      </trkpt>
      <trkpt lat="48.71115" lon="1.84176">
        <ele>182.19999694824</ele>
        <time>2012-01-23T12:09:39.000Z</time>
      </trkpt>
      <trkpt lat="48.71125" lon="1.84182">
        <ele>181.80000305176</ele>
        <time>2012-01-23T12:09:46.000Z</time>
      </trkpt>
      <trkpt lat="48.71135" lon="1.84189">
        <ele>181.39999389648</ele>
        <time>2012-01-23T12:09:52.000Z</time>
      </trkpt>
      <trkpt lat="48.71138" lon="1.8419">
        <ele>181.39999389648</ele>
        <time>2012-01-23T12:09:56.000Z</time>
      </trkpt>
      <trkpt lat="48.71143" lon="1.84193">
        <ele>181.19999694824</ele>
        <time>2012-01-23T12:10:02.000Z</time>
      </trkpt>
      <trkpt lat="48.71147" lon="1.84202">
        <ele>181</ele>
        <time>2012-01-23T12:10:32.000Z</time>
      </trkpt>
      <trkpt lat="48.71157" lon="1.84206">
        <ele>180.80000305176</ele>
        <time>2012-01-23T12:10:37.000Z</time>
      </trkpt>
      <trkpt lat="48.71168" lon="1.84213">
        <ele>180.39999389648</ele>
        <time>2012-01-23T12:10:45.000Z</time>
      </trkpt>
      <trkpt lat="48.71176" lon="1.84221">
        <ele>179.80000305176</ele>
        <time>2012-01-23T12:10:52.000Z</time>
      </trkpt>
      <trkpt lat="48.7118" lon="1.84224">
        <ele>179.39999389648</ele>
        <time>2012-01-23T12:10:56.000Z</time>
      </trkpt>
      <trkpt lat="48.71186" lon="1.84225">
        <ele>179</ele>
        <time>2012-01-23T12:11:02.000Z</time>
      </trkpt>
      <trkpt lat="48.71195" lon="1.84234">
        <ele>178.19999694824</ele>
        <time>2012-01-23T12:11:10.000Z</time>
      </trkpt>
      <trkpt lat="48.712" lon="1.84237">
        <ele>177.80000305176</ele>
        <time>2012-01-23T12:11:13.000Z</time>
      </trkpt>
      <trkpt lat="48.71205" lon="1.84242">
        <ele>177.39999389648</ele>
        <time>2012-01-23T12:11:17.000Z</time>
      </trkpt>
      <trkpt lat="48.71217" lon="1.84253">
        <ele>176.39999389648</ele>
        <time>2012-01-23T12:11:26.000Z</time>
      </trkpt>
      <trkpt lat="48.71229" lon="1.84258">
        <ele>175.39999389648</ele>
        <time>2012-01-23T12:11:35.000Z</time>
      </trkpt>
      <trkpt lat="48.7124" lon="1.84267">
        <ele>174.60000610352</ele>
        <time>2012-01-23T12:11:43.000Z</time>
      </trkpt>
      <trkpt lat="48.71249" lon="1.84275">
        <ele>173.80000305176</ele>
        <time>2012-01-23T12:11:50.000Z</time>
      </trkpt>
      <trkpt lat="48.71264" lon="1.84286">
        <ele>172.39999389648</ele>
        <time>2012-01-23T12:12:00.000Z</time>
      </trkpt>
      <trkpt lat="48.71274" lon="1.84294">
        <ele>171.80000305176</ele>
        <time>2012-01-23T12:12:07.000Z</time>
      </trkpt>
      <trkpt lat="48.71288" lon="1.84305">
        <ele>171.19999694824</ele>
        <time>2012-01-23T12:12:18.000Z</time>
      </trkpt>
      <trkpt lat="48.713" lon="1.84315">
        <ele>171</ele>
        <time>2012-01-23T12:12:27.000Z</time>
      </trkpt>
      <trkpt lat="48.71302" lon="1.84316">
        <ele>171</ele>
        <time>2012-01-23T12:12:29.000Z</time>
      </trkpt>
      <trkpt lat="48.71311" lon="1.84326">
        <ele>171.19999694824</ele>
        <time>2012-01-23T12:12:37.000Z</time>
      </trkpt>
      <trkpt lat="48.71322" lon="1.84335">
        <ele>171.39999389648</ele>
        <time>2012-01-23T12:12:46.000Z</time>
      </trkpt>
      <trkpt lat="48.71335" lon="1.84345">
        <ele>171.39999389648</ele>
        <time>2012-01-23T12:12:55.000Z</time>
      </trkpt>
      <trkpt lat="48.71343" lon="1.84349">
        <ele>171.60000610352</ele>
        <time>2012-01-23T12:13:01.000Z</time>
      </trkpt>
      <trkpt lat="48.71353" lon="1.84356">
        <ele>172</ele>
        <time>2012-01-23T12:13:09.000Z</time>
      </trkpt>
      <trkpt lat="48.71357" lon="1.84361">
        <ele>172</ele>
        <time>2012-01-23T12:13:15.000Z</time>
      </trkpt>
      <trkpt lat="48.71359" lon="1.84363">
        <ele>172</ele>
        <time>2012-01-23T12:13:29.000Z</time>
      </trkpt>
      <trkpt lat="48.71369" lon="1.84369">
        <ele>172</ele>
        <time>2012-01-23T12:13:35.000Z</time>
      </trkpt>
      <trkpt lat="48.7137" lon="1.8437">
        <ele>172</ele>
        <time>2012-01-23T12:13:36.000Z</time>
      </trkpt>
      <trkpt lat="48.71375" lon="1.84374">
        <ele>172</ele>
        <time>2012-01-23T12:13:40.000Z</time>
      </trkpt>
      <trkpt lat="48.7138" lon="1.84378">
        <ele>172</ele>
        <time>2012-01-23T12:13:47.000Z</time>
      </trkpt>
      <trkpt lat="48.71387" lon="1.84383">
        <ele>171.80000305176</ele>
        <time>2012-01-23T12:14:32.000Z</time>
      </trkpt>
      <trkpt lat="48.71399" lon="1.84392">
        <ele>171.39999389648</ele>
        <time>2012-01-23T12:14:40.000Z</time>
      </trkpt>
      <trkpt lat="48.71411" lon="1.84402">
        <ele>170.80000305176</ele>
        <time>2012-01-23T12:14:50.000Z</time>
      </trkpt>
      <trkpt lat="48.71422" lon="1.8441">
        <ele>170.39999389648</ele>
        <time>2012-01-23T12:14:58.000Z</time>
      </trkpt>
      <trkpt lat="48.71433" lon="1.84415">
        <ele>170.39999389648</ele>
        <time>2012-01-23T12:15:05.000Z</time>
      </trkpt>
      <trkpt lat="48.71446" lon="1.84428">
        <ele>171.19999694824</ele>
        <time>2012-01-23T12:15:15.000Z</time>
      </trkpt>
      <trkpt lat="48.71447" lon="1.84429">
        <ele>171.19999694824</ele>
        <time>2012-01-23T12:15:16.000Z</time>
      </trkpt>
      <trkpt lat="48.71453" lon="1.84436">
        <ele>171.60000610352</ele>
        <time>2012-01-23T12:15:21.000Z</time>
      </trkpt>
      <trkpt lat="48.71461" lon="1.84439">
        <ele>171.80000305176</ele>
        <time>2012-01-23T12:15:26.000Z</time>
      </trkpt>
      <trkpt lat="48.71471" lon="1.84448">
        <ele>172.39999389648</ele>
        <time>2012-01-23T12:15:33.000Z</time>
      </trkpt>
      <trkpt lat="48.71479" lon="1.84454">
        <ele>172.80000305176</ele>
        <time>2012-01-23T12:15:38.000Z</time>
      </trkpt>
      <trkpt lat="48.7149" lon="1.84463">
        <ele>173.39999389648</ele>
        <time>2012-01-23T12:15:45.000Z</time>
      </trkpt>
      <trkpt lat="48.71505" lon="1.84473">
        <ele>174.60000610352</ele>
        <time>2012-01-23T12:15:54.000Z</time>
      </trkpt>
      <trkpt lat="48.71519" lon="1.84482">
        <ele>176.39999389648</ele>
        <time>2012-01-23T12:16:03.000Z</time>
      </trkpt>
      <trkpt lat="48.71532" lon="1.84492">
        <ele>178</ele>
        <time>2012-01-23T12:16:13.000Z</time>
      </trkpt>
      <trkpt lat="48.71544" lon="1.84502">
        <ele>179.39999389648</ele>
        <time>2012-01-23T12:16:22.000Z</time>
      </trkpt>
      <trkpt lat="48.71551" lon="1.84506">
        <ele>180</ele>
        <time>2012-01-23T12:16:28.000Z</time>
      </trkpt>
      <trkpt lat="48.71552" lon="1.84506">
        <ele>180</ele>
        <time>2012-01-23T12:16:30.000Z</time>
      </trkpt>
      <trkpt lat="48.7156" lon="1.84497">
        <ele>180.80000305176</ele>
        <time>2012-01-23T12:17:02.000Z</time>
      </trkpt>
      <trkpt lat="48.71565" lon="1.84502">
        <ele>181.19999694824</ele>
        <time>2012-01-23T12:17:05.000Z</time>
      </trkpt>
      <trkpt lat="48.71566" lon="1.84513">
        <ele>181.39999389648</ele>
        <time>2012-01-23T12:17:12.000Z</time>
      </trkpt>
      <trkpt lat="48.71569" lon="1.84523">
        <ele>181.80000305176</ele>
        <time>2012-01-23T12:17:17.000Z</time>
      </trkpt>
      <trkpt lat="48.71575" lon="1.84529">
        <ele>182.39999389648</ele>
        <time>2012-01-23T12:17:24.000Z</time>
      </trkpt>
      <trkpt lat="48.71578" lon="1.84534">
        <ele>182.60000610352</ele>
        <time>2012-01-23T12:17:28.000Z</time>
      </trkpt>
      <trkpt lat="48.71584" lon="1.84542">
        <ele>183</ele>
        <time>2012-01-23T12:17:33.000Z</time>
      </trkpt>
      <trkpt lat="48.71595" lon="1.84556">
        <ele>183.80000305176</ele>
        <time>2012-01-23T12:17:41.000Z</time>
      </trkpt>
      <trkpt lat="48.71604" lon="1.84568">
        <ele>184.39999389648</ele>
        <time>2012-01-23T12:17:50.000Z</time>
      </trkpt>
      <trkpt lat="48.71613" lon="1.84579">
        <ele>185.19999694824</ele>
        <time>2012-01-23T12:17:57.000Z</time>
      </trkpt>
      <trkpt lat="48.71619" lon="1.84588">
        <ele>185.39999389648</ele>
        <time>2012-01-23T12:18:03.000Z</time>
      </trkpt>
      <trkpt lat="48.71621" lon="1.8459">
        <ele>185.60000610352</ele>
        <time>2012-01-23T12:18:05.000Z</time>
      </trkpt>
      <trkpt lat="48.71624" lon="1.84598">
        <ele>185.60000610352</ele>
        <time>2012-01-23T12:18:09.000Z</time>
      </trkpt>
      <trkpt lat="48.7163" lon="1.84609">
        <ele>185.60000610352</ele>
        <time>2012-01-23T12:18:16.000Z</time>
      </trkpt>
      <trkpt lat="48.71636" lon="1.84614">
        <ele>185.80000305176</ele>
        <time>2012-01-23T12:18:21.000Z</time>
      </trkpt>
      <trkpt lat="48.71643" lon="1.84625">
        <ele>185.80000305176</ele>
        <time>2012-01-23T12:18:28.000Z</time>
      </trkpt>
      <trkpt lat="48.71651" lon="1.84634">
        <ele>185.80000305176</ele>
        <time>2012-01-23T12:18:36.000Z</time>
      </trkpt>
      <trkpt lat="48.71659" lon="1.84642">
        <ele>185.80000305176</ele>
        <time>2012-01-23T12:18:43.000Z</time>
      </trkpt>
      <trkpt lat="48.71668" lon="1.84653">
        <ele>185.80000305176</ele>
        <time>2012-01-23T12:18:50.000Z</time>
      </trkpt>
      <trkpt lat="48.71673" lon="1.84662">
        <ele>185.60000610352</ele>
        <time>2012-01-23T12:18:56.000Z</time>
      </trkpt>
      <trkpt lat="48.71681" lon="1.84673">
        <ele>185.60000610352</ele>
        <time>2012-01-23T12:19:04.000Z</time>
      </trkpt>
      <trkpt lat="48.71691" lon="1.84684">
        <ele>185.60000610352</ele>
        <time>2012-01-23T12:19:13.000Z</time>
      </trkpt>
      <trkpt lat="48.71693" lon="1.84687">
        <ele>185.60000610352</ele>
        <time>2012-01-23T12:19:15.000Z</time>
      </trkpt>
      <trkpt lat="48.71697" lon="1.84694">
        <ele>185.39999389648</ele>
        <time>2012-01-23T12:19:19.000Z</time>
      </trkpt>
      <trkpt lat="48.71708" lon="1.84707">
        <ele>185.60000610352</ele>
        <time>2012-01-23T12:19:28.000Z</time>
      </trkpt>
      <trkpt lat="48.71709" lon="1.84711">
        <ele>185.39999389648</ele>
        <time>2012-01-23T12:19:30.000Z</time>
      </trkpt>
      <trkpt lat="48.71716" lon="1.84723">
        <ele>185.39999389648</ele>
        <time>2012-01-23T12:19:37.000Z</time>
      </trkpt>
      <trkpt lat="48.71723" lon="1.84727">
        <ele>185.80000305176</ele>
        <time>2012-01-23T12:19:44.000Z</time>
      </trkpt>
      <trkpt lat="48.71725" lon="1.84724">
        <ele>186</ele>
        <time>2012-01-23T12:19:48.000Z</time>
      </trkpt>
      <trkpt lat="48.71727" lon="1.84717">
        <ele>186.39999389648</ele>
        <time>2012-01-23T12:20:18.000Z</time>
      </trkpt>
      <trkpt lat="48.71734" lon="1.84705">
        <ele>187.60000610352</ele>
        <time>2012-01-23T12:20:25.000Z</time>
      </trkpt>
      <trkpt lat="48.71739" lon="1.84693">
        <ele>188.39999389648</ele>
        <time>2012-01-23T12:20:31.000Z</time>
      </trkpt>
      <trkpt lat="48.71747" lon="1.84672">
        <ele>189.60000610352</ele>
        <time>2012-01-23T12:20:41.000Z</time>
      </trkpt>
      <trkpt lat="48.71753" lon="1.84652">
        <ele>190.19999694824</ele>
        <time>2012-01-23T12:20:50.000Z</time>
      </trkpt>
      <trkpt lat="48.71761" lon="1.84636">
        <ele>190.19999694824</ele>
        <time>2012-01-23T12:20:59.000Z</time>
      </trkpt>
      <trkpt lat="48.71765" lon="1.84621">
        <ele>190.19999694824</ele>
        <time>2012-01-23T12:21:07.000Z</time>
      </trkpt>
      <trkpt lat="48.71772" lon="1.84605">
        <ele>190.19999694824</ele>
        <time>2012-01-23T12:21:15.000Z</time>
      </trkpt>
      <trkpt lat="48.71774" lon="1.84594">
        <ele>190.39999389648</ele>
        <time>2012-01-23T12:21:20.000Z</time>
      </trkpt>
      <trkpt lat="48.71778" lon="1.84578">
        <ele>190.19999694824</ele>
        <time>2012-01-23T12:21:27.000Z</time>
      </trkpt>
      <trkpt lat="48.71779" lon="1.84576">
        <ele>190.19999694824</ele>
        <time>2012-01-23T12:21:28.000Z</time>
      </trkpt>
      <trkpt lat="48.71785" lon="1.8456">
        <ele>190</ele>
        <time>2012-01-23T12:21:36.000Z</time>
      </trkpt>
      <trkpt lat="48.71792" lon="1.84541">
        <ele>190</ele>
        <time>2012-01-23T12:21:45.000Z</time>
      </trkpt>
      <trkpt lat="48.71798" lon="1.84529">
        <ele>190</ele>
        <time>2012-01-23T12:21:50.000Z</time>
      </trkpt>
      <trkpt lat="48.71803" lon="1.84512">
        <ele>190.19999694824</ele>
        <time>2012-01-23T12:21:54.000Z</time>
      </trkpt>
      <trkpt lat="48.71814" lon="1.84485">
        <ele>190.39999389648</ele>
        <time>2012-01-23T12:22:00.000Z</time>
      </trkpt>
      <trkpt lat="48.71825" lon="1.84464">
        <ele>190.39999389648</ele>
        <time>2012-01-23T12:22:05.000Z</time>
      </trkpt>
      <trkpt lat="48.71836" lon="1.8443">
        <ele>190.19999694824</ele>
        <time>2012-01-23T12:22:12.000Z</time>
      </trkpt>
      <trkpt lat="48.71843" lon="1.84411">
        <ele>189.80000305176</ele>
        <time>2012-01-23T12:22:16.000Z</time>
      </trkpt>
      <trkpt lat="48.71852" lon="1.84385">
        <ele>189.39999389648</ele>
        <time>2012-01-23T12:22:21.000Z</time>
      </trkpt>
      <trkpt lat="48.7186" lon="1.84364">
        <ele>189.19999694824</ele>
        <time>2012-01-23T12:22:25.000Z</time>
      </trkpt>
      <trkpt lat="48.71873" lon="1.84337">
        <ele>189</ele>
        <time>2012-01-23T12:22:31.000Z</time>
      </trkpt>
      <trkpt lat="48.7188" lon="1.84313">
        <ele>189</ele>
        <time>2012-01-23T12:22:36.000Z</time>
      </trkpt>
      <trkpt lat="48.71886" lon="1.84295">
        <ele>189</ele>
        <time>2012-01-23T12:22:40.000Z</time>
      </trkpt>
      <trkpt lat="48.71893" lon="1.84278">
        <ele>189</ele>
        <time>2012-01-23T12:22:44.000Z</time>
      </trkpt>
      <trkpt lat="48.71906" lon="1.84257">
        <ele>189</ele>
        <time>2012-01-23T12:22:49.000Z</time>
      </trkpt>
      <trkpt lat="48.71918" lon="1.84233">
        <ele>188.80000305176</ele>
        <time>2012-01-23T12:22:54.000Z</time>
      </trkpt>
      <trkpt lat="48.71925" lon="1.84218">
        <ele>188.80000305176</ele>
        <time>2012-01-23T12:22:57.000Z</time>
      </trkpt>
      <trkpt lat="48.71931" lon="1.84195">
        <ele>188.60000610352</ele>
        <time>2012-01-23T12:23:01.000Z</time>
      </trkpt>
      <trkpt lat="48.71932" lon="1.8419">
        <ele>188.60000610352</ele>
        <time>2012-01-23T12:23:02.000Z</time>
      </trkpt>
      <trkpt lat="48.71945" lon="1.84158">
        <ele>188.80000305176</ele>
        <time>2012-01-23T12:23:09.000Z</time>
      </trkpt>
      <trkpt lat="48.71951" lon="1.84133">
        <ele>189.39999389648</ele>
        <time>2012-01-23T12:23:14.000Z</time>
      </trkpt>
      <trkpt lat="48.71961" lon="1.84103">
        <ele>189.80000305176</ele>
        <time>2012-01-23T12:23:20.000Z</time>
      </trkpt>
      <trkpt lat="48.71969" lon="1.8408">
        <ele>190</ele>
        <time>2012-01-23T12:23:25.000Z</time>
      </trkpt>
      <trkpt lat="48.71978" lon="1.84063">
        <ele>190.19999694824</ele>
        <time>2012-01-23T12:23:29.000Z</time>
      </trkpt>
      <trkpt lat="48.71989" lon="1.84039">
        <ele>190.60000610352</ele>
        <time>2012-01-23T12:23:34.000Z</time>
      </trkpt>
      <trkpt lat="48.71998" lon="1.84015">
        <ele>190.80000305176</ele>
        <time>2012-01-23T12:23:39.000Z</time>
      </trkpt>
      <trkpt lat="48.72006" lon="1.83991">
        <ele>191</ele>
        <time>2012-01-23T12:23:44.000Z</time>
      </trkpt>
      <trkpt lat="48.72015" lon="1.83973">
        <ele>190.80000305176</ele>
        <time>2012-01-23T12:23:48.000Z</time>
      </trkpt>
      <trkpt lat="48.72028" lon="1.83945">
        <ele>190.39999389648</ele>
        <time>2012-01-23T12:23:54.000Z</time>
      </trkpt>
      <trkpt lat="48.72039" lon="1.83921">
        <ele>190</ele>
        <time>2012-01-23T12:23:59.000Z</time>
      </trkpt>
      <trkpt lat="48.72053" lon="1.83885">
        <ele>189.80000305176</ele>
        <time>2012-01-23T12:24:06.000Z</time>
      </trkpt>
      <trkpt lat="48.72064" lon="1.83856">
        <ele>189.39999389648</ele>
        <time>2012-01-23T12:24:12.000Z</time>
      </trkpt>
      <trkpt lat="48.72071" lon="1.83841">
        <ele>189.19999694824</ele>
        <time>2012-01-23T12:24:17.000Z</time>
      </trkpt>
      <trkpt lat="48.72078" lon="1.83829">
        <ele>189.19999694824</ele>
        <time>2012-01-23T12:24:24.000Z</time>
      </trkpt>
      <trkpt lat="48.72082" lon="1.8382">
        <ele>189.19999694824</ele>
        <time>2012-01-23T12:24:29.000Z</time>
      </trkpt>
      <trkpt lat="48.72086" lon="1.83811">
        <ele>189.19999694824</ele>
        <time>2012-01-23T12:24:33.000Z</time>
      </trkpt>
      <trkpt lat="48.72095" lon="1.83792">
        <ele>189.19999694824</ele>
        <time>2012-01-23T12:24:43.000Z</time>
      </trkpt>
      <trkpt lat="48.72104" lon="1.83789">
        <ele>189.19999694824</ele>
        <time>2012-01-23T12:24:50.000Z</time>
      </trkpt>
      <trkpt lat="48.72109" lon="1.83792">
        <ele>189</ele>
        <time>2012-01-23T12:24:53.000Z</time>
      </trkpt>
      <trkpt lat="48.72114" lon="1.83796">
        <ele>189</ele>
        <time>2012-01-23T12:24:57.000Z</time>
      </trkpt>
      <trkpt lat="48.72124" lon="1.83805">
        <ele>188.80000305176</ele>
        <time>2012-01-23T12:25:06.000Z</time>
      </trkpt>
      <trkpt lat="48.72131" lon="1.83815">
        <ele>188.80000305176</ele>
        <time>2012-01-23T12:25:13.000Z</time>
      </trkpt>
      <trkpt lat="48.72136" lon="1.83824">
        <ele>188.80000305176</ele>
        <time>2012-01-23T12:25:18.000Z</time>
      </trkpt>
      <trkpt lat="48.72144" lon="1.83833">
        <ele>189</ele>
        <time>2012-01-23T12:25:24.000Z</time>
      </trkpt>
      <trkpt lat="48.72154" lon="1.83842">
        <ele>189.19999694824</ele>
        <time>2012-01-23T12:25:30.000Z</time>
      </trkpt>
      <trkpt lat="48.72159" lon="1.83849">
        <ele>189.39999389648</ele>
        <time>2012-01-23T12:25:35.000Z</time>
      </trkpt>
      <trkpt lat="48.72166" lon="1.8386">
        <ele>189.60000610352</ele>
        <time>2012-01-23T12:25:41.000Z</time>
      </trkpt>
      <trkpt lat="48.72172" lon="1.8387">
        <ele>189.80000305176</ele>
        <time>2012-01-23T12:25:48.000Z</time>
      </trkpt>
      <trkpt lat="48.72175" lon="1.83873">
        <ele>189.80000305176</ele>
        <time>2012-01-23T12:25:50.000Z</time>
      </trkpt>
      <trkpt lat="48.72181" lon="1.8388">
        <ele>190</ele>
        <time>2012-01-23T12:25:56.000Z</time>
      </trkpt>
      <trkpt lat="48.72186" lon="1.83886">
        <ele>190</ele>
        <time>2012-01-23T12:26:00.000Z</time>
      </trkpt>
      <trkpt lat="48.72191" lon="1.83893">
        <ele>189.80000305176</ele>
        <time>2012-01-23T12:26:05.000Z</time>
      </trkpt>
      <trkpt lat="48.72192" lon="1.83894">
        <ele>189.80000305176</ele>
        <time>2012-01-23T12:26:06.000Z</time>
      </trkpt>
      <trkpt lat="48.722" lon="1.83906">
        <ele>189.80000305176</ele>
        <time>2012-01-23T12:26:15.000Z</time>
      </trkpt>
      <trkpt lat="48.72212" lon="1.83922">
        <ele>189.39999389648</ele>
        <time>2012-01-23T12:26:24.000Z</time>
      </trkpt>
      <trkpt lat="48.72216" lon="1.83927">
        <ele>189.19999694824</ele>
        <time>2012-01-23T12:26:27.000Z</time>
      </trkpt>
      <trkpt lat="48.7222" lon="1.83932">
        <ele>189</ele>
        <time>2012-01-23T12:26:31.000Z</time>
      </trkpt>
      <trkpt lat="48.72226" lon="1.83937">
        <ele>188.80000305176</ele>
        <time>2012-01-23T12:26:38.000Z</time>
      </trkpt>
      <trkpt lat="48.72236" lon="1.83952">
        <ele>188.19999694824</ele>
        <time>2012-01-23T12:26:46.000Z</time>
      </trkpt>
      <trkpt lat="48.7224" lon="1.83956">
        <ele>188</ele>
        <time>2012-01-23T12:26:49.000Z</time>
      </trkpt>
      <trkpt lat="48.72244" lon="1.83966">
        <ele>187.80000305176</ele>
        <time>2012-01-23T12:26:55.000Z</time>
      </trkpt>
      <trkpt lat="48.72247" lon="1.83968">
        <ele>187.60000610352</ele>
        <time>2012-01-23T12:27:00.000Z</time>
      </trkpt>
      <trkpt lat="48.72251" lon="1.83973">
        <ele>187.39999389648</ele>
        <time>2012-01-23T12:27:06.000Z</time>
      </trkpt>
      <trkpt lat="48.72258" lon="1.83979">
        <ele>187.39999389648</ele>
        <time>2012-01-23T12:27:11.000Z</time>
      </trkpt>
      <trkpt lat="48.72263" lon="1.83988">
        <ele>187.60000610352</ele>
        <time>2012-01-23T12:27:16.000Z</time>
      </trkpt>
      <trkpt lat="48.7227" lon="1.83996">
        <ele>187.80000305176</ele>
        <time>2012-01-23T12:27:22.000Z</time>
      </trkpt>
      <trkpt lat="48.72272" lon="1.83998">
        <ele>187.80000305176</ele>
        <time>2012-01-23T12:27:23.000Z</time>
      </trkpt>
      <trkpt lat="48.7229" lon="1.84018">
        <ele>188</ele>
        <time>2012-01-23T12:27:30.000Z</time>
      </trkpt>
      <trkpt lat="48.72309" lon="1.84041">
        <ele>188.19999694824</ele>
        <time>2012-01-23T12:27:37.000Z</time>
      </trkpt>
      <trkpt lat="48.72327" lon="1.84062">
        <ele>188.19999694824</ele>
        <time>2012-01-23T12:27:43.000Z</time>
      </trkpt>
      <trkpt lat="48.72344" lon="1.84084">
        <ele>188.60000610352</ele>
        <time>2012-01-23T12:27:49.000Z</time>
      </trkpt>
      <trkpt lat="48.72368" lon="1.84112">
        <ele>188.39999389648</ele>
        <time>2012-01-23T12:27:57.000Z</time>
      </trkpt>
      <trkpt lat="48.72384" lon="1.84131">
        <ele>188.19999694824</ele>
        <time>2012-01-23T12:28:02.000Z</time>
      </trkpt>
      <trkpt lat="48.72404" lon="1.84159">
        <ele>187.80000305176</ele>
        <time>2012-01-23T12:28:09.000Z</time>
      </trkpt>
      <trkpt lat="48.72421" lon="1.84185">
        <ele>187.60000610352</ele>
        <time>2012-01-23T12:28:15.000Z</time>
      </trkpt>
      <trkpt lat="48.72446" lon="1.84219">
        <ele>187.80000305176</ele>
        <time>2012-01-23T12:28:23.000Z</time>
      </trkpt>
      <trkpt lat="48.72466" lon="1.84243">
        <ele>188.60000610352</ele>
        <time>2012-01-23T12:28:29.000Z</time>
      </trkpt>
      <trkpt lat="48.72473" lon="1.8425">
        <ele>189</ele>
        <time>2012-01-23T12:28:31.000Z</time>
      </trkpt>
      <trkpt lat="48.72489" lon="1.84267">
        <ele>190</ele>
        <time>2012-01-23T12:28:36.000Z</time>
      </trkpt>
      <trkpt lat="48.72507" lon="1.8429">
        <ele>190.39999389648</ele>
        <time>2012-01-23T12:28:42.000Z</time>
      </trkpt>
      <trkpt lat="48.72526" lon="1.84293">
        <ele>190</ele>
        <time>2012-01-23T12:28:48.000Z</time>
      </trkpt>
      <trkpt lat="48.72543" lon="1.84279">
        <ele>189.80000305176</ele>
        <time>2012-01-23T12:28:54.000Z</time>
      </trkpt>
      <trkpt lat="48.7255" lon="1.84271">
        <ele>189.60000610352</ele>
        <time>2012-01-23T12:28:57.000Z</time>
      </trkpt>
      <trkpt lat="48.72556" lon="1.84266">
        <ele>189.60000610352</ele>
        <time>2012-01-23T12:29:02.000Z</time>
      </trkpt>
      <trkpt lat="48.72561" lon="1.84262">
        <ele>189.39999389648</ele>
        <time>2012-01-23T12:29:06.000Z</time>
      </trkpt>
      <trkpt lat="48.72573" lon="1.84251">
        <ele>189.19999694824</ele>
        <time>2012-01-23T12:29:12.000Z</time>
      </trkpt>
      <trkpt lat="48.72594" lon="1.84232">
        <ele>189.19999694824</ele>
        <time>2012-01-23T12:29:18.000Z</time>
      </trkpt>
      <trkpt lat="48.72606" lon="1.8422">
        <ele>189.19999694824</ele>
        <time>2012-01-23T12:29:22.000Z</time>
      </trkpt>
      <trkpt lat="48.72623" lon="1.84205">
        <ele>189.19999694824</ele>
        <time>2012-01-23T12:29:27.000Z</time>
      </trkpt>
      <trkpt lat="48.72639" lon="1.8419">
        <ele>189.39999389648</ele>
        <time>2012-01-23T12:29:32.000Z</time>
      </trkpt>
      <trkpt lat="48.72657" lon="1.84174">
        <ele>189.80000305176</ele>
        <time>2012-01-23T12:29:38.000Z</time>
      </trkpt>
      <trkpt lat="48.72674" lon="1.84158">
        <ele>190</ele>
        <time>2012-01-23T12:29:44.000Z</time>
      </trkpt>
      <trkpt lat="48.72685" lon="1.84147">
        <ele>190.19999694824</ele>
        <time>2012-01-23T12:29:48.000Z</time>
      </trkpt>
      <trkpt lat="48.72702" lon="1.84134">
        <ele>190</ele>
        <time>2012-01-23T12:29:53.000Z</time>
      </trkpt>
      <trkpt lat="48.72717" lon="1.84122">
        <ele>190</ele>
        <time>2012-01-23T12:29:58.000Z</time>
      </trkpt>
      <trkpt lat="48.72736" lon="1.84105">
        <ele>190.19999694824</ele>
        <time>2012-01-23T12:30:04.000Z</time>
      </trkpt>
      <trkpt lat="48.72753" lon="1.8409">
        <ele>190.39999389648</ele>
        <time>2012-01-23T12:30:09.000Z</time>
      </trkpt>
      <trkpt lat="48.72772" lon="1.84074">
        <ele>189.80000305176</ele>
        <time>2012-01-23T12:30:14.000Z</time>
      </trkpt>
      <trkpt lat="48.72787" lon="1.8406">
        <ele>189.60000610352</ele>
        <time>2012-01-23T12:30:19.000Z</time>
      </trkpt>
      <trkpt lat="48.72813" lon="1.84038">
        <ele>189.80000305176</ele>
        <time>2012-01-23T12:30:26.000Z</time>
      </trkpt>
      <trkpt lat="48.72835" lon="1.84019">
        <ele>190.39999389648</ele>
        <time>2012-01-23T12:30:32.000Z</time>
      </trkpt>
      <trkpt lat="48.72853" lon="1.84004">
        <ele>190.60000610352</ele>
        <time>2012-01-23T12:30:37.000Z</time>
      </trkpt>
      <trkpt lat="48.72863" lon="1.83993">
        <ele>190.39999389648</ele>
        <time>2012-01-23T12:30:40.000Z</time>
      </trkpt>
      <trkpt lat="48.72874" lon="1.83984">
        <ele>190.19999694824</ele>
        <time>2012-01-23T12:30:43.000Z</time>
      </trkpt>
      <trkpt lat="48.72895" lon="1.83965">
        <ele>189.80000305176</ele>
        <time>2012-01-23T12:30:49.000Z</time>
      </trkpt>
      <trkpt lat="48.72913" lon="1.83947">
        <ele>189.80000305176</ele>
        <time>2012-01-23T12:30:55.000Z</time>
      </trkpt>
      <trkpt lat="48.72931" lon="1.83931">
        <ele>189.60000610352</ele>
        <time>2012-01-23T12:31:01.000Z</time>
      </trkpt>
      <trkpt lat="48.72948" lon="1.83915">
        <ele>189.60000610352</ele>
        <time>2012-01-23T12:31:07.000Z</time>
      </trkpt>
      <trkpt lat="48.72962" lon="1.83901">
        <ele>189.60000610352</ele>
        <time>2012-01-23T12:31:12.000Z</time>
      </trkpt>
      <trkpt lat="48.72984" lon="1.83883">
        <ele>190</ele>
        <time>2012-01-23T12:31:19.000Z</time>
      </trkpt>
      <trkpt lat="48.73004" lon="1.83868">
        <ele>190.39999389648</ele>
        <time>2012-01-23T12:31:25.000Z</time>
      </trkpt>
      <trkpt lat="48.73024" lon="1.8385">
        <ele>191.39999389648</ele>
        <time>2012-01-23T12:31:31.000Z</time>
      </trkpt>
      <trkpt lat="48.73043" lon="1.83836">
        <ele>191.80000305176</ele>
        <time>2012-01-23T12:31:37.000Z</time>
      </trkpt>
      <trkpt lat="48.73051" lon="1.8383">
        <ele>191.80000305176</ele>
        <time>2012-01-23T12:31:40.000Z</time>
      </trkpt>
      <trkpt lat="48.73061" lon="1.83821">
        <ele>191.80000305176</ele>
        <time>2012-01-23T12:31:46.000Z</time>
      </trkpt>
      <trkpt lat="48.73071" lon="1.83813">
        <ele>191.60000610352</ele>
        <time>2012-01-23T12:31:53.000Z</time>
      </trkpt>
      <trkpt lat="48.73078" lon="1.83805">
        <ele>191.39999389648</ele>
        <time>2012-01-23T12:32:00.000Z</time>
      </trkpt>
      <trkpt lat="48.73087" lon="1.83797">
        <ele>191.39999389648</ele>
        <time>2012-01-23T12:32:07.000Z</time>
      </trkpt>
      <trkpt lat="48.731" lon="1.83784">
        <ele>191.39999389648</ele>
        <time>2012-01-23T12:32:16.000Z</time>
      </trkpt>
      <trkpt lat="48.73111" lon="1.83774">
        <ele>191.39999389648</ele>
        <time>2012-01-23T12:32:24.000Z</time>
      </trkpt>
      <trkpt lat="48.73122" lon="1.83766">
        <ele>191.39999389648</ele>
        <time>2012-01-23T12:32:32.000Z</time>
      </trkpt>
      <trkpt lat="48.73129" lon="1.83762">
        <ele>191.39999389648</ele>
        <time>2012-01-23T12:32:38.000Z</time>
      </trkpt>
      <trkpt lat="48.7314" lon="1.83755">
        <ele>191.19999694824</ele>
        <time>2012-01-23T12:32:46.000Z</time>
      </trkpt>
      <trkpt lat="48.73145" lon="1.83751">
        <ele>191.19999694824</ele>
        <time>2012-01-23T12:32:51.000Z</time>
      </trkpt>
      <trkpt lat="48.73149" lon="1.83745">
        <ele>191.19999694824</ele>
        <time>2012-01-23T12:32:55.000Z</time>
      </trkpt>
      <trkpt lat="48.7315" lon="1.83744">
        <ele>191.19999694824</ele>
        <time>2012-01-23T12:32:56.000Z</time>
      </trkpt>
      <trkpt lat="48.73158" lon="1.83735">
        <ele>191.19999694824</ele>
        <time>2012-01-23T12:33:03.000Z</time>
      </trkpt>
      <trkpt lat="48.7316" lon="1.83733">
        <ele>191.19999694824</ele>
        <time>2012-01-23T12:33:08.000Z</time>
      </trkpt>
      <trkpt lat="48.73169" lon="1.83726">
        <ele>191.39999389648</ele>
        <time>2012-01-23T12:33:25.000Z</time>
      </trkpt>
      <trkpt lat="48.73177" lon="1.83715">
        <ele>191.60000610352</ele>
        <time>2012-01-23T12:33:32.000Z</time>
      </trkpt>
      <trkpt lat="48.73184" lon="1.83702">
        <ele>191.80000305176</ele>
        <time>2012-01-23T12:33:40.000Z</time>
      </trkpt>
      <trkpt lat="48.73191" lon="1.83689">
        <ele>191.80000305176</ele>
        <time>2012-01-23T12:33:48.000Z</time>
      </trkpt>
      <trkpt lat="48.73198" lon="1.83677">
        <ele>192</ele>
        <time>2012-01-23T12:33:55.000Z</time>
      </trkpt>
      <trkpt lat="48.73206" lon="1.83661">
        <ele>192</ele>
        <time>2012-01-23T12:34:04.000Z</time>
      </trkpt>
      <trkpt lat="48.73214" lon="1.83641">
        <ele>191.80000305176</ele>
        <time>2012-01-23T12:34:14.000Z</time>
      </trkpt>
      <trkpt lat="48.73219" lon="1.83629">
        <ele>191.80000305176</ele>
        <time>2012-01-23T12:34:20.000Z</time>
      </trkpt>
      <trkpt lat="48.73225" lon="1.83615">
        <ele>191.80000305176</ele>
        <time>2012-01-23T12:34:27.000Z</time>
      </trkpt>
      <trkpt lat="48.73226" lon="1.83614">
        <ele>191.80000305176</ele>
        <time>2012-01-23T12:34:28.000Z</time>
      </trkpt>
      <trkpt lat="48.73227" lon="1.83611">
        <ele>191.80000305176</ele>
        <time>2012-01-23T12:34:31.000Z</time>
      </trkpt>
      <trkpt lat="48.73233" lon="1.83596">
        <ele>191.80000305176</ele>
        <time>2012-01-23T12:34:39.000Z</time>
      </trkpt>
      <trkpt lat="48.73238" lon="1.83583">
        <ele>191.80000305176</ele>
        <time>2012-01-23T12:34:46.000Z</time>
      </trkpt>
      <trkpt lat="48.73239" lon="1.83581">
        <ele>191.80000305176</ele>
        <time>2012-01-23T12:34:47.000Z</time>
      </trkpt>
      <trkpt lat="48.7324" lon="1.83578">
        <ele>191.60000610352</ele>
        <time>2012-01-23T12:34:49.000Z</time>
      </trkpt>
      <trkpt lat="48.73244" lon="1.83566">
        <ele>191.39999389648</ele>
        <time>2012-01-23T12:34:55.000Z</time>
      </trkpt>
      <trkpt lat="48.73248" lon="1.83555">
        <ele>191</ele>
        <time>2012-01-23T12:35:00.000Z</time>
      </trkpt>
      <trkpt lat="48.73249" lon="1.83551">
        <ele>190.80000305176</ele>
        <time>2012-01-23T12:35:02.000Z</time>
      </trkpt>
      <trkpt lat="48.73253" lon="1.83547">
        <ele>190.60000610352</ele>
        <time>2012-01-23T12:35:05.000Z</time>
      </trkpt>
      <trkpt lat="48.7326" lon="1.83531">
        <ele>189.80000305176</ele>
        <time>2012-01-23T12:35:14.000Z</time>
      </trkpt>
      <trkpt lat="48.73265" lon="1.8352">
        <ele>189.19999694824</ele>
        <time>2012-01-23T12:35:19.000Z</time>
      </trkpt>
      <trkpt lat="48.73269" lon="1.83509">
        <ele>188.80000305176</ele>
        <time>2012-01-23T12:35:25.000Z</time>
      </trkpt>
      <trkpt lat="48.73275" lon="1.83493">
        <ele>188</ele>
        <time>2012-01-23T12:35:33.000Z</time>
      </trkpt>
      <trkpt lat="48.73277" lon="1.83488">
        <ele>187.80000305176</ele>
        <time>2012-01-23T12:35:38.000Z</time>
      </trkpt>
      <trkpt lat="48.73285" lon="1.83473">
        <ele>186.80000305176</ele>
        <time>2012-01-23T12:35:52.000Z</time>
      </trkpt>
      <trkpt lat="48.73291" lon="1.83462">
        <ele>186.19999694824</ele>
        <time>2012-01-23T12:35:58.000Z</time>
      </trkpt>
      <trkpt lat="48.73298" lon="1.83448">
        <ele>185.39999389648</ele>
        <time>2012-01-23T12:36:05.000Z</time>
      </trkpt>
      <trkpt lat="48.73299" lon="1.83446">
        <ele>185.39999389648</ele>
        <time>2012-01-23T12:36:09.000Z</time>
      </trkpt>
      <trkpt lat="48.73302" lon="1.83428">
        <ele>184.60000610352</ele>
        <time>2012-01-23T12:36:33.000Z</time>
      </trkpt>
      <trkpt lat="48.73305" lon="1.8342">
        <ele>184.19999694824</ele>
        <time>2012-01-23T12:36:39.000Z</time>
      </trkpt>
      <trkpt lat="48.73309" lon="1.83412">
        <ele>183.80000305176</ele>
        <time>2012-01-23T12:36:50.000Z</time>
      </trkpt>
      <trkpt lat="48.73312" lon="1.83405">
        <ele>183.80000305176</ele>
        <time>2012-01-23T12:36:53.000Z</time>
      </trkpt>
      <trkpt lat="48.73313" lon="1.83404">
        <ele>183.60000610352</ele>
        <time>2012-01-23T12:36:56.000Z</time>
      </trkpt>
      <trkpt lat="48.73319" lon="1.83396">
        <ele>183.60000610352</ele>
        <time>2012-01-23T12:37:06.000Z</time>
      </trkpt>
      <trkpt lat="48.73324" lon="1.83386">
        <ele>183.39999389648</ele>
        <time>2012-01-23T12:37:10.000Z</time>
      </trkpt>
      <trkpt lat="48.73334" lon="1.83361">
        <ele>183.39999389648</ele>
        <time>2012-01-23T12:37:22.000Z</time>
      </trkpt>
      <trkpt lat="48.73345" lon="1.83339">
        <ele>183</ele>
        <time>2012-01-23T12:37:34.000Z</time>
      </trkpt>
      <trkpt lat="48.73354" lon="1.83319">
        <ele>183</ele>
        <time>2012-01-23T12:37:44.000Z</time>
      </trkpt>
      <trkpt lat="48.73358" lon="1.83309">
        <ele>183.19999694824</ele>
        <time>2012-01-23T12:37:49.000Z</time>
      </trkpt>
      <trkpt lat="48.73366" lon="1.83292">
        <ele>183.39999389648</ele>
        <time>2012-01-23T12:37:56.000Z</time>
      </trkpt>
      <trkpt lat="48.73377" lon="1.83266">
        <ele>184.39999389648</ele>
        <time>2012-01-23T12:38:02.000Z</time>
      </trkpt>
      <trkpt lat="48.7339" lon="1.83232">
        <ele>185.19999694824</ele>
        <time>2012-01-23T12:38:09.000Z</time>
      </trkpt>
      <trkpt lat="48.73401" lon="1.83204">
        <ele>185.39999389648</ele>
        <time>2012-01-23T12:38:15.000Z</time>
      </trkpt>
      <trkpt lat="48.73417" lon="1.83165">
        <ele>186</ele>
        <time>2012-01-23T12:38:23.000Z</time>
      </trkpt>
      <trkpt lat="48.73429" lon="1.83135">
        <ele>185.19999694824</ele>
        <time>2012-01-23T12:38:29.000Z</time>
      </trkpt>
      <trkpt lat="48.73445" lon="1.83099">
        <ele>184.19999694824</ele>
        <time>2012-01-23T12:38:36.000Z</time>
      </trkpt>
      <trkpt lat="48.73457" lon="1.83068">
        <ele>183.80000305176</ele>
        <time>2012-01-23T12:38:42.000Z</time>
      </trkpt>
      <trkpt lat="48.73468" lon="1.83049">
        <ele>184</ele>
        <time>2012-01-23T12:38:46.000Z</time>
      </trkpt>
      <trkpt lat="48.73488" lon="1.83004">
        <ele>184.39999389648</ele>
        <time>2012-01-23T12:38:55.000Z</time>
      </trkpt>
      <trkpt lat="48.73505" lon="1.82964">
        <ele>183.80000305176</ele>
        <time>2012-01-23T12:39:03.000Z</time>
      </trkpt>
      <trkpt lat="48.73517" lon="1.82936">
        <ele>183.19999694824</ele>
        <time>2012-01-23T12:39:09.000Z</time>
      </trkpt>
      <trkpt lat="48.73537" lon="1.82887">
        <ele>182.80000305176</ele>
        <time>2012-01-23T12:39:19.000Z</time>
      </trkpt>
      <trkpt lat="48.73547" lon="1.82862">
        <ele>182.60000610352</ele>
        <time>2012-01-23T12:39:24.000Z</time>
      </trkpt>
      <trkpt lat="48.73566" lon="1.82823">
        <ele>182.60000610352</ele>
        <time>2012-01-23T12:39:32.000Z</time>
      </trkpt>
      <trkpt lat="48.7358" lon="1.82789">
        <ele>183.39999389648</ele>
        <time>2012-01-23T12:39:39.000Z</time>
      </trkpt>
      <trkpt lat="48.736" lon="1.82741">
        <ele>185</ele>
        <time>2012-01-23T12:39:49.000Z</time>
      </trkpt>
      <trkpt lat="48.73619" lon="1.82698">
        <ele>186.80000305176</ele>
        <time>2012-01-23T12:39:58.000Z</time>
      </trkpt>
      <trkpt lat="48.73636" lon="1.8266">
        <ele>188.39999389648</ele>
        <time>2012-01-23T12:40:06.000Z</time>
      </trkpt>
      <trkpt lat="48.73651" lon="1.82624">
        <ele>188.80000305176</ele>
        <time>2012-01-23T12:40:14.000Z</time>
      </trkpt>
      <trkpt lat="48.73666" lon="1.82593">
        <ele>189</ele>
        <time>2012-01-23T12:40:21.000Z</time>
      </trkpt>
      <trkpt lat="48.73683" lon="1.82555">
        <ele>189</ele>
        <time>2012-01-23T12:40:29.000Z</time>
      </trkpt>
      <trkpt lat="48.73698" lon="1.82523">
        <ele>188.80000305176</ele>
        <time>2012-01-23T12:40:36.000Z</time>
      </trkpt>
      <trkpt lat="48.73709" lon="1.82497">
        <ele>188.39999389648</ele>
        <time>2012-01-23T12:40:42.000Z</time>
      </trkpt>
      <trkpt lat="48.7372" lon="1.8247">
        <ele>188.39999389648</ele>
        <time>2012-01-23T12:40:48.000Z</time>
      </trkpt>
      <trkpt lat="48.7373" lon="1.82444">
        <ele>188.60000610352</ele>
        <time>2012-01-23T12:40:54.000Z</time>
      </trkpt>
      <trkpt lat="48.73744" lon="1.82408">
        <ele>189.19999694824</ele>
        <time>2012-01-23T12:41:02.000Z</time>
      </trkpt>
      <trkpt lat="48.73758" lon="1.82375">
        <ele>190.60000610352</ele>
        <time>2012-01-23T12:41:09.000Z</time>
      </trkpt>
      <trkpt lat="48.73771" lon="1.82343">
        <ele>192</ele>
        <time>2012-01-23T12:41:16.000Z</time>
      </trkpt>
      <trkpt lat="48.73777" lon="1.82325">
        <ele>193</ele>
        <time>2012-01-23T12:41:20.000Z</time>
      </trkpt>
      <trkpt lat="48.73788" lon="1.823">
        <ele>194</ele>
        <time>2012-01-23T12:41:26.000Z</time>
      </trkpt>
      <trkpt lat="48.738" lon="1.82277">
        <ele>194.60000610352</ele>
        <time>2012-01-23T12:41:32.000Z</time>
      </trkpt>
      <trkpt lat="48.73811" lon="1.82256">
        <ele>195.19999694824</ele>
        <time>2012-01-23T12:41:37.000Z</time>
      </trkpt>
      <trkpt lat="48.7382" lon="1.82234">
        <ele>195</ele>
        <time>2012-01-23T12:41:42.000Z</time>
      </trkpt>
      <trkpt lat="48.73829" lon="1.82213">
        <ele>194.60000610352</ele>
        <time>2012-01-23T12:41:47.000Z</time>
      </trkpt>
      <trkpt lat="48.73843" lon="1.82182">
        <ele>194.39999389648</ele>
        <time>2012-01-23T12:41:54.000Z</time>
      </trkpt>
      <trkpt lat="48.73853" lon="1.82164">
        <ele>194.39999389648</ele>
        <time>2012-01-23T12:41:59.000Z</time>
      </trkpt>
      <trkpt lat="48.73862" lon="1.82142">
        <ele>194.60000610352</ele>
        <time>2012-01-23T12:42:04.000Z</time>
      </trkpt>
      <trkpt lat="48.73872" lon="1.82115">
        <ele>194.60000610352</ele>
        <time>2012-01-23T12:42:10.000Z</time>
      </trkpt>
      <trkpt lat="48.73882" lon="1.82093">
        <ele>194.60000610352</ele>
        <time>2012-01-23T12:42:15.000Z</time>
      </trkpt>
      <trkpt lat="48.73893" lon="1.82068">
        <ele>194.39999389648</ele>
        <time>2012-01-23T12:42:21.000Z</time>
      </trkpt>
      <trkpt lat="48.73904" lon="1.82041">
        <ele>194.60000610352</ele>
        <time>2012-01-23T12:42:27.000Z</time>
      </trkpt>
      <trkpt lat="48.7391" lon="1.82025">
        <ele>194.80000305176</ele>
        <time>2012-01-23T12:42:31.000Z</time>
      </trkpt>
      <trkpt lat="48.73918" lon="1.82005">
        <ele>195</ele>
        <time>2012-01-23T12:42:36.000Z</time>
      </trkpt>
      <trkpt lat="48.73926" lon="1.81983">
        <ele>194.80000305176</ele>
        <time>2012-01-23T12:42:41.000Z</time>
      </trkpt>
      <trkpt lat="48.73935" lon="1.81963">
        <ele>194.39999389648</ele>
        <time>2012-01-23T12:42:46.000Z</time>
      </trkpt>
      <trkpt lat="48.73944" lon="1.81946">
        <ele>194.19999694824</ele>
        <time>2012-01-23T12:42:51.000Z</time>
      </trkpt>
      <trkpt lat="48.73951" lon="1.81929">
        <ele>193.80000305176</ele>
        <time>2012-01-23T12:42:56.000Z</time>
      </trkpt>
      <trkpt lat="48.7396" lon="1.81907">
        <ele>193.60000610352</ele>
        <time>2012-01-23T12:43:02.000Z</time>
      </trkpt>
      <trkpt lat="48.73968" lon="1.81883">
        <ele>193.80000305176</ele>
        <time>2012-01-23T12:43:08.000Z</time>
      </trkpt>
      <trkpt lat="48.73977" lon="1.81865">
        <ele>193.80000305176</ele>
        <time>2012-01-23T12:43:13.000Z</time>
      </trkpt>
      <trkpt lat="48.73991" lon="1.8184">
        <ele>194</ele>
        <time>2012-01-23T12:43:20.000Z</time>
      </trkpt>
      <trkpt lat="48.74002" lon="1.81817">
        <ele>194.60000610352</ele>
        <time>2012-01-23T12:43:26.000Z</time>
      </trkpt>
      <trkpt lat="48.74011" lon="1.81793">
        <ele>195.80000305176</ele>
        <time>2012-01-23T12:43:32.000Z</time>
      </trkpt>
      <trkpt lat="48.74023" lon="1.81766">
        <ele>196.80000305176</ele>
        <time>2012-01-23T12:43:39.000Z</time>
      </trkpt>
      <trkpt lat="48.74031" lon="1.81751">
        <ele>197.39999389648</ele>
        <time>2012-01-23T12:43:43.000Z</time>
      </trkpt>
      <trkpt lat="48.74038" lon="1.81728">
        <ele>197.39999389648</ele>
        <time>2012-01-23T12:43:48.000Z</time>
      </trkpt>
      <trkpt lat="48.74046" lon="1.81707">
        <ele>197.39999389648</ele>
        <time>2012-01-23T12:43:53.000Z</time>
      </trkpt>
      <trkpt lat="48.74055" lon="1.81688">
        <ele>197.39999389648</ele>
        <time>2012-01-23T12:43:58.000Z</time>
      </trkpt>
      <trkpt lat="48.74062" lon="1.81668">
        <ele>197.19999694824</ele>
        <time>2012-01-23T12:44:03.000Z</time>
      </trkpt>
      <trkpt lat="48.74073" lon="1.8165">
        <ele>197</ele>
        <time>2012-01-23T12:44:08.000Z</time>
      </trkpt>
      <trkpt lat="48.74083" lon="1.81628">
        <ele>197</ele>
        <time>2012-01-23T12:44:14.000Z</time>
      </trkpt>
      <trkpt lat="48.74092" lon="1.81602">
        <ele>196.80000305176</ele>
        <time>2012-01-23T12:44:20.000Z</time>
      </trkpt>
      <trkpt lat="48.74104" lon="1.81569">
        <ele>196.39999389648</ele>
        <time>2012-01-23T12:44:27.000Z</time>
      </trkpt>
      <trkpt lat="48.74113" lon="1.81548">
        <ele>196</ele>
        <time>2012-01-23T12:44:32.000Z</time>
      </trkpt>
      <trkpt lat="48.74123" lon="1.81529">
        <ele>195.80000305176</ele>
        <time>2012-01-23T12:44:37.000Z</time>
      </trkpt>
      <trkpt lat="48.74132" lon="1.81508">
        <ele>195.39999389648</ele>
        <time>2012-01-23T12:44:42.000Z</time>
      </trkpt>
      <trkpt lat="48.74141" lon="1.81486">
        <ele>195.19999694824</ele>
        <time>2012-01-23T12:44:47.000Z</time>
      </trkpt>
      <trkpt lat="48.7415" lon="1.81463">
        <ele>195.19999694824</ele>
        <time>2012-01-23T12:44:52.000Z</time>
      </trkpt>
      <trkpt lat="48.74161" lon="1.81437">
        <ele>195</ele>
        <time>2012-01-23T12:44:58.000Z</time>
      </trkpt>
      <trkpt lat="48.74172" lon="1.81407">
        <ele>195</ele>
        <time>2012-01-23T12:45:05.000Z</time>
      </trkpt>
      <trkpt lat="48.74184" lon="1.81382">
        <ele>195.19999694824</ele>
        <time>2012-01-23T12:45:11.000Z</time>
      </trkpt>
      <trkpt lat="48.74192" lon="1.81361">
        <ele>195.19999694824</ele>
        <time>2012-01-23T12:45:16.000Z</time>
      </trkpt>
      <trkpt lat="48.74203" lon="1.81332">
        <ele>195</ele>
        <time>2012-01-23T12:45:23.000Z</time>
      </trkpt>
      <trkpt lat="48.74212" lon="1.81312">
        <ele>194.80000305176</ele>
        <time>2012-01-23T12:45:28.000Z</time>
      </trkpt>
      <trkpt lat="48.74222" lon="1.81287">
        <ele>194.39999389648</ele>
        <time>2012-01-23T12:45:34.000Z</time>
      </trkpt>
      <trkpt lat="48.74233" lon="1.81264">
        <ele>193.80000305176</ele>
        <time>2012-01-23T12:45:40.000Z</time>
      </trkpt>
      <trkpt lat="48.74239" lon="1.81248">
        <ele>193.39999389648</ele>
        <time>2012-01-23T12:45:44.000Z</time>
      </trkpt>
      <trkpt lat="48.74251" lon="1.81222">
        <ele>193</ele>
        <time>2012-01-23T12:45:51.000Z</time>
      </trkpt>
      <trkpt lat="48.74262" lon="1.81197">
        <ele>193.39999389648</ele>
        <time>2012-01-23T12:45:58.000Z</time>
      </trkpt>
      <trkpt lat="48.74271" lon="1.81175">
        <ele>193.60000610352</ele>
        <time>2012-01-23T12:46:04.000Z</time>
      </trkpt>
      <trkpt lat="48.74281" lon="1.81159">
        <ele>193.80000305176</ele>
        <time>2012-01-23T12:46:09.000Z</time>
      </trkpt>
      <trkpt lat="48.74291" lon="1.81135">
        <ele>194.19999694824</ele>
        <time>2012-01-23T12:46:15.000Z</time>
      </trkpt>
      <trkpt lat="48.74301" lon="1.81109">
        <ele>194.39999389648</ele>
        <time>2012-01-23T12:46:21.000Z</time>
      </trkpt>
      <trkpt lat="48.74313" lon="1.81084">
        <ele>194.19999694824</ele>
        <time>2012-01-23T12:46:27.000Z</time>
      </trkpt>
      <trkpt lat="48.74323" lon="1.81063">
        <ele>194.39999389648</ele>
        <time>2012-01-23T12:46:32.000Z</time>
      </trkpt>
      <trkpt lat="48.74327" lon="1.81056">
        <ele>194.39999389648</ele>
        <time>2012-01-23T12:46:34.000Z</time>
      </trkpt>
      <trkpt lat="48.74338" lon="1.81033">
        <ele>194.60000610352</ele>
        <time>2012-01-23T12:46:40.000Z</time>
      </trkpt>
      <trkpt lat="48.7434" lon="1.8103">
        <ele>194.60000610352</ele>
        <time>2012-01-23T12:46:41.000Z</time>
      </trkpt>
      <trkpt lat="48.74349" lon="1.81007">
        <ele>195</ele>
        <time>2012-01-23T12:46:47.000Z</time>
      </trkpt>
      <trkpt lat="48.74354" lon="1.80996">
        <ele>195.19999694824</ele>
        <time>2012-01-23T12:46:50.000Z</time>
      </trkpt>
      <trkpt lat="48.74364" lon="1.80971">
        <ele>195.60000610352</ele>
        <time>2012-01-23T12:46:56.000Z</time>
      </trkpt>
      <trkpt lat="48.74377" lon="1.80943">
        <ele>195.80000305176</ele>
        <time>2012-01-23T12:47:03.000Z</time>
      </trkpt>
      <trkpt lat="48.74378" lon="1.80939">
        <ele>195.80000305176</ele>
        <time>2012-01-23T12:47:04.000Z</time>
      </trkpt>
      <trkpt lat="48.74395" lon="1.80909">
        <ele>196</ele>
        <time>2012-01-23T12:47:12.000Z</time>
      </trkpt>
      <trkpt lat="48.74406" lon="1.80886">
        <ele>196</ele>
        <time>2012-01-23T12:47:18.000Z</time>
      </trkpt>
      <trkpt lat="48.74414" lon="1.80867">
        <ele>196</ele>
        <time>2012-01-23T12:47:23.000Z</time>
      </trkpt>
      <trkpt lat="48.74421" lon="1.80848">
        <ele>196</ele>
        <time>2012-01-23T12:47:28.000Z</time>
      </trkpt>
      <trkpt lat="48.74428" lon="1.80832">
        <ele>195.80000305176</ele>
        <time>2012-01-23T12:47:32.000Z</time>
      </trkpt>
      <trkpt lat="48.74436" lon="1.80813">
        <ele>194.80000305176</ele>
        <time>2012-01-23T12:47:37.000Z</time>
      </trkpt>
      <trkpt lat="48.74445" lon="1.80794">
        <ele>194</ele>
        <time>2012-01-23T12:47:42.000Z</time>
      </trkpt>
      <trkpt lat="48.74453" lon="1.80773">
        <ele>193</ele>
        <time>2012-01-23T12:47:47.000Z</time>
      </trkpt>
      <trkpt lat="48.74459" lon="1.80761">
        <ele>192.39999389648</ele>
        <time>2012-01-23T12:47:53.000Z</time>
      </trkpt>
      <trkpt lat="48.74467" lon="1.80746">
        <ele>192</ele>
        <time>2012-01-23T12:48:01.000Z</time>
      </trkpt>
      <trkpt lat="48.74472" lon="1.80731">
        <ele>191.80000305176</ele>
        <time>2012-01-23T12:48:08.000Z</time>
      </trkpt>
      <trkpt lat="48.74477" lon="1.80712">
        <ele>191.60000610352</ele>
        <time>2012-01-23T12:48:17.000Z</time>
      </trkpt>
      <trkpt lat="48.74482" lon="1.80692">
        <ele>191.60000610352</ele>
        <time>2012-01-23T12:48:27.000Z</time>
      </trkpt>
      <trkpt lat="48.74482" lon="1.80676">
        <ele>191.39999389648</ele>
        <time>2012-01-23T12:48:35.000Z</time>
      </trkpt>
      <trkpt lat="48.74486" lon="1.80657">
        <ele>191.60000610352</ele>
        <time>2012-01-23T12:48:44.000Z</time>
      </trkpt>
      <trkpt lat="48.74492" lon="1.80646">
        <ele>192</ele>
        <time>2012-01-23T12:48:51.000Z</time>
      </trkpt>
      <trkpt lat="48.74493" lon="1.80645">
        <ele>192</ele>
        <time>2012-01-23T12:48:52.000Z</time>
      </trkpt>
      <trkpt lat="48.74492" lon="1.80635">
        <ele>192.19999694824</ele>
        <time>2012-01-23T12:48:58.000Z</time>
      </trkpt>
      <trkpt lat="48.74492" lon="1.80633">
        <ele>192.19999694824</ele>
        <time>2012-01-23T12:48:59.000Z</time>
      </trkpt>
      <trkpt lat="48.74488" lon="1.80621">
        <ele>192.19999694824</ele>
        <time>2012-01-23T12:49:05.000Z</time>
      </trkpt>
      <trkpt lat="48.7449" lon="1.80609">
        <ele>192.39999389648</ele>
        <time>2012-01-23T12:49:11.000Z</time>
      </trkpt>
      <trkpt lat="48.74486" lon="1.80601">
        <ele>192.39999389648</ele>
        <time>2012-01-23T12:49:17.000Z</time>
      </trkpt>
      <trkpt lat="48.7448" lon="1.80592">
        <ele>192.39999389648</ele>
        <time>2012-01-23T12:49:23.000Z</time>
      </trkpt>
      <trkpt lat="48.74473" lon="1.80578">
        <ele>192.39999389648</ele>
        <time>2012-01-23T12:49:31.000Z</time>
      </trkpt>
      <trkpt lat="48.74465" lon="1.80561">
        <ele>192.60000610352</ele>
        <time>2012-01-23T12:49:41.000Z</time>
      </trkpt>
      <trkpt lat="48.74459" lon="1.80546">
        <ele>192.60000610352</ele>
        <time>2012-01-23T12:49:49.000Z</time>
      </trkpt>
      <trkpt lat="48.74451" lon="1.80529">
        <ele>192.80000305176</ele>
        <time>2012-01-23T12:49:59.000Z</time>
      </trkpt>
      <trkpt lat="48.74446" lon="1.80511">
        <ele>193.19999694824</ele>
        <time>2012-01-23T12:50:08.000Z</time>
      </trkpt>
      <trkpt lat="48.74439" lon="1.80492">
        <ele>193.19999694824</ele>
        <time>2012-01-23T12:50:18.000Z</time>
      </trkpt>
      <trkpt lat="48.74432" lon="1.80483">
        <ele>193.19999694824</ele>
        <time>2012-01-23T12:50:26.000Z</time>
      </trkpt>
      <trkpt lat="48.74422" lon="1.80471">
        <ele>193</ele>
        <time>2012-01-23T12:50:35.000Z</time>
      </trkpt>
      <trkpt lat="48.74414" lon="1.80463">
        <ele>193</ele>
        <time>2012-01-23T12:50:42.000Z</time>
      </trkpt>
      <trkpt lat="48.74405" lon="1.80447">
        <ele>192.80000305176</ele>
        <time>2012-01-23T12:50:51.000Z</time>
      </trkpt>
      <trkpt lat="48.74398" lon="1.80431">
        <ele>192.80000305176</ele>
        <time>2012-01-23T12:51:00.000Z</time>
      </trkpt>
      <trkpt lat="48.74392" lon="1.80416">
        <ele>193</ele>
        <time>2012-01-23T12:51:07.000Z</time>
      </trkpt>
      <trkpt lat="48.74387" lon="1.80408">
        <ele>193</ele>
        <time>2012-01-23T12:51:12.000Z</time>
      </trkpt>
      <trkpt lat="48.74381" lon="1.80396">
        <ele>192.80000305176</ele>
        <time>2012-01-23T12:51:19.000Z</time>
      </trkpt>
      <trkpt lat="48.74374" lon="1.80386">
        <ele>192.80000305176</ele>
        <time>2012-01-23T12:51:26.000Z</time>
      </trkpt>
      <trkpt lat="48.74369" lon="1.80381">
        <ele>192.80000305176</ele>
        <time>2012-01-23T12:51:30.000Z</time>
      </trkpt>
      <trkpt lat="48.7436" lon="1.80374">
        <ele>192.80000305176</ele>
        <time>2012-01-23T12:51:37.000Z</time>
      </trkpt>
      <trkpt lat="48.74352" lon="1.80369">
        <ele>192.80000305176</ele>
        <time>2012-01-23T12:51:43.000Z</time>
      </trkpt>
      <trkpt lat="48.74348" lon="1.80364">
        <ele>192.80000305176</ele>
        <time>2012-01-23T12:51:47.000Z</time>
      </trkpt>
      <trkpt lat="48.74341" lon="1.80357">
        <ele>193</ele>
        <time>2012-01-23T12:51:54.000Z</time>
      </trkpt>
      <trkpt lat="48.74339" lon="1.80356">
        <ele>193</ele>
        <time>2012-01-23T12:51:59.000Z</time>
      </trkpt>
      <trkpt lat="48.74323" lon="1.8035">
        <ele>192.80000305176</ele>
        <time>2012-01-23T12:52:27.000Z</time>
      </trkpt>
      <trkpt lat="48.74315" lon="1.80341">
        <ele>192.80000305176</ele>
        <time>2012-01-23T12:52:34.000Z</time>
      </trkpt>
      <trkpt lat="48.74306" lon="1.80332">
        <ele>192.60000610352</ele>
        <time>2012-01-23T12:52:42.000Z</time>
      </trkpt>
      <trkpt lat="48.743" lon="1.80325">
        <ele>192.60000610352</ele>
        <time>2012-01-23T12:52:48.000Z</time>
      </trkpt>
      <trkpt lat="48.74289" lon="1.80316">
        <ele>192.60000610352</ele>
        <time>2012-01-23T12:52:56.000Z</time>
      </trkpt>
      <trkpt lat="48.74277" lon="1.80304">
        <ele>192.60000610352</ele>
        <time>2012-01-23T12:53:06.000Z</time>
      </trkpt>
      <trkpt lat="48.74269" lon="1.80295">
        <ele>192.80000305176</ele>
        <time>2012-01-23T12:53:13.000Z</time>
      </trkpt>
      <trkpt lat="48.74263" lon="1.80288">
        <ele>193</ele>
        <time>2012-01-23T12:53:18.000Z</time>
      </trkpt>
      <trkpt lat="48.7426" lon="1.80287">
        <ele>193</ele>
        <time>2012-01-23T12:53:23.000Z</time>
      </trkpt>
      <trkpt lat="48.74253" lon="1.8028">
        <ele>193.19999694824</ele>
        <time>2012-01-23T12:53:29.000Z</time>
      </trkpt>
      <trkpt lat="48.74243" lon="1.80266">
        <ele>193.60000610352</ele>
        <time>2012-01-23T12:53:38.000Z</time>
      </trkpt>
      <trkpt lat="48.74236" lon="1.80261">
        <ele>193.60000610352</ele>
        <time>2012-01-23T12:53:43.000Z</time>
      </trkpt>
      <trkpt lat="48.74229" lon="1.80254">
        <ele>193.80000305176</ele>
        <time>2012-01-23T12:53:48.000Z</time>
      </trkpt>
      <trkpt lat="48.74219" lon="1.80244">
        <ele>194</ele>
        <time>2012-01-23T12:53:56.000Z</time>
      </trkpt>
      <trkpt lat="48.74212" lon="1.80233">
        <ele>194</ele>
        <time>2012-01-23T12:54:03.000Z</time>
      </trkpt>
      <trkpt lat="48.7421" lon="1.80231">
        <ele>194</ele>
        <time>2012-01-23T12:54:05.000Z</time>
      </trkpt>
      <trkpt lat="48.74204" lon="1.80227">
        <ele>194</ele>
        <time>2012-01-23T12:54:09.000Z</time>
      </trkpt>
      <trkpt lat="48.74193" lon="1.80222">
        <ele>194</ele>
        <time>2012-01-23T12:54:18.000Z</time>
      </trkpt>
      <trkpt lat="48.74182" lon="1.80213">
        <ele>194</ele>
        <time>2012-01-23T12:54:27.000Z</time>
      </trkpt>
      <trkpt lat="48.74175" lon="1.80204">
        <ele>194</ele>
        <time>2012-01-23T12:54:33.000Z</time>
      </trkpt>
      <trkpt lat="48.74168" lon="1.80196">
        <ele>194</ele>
        <time>2012-01-23T12:54:39.000Z</time>
      </trkpt>
      <trkpt lat="48.74159" lon="1.8019">
        <ele>193.60000610352</ele>
        <time>2012-01-23T12:54:46.000Z</time>
      </trkpt>
      <trkpt lat="48.74152" lon="1.80184">
        <ele>193.39999389648</ele>
        <time>2012-01-23T12:54:52.000Z</time>
      </trkpt>
      <trkpt lat="48.7415" lon="1.80183">
        <ele>193.39999389648</ele>
        <time>2012-01-23T12:54:54.000Z</time>
      </trkpt>
      <trkpt lat="48.74141" lon="1.80176">
        <ele>193</ele>
        <time>2012-01-23T12:55:01.000Z</time>
      </trkpt>
      <trkpt lat="48.74134" lon="1.80164">
        <ele>192.80000305176</ele>
        <time>2012-01-23T12:55:08.000Z</time>
      </trkpt>
      <trkpt lat="48.74131" lon="1.80161">
        <ele>192.80000305176</ele>
        <time>2012-01-23T12:55:10.000Z</time>
      </trkpt>
      <trkpt lat="48.74127" lon="1.80154">
        <ele>192.80000305176</ele>
        <time>2012-01-23T12:55:15.000Z</time>
      </trkpt>
      <trkpt lat="48.74123" lon="1.80148">
        <ele>192.80000305176</ele>
        <time>2012-01-23T12:55:19.000Z</time>
      </trkpt>
      <trkpt lat="48.74114" lon="1.80135">
        <ele>192.80000305176</ele>
        <time>2012-01-23T12:55:26.000Z</time>
      </trkpt>
      <trkpt lat="48.74111" lon="1.8013">
        <ele>192.80000305176</ele>
        <time>2012-01-23T12:55:29.000Z</time>
      </trkpt>
      <trkpt lat="48.74105" lon="1.80121">
        <ele>192.80000305176</ele>
        <time>2012-01-23T12:55:35.000Z</time>
      </trkpt>
      <trkpt lat="48.741" lon="1.80115">
        <ele>192.80000305176</ele>
        <time>2012-01-23T12:55:40.000Z</time>
      </trkpt>
      <trkpt lat="48.7409" lon="1.80104">
        <ele>192.60000610352</ele>
        <time>2012-01-23T12:55:48.000Z</time>
      </trkpt>
      <trkpt lat="48.74082" lon="1.80097">
        <ele>192.60000610352</ele>
        <time>2012-01-23T12:55:54.000Z</time>
      </trkpt>
      <trkpt lat="48.74076" lon="1.80086">
        <ele>192.60000610352</ele>
        <time>2012-01-23T12:56:01.000Z</time>
      </trkpt>
      <trkpt lat="48.74068" lon="1.80075">
        <ele>192.60000610352</ele>
        <time>2012-01-23T12:56:08.000Z</time>
      </trkpt>
      <trkpt lat="48.74067" lon="1.80072">
        <ele>192.60000610352</ele>
        <time>2012-01-23T12:56:10.000Z</time>
      </trkpt>
      <trkpt lat="48.7406" lon="1.80065">
        <ele>192.60000610352</ele>
        <time>2012-01-23T12:56:16.000Z</time>
      </trkpt>
      <trkpt lat="48.74052" lon="1.80066">
        <ele>192.39999389648</ele>
        <time>2012-01-23T12:56:22.000Z</time>
      </trkpt>
      <trkpt lat="48.74046" lon="1.80068">
        <ele>192.19999694824</ele>
        <time>2012-01-23T12:56:26.000Z</time>
      </trkpt>
      <trkpt lat="48.74037" lon="1.80062">
        <ele>192</ele>
        <time>2012-01-23T12:56:33.000Z</time>
      </trkpt>
      <trkpt lat="48.74031" lon="1.80051">
        <ele>192.19999694824</ele>
        <time>2012-01-23T12:56:39.000Z</time>
      </trkpt>
      <trkpt lat="48.74029" lon="1.80049">
        <ele>192.19999694824</ele>
        <time>2012-01-23T12:56:41.000Z</time>
      </trkpt>
      <trkpt lat="48.74017" lon="1.80041">
        <ele>192</ele>
        <time>2012-01-23T12:56:50.000Z</time>
      </trkpt>
      <trkpt lat="48.74015" lon="1.80042">
        <ele>192</ele>
        <time>2012-01-23T12:56:52.000Z</time>
      </trkpt>
      <trkpt lat="48.74008" lon="1.80031">
        <ele>192</ele>
        <time>2012-01-23T12:56:59.000Z</time>
      </trkpt>
      <trkpt lat="48.73998" lon="1.80015">
        <ele>192.39999389648</ele>
        <time>2012-01-23T12:57:08.000Z</time>
      </trkpt>
      <trkpt lat="48.73987" lon="1.80003">
        <ele>192.60000610352</ele>
        <time>2012-01-23T12:57:17.000Z</time>
      </trkpt>
      <trkpt lat="48.73974" lon="1.79985">
        <ele>192.60000610352</ele>
        <time>2012-01-23T12:57:29.000Z</time>
      </trkpt>
      <trkpt lat="48.73968" lon="1.79976">
        <ele>192.60000610352</ele>
        <time>2012-01-23T12:57:35.000Z</time>
      </trkpt>
      <trkpt lat="48.73963" lon="1.79969">
        <ele>192.60000610352</ele>
        <time>2012-01-23T12:57:40.000Z</time>
      </trkpt>
      <trkpt lat="48.73954" lon="1.79958">
        <ele>192.60000610352</ele>
        <time>2012-01-23T12:57:48.000Z</time>
      </trkpt>
      <trkpt lat="48.73952" lon="1.79955">
        <ele>192.60000610352</ele>
        <time>2012-01-23T12:57:50.000Z</time>
      </trkpt>
      <trkpt lat="48.73944" lon="1.79947">
        <ele>192.60000610352</ele>
        <time>2012-01-23T12:57:57.000Z</time>
      </trkpt>
      <trkpt lat="48.73935" lon="1.79934">
        <ele>192.39999389648</ele>
        <time>2012-01-23T12:58:05.000Z</time>
      </trkpt>
      <trkpt lat="48.73925" lon="1.79922">
        <ele>192.19999694824</ele>
        <time>2012-01-23T12:58:13.000Z</time>
      </trkpt>
      <trkpt lat="48.73915" lon="1.79911">
        <ele>192</ele>
        <time>2012-01-23T12:58:21.000Z</time>
      </trkpt>
      <trkpt lat="48.73906" lon="1.79899">
        <ele>192</ele>
        <time>2012-01-23T12:58:30.000Z</time>
      </trkpt>
      <trkpt lat="48.73899" lon="1.7989">
        <ele>192</ele>
        <time>2012-01-23T12:58:37.000Z</time>
      </trkpt>
      <trkpt lat="48.7389" lon="1.79877">
        <ele>191.80000305176</ele>
        <time>2012-01-23T12:58:45.000Z</time>
      </trkpt>
      <trkpt lat="48.73884" lon="1.79868">
        <ele>191.80000305176</ele>
        <time>2012-01-23T12:58:51.000Z</time>
      </trkpt>
      <trkpt lat="48.73875" lon="1.79857">
        <ele>191.80000305176</ele>
        <time>2012-01-23T12:58:59.000Z</time>
      </trkpt>
      <trkpt lat="48.73865" lon="1.79844">
        <ele>191.60000610352</ele>
        <time>2012-01-23T12:59:09.000Z</time>
      </trkpt>
      <trkpt lat="48.73857" lon="1.79832">
        <ele>191.60000610352</ele>
        <time>2012-01-23T12:59:17.000Z</time>
      </trkpt>
      <trkpt lat="48.73849" lon="1.79823">
        <ele>191.80000305176</ele>
        <time>2012-01-23T12:59:24.000Z</time>
      </trkpt>
      <trkpt lat="48.73839" lon="1.79811">
        <ele>192</ele>
        <time>2012-01-23T12:59:33.000Z</time>
      </trkpt>
      <trkpt lat="48.7383" lon="1.79799">
        <ele>192.19999694824</ele>
        <time>2012-01-23T12:59:41.000Z</time>
      </trkpt>
      <trkpt lat="48.73824" lon="1.79787">
        <ele>192.39999389648</ele>
        <time>2012-01-23T12:59:48.000Z</time>
      </trkpt>
      <trkpt lat="48.73815" lon="1.79777">
        <ele>192.39999389648</ele>
        <time>2012-01-23T12:59:55.000Z</time>
      </trkpt>
      <trkpt lat="48.7381" lon="1.7977">
        <ele>192.39999389648</ele>
        <time>2012-01-23T13:00:01.000Z</time>
      </trkpt>
      <trkpt lat="48.73808" lon="1.7977">
        <ele>192.39999389648</ele>
        <time>2012-01-23T13:00:02.000Z</time>
      </trkpt>
      <trkpt lat="48.73798" lon="1.79757">
        <ele>192.60000610352</ele>
        <time>2012-01-23T13:00:11.000Z</time>
      </trkpt>
      <trkpt lat="48.73797" lon="1.79754">
        <ele>192.60000610352</ele>
        <time>2012-01-23T13:00:13.000Z</time>
      </trkpt>
      <trkpt lat="48.7379" lon="1.79745">
        <ele>192.60000610352</ele>
        <time>2012-01-23T13:00:20.000Z</time>
      </trkpt>
      <trkpt lat="48.73785" lon="1.79737">
        <ele>192.39999389648</ele>
        <time>2012-01-23T13:00:25.000Z</time>
      </trkpt>
      <trkpt lat="48.7378" lon="1.79731">
        <ele>192.39999389648</ele>
        <time>2012-01-23T13:00:29.000Z</time>
      </trkpt>
      <trkpt lat="48.73771" lon="1.79717">
        <ele>192.19999694824</ele>
        <time>2012-01-23T13:00:37.000Z</time>
      </trkpt>
      <trkpt lat="48.7376" lon="1.79704">
        <ele>192</ele>
        <time>2012-01-23T13:00:46.000Z</time>
      </trkpt>
      <trkpt lat="48.73758" lon="1.79702">
        <ele>192</ele>
        <time>2012-01-23T13:00:48.000Z</time>
      </trkpt>
      <trkpt lat="48.73751" lon="1.79694">
        <ele>191.80000305176</ele>
        <time>2012-01-23T13:00:54.000Z</time>
      </trkpt>
      <trkpt lat="48.73746" lon="1.79688">
        <ele>191.60000610352</ele>
        <time>2012-01-23T13:00:59.000Z</time>
      </trkpt>
      <trkpt lat="48.73741" lon="1.79683">
        <ele>191.60000610352</ele>
        <time>2012-01-23T13:01:04.000Z</time>
      </trkpt>
      <trkpt lat="48.7373" lon="1.7967">
        <ele>191.39999389648</ele>
        <time>2012-01-23T13:01:14.000Z</time>
      </trkpt>
      <trkpt lat="48.73719" lon="1.79655">
        <ele>191.39999389648</ele>
        <time>2012-01-23T13:01:24.000Z</time>
      </trkpt>
      <trkpt lat="48.7371" lon="1.79644">
        <ele>191.19999694824</ele>
        <time>2012-01-23T13:01:32.000Z</time>
      </trkpt>
      <trkpt lat="48.73701" lon="1.79632">
        <ele>191</ele>
        <time>2012-01-23T13:01:40.000Z</time>
      </trkpt>
      <trkpt lat="48.73692" lon="1.79622">
        <ele>190.80000305176</ele>
        <time>2012-01-23T13:01:48.000Z</time>
      </trkpt>
      <trkpt lat="48.7368" lon="1.79605">
        <ele>190.39999389648</ele>
        <time>2012-01-23T13:01:58.000Z</time>
      </trkpt>
      <trkpt lat="48.73674" lon="1.79595">
        <ele>190.19999694824</ele>
        <time>2012-01-23T13:02:04.000Z</time>
      </trkpt>
      <trkpt lat="48.73665" lon="1.79583">
        <ele>190</ele>
        <time>2012-01-23T13:02:12.000Z</time>
      </trkpt>
      <trkpt lat="48.73659" lon="1.79574">
        <ele>190</ele>
        <time>2012-01-23T13:02:18.000Z</time>
      </trkpt>
      <trkpt lat="48.73648" lon="1.79561">
        <ele>190.19999694824</ele>
        <time>2012-01-23T13:02:27.000Z</time>
      </trkpt>
      <trkpt lat="48.73639" lon="1.79547">
        <ele>190.39999389648</ele>
        <time>2012-01-23T13:02:36.000Z</time>
      </trkpt>
      <trkpt lat="48.73632" lon="1.79537">
        <ele>190.39999389648</ele>
        <time>2012-01-23T13:02:43.000Z</time>
      </trkpt>
      <trkpt lat="48.73623" lon="1.79524">
        <ele>190.60000610352</ele>
        <time>2012-01-23T13:02:52.000Z</time>
      </trkpt>
      <trkpt lat="48.73614" lon="1.79509">
        <ele>190.60000610352</ele>
        <time>2012-01-23T13:03:01.000Z</time>
      </trkpt>
      <trkpt lat="48.73613" lon="1.79506">
        <ele>190.60000610352</ele>
        <time>2012-01-23T13:03:06.000Z</time>
      </trkpt>
      <trkpt lat="48.73613" lon="1.79506">
        <ele>190.60000610352</ele>
        <time>2012-01-23T13:03:07.000Z</time>
      </trkpt>
      <trkpt lat="48.73603" lon="1.79495">
        <ele>190.80000305176</ele>
        <time>2012-01-23T13:03:49.000Z</time>
      </trkpt>
      <trkpt lat="48.73594" lon="1.79485">
        <ele>191</ele>
        <time>2012-01-23T13:03:55.000Z</time>
      </trkpt>
      <trkpt lat="48.73587" lon="1.79475">
        <ele>191.19999694824</ele>
        <time>2012-01-23T13:04:03.000Z</time>
      </trkpt>
      <trkpt lat="48.73581" lon="1.79467">
        <ele>191.39999389648</ele>
        <time>2012-01-23T13:04:08.000Z</time>
      </trkpt>
      <trkpt lat="48.73573" lon="1.79456">
        <ele>191.80000305176</ele>
        <time>2012-01-23T13:04:15.000Z</time>
      </trkpt>
      <trkpt lat="48.73565" lon="1.79443">
        <ele>192</ele>
        <time>2012-01-23T13:04:23.000Z</time>
      </trkpt>
      <trkpt lat="48.73556" lon="1.79429">
        <ele>192.19999694824</ele>
        <time>2012-01-23T13:04:32.000Z</time>
      </trkpt>
      <trkpt lat="48.73544" lon="1.79413">
        <ele>192.39999389648</ele>
        <time>2012-01-23T13:04:42.000Z</time>
      </trkpt>
      <trkpt lat="48.73544" lon="1.79412">
        <ele>192.39999389648</ele>
        <time>2012-01-23T13:04:43.000Z</time>
      </trkpt>
      <trkpt lat="48.73539" lon="1.79405">
        <ele>192.19999694824</ele>
        <time>2012-01-23T13:04:48.000Z</time>
      </trkpt>
      <trkpt lat="48.73533" lon="1.79391">
        <ele>191.80000305176</ele>
        <time>2012-01-23T13:04:56.000Z</time>
      </trkpt>
      <trkpt lat="48.73525" lon="1.79382">
        <ele>191.39999389648</ele>
        <time>2012-01-23T13:05:02.000Z</time>
      </trkpt>
      <trkpt lat="48.7351" lon="1.79376">
        <ele>191</ele>
        <time>2012-01-23T13:05:12.000Z</time>
      </trkpt>
      <trkpt lat="48.73501" lon="1.7937">
        <ele>190.80000305176</ele>
        <time>2012-01-23T13:05:18.000Z</time>
      </trkpt>
      <trkpt lat="48.73489" lon="1.7936">
        <ele>190.19999694824</ele>
        <time>2012-01-23T13:05:27.000Z</time>
      </trkpt>
      <trkpt lat="48.73483" lon="1.79355">
        <ele>190</ele>
        <time>2012-01-23T13:05:32.000Z</time>
      </trkpt>
      <trkpt lat="48.73476" lon="1.79352">
        <ele>189.80000305176</ele>
        <time>2012-01-23T13:05:37.000Z</time>
      </trkpt>
      <trkpt lat="48.73462" lon="1.79347">
        <ele>189.60000610352</ele>
        <time>2012-01-23T13:05:45.000Z</time>
      </trkpt>
      <trkpt lat="48.73454" lon="1.79343">
        <ele>189.39999389648</ele>
        <time>2012-01-23T13:05:51.000Z</time>
      </trkpt>
      <trkpt lat="48.73448" lon="1.79338">
        <ele>189.19999694824</ele>
        <time>2012-01-23T13:05:56.000Z</time>
      </trkpt>
      <trkpt lat="48.73438" lon="1.79327">
        <ele>188.80000305176</ele>
        <time>2012-01-23T13:06:04.000Z</time>
      </trkpt>
      <trkpt lat="48.73425" lon="1.7931">
        <ele>188</ele>
        <time>2012-01-23T13:06:15.000Z</time>
      </trkpt>
      <trkpt lat="48.73415" lon="1.79295">
        <ele>187.19999694824</ele>
        <time>2012-01-23T13:06:24.000Z</time>
      </trkpt>
      <trkpt lat="48.73407" lon="1.79278">
        <ele>186.39999389648</ele>
        <time>2012-01-23T13:06:32.000Z</time>
      </trkpt>
      <trkpt lat="48.73398" lon="1.79263">
        <ele>185.80000305176</ele>
        <time>2012-01-23T13:06:40.000Z</time>
      </trkpt>
      <trkpt lat="48.73389" lon="1.79243">
        <ele>185</ele>
        <time>2012-01-23T13:06:49.000Z</time>
      </trkpt>
      <trkpt lat="48.73384" lon="1.7923">
        <ele>184.39999389648</ele>
        <time>2012-01-23T13:06:56.000Z</time>
      </trkpt>
      <trkpt lat="48.73377" lon="1.79212">
        <ele>183.39999389648</ele>
        <time>2012-01-23T13:07:04.000Z</time>
      </trkpt>
      <trkpt lat="48.73368" lon="1.79191">
        <ele>182.39999389648</ele>
        <time>2012-01-23T13:07:14.000Z</time>
      </trkpt>
      <trkpt lat="48.73362" lon="1.79175">
        <ele>181.39999389648</ele>
        <time>2012-01-23T13:07:22.000Z</time>
      </trkpt>
      <trkpt lat="48.73355" lon="1.79156">
        <ele>180.39999389648</ele>
        <time>2012-01-23T13:07:31.000Z</time>
      </trkpt>
      <trkpt lat="48.73351" lon="1.79141">
        <ele>179.60000610352</ele>
        <time>2012-01-23T13:07:38.000Z</time>
      </trkpt>
      <trkpt lat="48.73346" lon="1.79121">
        <ele>178.39999389648</ele>
        <time>2012-01-23T13:07:47.000Z</time>
      </trkpt>
      <trkpt lat="48.73342" lon="1.7911">
        <ele>177.80000305176</ele>
        <time>2012-01-23T13:07:54.000Z</time>
      </trkpt>
      <trkpt lat="48.73342" lon="1.7911">
        <ele>177.80000305176</ele>
        <time>2012-01-23T13:07:55.000Z</time>
      </trkpt>
      <trkpt lat="48.7334" lon="1.79107">
        <ele>177.60000610352</ele>
        <time>2012-01-23T13:08:03.000Z</time>
      </trkpt>
      <trkpt lat="48.73339" lon="1.79102">
        <ele>177.19999694824</ele>
        <time>2012-01-23T13:08:04.000Z</time>
      </trkpt>
      <trkpt lat="48.73336" lon="1.79091">
        <ele>176.60000610352</ele>
        <time>2012-01-23T13:08:09.000Z</time>
      </trkpt>
      <trkpt lat="48.73327" lon="1.79065">
        <ele>175.19999694824</ele>
        <time>2012-01-23T13:08:22.000Z</time>
      </trkpt>
      <trkpt lat="48.73326" lon="1.79063">
        <ele>175</ele>
        <time>2012-01-23T13:08:23.000Z</time>
      </trkpt>
      <trkpt lat="48.73322" lon="1.79056">
        <ele>174.80000305176</ele>
        <time>2012-01-23T13:08:27.000Z</time>
      </trkpt>
      <trkpt lat="48.73313" lon="1.79035">
        <ele>174.19999694824</ele>
        <time>2012-01-23T13:08:37.000Z</time>
      </trkpt>
      <trkpt lat="48.73308" lon="1.79019">
        <ele>173.80000305176</ele>
        <time>2012-01-23T13:08:45.000Z</time>
      </trkpt>
      <trkpt lat="48.73303" lon="1.79009">
        <ele>173.60000610352</ele>
        <time>2012-01-23T13:08:50.000Z</time>
      </trkpt>
      <trkpt lat="48.73297" lon="1.78994">
        <ele>173.60000610352</ele>
        <time>2012-01-23T13:08:57.000Z</time>
      </trkpt>
      <trkpt lat="48.73288" lon="1.78975">
        <ele>174</ele>
        <time>2012-01-23T13:09:07.000Z</time>
      </trkpt>
      <trkpt lat="48.73287" lon="1.78971">
        <ele>174.19999694824</ele>
        <time>2012-01-23T13:09:09.000Z</time>
      </trkpt>
      <trkpt lat="48.73285" lon="1.78967">
        <ele>174.39999389648</ele>
        <time>2012-01-23T13:09:16.000Z</time>
      </trkpt>
      <trkpt lat="48.73281" lon="1.7896">
        <ele>174.60000610352</ele>
        <time>2012-01-23T13:09:24.000Z</time>
      </trkpt>
      <trkpt lat="48.73281" lon="1.78958">
        <ele>174.80000305176</ele>
        <time>2012-01-23T13:09:25.000Z</time>
      </trkpt>
      <trkpt lat="48.73275" lon="1.78946">
        <ele>175.39999389648</ele>
        <time>2012-01-23T13:09:31.000Z</time>
      </trkpt>
      <trkpt lat="48.73274" lon="1.78942">
        <ele>175.39999389648</ele>
        <time>2012-01-23T13:09:33.000Z</time>
      </trkpt>
      <trkpt lat="48.73266" lon="1.78925">
        <ele>176.60000610352</ele>
        <time>2012-01-23T13:09:42.000Z</time>
      </trkpt>
      <trkpt lat="48.7326" lon="1.78915">
        <ele>177.19999694824</ele>
        <time>2012-01-23T13:09:48.000Z</time>
      </trkpt>
      <trkpt lat="48.73253" lon="1.78903">
        <ele>177.60000610352</ele>
        <time>2012-01-23T13:09:55.000Z</time>
      </trkpt>
      <trkpt lat="48.73247" lon="1.78894">
        <ele>177.80000305176</ele>
        <time>2012-01-23T13:10:00.000Z</time>
      </trkpt>
      <trkpt lat="48.73243" lon="1.78885">
        <ele>178</ele>
        <time>2012-01-23T13:10:06.000Z</time>
      </trkpt>
      <trkpt lat="48.73237" lon="1.78873">
        <ele>178.19999694824</ele>
        <time>2012-01-23T13:10:13.000Z</time>
      </trkpt>
      <trkpt lat="48.73229" lon="1.78861">
        <ele>178.39999389648</ele>
        <time>2012-01-23T13:10:20.000Z</time>
      </trkpt>
      <trkpt lat="48.73221" lon="1.78847">
        <ele>178.60000610352</ele>
        <time>2012-01-23T13:10:29.000Z</time>
      </trkpt>
      <trkpt lat="48.73215" lon="1.78837">
        <ele>178.80000305176</ele>
        <time>2012-01-23T13:10:36.000Z</time>
      </trkpt>
      <trkpt lat="48.73209" lon="1.78825">
        <ele>179</ele>
        <time>2012-01-23T13:10:44.000Z</time>
      </trkpt>
      <trkpt lat="48.73205" lon="1.78823">
        <ele>179.19999694824</ele>
        <time>2012-01-23T13:10:48.000Z</time>
      </trkpt>
      <trkpt lat="48.73198" lon="1.78824">
        <ele>179.60000610352</ele>
        <time>2012-01-23T13:10:54.000Z</time>
      </trkpt>
      <trkpt lat="48.73197" lon="1.78824">
        <ele>179.60000610352</ele>
        <time>2012-01-23T13:10:55.000Z</time>
      </trkpt>
      <trkpt lat="48.73186" lon="1.78822">
        <ele>180.19999694824</ele>
        <time>2012-01-23T13:11:02.000Z</time>
      </trkpt>
      <trkpt lat="48.73176" lon="1.78823">
        <ele>180.60000610352</ele>
        <time>2012-01-23T13:11:08.000Z</time>
      </trkpt>
      <trkpt lat="48.73167" lon="1.78822">
        <ele>181.19999694824</ele>
        <time>2012-01-23T13:11:14.000Z</time>
      </trkpt>
      <trkpt lat="48.73156" lon="1.78819">
        <ele>181.39999389648</ele>
        <time>2012-01-23T13:11:22.000Z</time>
      </trkpt>
      <trkpt lat="48.73148" lon="1.78816">
        <ele>181.60000610352</ele>
        <time>2012-01-23T13:11:28.000Z</time>
      </trkpt>
      <trkpt lat="48.73135" lon="1.78812">
        <ele>181.80000305176</ele>
        <time>2012-01-23T13:11:38.000Z</time>
      </trkpt>
      <trkpt lat="48.73124" lon="1.7881">
        <ele>182</ele>
        <time>2012-01-23T13:11:45.000Z</time>
      </trkpt>
      <trkpt lat="48.73114" lon="1.78808">
        <ele>182.39999389648</ele>
        <time>2012-01-23T13:11:53.000Z</time>
      </trkpt>
      <trkpt lat="48.73108" lon="1.78809">
        <ele>182.39999389648</ele>
        <time>2012-01-23T13:11:57.000Z</time>
      </trkpt>
      <trkpt lat="48.73101" lon="1.7881">
        <ele>182.60000610352</ele>
        <time>2012-01-23T13:12:01.000Z</time>
      </trkpt>
      <trkpt lat="48.7309" lon="1.7881">
        <ele>182.80000305176</ele>
        <time>2012-01-23T13:12:08.000Z</time>
      </trkpt>
      <trkpt lat="48.73081" lon="1.78807">
        <ele>183</ele>
        <time>2012-01-23T13:12:15.000Z</time>
      </trkpt>
      <trkpt lat="48.73077" lon="1.78807">
        <ele>183</ele>
        <time>2012-01-23T13:12:18.000Z</time>
      </trkpt>
      <trkpt lat="48.73065" lon="1.78803">
        <ele>183</ele>
        <time>2012-01-23T13:12:26.000Z</time>
      </trkpt>
      <trkpt lat="48.73055" lon="1.78799">
        <ele>183</ele>
        <time>2012-01-23T13:12:34.000Z</time>
      </trkpt>
      <trkpt lat="48.73046" lon="1.78796">
        <ele>183</ele>
        <time>2012-01-23T13:12:40.000Z</time>
      </trkpt>
      <trkpt lat="48.73035" lon="1.78793">
        <ele>182.80000305176</ele>
        <time>2012-01-23T13:12:48.000Z</time>
      </trkpt>
      <trkpt lat="48.73024" lon="1.78791">
        <ele>182.80000305176</ele>
        <time>2012-01-23T13:12:55.000Z</time>
      </trkpt>
      <trkpt lat="48.73012" lon="1.7879">
        <ele>182.60000610352</ele>
        <time>2012-01-23T13:13:02.000Z</time>
      </trkpt>
      <trkpt lat="48.73001" lon="1.78789">
        <ele>182.60000610352</ele>
        <time>2012-01-23T13:13:10.000Z</time>
      </trkpt>
      <trkpt lat="48.7299" lon="1.78787">
        <ele>182.60000610352</ele>
        <time>2012-01-23T13:13:17.000Z</time>
      </trkpt>
      <trkpt lat="48.72976" lon="1.78782">
        <ele>182.80000305176</ele>
        <time>2012-01-23T13:13:27.000Z</time>
      </trkpt>
      <trkpt lat="48.72965" lon="1.78779">
        <ele>183</ele>
        <time>2012-01-23T13:13:34.000Z</time>
      </trkpt>
      <trkpt lat="48.72958" lon="1.78777">
        <ele>183</ele>
        <time>2012-01-23T13:13:39.000Z</time>
      </trkpt>
      <trkpt lat="48.72947" lon="1.78777">
        <ele>183.19999694824</ele>
        <time>2012-01-23T13:13:47.000Z</time>
      </trkpt>
      <trkpt lat="48.72937" lon="1.78778">
        <ele>183.19999694824</ele>
        <time>2012-01-23T13:13:54.000Z</time>
      </trkpt>
      <trkpt lat="48.72923" lon="1.7878">
        <ele>183.19999694824</ele>
        <time>2012-01-23T13:14:02.000Z</time>
      </trkpt>
      <trkpt lat="48.72916" lon="1.7878">
        <ele>183.19999694824</ele>
        <time>2012-01-23T13:14:07.000Z</time>
      </trkpt>
      <trkpt lat="48.72904" lon="1.78781">
        <ele>183.19999694824</ele>
        <time>2012-01-23T13:14:15.000Z</time>
      </trkpt>
      <trkpt lat="48.72895" lon="1.78785">
        <ele>183.19999694824</ele>
        <time>2012-01-23T13:14:22.000Z</time>
      </trkpt>
      <trkpt lat="48.72885" lon="1.78789">
        <ele>183</ele>
        <time>2012-01-23T13:14:30.000Z</time>
      </trkpt>
      <trkpt lat="48.72881" lon="1.78791">
        <ele>183</ele>
        <time>2012-01-23T13:14:33.000Z</time>
      </trkpt>
      <trkpt lat="48.72874" lon="1.78793">
        <ele>183</ele>
        <time>2012-01-23T13:14:37.000Z</time>
      </trkpt>
      <trkpt lat="48.72866" lon="1.78796">
        <ele>182.80000305176</ele>
        <time>2012-01-23T13:14:42.000Z</time>
      </trkpt>
      <trkpt lat="48.72854" lon="1.78799">
        <ele>182.80000305176</ele>
        <time>2012-01-23T13:14:50.000Z</time>
      </trkpt>
      <trkpt lat="48.72851" lon="1.78799">
        <ele>182.80000305176</ele>
        <time>2012-01-23T13:14:52.000Z</time>
      </trkpt>
      <trkpt lat="48.72845" lon="1.78798">
        <ele>182.80000305176</ele>
        <time>2012-01-23T13:14:56.000Z</time>
      </trkpt>
      <trkpt lat="48.72833" lon="1.78797">
        <ele>182.80000305176</ele>
        <time>2012-01-23T13:15:04.000Z</time>
      </trkpt>
      <trkpt lat="48.72819" lon="1.78797">
        <ele>182.80000305176</ele>
        <time>2012-01-23T13:15:13.000Z</time>
      </trkpt>
      <trkpt lat="48.72809" lon="1.78797">
        <ele>182.60000610352</ele>
        <time>2012-01-23T13:15:20.000Z</time>
      </trkpt>
      <trkpt lat="48.72801" lon="1.78798">
        <ele>182.60000610352</ele>
        <time>2012-01-23T13:15:25.000Z</time>
      </trkpt>
      <trkpt lat="48.72787" lon="1.78797">
        <ele>182.39999389648</ele>
        <time>2012-01-23T13:15:34.000Z</time>
      </trkpt>
      <trkpt lat="48.72773" lon="1.78795">
        <ele>182.19999694824</ele>
        <time>2012-01-23T13:15:43.000Z</time>
      </trkpt>
      <trkpt lat="48.72757" lon="1.78789">
        <ele>182</ele>
        <time>2012-01-23T13:15:53.000Z</time>
      </trkpt>
      <trkpt lat="48.72742" lon="1.7878">
        <ele>181.80000305176</ele>
        <time>2012-01-23T13:16:04.000Z</time>
      </trkpt>
      <trkpt lat="48.72733" lon="1.78773">
        <ele>181.80000305176</ele>
        <time>2012-01-23T13:16:11.000Z</time>
      </trkpt>
      <trkpt lat="48.72721" lon="1.78765">
        <ele>181.60000610352</ele>
        <time>2012-01-23T13:16:20.000Z</time>
      </trkpt>
      <trkpt lat="48.72708" lon="1.78759">
        <ele>181.39999389648</ele>
        <time>2012-01-23T13:16:30.000Z</time>
      </trkpt>
      <trkpt lat="48.72699" lon="1.78751">
        <ele>181.39999389648</ele>
        <time>2012-01-23T13:16:37.000Z</time>
      </trkpt>
      <trkpt lat="48.72688" lon="1.78745">
        <ele>181.39999389648</ele>
        <time>2012-01-23T13:16:45.000Z</time>
      </trkpt>
      <trkpt lat="48.72679" lon="1.78739">
        <ele>181.19999694824</ele>
        <time>2012-01-23T13:16:52.000Z</time>
      </trkpt>
      <trkpt lat="48.72669" lon="1.78734">
        <ele>181.19999694824</ele>
        <time>2012-01-23T13:16:59.000Z</time>
      </trkpt>
      <trkpt lat="48.72656" lon="1.78725">
        <ele>181</ele>
        <time>2012-01-23T13:17:09.000Z</time>
      </trkpt>
      <trkpt lat="48.72641" lon="1.78717">
        <ele>180.60000610352</ele>
        <time>2012-01-23T13:17:20.000Z</time>
      </trkpt>
      <trkpt lat="48.72622" lon="1.78704">
        <ele>180.19999694824</ele>
        <time>2012-01-23T13:17:34.000Z</time>
      </trkpt>
      <trkpt lat="48.72604" lon="1.78695">
        <ele>179.60000610352</ele>
        <time>2012-01-23T13:17:47.000Z</time>
      </trkpt>
      <trkpt lat="48.72586" lon="1.7869">
        <ele>179.19999694824</ele>
        <time>2012-01-23T13:17:59.000Z</time>
      </trkpt>
      <trkpt lat="48.72568" lon="1.78689">
        <ele>178.80000305176</ele>
        <time>2012-01-23T13:18:12.000Z</time>
      </trkpt>
      <trkpt lat="48.72558" lon="1.7869">
        <ele>178.60000610352</ele>
        <time>2012-01-23T13:18:19.000Z</time>
      </trkpt>
      <trkpt lat="48.72546" lon="1.78691">
        <ele>178.39999389648</ele>
        <time>2012-01-23T13:18:27.000Z</time>
      </trkpt>
      <trkpt lat="48.7253" lon="1.78692">
        <ele>178.19999694824</ele>
        <time>2012-01-23T13:18:37.000Z</time>
      </trkpt>
      <trkpt lat="48.72522" lon="1.78692">
        <ele>178</ele>
        <time>2012-01-23T13:18:43.000Z</time>
      </trkpt>
      <trkpt lat="48.72511" lon="1.78692">
        <ele>177.80000305176</ele>
        <time>2012-01-23T13:18:50.000Z</time>
      </trkpt>
      <trkpt lat="48.72496" lon="1.78692">
        <ele>177.60000610352</ele>
        <time>2012-01-23T13:19:00.000Z</time>
      </trkpt>
      <trkpt lat="48.72483" lon="1.78691">
        <ele>177.39999389648</ele>
        <time>2012-01-23T13:19:08.000Z</time>
      </trkpt>
      <trkpt lat="48.72468" lon="1.78691">
        <ele>177</ele>
        <time>2012-01-23T13:19:18.000Z</time>
      </trkpt>
      <trkpt lat="48.72454" lon="1.78691">
        <ele>176.80000305176</ele>
        <time>2012-01-23T13:19:27.000Z</time>
      </trkpt>
      <trkpt lat="48.72443" lon="1.78689">
        <ele>176.60000610352</ele>
        <time>2012-01-23T13:19:35.000Z</time>
      </trkpt>
      <trkpt lat="48.72442" lon="1.78689">
        <ele>176.60000610352</ele>
        <time>2012-01-23T13:19:38.000Z</time>
      </trkpt>
      <trkpt lat="48.72436" lon="1.78687">
        <ele>176.39999389648</ele>
        <time>2012-01-23T13:20:03.000Z</time>
      </trkpt>
      <trkpt lat="48.72427" lon="1.78683">
        <ele>176.19999694824</ele>
        <time>2012-01-23T13:20:09.000Z</time>
      </trkpt>
      <trkpt lat="48.72417" lon="1.7868">
        <ele>176</ele>
        <time>2012-01-23T13:20:16.000Z</time>
      </trkpt>
      <trkpt lat="48.72413" lon="1.78677">
        <ele>176</ele>
        <time>2012-01-23T13:20:19.000Z</time>
      </trkpt>
      <trkpt lat="48.72397" lon="1.78665">
        <ele>175.60000610352</ele>
        <time>2012-01-23T13:20:30.000Z</time>
      </trkpt>
      <trkpt lat="48.72384" lon="1.78653">
        <ele>175.19999694824</ele>
        <time>2012-01-23T13:20:40.000Z</time>
      </trkpt>
      <trkpt lat="48.7237" lon="1.78639">
        <ele>174.39999389648</ele>
        <time>2012-01-23T13:20:50.000Z</time>
      </trkpt>
      <trkpt lat="48.72361" lon="1.78628">
        <ele>173.80000305176</ele>
        <time>2012-01-23T13:20:57.000Z</time>
      </trkpt>
      <trkpt lat="48.72351" lon="1.78617">
        <ele>172.80000305176</ele>
        <time>2012-01-23T13:21:05.000Z</time>
      </trkpt>
      <trkpt lat="48.7234" lon="1.78605">
        <ele>171.60000610352</ele>
        <time>2012-01-23T13:21:14.000Z</time>
      </trkpt>
      <trkpt lat="48.72333" lon="1.78596">
        <ele>170.60000610352</ele>
        <time>2012-01-23T13:21:20.000Z</time>
      </trkpt>
      <trkpt lat="48.72325" lon="1.78584">
        <ele>170</ele>
        <time>2012-01-23T13:21:27.000Z</time>
      </trkpt>
      <trkpt lat="48.72319" lon="1.78574">
        <ele>169.60000610352</ele>
        <time>2012-01-23T13:21:33.000Z</time>
      </trkpt>
      <trkpt lat="48.72314" lon="1.78566">
        <ele>169.19999694824</ele>
        <time>2012-01-23T13:21:37.000Z</time>
      </trkpt>
      <trkpt lat="48.72307" lon="1.78554">
        <ele>168.60000610352</ele>
        <time>2012-01-23T13:21:43.000Z</time>
      </trkpt>
      <trkpt lat="48.72301" lon="1.78544">
        <ele>167.80000305176</ele>
        <time>2012-01-23T13:21:49.000Z</time>
      </trkpt>
      <trkpt lat="48.72293" lon="1.78531">
        <ele>167</ele>
        <time>2012-01-23T13:21:56.000Z</time>
      </trkpt>
      <trkpt lat="48.72287" lon="1.78518">
        <ele>166</ele>
        <time>2012-01-23T13:22:02.000Z</time>
      </trkpt>
      <trkpt lat="48.72277" lon="1.78506">
        <ele>164.60000610352</ele>
        <time>2012-01-23T13:22:10.000Z</time>
      </trkpt>
      <trkpt lat="48.72272" lon="1.78501">
        <ele>164.19999694824</ele>
        <time>2012-01-23T13:22:14.000Z</time>
      </trkpt>
      <trkpt lat="48.72262" lon="1.78498">
        <ele>163.60000610352</ele>
        <time>2012-01-23T13:22:21.000Z</time>
      </trkpt>
      <trkpt lat="48.72259" lon="1.78499">
        <ele>163.60000610352</ele>
        <time>2012-01-23T13:22:26.000Z</time>
      </trkpt>
      <trkpt lat="48.72253" lon="1.78497">
        <ele>163.19999694824</ele>
        <time>2012-01-23T13:22:40.000Z</time>
      </trkpt>
      <trkpt lat="48.72244" lon="1.78498">
        <ele>163.19999694824</ele>
        <time>2012-01-23T13:22:44.000Z</time>
      </trkpt>
      <trkpt lat="48.72233" lon="1.78498">
        <ele>163.19999694824</ele>
        <time>2012-01-23T13:22:52.000Z</time>
      </trkpt>
      <trkpt lat="48.72219" lon="1.78499">
        <ele>163</ele>
        <time>2012-01-23T13:23:00.000Z</time>
      </trkpt>
      <trkpt lat="48.72212" lon="1.78499">
        <ele>163</ele>
        <time>2012-01-23T13:23:06.000Z</time>
      </trkpt>
      <trkpt lat="48.722" lon="1.78498">
        <ele>163.19999694824</ele>
        <time>2012-01-23T13:23:13.000Z</time>
      </trkpt>
      <trkpt lat="48.72187" lon="1.78497">
        <ele>163.19999694824</ele>
        <time>2012-01-23T13:23:20.000Z</time>
      </trkpt>
      <trkpt lat="48.72186" lon="1.78497">
        <ele>163.19999694824</ele>
        <time>2012-01-23T13:23:21.000Z</time>
      </trkpt>
      <trkpt lat="48.72177" lon="1.78492">
        <ele>163.39999389648</ele>
        <time>2012-01-23T13:23:28.000Z</time>
      </trkpt>
      <trkpt lat="48.72175" lon="1.7849">
        <ele>163.39999389648</ele>
        <time>2012-01-23T13:23:30.000Z</time>
      </trkpt>
      <trkpt lat="48.72171" lon="1.78481">
        <ele>163.80000305176</ele>
        <time>2012-01-23T13:23:37.000Z</time>
      </trkpt>
      <trkpt lat="48.72167" lon="1.78474">
        <ele>164</ele>
        <time>2012-01-23T13:23:43.000Z</time>
      </trkpt>
      <trkpt lat="48.72161" lon="1.7846">
        <ele>164.80000305176</ele>
        <time>2012-01-23T13:23:50.000Z</time>
      </trkpt>
      <trkpt lat="48.72154" lon="1.7845">
        <ele>165.39999389648</ele>
        <time>2012-01-23T13:23:57.000Z</time>
      </trkpt>
      <trkpt lat="48.72154" lon="1.78447">
        <ele>165.60000610352</ele>
        <time>2012-01-23T13:24:01.000Z</time>
      </trkpt>
      <trkpt lat="48.72146" lon="1.78427">
        <ele>166.80000305176</ele>
        <time>2012-01-23T13:24:18.000Z</time>
      </trkpt>
      <trkpt lat="48.72142" lon="1.78419">
        <ele>167.39999389648</ele>
        <time>2012-01-23T13:24:22.000Z</time>
      </trkpt>
      <trkpt lat="48.72137" lon="1.78406">
        <ele>169.19999694824</ele>
        <time>2012-01-23T13:24:29.000Z</time>
      </trkpt>
      <trkpt lat="48.72134" lon="1.78395">
        <ele>170.80000305176</ele>
        <time>2012-01-23T13:24:34.000Z</time>
      </trkpt>
      <trkpt lat="48.72135" lon="1.7838">
        <ele>172.39999389648</ele>
        <time>2012-01-23T13:24:41.000Z</time>
      </trkpt>
      <trkpt lat="48.72135" lon="1.78368">
        <ele>174</ele>
        <time>2012-01-23T13:24:46.000Z</time>
      </trkpt>
      <trkpt lat="48.72136" lon="1.78362">
        <ele>174.80000305176</ele>
        <time>2012-01-23T13:24:50.000Z</time>
      </trkpt>
      <trkpt lat="48.72137" lon="1.78348">
        <ele>176.39999389648</ele>
        <time>2012-01-23T13:24:57.000Z</time>
      </trkpt>
      <trkpt lat="48.72138" lon="1.78343">
        <ele>177</ele>
        <time>2012-01-23T13:24:59.000Z</time>
      </trkpt>
      <trkpt lat="48.72141" lon="1.78335">
        <ele>178.19999694824</ele>
        <time>2012-01-23T13:25:03.000Z</time>
      </trkpt>
      <trkpt lat="48.72142" lon="1.78324">
        <ele>178.60000610352</ele>
        <time>2012-01-23T13:25:09.000Z</time>
      </trkpt>
      <trkpt lat="48.72145" lon="1.78313">
        <ele>178.80000305176</ele>
        <time>2012-01-23T13:25:15.000Z</time>
      </trkpt>
      <trkpt lat="48.7215" lon="1.78299">
        <ele>179</ele>
        <time>2012-01-23T13:25:21.000Z</time>
      </trkpt>
      <trkpt lat="48.72156" lon="1.78279">
        <ele>179.39999389648</ele>
        <time>2012-01-23T13:25:30.000Z</time>
      </trkpt>
      <trkpt lat="48.7216" lon="1.78267">
        <ele>179.60000610352</ele>
        <time>2012-01-23T13:25:36.000Z</time>
      </trkpt>
      <trkpt lat="48.72165" lon="1.78255">
        <ele>180</ele>
        <time>2012-01-23T13:25:43.000Z</time>
      </trkpt>
      <trkpt lat="48.72165" lon="1.78253">
        <ele>180</ele>
        <time>2012-01-23T13:25:44.000Z</time>
      </trkpt>
      <trkpt lat="48.72168" lon="1.78246">
        <ele>180</ele>
        <time>2012-01-23T13:25:49.000Z</time>
      </trkpt>
      <trkpt lat="48.72172" lon="1.78235">
        <ele>179.80000305176</ele>
        <time>2012-01-23T13:25:56.000Z</time>
      </trkpt>
      <trkpt lat="48.72178" lon="1.78217">
        <ele>179.39999389648</ele>
        <time>2012-01-23T13:26:06.000Z</time>
      </trkpt>
      <trkpt lat="48.72184" lon="1.78204">
        <ele>179.19999694824</ele>
        <time>2012-01-23T13:26:13.000Z</time>
      </trkpt>
      <trkpt lat="48.72184" lon="1.78203">
        <ele>179.19999694824</ele>
        <time>2012-01-23T13:26:14.000Z</time>
      </trkpt>
      <trkpt lat="48.72185" lon="1.78198">
        <ele>179</ele>
        <time>2012-01-23T13:26:21.000Z</time>
      </trkpt>
      <trkpt lat="48.72185" lon="1.78194">
        <ele>179</ele>
        <time>2012-01-23T13:26:28.000Z</time>
      </trkpt>
      <trkpt lat="48.72185" lon="1.78192">
        <ele>179</ele>
        <time>2012-01-23T13:26:29.000Z</time>
      </trkpt>
      <trkpt lat="48.72185" lon="1.7819">
        <ele>179</ele>
        <time>2012-01-23T13:26:32.000Z</time>
      </trkpt>
      <trkpt lat="48.72188" lon="1.78185">
        <ele>178.80000305176</ele>
        <time>2012-01-23T13:26:33.000Z</time>
      </trkpt>
      <trkpt lat="48.72189" lon="1.78183">
        <ele>178.80000305176</ele>
        <time>2012-01-23T13:26:34.000Z</time>
      </trkpt>
      <trkpt lat="48.72195" lon="1.78171">
        <ele>178.39999389648</ele>
        <time>2012-01-23T13:26:41.000Z</time>
      </trkpt>
      <trkpt lat="48.72196" lon="1.78168">
        <ele>178.19999694824</ele>
        <time>2012-01-23T13:26:43.000Z</time>
      </trkpt>
      <trkpt lat="48.72199" lon="1.78158">
        <ele>178.19999694824</ele>
        <time>2012-01-23T13:26:49.000Z</time>
      </trkpt>
      <trkpt lat="48.72202" lon="1.78148">
        <ele>178</ele>
        <time>2012-01-23T13:26:56.000Z</time>
      </trkpt>
      <trkpt lat="48.72204" lon="1.78142">
        <ele>177.80000305176</ele>
        <time>2012-01-23T13:26:59.000Z</time>
      </trkpt>
      <trkpt lat="48.72205" lon="1.7813">
        <ele>177.80000305176</ele>
        <time>2012-01-23T13:27:06.000Z</time>
      </trkpt>
      <trkpt lat="48.72207" lon="1.78124">
        <ele>177.60000610352</ele>
        <time>2012-01-23T13:27:08.000Z</time>
      </trkpt>
      <trkpt lat="48.72207" lon="1.78115">
        <ele>177.60000610352</ele>
        <time>2012-01-23T13:27:12.000Z</time>
      </trkpt>
      <trkpt lat="48.72208" lon="1.78089">
        <ele>177.60000610352</ele>
        <time>2012-01-23T13:27:20.000Z</time>
      </trkpt>
      <trkpt lat="48.72208" lon="1.78073">
        <ele>177.60000610352</ele>
        <time>2012-01-23T13:27:28.000Z</time>
      </trkpt>
      <trkpt lat="48.72207" lon="1.78062">
        <ele>177.80000305176</ele>
        <time>2012-01-23T13:27:34.000Z</time>
      </trkpt>
      <trkpt lat="48.72208" lon="1.78055">
        <ele>177.80000305176</ele>
        <time>2012-01-23T13:27:38.000Z</time>
      </trkpt>
      <trkpt lat="48.72214" lon="1.78044">
        <ele>177.60000610352</ele>
        <time>2012-01-23T13:27:46.000Z</time>
      </trkpt>
      <trkpt lat="48.72221" lon="1.78036">
        <ele>177.19999694824</ele>
        <time>2012-01-23T13:27:52.000Z</time>
      </trkpt>
      <trkpt lat="48.72232" lon="1.78028">
        <ele>176.60000610352</ele>
        <time>2012-01-23T13:28:00.000Z</time>
      </trkpt>
      <trkpt lat="48.72233" lon="1.78026">
        <ele>176.60000610352</ele>
        <time>2012-01-23T13:28:02.000Z</time>
      </trkpt>
      <trkpt lat="48.72238" lon="1.78023">
        <ele>176.19999694824</ele>
        <time>2012-01-23T13:28:06.000Z</time>
      </trkpt>
      <trkpt lat="48.72249" lon="1.78016">
        <ele>175.60000610352</ele>
        <time>2012-01-23T13:28:15.000Z</time>
      </trkpt>
      <trkpt lat="48.72258" lon="1.7801">
        <ele>174.80000305176</ele>
        <time>2012-01-23T13:28:21.000Z</time>
      </trkpt>
      <trkpt lat="48.72269" lon="1.77996">
        <ele>173.60000610352</ele>
        <time>2012-01-23T13:28:30.000Z</time>
      </trkpt>
      <trkpt lat="48.72273" lon="1.77982">
        <ele>172.80000305176</ele>
        <time>2012-01-23T13:28:38.000Z</time>
      </trkpt>
      <trkpt lat="48.72275" lon="1.77964">
        <ele>172.19999694824</ele>
        <time>2012-01-23T13:28:46.000Z</time>
      </trkpt>
      <trkpt lat="48.72275" lon="1.77948">
        <ele>171.80000305176</ele>
        <time>2012-01-23T13:28:53.000Z</time>
      </trkpt>
      <trkpt lat="48.72269" lon="1.77933">
        <ele>172</ele>
        <time>2012-01-23T13:29:00.000Z</time>
      </trkpt>
      <trkpt lat="48.72263" lon="1.77919">
        <ele>172.39999389648</ele>
        <time>2012-01-23T13:29:08.000Z</time>
      </trkpt>
      <trkpt lat="48.72256" lon="1.77908">
        <ele>172.39999389648</ele>
        <time>2012-01-23T13:29:15.000Z</time>
      </trkpt>
      <trkpt lat="48.72244" lon="1.77897">
        <ele>172.39999389648</ele>
        <time>2012-01-23T13:29:24.000Z</time>
      </trkpt>
      <trkpt lat="48.72234" lon="1.77891">
        <ele>172.39999389648</ele>
        <time>2012-01-23T13:29:31.000Z</time>
      </trkpt>
      <trkpt lat="48.72225" lon="1.77883">
        <ele>172.39999389648</ele>
        <time>2012-01-23T13:29:39.000Z</time>
      </trkpt>
      <trkpt lat="48.72214" lon="1.77876">
        <ele>172.60000610352</ele>
        <time>2012-01-23T13:29:47.000Z</time>
      </trkpt>
      <trkpt lat="48.72207" lon="1.77869">
        <ele>172.60000610352</ele>
        <time>2012-01-23T13:29:53.000Z</time>
      </trkpt>
      <trkpt lat="48.72196" lon="1.77859">
        <ele>172.80000305176</ele>
        <time>2012-01-23T13:30:02.000Z</time>
      </trkpt>
      <trkpt lat="48.72188" lon="1.77852">
        <ele>173</ele>
        <time>2012-01-23T13:30:09.000Z</time>
      </trkpt>
      <trkpt lat="48.72178" lon="1.77843">
        <ele>173.39999389648</ele>
        <time>2012-01-23T13:30:17.000Z</time>
      </trkpt>
      <trkpt lat="48.7217" lon="1.77837">
        <ele>173.80000305176</ele>
        <time>2012-01-23T13:30:23.000Z</time>
      </trkpt>
      <trkpt lat="48.72158" lon="1.77825">
        <ele>173.80000305176</ele>
        <time>2012-01-23T13:30:33.000Z</time>
      </trkpt>
      <trkpt lat="48.72145" lon="1.77812">
        <ele>173.39999389648</ele>
        <time>2012-01-23T13:30:44.000Z</time>
      </trkpt>
      <trkpt lat="48.72143" lon="1.77811">
        <ele>173.39999389648</ele>
        <time>2012-01-23T13:30:46.000Z</time>
      </trkpt>
      <trkpt lat="48.7214" lon="1.77811">
        <ele>173.60000610352</ele>
        <time>2012-01-23T13:30:53.000Z</time>
      </trkpt>
      <trkpt lat="48.72135" lon="1.77806">
        <ele>173.60000610352</ele>
        <time>2012-01-23T13:31:09.000Z</time>
      </trkpt>
      <trkpt lat="48.72126" lon="1.77799">
        <ele>173.60000610352</ele>
        <time>2012-01-23T13:31:12.000Z</time>
      </trkpt>
      <trkpt lat="48.72115" lon="1.77795">
        <ele>174</ele>
        <time>2012-01-23T13:31:18.000Z</time>
      </trkpt>
      <trkpt lat="48.72102" lon="1.77787">
        <ele>174.39999389648</ele>
        <time>2012-01-23T13:31:28.000Z</time>
      </trkpt>
      <trkpt lat="48.72098" lon="1.77785">
        <ele>174.39999389648</ele>
        <time>2012-01-23T13:31:31.000Z</time>
      </trkpt>
      <trkpt lat="48.7209" lon="1.77782">
        <ele>174.80000305176</ele>
        <time>2012-01-23T13:31:38.000Z</time>
      </trkpt>
      <trkpt lat="48.72083" lon="1.77778">
        <ele>175</ele>
        <time>2012-01-23T13:31:45.000Z</time>
      </trkpt>
      <trkpt lat="48.7207" lon="1.77776">
        <ele>175.60000610352</ele>
        <time>2012-01-23T13:31:54.000Z</time>
      </trkpt>
      <trkpt lat="48.72058" lon="1.77773">
        <ele>176.19999694824</ele>
        <time>2012-01-23T13:32:03.000Z</time>
      </trkpt>
      <trkpt lat="48.72048" lon="1.77775">
        <ele>177</ele>
        <time>2012-01-23T13:32:10.000Z</time>
      </trkpt>
      <trkpt lat="48.72042" lon="1.77778">
        <ele>177.39999389648</ele>
        <time>2012-01-23T13:32:14.000Z</time>
      </trkpt>
      <trkpt lat="48.72034" lon="1.77788">
        <ele>178.60000610352</ele>
        <time>2012-01-23T13:32:22.000Z</time>
      </trkpt>
      <trkpt lat="48.72029" lon="1.77798">
        <ele>179.19999694824</ele>
        <time>2012-01-23T13:32:28.000Z</time>
      </trkpt>
      <trkpt lat="48.72022" lon="1.77807">
        <ele>180</ele>
        <time>2012-01-23T13:32:35.000Z</time>
      </trkpt>
      <trkpt lat="48.72019" lon="1.77816">
        <ele>180.60000610352</ele>
        <time>2012-01-23T13:32:39.000Z</time>
      </trkpt>
      <trkpt lat="48.72017" lon="1.77823">
        <ele>181</ele>
        <time>2012-01-23T13:32:43.000Z</time>
      </trkpt>
      <trkpt lat="48.7201" lon="1.77835">
        <ele>181.60000610352</ele>
        <time>2012-01-23T13:32:51.000Z</time>
      </trkpt>
      <trkpt lat="48.72007" lon="1.77842">
        <ele>182</ele>
        <time>2012-01-23T13:32:55.000Z</time>
      </trkpt>
      <trkpt lat="48.71999" lon="1.77853">
        <ele>182.80000305176</ele>
        <time>2012-01-23T13:33:03.000Z</time>
      </trkpt>
      <trkpt lat="48.71992" lon="1.7786">
        <ele>183.19999694824</ele>
        <time>2012-01-23T13:33:09.000Z</time>
      </trkpt>
      <trkpt lat="48.71981" lon="1.77869">
        <ele>183.80000305176</ele>
        <time>2012-01-23T13:33:17.000Z</time>
      </trkpt>
      <trkpt lat="48.71968" lon="1.77868">
        <ele>184.19999694824</ele>
        <time>2012-01-23T13:33:26.000Z</time>
      </trkpt>
      <trkpt lat="48.7196" lon="1.77859">
        <ele>184.19999694824</ele>
        <time>2012-01-23T13:33:33.000Z</time>
      </trkpt>
      <trkpt lat="48.71956" lon="1.77853">
        <ele>184.19999694824</ele>
        <time>2012-01-23T13:33:37.000Z</time>
      </trkpt>
      <trkpt lat="48.71948" lon="1.77837">
        <ele>184</ele>
        <time>2012-01-23T13:33:46.000Z</time>
      </trkpt>
      <trkpt lat="48.71944" lon="1.77826">
        <ele>183.80000305176</ele>
        <time>2012-01-23T13:33:52.000Z</time>
      </trkpt>
      <trkpt lat="48.71942" lon="1.77812">
        <ele>183.60000610352</ele>
        <time>2012-01-23T13:33:58.000Z</time>
      </trkpt>
      <trkpt lat="48.7194" lon="1.77792">
        <ele>183</ele>
        <time>2012-01-23T13:34:07.000Z</time>
      </trkpt>
      <trkpt lat="48.71938" lon="1.77781">
        <ele>182.80000305176</ele>
        <time>2012-01-23T13:34:12.000Z</time>
      </trkpt>
      <trkpt lat="48.71937" lon="1.77771">
        <ele>182.60000610352</ele>
        <time>2012-01-23T13:34:18.000Z</time>
      </trkpt>
      <trkpt lat="48.71937" lon="1.77767">
        <ele>182.39999389648</ele>
        <time>2012-01-23T13:34:22.000Z</time>
      </trkpt>
      <trkpt lat="48.71937" lon="1.77753">
        <ele>182.19999694824</ele>
        <time>2012-01-23T13:34:30.000Z</time>
      </trkpt>
      <trkpt lat="48.71933" lon="1.77738">
        <ele>181.80000305176</ele>
        <time>2012-01-23T13:34:39.000Z</time>
      </trkpt>
      <trkpt lat="48.71928" lon="1.77721">
        <ele>181.60000610352</ele>
        <time>2012-01-23T13:34:47.000Z</time>
      </trkpt>
      <trkpt lat="48.71922" lon="1.77706">
        <ele>181.60000610352</ele>
        <time>2012-01-23T13:34:54.000Z</time>
      </trkpt>
      <trkpt lat="48.71917" lon="1.77689">
        <ele>181.60000610352</ele>
        <time>2012-01-23T13:35:02.000Z</time>
      </trkpt>
      <trkpt lat="48.7191" lon="1.77674">
        <ele>181.19999694824</ele>
        <time>2012-01-23T13:35:10.000Z</time>
      </trkpt>
      <trkpt lat="48.71902" lon="1.77663">
        <ele>180.60000610352</ele>
        <time>2012-01-23T13:35:17.000Z</time>
      </trkpt>
      <trkpt lat="48.71893" lon="1.77651">
        <ele>179.80000305176</ele>
        <time>2012-01-23T13:35:25.000Z</time>
      </trkpt>
      <trkpt lat="48.71884" lon="1.77644">
        <ele>179.19999694824</ele>
        <time>2012-01-23T13:35:32.000Z</time>
      </trkpt>
      <trkpt lat="48.71872" lon="1.77635">
        <ele>178.60000610352</ele>
        <time>2012-01-23T13:35:40.000Z</time>
      </trkpt>
      <trkpt lat="48.71866" lon="1.77634">
        <ele>178.39999389648</ele>
        <time>2012-01-23T13:35:45.000Z</time>
      </trkpt>
      <trkpt lat="48.71856" lon="1.77639">
        <ele>178.60000610352</ele>
        <time>2012-01-23T13:35:52.000Z</time>
      </trkpt>
      <trkpt lat="48.7185" lon="1.77644">
        <ele>178.80000305176</ele>
        <time>2012-01-23T13:35:58.000Z</time>
      </trkpt>
      <trkpt lat="48.71843" lon="1.77651">
        <ele>179.19999694824</ele>
        <time>2012-01-23T13:36:04.000Z</time>
      </trkpt>
      <trkpt lat="48.71837" lon="1.77659">
        <ele>179.60000610352</ele>
        <time>2012-01-23T13:36:10.000Z</time>
      </trkpt>
      <trkpt lat="48.7183" lon="1.77668">
        <ele>179.60000610352</ele>
        <time>2012-01-23T13:36:16.000Z</time>
      </trkpt>
      <trkpt lat="48.71822" lon="1.77674">
        <ele>178.80000305176</ele>
        <time>2012-01-23T13:36:22.000Z</time>
      </trkpt>
      <trkpt lat="48.71811" lon="1.77684">
        <ele>178</ele>
        <time>2012-01-23T13:36:30.000Z</time>
      </trkpt>
      <trkpt lat="48.71802" lon="1.77694">
        <ele>177.39999389648</ele>
        <time>2012-01-23T13:36:38.000Z</time>
      </trkpt>
      <trkpt lat="48.71794" lon="1.77703">
        <ele>177.39999389648</ele>
        <time>2012-01-23T13:36:45.000Z</time>
      </trkpt>
      <trkpt lat="48.71794" lon="1.77707">
        <ele>177.60000610352</ele>
        <time>2012-01-23T13:36:47.000Z</time>
      </trkpt>
      <trkpt lat="48.71785" lon="1.77719">
        <ele>177.80000305176</ele>
        <time>2012-01-23T13:36:55.000Z</time>
      </trkpt>
      <trkpt lat="48.71775" lon="1.77729">
        <ele>177.80000305176</ele>
        <time>2012-01-23T13:37:03.000Z</time>
      </trkpt>
      <trkpt lat="48.71764" lon="1.7774">
        <ele>177.80000305176</ele>
        <time>2012-01-23T13:37:12.000Z</time>
      </trkpt>
      <trkpt lat="48.71754" lon="1.77746">
        <ele>177.80000305176</ele>
        <time>2012-01-23T13:37:20.000Z</time>
      </trkpt>
      <trkpt lat="48.71752" lon="1.77748">
        <ele>178</ele>
        <time>2012-01-23T13:37:22.000Z</time>
      </trkpt>
      <trkpt lat="48.71742" lon="1.77755">
        <ele>178.39999389648</ele>
        <time>2012-01-23T13:37:29.000Z</time>
      </trkpt>
      <trkpt lat="48.71733" lon="1.77762">
        <ele>179</ele>
        <time>2012-01-23T13:37:36.000Z</time>
      </trkpt>
      <trkpt lat="48.71722" lon="1.77769">
        <ele>179.39999389648</ele>
        <time>2012-01-23T13:37:44.000Z</time>
      </trkpt>
      <trkpt lat="48.71713" lon="1.77774">
        <ele>179.60000610352</ele>
        <time>2012-01-23T13:37:51.000Z</time>
      </trkpt>
      <trkpt lat="48.71703" lon="1.77773">
        <ele>179.80000305176</ele>
        <time>2012-01-23T13:37:58.000Z</time>
      </trkpt>
      <trkpt lat="48.71687" lon="1.77769">
        <ele>179.80000305176</ele>
        <time>2012-01-23T13:38:08.000Z</time>
      </trkpt>
      <trkpt lat="48.71677" lon="1.77762">
        <ele>179.80000305176</ele>
        <time>2012-01-23T13:38:16.000Z</time>
      </trkpt>
      <trkpt lat="48.71666" lon="1.77754">
        <ele>180</ele>
        <time>2012-01-23T13:38:24.000Z</time>
      </trkpt>
      <trkpt lat="48.71662" lon="1.7775">
        <ele>180</ele>
        <time>2012-01-23T13:38:28.000Z</time>
      </trkpt>
      <trkpt lat="48.71656" lon="1.77747">
        <ele>179.80000305176</ele>
        <time>2012-01-23T13:38:32.000Z</time>
      </trkpt>
      <trkpt lat="48.71644" lon="1.77741">
        <ele>179.60000610352</ele>
        <time>2012-01-23T13:38:40.000Z</time>
      </trkpt>
      <trkpt lat="48.71633" lon="1.77736">
        <ele>179.60000610352</ele>
        <time>2012-01-23T13:38:47.000Z</time>
      </trkpt>
      <trkpt lat="48.71622" lon="1.77731">
        <ele>179.39999389648</ele>
        <time>2012-01-23T13:38:55.000Z</time>
      </trkpt>
      <trkpt lat="48.71616" lon="1.77728">
        <ele>179.39999389648</ele>
        <time>2012-01-23T13:38:59.000Z</time>
      </trkpt>
      <trkpt lat="48.71606" lon="1.77721">
        <ele>179.39999389648</ele>
        <time>2012-01-23T13:39:07.000Z</time>
      </trkpt>
      <trkpt lat="48.71598" lon="1.77716">
        <ele>179.39999389648</ele>
        <time>2012-01-23T13:39:13.000Z</time>
      </trkpt>
      <trkpt lat="48.71589" lon="1.77711">
        <ele>179.39999389648</ele>
        <time>2012-01-23T13:39:20.000Z</time>
      </trkpt>
      <trkpt lat="48.7158" lon="1.77706">
        <ele>179.39999389648</ele>
        <time>2012-01-23T13:39:27.000Z</time>
      </trkpt>
      <trkpt lat="48.71567" lon="1.77705">
        <ele>178.39999389648</ele>
        <time>2012-01-23T13:39:34.000Z</time>
      </trkpt>
      <trkpt lat="48.71556" lon="1.77701">
        <ele>177.80000305176</ele>
        <time>2012-01-23T13:39:41.000Z</time>
      </trkpt>
      <trkpt lat="48.71547" lon="1.777">
        <ele>177</ele>
        <time>2012-01-23T13:39:47.000Z</time>
      </trkpt>
      <trkpt lat="48.71538" lon="1.77701">
        <ele>176.39999389648</ele>
        <time>2012-01-23T13:39:54.000Z</time>
      </trkpt>
      <trkpt lat="48.71525" lon="1.77709">
        <ele>175.60000610352</ele>
        <time>2012-01-23T13:40:03.000Z</time>
      </trkpt>
      <trkpt lat="48.71517" lon="1.77714">
        <ele>175.19999694824</ele>
        <time>2012-01-23T13:40:09.000Z</time>
      </trkpt>
      <trkpt lat="48.7151" lon="1.77718">
        <ele>174.80000305176</ele>
        <time>2012-01-23T13:40:14.000Z</time>
      </trkpt>
      <trkpt lat="48.71503" lon="1.77724">
        <ele>174.60000610352</ele>
        <time>2012-01-23T13:40:19.000Z</time>
      </trkpt>
      <trkpt lat="48.71491" lon="1.77733">
        <ele>174.19999694824</ele>
        <time>2012-01-23T13:40:26.000Z</time>
      </trkpt>
      <trkpt lat="48.71483" lon="1.77738">
        <ele>174.19999694824</ele>
        <time>2012-01-23T13:40:32.000Z</time>
      </trkpt>
      <trkpt lat="48.71476" lon="1.77742">
        <ele>174</ele>
        <time>2012-01-23T13:40:38.000Z</time>
      </trkpt>
      <trkpt lat="48.71464" lon="1.77749">
        <ele>173.60000610352</ele>
        <time>2012-01-23T13:40:46.000Z</time>
      </trkpt>
      <trkpt lat="48.71452" lon="1.77759">
        <ele>173.39999389648</ele>
        <time>2012-01-23T13:40:54.000Z</time>
      </trkpt>
      <trkpt lat="48.71446" lon="1.7777">
        <ele>173.39999389648</ele>
        <time>2012-01-23T13:41:01.000Z</time>
      </trkpt>
      <trkpt lat="48.71444" lon="1.77784">
        <ele>173.60000610352</ele>
        <time>2012-01-23T13:41:08.000Z</time>
      </trkpt>
      <trkpt lat="48.71444" lon="1.77788">
        <ele>173.60000610352</ele>
        <time>2012-01-23T13:41:10.000Z</time>
      </trkpt>
      <trkpt lat="48.71438" lon="1.77799">
        <ele>173.60000610352</ele>
        <time>2012-01-23T13:41:17.000Z</time>
      </trkpt>
      <trkpt lat="48.71437" lon="1.778">
        <ele>173.39999389648</ele>
        <time>2012-01-23T13:41:21.000Z</time>
      </trkpt>
      <trkpt lat="48.71433" lon="1.77806">
        <ele>173.39999389648</ele>
        <time>2012-01-23T13:41:27.000Z</time>
      </trkpt>
      <trkpt lat="48.7143" lon="1.77806">
        <ele>173.19999694824</ele>
        <time>2012-01-23T13:41:30.000Z</time>
      </trkpt>
      <trkpt lat="48.71427" lon="1.77807">
        <ele>173.19999694824</ele>
        <time>2012-01-23T13:41:37.000Z</time>
      </trkpt>
      <trkpt lat="48.71421" lon="1.7781">
        <ele>173</ele>
        <time>2012-01-23T13:41:53.000Z</time>
      </trkpt>
      <trkpt lat="48.71415" lon="1.77811">
        <ele>172.80000305176</ele>
        <time>2012-01-23T13:41:58.000Z</time>
      </trkpt>
      <trkpt lat="48.71413" lon="1.77811">
        <ele>172.80000305176</ele>
        <time>2012-01-23T13:42:00.000Z</time>
      </trkpt>
      <trkpt lat="48.71402" lon="1.7781">
        <ele>172.80000305176</ele>
        <time>2012-01-23T13:42:07.000Z</time>
      </trkpt>
      <trkpt lat="48.71392" lon="1.7781">
        <ele>172.80000305176</ele>
        <time>2012-01-23T13:42:15.000Z</time>
      </trkpt>
      <trkpt lat="48.71386" lon="1.77811">
        <ele>172.80000305176</ele>
        <time>2012-01-23T13:42:19.000Z</time>
      </trkpt>
      <trkpt lat="48.71375" lon="1.77813">
        <ele>172.80000305176</ele>
        <time>2012-01-23T13:42:27.000Z</time>
      </trkpt>
      <trkpt lat="48.71369" lon="1.77814">
        <ele>172.80000305176</ele>
        <time>2012-01-23T13:42:32.000Z</time>
      </trkpt>
      <trkpt lat="48.71357" lon="1.77817">
        <ele>172.80000305176</ele>
        <time>2012-01-23T13:42:40.000Z</time>
      </trkpt>
      <trkpt lat="48.71349" lon="1.77818">
        <ele>172.80000305176</ele>
        <time>2012-01-23T13:42:46.000Z</time>
      </trkpt>
      <trkpt lat="48.71339" lon="1.7782">
        <ele>172.80000305176</ele>
        <time>2012-01-23T13:42:52.000Z</time>
      </trkpt>
      <trkpt lat="48.71338" lon="1.7782">
        <ele>172.80000305176</ele>
        <time>2012-01-23T13:42:53.000Z</time>
      </trkpt>
      <trkpt lat="48.7133" lon="1.77822">
        <ele>172.80000305176</ele>
        <time>2012-01-23T13:42:59.000Z</time>
      </trkpt>
      <trkpt lat="48.71319" lon="1.77823">
        <ele>173</ele>
        <time>2012-01-23T13:43:07.000Z</time>
      </trkpt>
      <trkpt lat="48.71313" lon="1.77824">
        <ele>173</ele>
        <time>2012-01-23T13:43:12.000Z</time>
      </trkpt>
      <trkpt lat="48.71303" lon="1.77829">
        <ele>173.19999694824</ele>
        <time>2012-01-23T13:43:18.000Z</time>
      </trkpt>
      <trkpt lat="48.71293" lon="1.77831">
        <ele>173.39999389648</ele>
        <time>2012-01-23T13:43:25.000Z</time>
      </trkpt>
      <trkpt lat="48.71283" lon="1.7783">
        <ele>173.60000610352</ele>
        <time>2012-01-23T13:43:31.000Z</time>
      </trkpt>
      <trkpt lat="48.71271" lon="1.77828">
        <ele>173.60000610352</ele>
        <time>2012-01-23T13:43:38.000Z</time>
      </trkpt>
      <trkpt lat="48.71266" lon="1.77826">
        <ele>173.60000610352</ele>
        <time>2012-01-23T13:43:41.000Z</time>
      </trkpt>
      <trkpt lat="48.71255" lon="1.77826">
        <ele>173.80000305176</ele>
        <time>2012-01-23T13:43:48.000Z</time>
      </trkpt>
      <trkpt lat="48.71253" lon="1.77826">
        <ele>173.80000305176</ele>
        <time>2012-01-23T13:43:49.000Z</time>
      </trkpt>
      <trkpt lat="48.71244" lon="1.77824">
        <ele>173.39999389648</ele>
        <time>2012-01-23T13:43:54.000Z</time>
      </trkpt>
      <trkpt lat="48.71235" lon="1.77819">
        <ele>173</ele>
        <time>2012-01-23T13:44:01.000Z</time>
      </trkpt>
      <trkpt lat="48.71231" lon="1.77815">
        <ele>172.80000305176</ele>
        <time>2012-01-23T13:44:05.000Z</time>
      </trkpt>
      <trkpt lat="48.71229" lon="1.77813">
        <ele>172.60000610352</ele>
        <time>2012-01-23T13:44:06.000Z</time>
      </trkpt>
      <trkpt lat="48.71223" lon="1.7781">
        <ele>172.39999389648</ele>
        <time>2012-01-23T13:44:10.000Z</time>
      </trkpt>
      <trkpt lat="48.71214" lon="1.77805">
        <ele>171.80000305176</ele>
        <time>2012-01-23T13:44:17.000Z</time>
      </trkpt>
      <trkpt lat="48.71206" lon="1.778">
        <ele>171.60000610352</ele>
        <time>2012-01-23T13:44:23.000Z</time>
      </trkpt>
      <trkpt lat="48.71199" lon="1.77794">
        <ele>171.19999694824</ele>
        <time>2012-01-23T13:44:28.000Z</time>
      </trkpt>
      <trkpt lat="48.71191" lon="1.77788">
        <ele>170.80000305176</ele>
        <time>2012-01-23T13:44:33.000Z</time>
      </trkpt>
      <trkpt lat="48.71181" lon="1.77783">
        <ele>170.39999389648</ele>
        <time>2012-01-23T13:44:40.000Z</time>
      </trkpt>
      <trkpt lat="48.71171" lon="1.77778">
        <ele>170.19999694824</ele>
        <time>2012-01-23T13:44:47.000Z</time>
      </trkpt>
      <trkpt lat="48.71168" lon="1.77777">
        <ele>170</ele>
        <time>2012-01-23T13:44:49.000Z</time>
      </trkpt>
      <trkpt lat="48.71161" lon="1.77773">
        <ele>170</ele>
        <time>2012-01-23T13:44:54.000Z</time>
      </trkpt>
      <trkpt lat="48.71149" lon="1.77768">
        <ele>169.80000305176</ele>
        <time>2012-01-23T13:45:01.000Z</time>
      </trkpt>
      <trkpt lat="48.71144" lon="1.77766">
        <ele>169.80000305176</ele>
        <time>2012-01-23T13:45:04.000Z</time>
      </trkpt>
      <trkpt lat="48.71139" lon="1.77763">
        <ele>169.80000305176</ele>
        <time>2012-01-23T13:45:08.000Z</time>
      </trkpt>
      <trkpt lat="48.71129" lon="1.7776">
        <ele>169.60000610352</ele>
        <time>2012-01-23T13:45:14.000Z</time>
      </trkpt>
      <trkpt lat="48.71121" lon="1.77757">
        <ele>169.60000610352</ele>
        <time>2012-01-23T13:45:20.000Z</time>
      </trkpt>
      <trkpt lat="48.71114" lon="1.77757">
        <ele>169.39999389648</ele>
        <time>2012-01-23T13:45:26.000Z</time>
      </trkpt>
      <trkpt lat="48.71106" lon="1.77759">
        <ele>169.39999389648</ele>
        <time>2012-01-23T13:45:32.000Z</time>
      </trkpt>
      <trkpt lat="48.71105" lon="1.77759">
        <ele>169.39999389648</ele>
        <time>2012-01-23T13:45:33.000Z</time>
      </trkpt>
      <trkpt lat="48.71093" lon="1.77761">
        <ele>169.19999694824</ele>
        <time>2012-01-23T13:45:40.000Z</time>
      </trkpt>
      <trkpt lat="48.71089" lon="1.77752">
        <ele>169</ele>
        <time>2012-01-23T13:45:44.000Z</time>
      </trkpt>
      <trkpt lat="48.71081" lon="1.77738">
        <ele>169.19999694824</ele>
        <time>2012-01-23T13:45:51.000Z</time>
      </trkpt>
      <trkpt lat="48.71072" lon="1.77722">
        <ele>169.60000610352</ele>
        <time>2012-01-23T13:45:57.000Z</time>
      </trkpt>
      <trkpt lat="48.71061" lon="1.77694">
        <ele>170.19999694824</ele>
        <time>2012-01-23T13:46:03.000Z</time>
      </trkpt>
      <trkpt lat="48.7105" lon="1.77667">
        <ele>170.80000305176</ele>
        <time>2012-01-23T13:46:08.000Z</time>
      </trkpt>
      <trkpt lat="48.71039" lon="1.77638">
        <ele>171.39999389648</ele>
        <time>2012-01-23T13:46:13.000Z</time>
      </trkpt>
      <trkpt lat="48.71024" lon="1.77596">
        <ele>172</ele>
        <time>2012-01-23T13:46:20.000Z</time>
      </trkpt>
      <trkpt lat="48.71006" lon="1.77551">
        <ele>172.80000305176</ele>
        <time>2012-01-23T13:46:27.000Z</time>
      </trkpt>
      <trkpt lat="48.70996" lon="1.77526">
        <ele>173.39999389648</ele>
        <time>2012-01-23T13:46:31.000Z</time>
      </trkpt>
      <trkpt lat="48.70975" lon="1.77472">
        <ele>174.80000305176</ele>
        <time>2012-01-23T13:46:39.000Z</time>
      </trkpt>
      <trkpt lat="48.70964" lon="1.77446">
        <ele>175.39999389648</ele>
        <time>2012-01-23T13:46:43.000Z</time>
      </trkpt>
      <trkpt lat="48.70946" lon="1.77407">
        <ele>176</ele>
        <time>2012-01-23T13:46:49.000Z</time>
      </trkpt>
      <trkpt lat="48.70929" lon="1.77375">
        <ele>176.60000610352</ele>
        <time>2012-01-23T13:46:55.000Z</time>
      </trkpt>
      <trkpt lat="48.7092" lon="1.7736">
        <ele>177</ele>
        <time>2012-01-23T13:46:58.000Z</time>
      </trkpt>
      <trkpt lat="48.70914" lon="1.77351">
        <ele>177.39999389648</ele>
        <time>2012-01-23T13:47:00.000Z</time>
      </trkpt>
      <trkpt lat="48.70893" lon="1.77303">
        <ele>176.80000305176</ele>
        <time>2012-01-23T13:47:09.000Z</time>
      </trkpt>
      <trkpt lat="48.70887" lon="1.77281">
        <ele>176.19999694824</ele>
        <time>2012-01-23T13:47:14.000Z</time>
      </trkpt>
      <trkpt lat="48.70883" lon="1.77267">
        <ele>176</ele>
        <time>2012-01-23T13:47:20.000Z</time>
      </trkpt>
      <trkpt lat="48.70878" lon="1.77257">
        <ele>175.60000610352</ele>
        <time>2012-01-23T13:47:26.000Z</time>
      </trkpt>
      <trkpt lat="48.70875" lon="1.77255">
        <ele>175.60000610352</ele>
        <time>2012-01-23T13:47:28.000Z</time>
      </trkpt>
      <trkpt lat="48.70868" lon="1.77252">
        <ele>175.39999389648</ele>
        <time>2012-01-23T13:47:32.000Z</time>
      </trkpt>
      <trkpt lat="48.7086" lon="1.77248">
        <ele>175.19999694824</ele>
        <time>2012-01-23T13:47:39.000Z</time>
      </trkpt>
      <trkpt lat="48.70852" lon="1.77248">
        <ele>175.19999694824</ele>
        <time>2012-01-23T13:47:45.000Z</time>
      </trkpt>
      <trkpt lat="48.70849" lon="1.77247">
        <ele>175</ele>
        <time>2012-01-23T13:47:47.000Z</time>
      </trkpt>
      <trkpt lat="48.70842" lon="1.77249">
        <ele>175</ele>
        <time>2012-01-23T13:47:51.000Z</time>
      </trkpt>
      <trkpt lat="48.7083" lon="1.77246">
        <ele>174.80000305176</ele>
        <time>2012-01-23T13:47:59.000Z</time>
      </trkpt>
      <trkpt lat="48.70821" lon="1.77246">
        <ele>175</ele>
        <time>2012-01-23T13:48:05.000Z</time>
      </trkpt>
      <trkpt lat="48.70812" lon="1.77247">
        <ele>175.19999694824</ele>
        <time>2012-01-23T13:48:11.000Z</time>
      </trkpt>
      <trkpt lat="48.70801" lon="1.77249">
        <ele>175.39999389648</ele>
        <time>2012-01-23T13:48:17.000Z</time>
      </trkpt>
      <trkpt lat="48.708" lon="1.77249">
        <ele>175.39999389648</ele>
        <time>2012-01-23T13:48:18.000Z</time>
      </trkpt>
      <trkpt lat="48.70791" lon="1.77251">
        <ele>175.60000610352</ele>
        <time>2012-01-23T13:48:23.000Z</time>
      </trkpt>
      <trkpt lat="48.7078" lon="1.77247">
        <ele>175.60000610352</ele>
        <time>2012-01-23T13:48:31.000Z</time>
      </trkpt>
      <trkpt lat="48.70772" lon="1.77247">
        <ele>175.60000610352</ele>
        <time>2012-01-23T13:48:36.000Z</time>
      </trkpt>
      <trkpt lat="48.7076" lon="1.77252">
        <ele>175.80000305176</ele>
        <time>2012-01-23T13:48:43.000Z</time>
      </trkpt>
      <trkpt lat="48.70758" lon="1.77252">
        <ele>176</ele>
        <time>2012-01-23T13:48:45.000Z</time>
      </trkpt>
      <trkpt lat="48.70746" lon="1.77255">
        <ele>176</ele>
        <time>2012-01-23T13:48:52.000Z</time>
      </trkpt>
      <trkpt lat="48.70735" lon="1.77255">
        <ele>176.19999694824</ele>
        <time>2012-01-23T13:49:00.000Z</time>
      </trkpt>
      <trkpt lat="48.70725" lon="1.77257">
        <ele>176.39999389648</ele>
        <time>2012-01-23T13:49:06.000Z</time>
      </trkpt>
      <trkpt lat="48.70713" lon="1.77257">
        <ele>176.60000610352</ele>
        <time>2012-01-23T13:49:13.000Z</time>
      </trkpt>
      <trkpt lat="48.70701" lon="1.77256">
        <ele>176.60000610352</ele>
        <time>2012-01-23T13:49:21.000Z</time>
      </trkpt>
      <trkpt lat="48.70694" lon="1.77256">
        <ele>176.80000305176</ele>
        <time>2012-01-23T13:49:26.000Z</time>
      </trkpt>
      <trkpt lat="48.70685" lon="1.77256">
        <ele>176.80000305176</ele>
        <time>2012-01-23T13:49:32.000Z</time>
      </trkpt>
      <trkpt lat="48.70674" lon="1.77255">
        <ele>177</ele>
        <time>2012-01-23T13:49:40.000Z</time>
      </trkpt>
      <trkpt lat="48.70661" lon="1.77253">
        <ele>177.39999389648</ele>
        <time>2012-01-23T13:49:48.000Z</time>
      </trkpt>
      <trkpt lat="48.70649" lon="1.77253">
        <ele>177.80000305176</ele>
        <time>2012-01-23T13:49:55.000Z</time>
      </trkpt>
      <trkpt lat="48.7064" lon="1.77251">
        <ele>178.19999694824</ele>
        <time>2012-01-23T13:50:00.000Z</time>
      </trkpt>
      <trkpt lat="48.70634" lon="1.77251">
        <ele>178.60000610352</ele>
        <time>2012-01-23T13:50:04.000Z</time>
      </trkpt>
      <trkpt lat="48.70623" lon="1.77249">
        <ele>179</ele>
        <time>2012-01-23T13:50:11.000Z</time>
      </trkpt>
      <trkpt lat="48.70616" lon="1.77248">
        <ele>179.39999389648</ele>
        <time>2012-01-23T13:50:17.000Z</time>
      </trkpt>
      <trkpt lat="48.70602" lon="1.77246">
        <ele>179.80000305176</ele>
        <time>2012-01-23T13:50:25.000Z</time>
      </trkpt>
      <trkpt lat="48.70588" lon="1.77245">
        <ele>180.39999389648</ele>
        <time>2012-01-23T13:50:33.000Z</time>
      </trkpt>
      <trkpt lat="48.70577" lon="1.77244">
        <ele>180.60000610352</ele>
        <time>2012-01-23T13:50:40.000Z</time>
      </trkpt>
      <trkpt lat="48.70566" lon="1.77244">
        <ele>181</ele>
        <time>2012-01-23T13:50:47.000Z</time>
      </trkpt>
      <trkpt lat="48.70556" lon="1.77242">
        <ele>181</ele>
        <time>2012-01-23T13:50:53.000Z</time>
      </trkpt>
      <trkpt lat="48.70551" lon="1.77241">
        <ele>181</ele>
        <time>2012-01-23T13:50:56.000Z</time>
      </trkpt>
      <trkpt lat="48.70541" lon="1.77241">
        <ele>181.39999389648</ele>
        <time>2012-01-23T13:51:03.000Z</time>
      </trkpt>
      <trkpt lat="48.70532" lon="1.77239">
        <ele>181.39999389648</ele>
        <time>2012-01-23T13:51:09.000Z</time>
      </trkpt>
      <trkpt lat="48.70523" lon="1.77238">
        <ele>181.39999389648</ele>
        <time>2012-01-23T13:51:14.000Z</time>
      </trkpt>
      <trkpt lat="48.70513" lon="1.77238">
        <ele>181.80000305176</ele>
        <time>2012-01-23T13:51:20.000Z</time>
      </trkpt>
      <trkpt lat="48.70503" lon="1.77236">
        <ele>181.80000305176</ele>
        <time>2012-01-23T13:51:27.000Z</time>
      </trkpt>
      <trkpt lat="48.70494" lon="1.77236">
        <ele>181.80000305176</ele>
        <time>2012-01-23T13:51:32.000Z</time>
      </trkpt>
      <trkpt lat="48.70481" lon="1.77236">
        <ele>181.60000610352</ele>
        <time>2012-01-23T13:51:39.000Z</time>
      </trkpt>
      <trkpt lat="48.70471" lon="1.77236">
        <ele>181.39999389648</ele>
        <time>2012-01-23T13:51:45.000Z</time>
      </trkpt>
      <trkpt lat="48.7046" lon="1.77234">
        <ele>181.19999694824</ele>
        <time>2012-01-23T13:51:52.000Z</time>
      </trkpt>
      <trkpt lat="48.70453" lon="1.77235">
        <ele>181.19999694824</ele>
        <time>2012-01-23T13:51:56.000Z</time>
      </trkpt>
      <trkpt lat="48.70435" lon="1.77244">
        <ele>181.19999694824</ele>
        <time>2012-01-23T13:52:07.000Z</time>
      </trkpt>
      <trkpt lat="48.70424" lon="1.7725">
        <ele>181.19999694824</ele>
        <time>2012-01-23T13:52:14.000Z</time>
      </trkpt>
      <trkpt lat="48.70411" lon="1.7726">
        <ele>181.19999694824</ele>
        <time>2012-01-23T13:52:22.000Z</time>
      </trkpt>
      <trkpt lat="48.70405" lon="1.77266">
        <ele>181.19999694824</ele>
        <time>2012-01-23T13:52:27.000Z</time>
      </trkpt>
      <trkpt lat="48.70396" lon="1.77274">
        <ele>181.19999694824</ele>
        <time>2012-01-23T13:52:33.000Z</time>
      </trkpt>
      <trkpt lat="48.70387" lon="1.77284">
        <ele>181.39999389648</ele>
        <time>2012-01-23T13:52:40.000Z</time>
      </trkpt>
      <trkpt lat="48.70379" lon="1.77288">
        <ele>181.19999694824</ele>
        <time>2012-01-23T13:52:46.000Z</time>
      </trkpt>
      <trkpt lat="48.70373" lon="1.7728">
        <ele>181</ele>
        <time>2012-01-23T13:52:51.000Z</time>
      </trkpt>
      <trkpt lat="48.70371" lon="1.77263">
        <ele>180.60000610352</ele>
        <time>2012-01-23T13:52:57.000Z</time>
      </trkpt>
      <trkpt lat="48.70368" lon="1.77244">
        <ele>180.39999389648</ele>
        <time>2012-01-23T13:53:04.000Z</time>
      </trkpt>
      <trkpt lat="48.70365" lon="1.77229">
        <ele>180.60000610352</ele>
        <time>2012-01-23T13:53:10.000Z</time>
      </trkpt>
      <trkpt lat="48.70364" lon="1.77213">
        <ele>180.60000610352</ele>
        <time>2012-01-23T13:53:16.000Z</time>
      </trkpt>
      <trkpt lat="48.70362" lon="1.77197">
        <ele>180.80000305176</ele>
        <time>2012-01-23T13:53:23.000Z</time>
      </trkpt>
      <trkpt lat="48.7036" lon="1.77188">
        <ele>180.80000305176</ele>
        <time>2012-01-23T13:53:27.000Z</time>
      </trkpt>
      <trkpt lat="48.70358" lon="1.77169">
        <ele>181</ele>
        <time>2012-01-23T13:53:35.000Z</time>
      </trkpt>
      <trkpt lat="48.70356" lon="1.77153">
        <ele>181.19999694824</ele>
        <time>2012-01-23T13:53:42.000Z</time>
      </trkpt>
      <trkpt lat="48.70355" lon="1.77151">
        <ele>181.19999694824</ele>
        <time>2012-01-23T13:53:43.000Z</time>
      </trkpt>
      <trkpt lat="48.70355" lon="1.77138">
        <ele>181.19999694824</ele>
        <time>2012-01-23T13:53:49.000Z</time>
      </trkpt>
      <trkpt lat="48.70353" lon="1.77127">
        <ele>181.19999694824</ele>
        <time>2012-01-23T13:53:55.000Z</time>
      </trkpt>
      <trkpt lat="48.70351" lon="1.77102">
        <ele>181.19999694824</ele>
        <time>2012-01-23T13:54:06.000Z</time>
      </trkpt>
      <trkpt lat="48.70349" lon="1.7709">
        <ele>181.19999694824</ele>
        <time>2012-01-23T13:54:11.000Z</time>
      </trkpt>
      <trkpt lat="48.70346" lon="1.77068">
        <ele>181.39999389648</ele>
        <time>2012-01-23T13:54:20.000Z</time>
      </trkpt>
      <trkpt lat="48.70345" lon="1.77051">
        <ele>181.39999389648</ele>
        <time>2012-01-23T13:54:28.000Z</time>
      </trkpt>
      <trkpt lat="48.70343" lon="1.77035">
        <ele>181.60000610352</ele>
        <time>2012-01-23T13:54:36.000Z</time>
      </trkpt>
      <trkpt lat="48.70341" lon="1.77013">
        <ele>181.60000610352</ele>
        <time>2012-01-23T13:54:47.000Z</time>
      </trkpt>
      <trkpt lat="48.7034" lon="1.76998">
        <ele>181.60000610352</ele>
        <time>2012-01-23T13:54:54.000Z</time>
      </trkpt>
      <trkpt lat="48.70338" lon="1.76981">
        <ele>181.39999389648</ele>
        <time>2012-01-23T13:55:02.000Z</time>
      </trkpt>
      <trkpt lat="48.70338" lon="1.76974">
        <ele>181.19999694824</ele>
        <time>2012-01-23T13:55:08.000Z</time>
      </trkpt>
      <trkpt lat="48.70335" lon="1.76964">
        <ele>181.19999694824</ele>
        <time>2012-01-23T13:55:23.000Z</time>
      </trkpt>
      <trkpt lat="48.70334" lon="1.76956">
        <ele>181</ele>
        <time>2012-01-23T13:55:26.000Z</time>
      </trkpt>
      <trkpt lat="48.70335" lon="1.76937">
        <ele>180.60000610352</ele>
        <time>2012-01-23T13:55:35.000Z</time>
      </trkpt>
      <trkpt lat="48.70336" lon="1.76923">
        <ele>180.19999694824</ele>
        <time>2012-01-23T13:55:41.000Z</time>
      </trkpt>
      <trkpt lat="48.70335" lon="1.76905">
        <ele>180</ele>
        <time>2012-01-23T13:55:49.000Z</time>
      </trkpt>
      <trkpt lat="48.70334" lon="1.76885">
        <ele>179.60000610352</ele>
        <time>2012-01-23T13:55:58.000Z</time>
      </trkpt>
      <trkpt lat="48.70333" lon="1.76856">
        <ele>179.19999694824</ele>
        <time>2012-01-23T13:56:11.000Z</time>
      </trkpt>
      <trkpt lat="48.70332" lon="1.76829">
        <ele>179</ele>
        <time>2012-01-23T13:56:23.000Z</time>
      </trkpt>
      <trkpt lat="48.70331" lon="1.76804">
        <ele>178.60000610352</ele>
        <time>2012-01-23T13:56:34.000Z</time>
      </trkpt>
      <trkpt lat="48.70331" lon="1.76771">
        <ele>178.39999389648</ele>
        <time>2012-01-23T13:56:48.000Z</time>
      </trkpt>
      <trkpt lat="48.7033" lon="1.76742">
        <ele>178</ele>
        <time>2012-01-23T13:57:00.000Z</time>
      </trkpt>
      <trkpt lat="48.7033" lon="1.76724">
        <ele>178</ele>
        <time>2012-01-23T13:57:08.000Z</time>
      </trkpt>
      <trkpt lat="48.70329" lon="1.76705">
        <ele>178.19999694824</ele>
        <time>2012-01-23T13:57:16.000Z</time>
      </trkpt>
      <trkpt lat="48.70328" lon="1.76688">
        <ele>178.19999694824</ele>
        <time>2012-01-23T13:57:24.000Z</time>
      </trkpt>
      <trkpt lat="48.70327" lon="1.7667">
        <ele>178.19999694824</ele>
        <time>2012-01-23T13:57:32.000Z</time>
      </trkpt>
      <trkpt lat="48.70326" lon="1.76656">
        <ele>178.19999694824</ele>
        <time>2012-01-23T13:57:39.000Z</time>
      </trkpt>
      <trkpt lat="48.70326" lon="1.76653">
        <ele>178.39999389648</ele>
        <time>2012-01-23T13:57:41.000Z</time>
      </trkpt>
      <trkpt lat="48.70331" lon="1.76641">
        <ele>178.39999389648</ele>
        <time>2012-01-23T13:57:49.000Z</time>
      </trkpt>
      <trkpt lat="48.7034" lon="1.76632">
        <ele>178.60000610352</ele>
        <time>2012-01-23T13:57:57.000Z</time>
      </trkpt>
      <trkpt lat="48.70347" lon="1.76625">
        <ele>178.80000305176</ele>
        <time>2012-01-23T13:58:03.000Z</time>
      </trkpt>
      <trkpt lat="48.70357" lon="1.76618">
        <ele>179.19999694824</ele>
        <time>2012-01-23T13:58:10.000Z</time>
      </trkpt>
      <trkpt lat="48.70367" lon="1.76612">
        <ele>179.39999389648</ele>
        <time>2012-01-23T13:58:18.000Z</time>
      </trkpt>
      <trkpt lat="48.70376" lon="1.76607">
        <ele>179.80000305176</ele>
        <time>2012-01-23T13:58:24.000Z</time>
      </trkpt>
      <trkpt lat="48.70384" lon="1.76602">
        <ele>180</ele>
        <time>2012-01-23T13:58:30.000Z</time>
      </trkpt>
      <trkpt lat="48.70392" lon="1.76598">
        <ele>180.19999694824</ele>
        <time>2012-01-23T13:58:36.000Z</time>
      </trkpt>
      <trkpt lat="48.70405" lon="1.76591">
        <ele>180.60000610352</ele>
        <time>2012-01-23T13:58:45.000Z</time>
      </trkpt>
      <trkpt lat="48.70413" lon="1.76587">
        <ele>180.80000305176</ele>
        <time>2012-01-23T13:58:51.000Z</time>
      </trkpt>
      <trkpt lat="48.70421" lon="1.76583">
        <ele>180.80000305176</ele>
        <time>2012-01-23T13:58:56.000Z</time>
      </trkpt>
      <trkpt lat="48.70429" lon="1.76577">
        <ele>180.39999389648</ele>
        <time>2012-01-23T13:59:02.000Z</time>
      </trkpt>
      <trkpt lat="48.70435" lon="1.76563">
        <ele>180</ele>
        <time>2012-01-23T13:59:09.000Z</time>
      </trkpt>
      <trkpt lat="48.70438" lon="1.76557">
        <ele>180</ele>
        <time>2012-01-23T13:59:12.000Z</time>
      </trkpt>
      <trkpt lat="48.70439" lon="1.76553">
        <ele>179.80000305176</ele>
        <time>2012-01-23T13:59:16.000Z</time>
      </trkpt>
      <trkpt lat="48.70442" lon="1.76544">
        <ele>179.60000610352</ele>
        <time>2012-01-23T13:59:25.000Z</time>
      </trkpt>
      <trkpt lat="48.70444" lon="1.76535">
        <ele>179.60000610352</ele>
        <time>2012-01-23T13:59:28.000Z</time>
      </trkpt>
      <trkpt lat="48.70446" lon="1.7652">
        <ele>179.39999389648</ele>
        <time>2012-01-23T13:59:35.000Z</time>
      </trkpt>
      <trkpt lat="48.70446" lon="1.76512">
        <ele>179.19999694824</ele>
        <time>2012-01-23T13:59:39.000Z</time>
      </trkpt>
      <trkpt lat="48.7045" lon="1.76499">
        <ele>179</ele>
        <time>2012-01-23T13:59:45.000Z</time>
      </trkpt>
      <trkpt lat="48.7045" lon="1.76491">
        <ele>178.80000305176</ele>
        <time>2012-01-23T13:59:49.000Z</time>
      </trkpt>
      <trkpt lat="48.70453" lon="1.76478">
        <ele>178.19999694824</ele>
        <time>2012-01-23T13:59:55.000Z</time>
      </trkpt>
      <trkpt lat="48.70457" lon="1.76457">
        <ele>177.60000610352</ele>
        <time>2012-01-23T14:00:03.000Z</time>
      </trkpt>
      <trkpt lat="48.7046" lon="1.76439">
        <ele>177</ele>
        <time>2012-01-23T14:00:11.000Z</time>
      </trkpt>
      <trkpt lat="48.70462" lon="1.76428">
        <ele>176.60000610352</ele>
        <time>2012-01-23T14:00:16.000Z</time>
      </trkpt>
      <trkpt lat="48.70461" lon="1.76414">
        <ele>176.19999694824</ele>
        <time>2012-01-23T14:00:23.000Z</time>
      </trkpt>
      <trkpt lat="48.70456" lon="1.76396">
        <ele>175.60000610352</ele>
        <time>2012-01-23T14:00:31.000Z</time>
      </trkpt>
      <trkpt lat="48.70454" lon="1.76381">
        <ele>175</ele>
        <time>2012-01-23T14:00:38.000Z</time>
      </trkpt>
      <trkpt lat="48.70452" lon="1.76365">
        <ele>174.19999694824</ele>
        <time>2012-01-23T14:00:45.000Z</time>
      </trkpt>
      <trkpt lat="48.70449" lon="1.76351">
        <ele>173.60000610352</ele>
        <time>2012-01-23T14:00:51.000Z</time>
      </trkpt>
      <trkpt lat="48.70449" lon="1.76335">
        <ele>173</ele>
        <time>2012-01-23T14:00:58.000Z</time>
      </trkpt>
      <trkpt lat="48.70448" lon="1.76322">
        <ele>172.80000305176</ele>
        <time>2012-01-23T14:01:04.000Z</time>
      </trkpt>
      <trkpt lat="48.70448" lon="1.76303">
        <ele>172.80000305176</ele>
        <time>2012-01-23T14:01:11.000Z</time>
      </trkpt>
      <trkpt lat="48.70448" lon="1.76294">
        <ele>172.60000610352</ele>
        <time>2012-01-23T14:01:15.000Z</time>
      </trkpt>
      <trkpt lat="48.70453" lon="1.76273">
        <ele>172.39999389648</ele>
        <time>2012-01-23T14:01:25.000Z</time>
      </trkpt>
      <trkpt lat="48.70457" lon="1.76258">
        <ele>172.19999694824</ele>
        <time>2012-01-23T14:01:32.000Z</time>
      </trkpt>
      <trkpt lat="48.70458" lon="1.76247">
        <ele>172</ele>
        <time>2012-01-23T14:01:37.000Z</time>
      </trkpt>
      <trkpt lat="48.7046" lon="1.76225">
        <ele>172.60000610352</ele>
        <time>2012-01-23T14:01:45.000Z</time>
      </trkpt>
      <trkpt lat="48.70457" lon="1.7621">
        <ele>173</ele>
        <time>2012-01-23T14:01:51.000Z</time>
      </trkpt>
      <trkpt lat="48.70457" lon="1.76207">
        <ele>173.19999694824</ele>
        <time>2012-01-23T14:01:52.000Z</time>
      </trkpt>
      <trkpt lat="48.70455" lon="1.76189">
        <ele>173.60000610352</ele>
        <time>2012-01-23T14:01:59.000Z</time>
      </trkpt>
      <trkpt lat="48.70452" lon="1.76164">
        <ele>174.39999389648</ele>
        <time>2012-01-23T14:02:08.000Z</time>
      </trkpt>
      <trkpt lat="48.70454" lon="1.76143">
        <ele>174.60000610352</ele>
        <time>2012-01-23T14:02:17.000Z</time>
      </trkpt>
      <trkpt lat="48.70454" lon="1.76138">
        <ele>174.60000610352</ele>
        <time>2012-01-23T14:02:20.000Z</time>
      </trkpt>
      <trkpt lat="48.70457" lon="1.76121">
        <ele>174.60000610352</ele>
        <time>2012-01-23T14:02:27.000Z</time>
      </trkpt>
      <trkpt lat="48.70461" lon="1.76105">
        <ele>174.60000610352</ele>
        <time>2012-01-23T14:02:34.000Z</time>
      </trkpt>
      <trkpt lat="48.70466" lon="1.7609">
        <ele>174.60000610352</ele>
        <time>2012-01-23T14:02:41.000Z</time>
      </trkpt>
      <trkpt lat="48.70471" lon="1.76074">
        <ele>175</ele>
        <time>2012-01-23T14:02:49.000Z</time>
      </trkpt>
      <trkpt lat="48.70474" lon="1.7606">
        <ele>175.60000610352</ele>
        <time>2012-01-23T14:02:57.000Z</time>
      </trkpt>
      <trkpt lat="48.70474" lon="1.76054">
        <ele>175.80000305176</ele>
        <time>2012-01-23T14:03:00.000Z</time>
      </trkpt>
      <trkpt lat="48.70477" lon="1.76032">
        <ele>177</ele>
        <time>2012-01-23T14:03:10.000Z</time>
      </trkpt>
      <trkpt lat="48.70478" lon="1.76026">
        <ele>177.39999389648</ele>
        <time>2012-01-23T14:03:13.000Z</time>
      </trkpt>
      <trkpt lat="48.70481" lon="1.76013">
        <ele>178</ele>
        <time>2012-01-23T14:03:20.000Z</time>
      </trkpt>
      <trkpt lat="48.70482" lon="1.76007">
        <ele>178.19999694824</ele>
        <time>2012-01-23T14:03:23.000Z</time>
      </trkpt>
      <trkpt lat="48.70484" lon="1.76001">
        <ele>178.39999389648</ele>
        <time>2012-01-23T14:03:26.000Z</time>
      </trkpt>
      <trkpt lat="48.70488" lon="1.75993">
        <ele>178.80000305176</ele>
        <time>2012-01-23T14:03:31.000Z</time>
      </trkpt>
      <trkpt lat="48.70494" lon="1.75977">
        <ele>179.39999389648</ele>
        <time>2012-01-23T14:03:40.000Z</time>
      </trkpt>
      <trkpt lat="48.705" lon="1.75964">
        <ele>179.80000305176</ele>
        <time>2012-01-23T14:03:48.000Z</time>
      </trkpt>
      <trkpt lat="48.70507" lon="1.75955">
        <ele>179.80000305176</ele>
        <time>2012-01-23T14:03:55.000Z</time>
      </trkpt>
      <trkpt lat="48.70512" lon="1.75945">
        <ele>179.80000305176</ele>
        <time>2012-01-23T14:04:01.000Z</time>
      </trkpt>
      <trkpt lat="48.70519" lon="1.75937">
        <ele>179.60000610352</ele>
        <time>2012-01-23T14:04:08.000Z</time>
      </trkpt>
      <trkpt lat="48.70525" lon="1.75929">
        <ele>179.60000610352</ele>
        <time>2012-01-23T14:04:13.000Z</time>
      </trkpt>
      <trkpt lat="48.7053" lon="1.75922">
        <ele>179.60000610352</ele>
        <time>2012-01-23T14:04:17.000Z</time>
      </trkpt>
      <trkpt lat="48.70537" lon="1.75907">
        <ele>179.39999389648</ele>
        <time>2012-01-23T14:04:25.000Z</time>
      </trkpt>
      <trkpt lat="48.70539" lon="1.75902">
        <ele>179.39999389648</ele>
        <time>2012-01-23T14:04:28.000Z</time>
      </trkpt>
      <trkpt lat="48.70542" lon="1.75897">
        <ele>179.19999694824</ele>
        <time>2012-01-23T14:04:31.000Z</time>
      </trkpt>
      <trkpt lat="48.70545" lon="1.7589">
        <ele>179</ele>
        <time>2012-01-23T14:04:35.000Z</time>
      </trkpt>
      <trkpt lat="48.70551" lon="1.75873">
        <ele>178.80000305176</ele>
        <time>2012-01-23T14:04:43.000Z</time>
      </trkpt>
      <trkpt lat="48.70556" lon="1.75858">
        <ele>178.39999389648</ele>
        <time>2012-01-23T14:04:50.000Z</time>
      </trkpt>
      <trkpt lat="48.70559" lon="1.7585">
        <ele>178.19999694824</ele>
        <time>2012-01-23T14:04:54.000Z</time>
      </trkpt>
      <trkpt lat="48.70567" lon="1.75833">
        <ele>177.60000610352</ele>
        <time>2012-01-23T14:05:04.000Z</time>
      </trkpt>
      <trkpt lat="48.70571" lon="1.75821">
        <ele>177.60000610352</ele>
        <time>2012-01-23T14:05:11.000Z</time>
      </trkpt>
      <trkpt lat="48.70578" lon="1.75806">
        <ele>177.39999389648</ele>
        <time>2012-01-23T14:05:20.000Z</time>
      </trkpt>
      <trkpt lat="48.70586" lon="1.75795">
        <ele>177.19999694824</ele>
        <time>2012-01-23T14:05:27.000Z</time>
      </trkpt>
      <trkpt lat="48.70593" lon="1.75781">
        <ele>177.39999389648</ele>
        <time>2012-01-23T14:05:35.000Z</time>
      </trkpt>
      <trkpt lat="48.70602" lon="1.75764">
        <ele>177.39999389648</ele>
        <time>2012-01-23T14:05:44.000Z</time>
      </trkpt>
      <trkpt lat="48.70608" lon="1.75755">
        <ele>177.39999389648</ele>
        <time>2012-01-23T14:05:50.000Z</time>
      </trkpt>
      <trkpt lat="48.70615" lon="1.75744">
        <ele>177.39999389648</ele>
        <time>2012-01-23T14:05:58.000Z</time>
      </trkpt>
      <trkpt lat="48.70624" lon="1.75728">
        <ele>177.60000610352</ele>
        <time>2012-01-23T14:06:08.000Z</time>
      </trkpt>
      <trkpt lat="48.70628" lon="1.75716">
        <ele>177.80000305176</ele>
        <time>2012-01-23T14:06:15.000Z</time>
      </trkpt>
      <trkpt lat="48.70628" lon="1.75715">
        <ele>177.60000610352</ele>
        <time>2012-01-23T14:06:18.000Z</time>
      </trkpt>
      <trkpt lat="48.70637" lon="1.75673">
        <ele>178.39999389648</ele>
        <time>2012-01-23T14:08:33.000Z</time>
      </trkpt>
      <trkpt lat="48.70637" lon="1.75664">
        <ele>178.39999389648</ele>
        <time>2012-01-23T14:08:38.000Z</time>
      </trkpt>
      <trkpt lat="48.70635" lon="1.75656">
        <ele>178.60000610352</ele>
        <time>2012-01-23T14:08:42.000Z</time>
      </trkpt>
      <trkpt lat="48.70634" lon="1.75646">
        <ele>178.80000305176</ele>
        <time>2012-01-23T14:08:47.000Z</time>
      </trkpt>
      <trkpt lat="48.70637" lon="1.75638">
        <ele>178.39999389648</ele>
        <time>2012-01-23T14:08:51.000Z</time>
      </trkpt>
      <trkpt lat="48.70639" lon="1.75631">
        <ele>178</ele>
        <time>2012-01-23T14:08:55.000Z</time>
      </trkpt>
      <trkpt lat="48.70641" lon="1.75622">
        <ele>177.80000305176</ele>
        <time>2012-01-23T14:09:00.000Z</time>
      </trkpt>
      <trkpt lat="48.70643" lon="1.75617">
        <ele>177.60000610352</ele>
        <time>2012-01-23T14:09:03.000Z</time>
      </trkpt>
      <trkpt lat="48.70644" lon="1.75613">
        <ele>177.39999389648</ele>
        <time>2012-01-23T14:09:07.000Z</time>
      </trkpt>
      <trkpt lat="48.70647" lon="1.75611">
        <ele>177</ele>
        <time>2012-01-23T14:09:14.000Z</time>
      </trkpt>
      <trkpt lat="48.70669" lon="1.75568">
        <ele>174.60000610352</ele>
        <time>2012-01-23T14:10:16.000Z</time>
      </trkpt>
      <trkpt lat="48.70675" lon="1.75559">
        <ele>174.19999694824</ele>
        <time>2012-01-23T14:10:21.000Z</time>
      </trkpt>
      <trkpt lat="48.70675" lon="1.75558">
        <ele>174.19999694824</ele>
        <time>2012-01-23T14:10:22.000Z</time>
      </trkpt>
      <trkpt lat="48.70674" lon="1.75551">
        <ele>174</ele>
        <time>2012-01-23T14:10:26.000Z</time>
      </trkpt>
      <trkpt lat="48.70676" lon="1.75546">
        <ele>173.80000305176</ele>
        <time>2012-01-23T14:10:30.000Z</time>
      </trkpt>
      <trkpt lat="48.70679" lon="1.75541">
        <ele>173.60000610352</ele>
        <time>2012-01-23T14:10:33.000Z</time>
      </trkpt>
      <trkpt lat="48.70681" lon="1.75538">
        <ele>173.39999389648</ele>
        <time>2012-01-23T14:10:36.000Z</time>
      </trkpt>
      <trkpt lat="48.70684" lon="1.7553">
        <ele>173.19999694824</ele>
        <time>2012-01-23T14:10:41.000Z</time>
      </trkpt>
      <trkpt lat="48.70686" lon="1.75525">
        <ele>173</ele>
        <time>2012-01-23T14:10:44.000Z</time>
      </trkpt>
      <trkpt lat="48.70688" lon="1.75521">
        <ele>173</ele>
        <time>2012-01-23T14:10:47.000Z</time>
      </trkpt>
      <trkpt lat="48.70693" lon="1.75516">
        <ele>172.60000610352</ele>
        <time>2012-01-23T14:10:52.000Z</time>
      </trkpt>
      <trkpt lat="48.70693" lon="1.75514">
        <ele>172.60000610352</ele>
        <time>2012-01-23T14:10:55.000Z</time>
      </trkpt>
    </trkseg>
  </trk>
</gpx>